<?xml version="1.0" encoding="UTF-8" standalone="no" ?>
<gpx xmlns="http://www.topografix.com/GPX/1/1" xmlns:xsi="http://www.w3.org/2001/XMLSchema-instance" xsi:schemaLocation="http://www.topografix.com/GPX/1/1 http://www.topografix.com/GPX/1/1/gpx.xsd" version="1.1" creator="VisuGPX - https://www.visugpx.com">
  <metadata>
    <name>Melisey 30/10/14</name>
    <desc><![CDATA[En Haute-Saône avec Béa, Bruno, Clémentine et Cédric.]]></desc>
  </metadata>
  <trk>
    <name><![CDATA[Melisey 30/10/14_1]]></name>
    <trkseg>
      <trkpt lat="47.75187" lon="6.58357">
        <ele>224</ele>
        <time>2014-10-30T09:10:31.1Z</time>
      </trkpt>
      <trkpt lat="47.75186" lon="6.58356">
        <ele>224</ele>
        <time>2014-10-30T09:10:33.1Z</time>
      </trkpt>
      <trkpt lat="47.75186" lon="6.58356">
        <ele>224</ele>
        <time>2014-10-30T09:10:36.1Z</time>
      </trkpt>
      <trkpt lat="47.75185" lon="6.58357">
        <ele>224</ele>
        <time>2014-10-30T09:10:39.1Z</time>
      </trkpt>
      <trkpt lat="47.75185" lon="6.58358">
        <ele>224</ele>
        <time>2014-10-30T09:10:41.1Z</time>
      </trkpt>
      <trkpt lat="47.75186" lon="6.58358">
        <ele>224</ele>
        <time>2014-10-30T09:10:44.1Z</time>
      </trkpt>
      <trkpt lat="47.75186" lon="6.58358">
        <ele>224</ele>
        <time>2014-10-30T09:10:48.1Z</time>
      </trkpt>
      <trkpt lat="47.75186" lon="6.58358">
        <ele>225</ele>
        <time>2014-10-30T09:10:51.1Z</time>
      </trkpt>
      <trkpt lat="47.75187" lon="6.58357">
        <ele>225</ele>
        <time>2014-10-30T09:10:54.1Z</time>
      </trkpt>
      <trkpt lat="47.75187" lon="6.58357">
        <ele>225</ele>
        <time>2014-10-30T09:10:56.1Z</time>
      </trkpt>
      <trkpt lat="47.75188" lon="6.58358">
        <ele>225</ele>
        <time>2014-10-30T09:10:58.1Z</time>
      </trkpt>
      <trkpt lat="47.75186" lon="6.58359">
        <ele>225</ele>
        <time>2014-10-30T09:11:01.1Z</time>
      </trkpt>
      <trkpt lat="47.75183" lon="6.58362">
        <ele>224</ele>
        <time>2014-10-30T09:11:04.1Z</time>
      </trkpt>
      <trkpt lat="47.75183" lon="6.5837">
        <ele>224</ele>
        <time>2014-10-30T09:11:07.1Z</time>
      </trkpt>
      <trkpt lat="47.75185" lon="6.58376">
        <ele>224</ele>
        <time>2014-10-30T09:11:09.1Z</time>
      </trkpt>
      <trkpt lat="47.75189" lon="6.5838">
        <ele>224</ele>
        <time>2014-10-30T09:11:11.1Z</time>
      </trkpt>
      <trkpt lat="47.75197" lon="6.5838">
        <ele>224</ele>
        <time>2014-10-30T09:11:14.1Z</time>
      </trkpt>
      <trkpt lat="47.75203" lon="6.58386">
        <ele>224</ele>
        <time>2014-10-30T09:11:17.1Z</time>
      </trkpt>
      <trkpt lat="47.75207" lon="6.5839">
        <ele>224</ele>
        <time>2014-10-30T09:11:19.1Z</time>
      </trkpt>
      <trkpt lat="47.75215" lon="6.58397">
        <ele>224</ele>
        <time>2014-10-30T09:11:22.1Z</time>
      </trkpt>
      <trkpt lat="47.7522" lon="6.58404">
        <ele>224</ele>
        <time>2014-10-30T09:11:24.1Z</time>
      </trkpt>
      <trkpt lat="47.75226" lon="6.58411">
        <ele>225</ele>
        <time>2014-10-30T09:11:27.1Z</time>
      </trkpt>
      <trkpt lat="47.75231" lon="6.58415">
        <ele>225</ele>
        <time>2014-10-30T09:11:29.1Z</time>
      </trkpt>
      <trkpt lat="47.75238" lon="6.5842">
        <ele>225</ele>
        <time>2014-10-30T09:11:32.1Z</time>
      </trkpt>
      <trkpt lat="47.75243" lon="6.58421">
        <ele>225</ele>
        <time>2014-10-30T09:11:34.1Z</time>
      </trkpt>
      <trkpt lat="47.75248" lon="6.58418">
        <ele>225</ele>
        <time>2014-10-30T09:11:36.1Z</time>
      </trkpt>
      <trkpt lat="47.75253" lon="6.58412">
        <ele>225</ele>
        <time>2014-10-30T09:11:39.1Z</time>
      </trkpt>
      <trkpt lat="47.75255" lon="6.58411">
        <ele>226</ele>
        <time>2014-10-30T09:11:41.1Z</time>
      </trkpt>
      <trkpt lat="47.75256" lon="6.58409">
        <ele>226</ele>
        <time>2014-10-30T09:11:44.1Z</time>
      </trkpt>
      <trkpt lat="47.75257" lon="6.58406">
        <ele>226</ele>
        <time>2014-10-30T09:11:46.1Z</time>
      </trkpt>
      <trkpt lat="47.75257" lon="6.58404">
        <ele>226</ele>
        <time>2014-10-30T09:11:48.1Z</time>
      </trkpt>
      <trkpt lat="47.75258" lon="6.584">
        <ele>227</ele>
        <time>2014-10-30T09:11:51.1Z</time>
      </trkpt>
      <trkpt lat="47.75259" lon="6.58397">
        <ele>228</ele>
        <time>2014-10-30T09:11:54.1Z</time>
      </trkpt>
      <trkpt lat="47.7526" lon="6.58395">
        <ele>228</ele>
        <time>2014-10-30T09:11:56.1Z</time>
      </trkpt>
      <trkpt lat="47.7526" lon="6.58392">
        <ele>228</ele>
        <time>2014-10-30T09:11:59.1Z</time>
      </trkpt>
      <trkpt lat="47.7526" lon="6.58391">
        <ele>228</ele>
        <time>2014-10-30T09:12:01.1Z</time>
      </trkpt>
      <trkpt lat="47.7526" lon="6.58388">
        <ele>228</ele>
        <time>2014-10-30T09:12:04.1Z</time>
      </trkpt>
      <trkpt lat="47.7526" lon="6.58382">
        <ele>228</ele>
        <time>2014-10-30T09:12:06.1Z</time>
      </trkpt>
      <trkpt lat="47.75262" lon="6.5837">
        <ele>229</ele>
        <time>2014-10-30T09:12:09.1Z</time>
      </trkpt>
      <trkpt lat="47.75266" lon="6.5836">
        <ele>229</ele>
        <time>2014-10-30T09:12:12.1Z</time>
      </trkpt>
      <trkpt lat="47.7527" lon="6.58349">
        <ele>229</ele>
        <time>2014-10-30T09:12:15.1Z</time>
      </trkpt>
      <trkpt lat="47.75273" lon="6.58341">
        <ele>229</ele>
        <time>2014-10-30T09:12:18.1Z</time>
      </trkpt>
      <trkpt lat="47.75275" lon="6.58337">
        <ele>229</ele>
        <time>2014-10-30T09:12:21.1Z</time>
      </trkpt>
      <trkpt lat="47.7528" lon="6.58329">
        <ele>229</ele>
        <time>2014-10-30T09:12:24.1Z</time>
      </trkpt>
      <trkpt lat="47.75287" lon="6.58314">
        <ele>229</ele>
        <time>2014-10-30T09:12:27.1Z</time>
      </trkpt>
      <trkpt lat="47.75294" lon="6.58293">
        <ele>228</ele>
        <time>2014-10-30T09:12:30.1Z</time>
      </trkpt>
      <trkpt lat="47.75298" lon="6.58282">
        <ele>227</ele>
        <time>2014-10-30T09:12:33.1Z</time>
      </trkpt>
      <trkpt lat="47.75299" lon="6.58273">
        <ele>226</ele>
        <time>2014-10-30T09:12:35.1Z</time>
      </trkpt>
      <trkpt lat="47.753" lon="6.58264">
        <ele>225</ele>
        <time>2014-10-30T09:12:37.1Z</time>
      </trkpt>
      <trkpt lat="47.75302" lon="6.58246">
        <ele>225</ele>
        <time>2014-10-30T09:12:40.1Z</time>
      </trkpt>
      <trkpt lat="47.75304" lon="6.58227">
        <ele>225</ele>
        <time>2014-10-30T09:12:43.1Z</time>
      </trkpt>
      <trkpt lat="47.75309" lon="6.58213">
        <ele>225</ele>
        <time>2014-10-30T09:12:46.1Z</time>
      </trkpt>
      <trkpt lat="47.75317" lon="6.58208">
        <ele>225</ele>
        <time>2014-10-30T09:12:48.1Z</time>
      </trkpt>
      <trkpt lat="47.75324" lon="6.58204">
        <ele>225</ele>
        <time>2014-10-30T09:12:50.1Z</time>
      </trkpt>
      <trkpt lat="47.75331" lon="6.58198">
        <ele>225</ele>
        <time>2014-10-30T09:12:52.1Z</time>
      </trkpt>
      <trkpt lat="47.75341" lon="6.5819">
        <ele>226</ele>
        <time>2014-10-30T09:12:55.1Z</time>
      </trkpt>
      <trkpt lat="47.75352" lon="6.58184">
        <ele>226</ele>
        <time>2014-10-30T09:12:58.1Z</time>
      </trkpt>
      <trkpt lat="47.75364" lon="6.5818">
        <ele>227</ele>
        <time>2014-10-30T09:13:01.1Z</time>
      </trkpt>
      <trkpt lat="47.7537" lon="6.58175">
        <ele>227</ele>
        <time>2014-10-30T09:13:03.1Z</time>
      </trkpt>
      <trkpt lat="47.75378" lon="6.58167">
        <ele>228</ele>
        <time>2014-10-30T09:13:06.1Z</time>
      </trkpt>
      <trkpt lat="47.75383" lon="6.58163">
        <ele>228</ele>
        <time>2014-10-30T09:13:08.1Z</time>
      </trkpt>
      <trkpt lat="47.7539" lon="6.58161">
        <ele>229</ele>
        <time>2014-10-30T09:13:11.1Z</time>
      </trkpt>
      <trkpt lat="47.754" lon="6.58169">
        <ele>229</ele>
        <time>2014-10-30T09:13:14.1Z</time>
      </trkpt>
      <trkpt lat="47.75412" lon="6.58182">
        <ele>229</ele>
        <time>2014-10-30T09:13:17.1Z</time>
      </trkpt>
      <trkpt lat="47.75425" lon="6.582">
        <ele>229</ele>
        <time>2014-10-30T09:13:20.1Z</time>
      </trkpt>
      <trkpt lat="47.7543" lon="6.58215">
        <ele>228</ele>
        <time>2014-10-30T09:13:22.1Z</time>
      </trkpt>
      <trkpt lat="47.75433" lon="6.58231">
        <ele>228</ele>
        <time>2014-10-30T09:13:24.1Z</time>
      </trkpt>
      <trkpt lat="47.75436" lon="6.58255">
        <ele>228</ele>
        <time>2014-10-30T09:13:27.1Z</time>
      </trkpt>
      <trkpt lat="47.75437" lon="6.5828">
        <ele>227</ele>
        <time>2014-10-30T09:13:30.1Z</time>
      </trkpt>
      <trkpt lat="47.75439" lon="6.58297">
        <ele>227</ele>
        <time>2014-10-30T09:13:32.1Z</time>
      </trkpt>
      <trkpt lat="47.75439" lon="6.58315">
        <ele>227</ele>
        <time>2014-10-30T09:13:34.1Z</time>
      </trkpt>
      <trkpt lat="47.75441" lon="6.58339">
        <ele>226</ele>
        <time>2014-10-30T09:13:37.1Z</time>
      </trkpt>
      <trkpt lat="47.75443" lon="6.58352">
        <ele>227</ele>
        <time>2014-10-30T09:13:39.1Z</time>
      </trkpt>
      <trkpt lat="47.75445" lon="6.58363">
        <ele>227</ele>
        <time>2014-10-30T09:13:41.1Z</time>
      </trkpt>
      <trkpt lat="47.75447" lon="6.58373">
        <ele>227</ele>
        <time>2014-10-30T09:13:44.1Z</time>
      </trkpt>
      <trkpt lat="47.75449" lon="6.58381">
        <ele>227</ele>
        <time>2014-10-30T09:13:46.1Z</time>
      </trkpt>
      <trkpt lat="47.75454" lon="6.58384">
        <ele>227</ele>
        <time>2014-10-30T09:13:48.1Z</time>
      </trkpt>
      <trkpt lat="47.75463" lon="6.58392">
        <ele>227</ele>
        <time>2014-10-30T09:13:51.1Z</time>
      </trkpt>
      <trkpt lat="47.75474" lon="6.58403">
        <ele>226</ele>
        <time>2014-10-30T09:13:54.1Z</time>
      </trkpt>
      <trkpt lat="47.75482" lon="6.58412">
        <ele>226</ele>
        <time>2014-10-30T09:13:56.1Z</time>
      </trkpt>
      <trkpt lat="47.75495" lon="6.58425">
        <ele>226</ele>
        <time>2014-10-30T09:13:59.1Z</time>
      </trkpt>
      <trkpt lat="47.75504" lon="6.58434">
        <ele>226</ele>
        <time>2014-10-30T09:14:01.1Z</time>
      </trkpt>
      <trkpt lat="47.75519" lon="6.58446">
        <ele>226</ele>
        <time>2014-10-30T09:14:04.1Z</time>
      </trkpt>
      <trkpt lat="47.75534" lon="6.58455">
        <ele>226</ele>
        <time>2014-10-30T09:14:07.1Z</time>
      </trkpt>
      <trkpt lat="47.75545" lon="6.58459">
        <ele>226</ele>
        <time>2014-10-30T09:14:09.1Z</time>
      </trkpt>
      <trkpt lat="47.75561" lon="6.58462">
        <ele>226</ele>
        <time>2014-10-30T09:14:12.1Z</time>
      </trkpt>
      <trkpt lat="47.75572" lon="6.58463">
        <ele>226</ele>
        <time>2014-10-30T09:14:14.1Z</time>
      </trkpt>
      <trkpt lat="47.75588" lon="6.58464">
        <ele>226</ele>
        <time>2014-10-30T09:14:17.1Z</time>
      </trkpt>
      <trkpt lat="47.756" lon="6.58468">
        <ele>227</ele>
        <time>2014-10-30T09:14:19.1Z</time>
      </trkpt>
      <trkpt lat="47.7561" lon="6.58475">
        <ele>227</ele>
        <time>2014-10-30T09:14:21.1Z</time>
      </trkpt>
      <trkpt lat="47.7562" lon="6.58483">
        <ele>227</ele>
        <time>2014-10-30T09:14:23.1Z</time>
      </trkpt>
      <trkpt lat="47.75635" lon="6.58495">
        <ele>227</ele>
        <time>2014-10-30T09:14:26.1Z</time>
      </trkpt>
      <trkpt lat="47.75645" lon="6.58501">
        <ele>228</ele>
        <time>2014-10-30T09:14:28.1Z</time>
      </trkpt>
      <trkpt lat="47.75653" lon="6.58503">
        <ele>228</ele>
        <time>2014-10-30T09:14:30.1Z</time>
      </trkpt>
      <trkpt lat="47.75663" lon="6.58503">
        <ele>228</ele>
        <time>2014-10-30T09:14:32.1Z</time>
      </trkpt>
      <trkpt lat="47.7568" lon="6.58503">
        <ele>229</ele>
        <time>2014-10-30T09:14:35.1Z</time>
      </trkpt>
      <trkpt lat="47.75692" lon="6.58505">
        <ele>228</ele>
        <time>2014-10-30T09:14:37.1Z</time>
      </trkpt>
      <trkpt lat="47.75703" lon="6.5851">
        <ele>228</ele>
        <time>2014-10-30T09:14:39.1Z</time>
      </trkpt>
      <trkpt lat="47.75718" lon="6.58519">
        <ele>227</ele>
        <time>2014-10-30T09:14:42.1Z</time>
      </trkpt>
      <trkpt lat="47.75732" lon="6.58526">
        <ele>227</ele>
        <time>2014-10-30T09:14:45.1Z</time>
      </trkpt>
      <trkpt lat="47.75747" lon="6.58534">
        <ele>227</ele>
        <time>2014-10-30T09:14:48.1Z</time>
      </trkpt>
      <trkpt lat="47.75762" lon="6.5854">
        <ele>228</ele>
        <time>2014-10-30T09:14:51.1Z</time>
      </trkpt>
      <trkpt lat="47.75777" lon="6.58546">
        <ele>228</ele>
        <time>2014-10-30T09:14:54.1Z</time>
      </trkpt>
      <trkpt lat="47.75787" lon="6.58551">
        <ele>228</ele>
        <time>2014-10-30T09:14:56.1Z</time>
      </trkpt>
      <trkpt lat="47.75801" lon="6.58557">
        <ele>228</ele>
        <time>2014-10-30T09:14:59.1Z</time>
      </trkpt>
      <trkpt lat="47.7581" lon="6.58559">
        <ele>228</ele>
        <time>2014-10-30T09:15:01.1Z</time>
      </trkpt>
      <trkpt lat="47.7582" lon="6.5856">
        <ele>229</ele>
        <time>2014-10-30T09:15:03.1Z</time>
      </trkpt>
      <trkpt lat="47.7583" lon="6.58561">
        <ele>229</ele>
        <time>2014-10-30T09:15:05.1Z</time>
      </trkpt>
      <trkpt lat="47.75845" lon="6.5856">
        <ele>228</ele>
        <time>2014-10-30T09:15:08.1Z</time>
      </trkpt>
      <trkpt lat="47.75856" lon="6.58559">
        <ele>228</ele>
        <time>2014-10-30T09:15:10.1Z</time>
      </trkpt>
      <trkpt lat="47.75871" lon="6.58557">
        <ele>228</ele>
        <time>2014-10-30T09:15:13.1Z</time>
      </trkpt>
      <trkpt lat="47.7588" lon="6.58555">
        <ele>228</ele>
        <time>2014-10-30T09:15:15.1Z</time>
      </trkpt>
      <trkpt lat="47.75886" lon="6.58554">
        <ele>228</ele>
        <time>2014-10-30T09:15:17.1Z</time>
      </trkpt>
      <trkpt lat="47.75894" lon="6.58553">
        <ele>227</ele>
        <time>2014-10-30T09:15:20.1Z</time>
      </trkpt>
      <trkpt lat="47.759" lon="6.58552">
        <ele>227</ele>
        <time>2014-10-30T09:15:23.1Z</time>
      </trkpt>
      <trkpt lat="47.75909" lon="6.58552">
        <ele>227</ele>
        <time>2014-10-30T09:15:26.1Z</time>
      </trkpt>
      <trkpt lat="47.7592" lon="6.5855">
        <ele>227</ele>
        <time>2014-10-30T09:15:29.1Z</time>
      </trkpt>
      <trkpt lat="47.75928" lon="6.58548">
        <ele>227</ele>
        <time>2014-10-30T09:15:31.1Z</time>
      </trkpt>
      <trkpt lat="47.7594" lon="6.58544">
        <ele>227</ele>
        <time>2014-10-30T09:15:34.1Z</time>
      </trkpt>
      <trkpt lat="47.75955" lon="6.58538">
        <ele>228</ele>
        <time>2014-10-30T09:15:37.1Z</time>
      </trkpt>
      <trkpt lat="47.75972" lon="6.5853">
        <ele>228</ele>
        <time>2014-10-30T09:15:40.1Z</time>
      </trkpt>
      <trkpt lat="47.75988" lon="6.58522">
        <ele>227</ele>
        <time>2014-10-30T09:15:43.1Z</time>
      </trkpt>
      <trkpt lat="47.75998" lon="6.58517">
        <ele>227</ele>
        <time>2014-10-30T09:15:45.1Z</time>
      </trkpt>
      <trkpt lat="47.76013" lon="6.58511">
        <ele>227</ele>
        <time>2014-10-30T09:15:48.1Z</time>
      </trkpt>
      <trkpt lat="47.76029" lon="6.58505">
        <ele>228</ele>
        <time>2014-10-30T09:15:51.1Z</time>
      </trkpt>
      <trkpt lat="47.76041" lon="6.58502">
        <ele>228</ele>
        <time>2014-10-30T09:15:54.1Z</time>
      </trkpt>
      <trkpt lat="47.76053" lon="6.585">
        <ele>228</ele>
        <time>2014-10-30T09:15:57.1Z</time>
      </trkpt>
      <trkpt lat="47.7607" lon="6.58496">
        <ele>228</ele>
        <time>2014-10-30T09:16:00.1Z</time>
      </trkpt>
      <trkpt lat="47.76087" lon="6.58493">
        <ele>228</ele>
        <time>2014-10-30T09:16:03.1Z</time>
      </trkpt>
      <trkpt lat="47.76105" lon="6.58493">
        <ele>228</ele>
        <time>2014-10-30T09:16:06.1Z</time>
      </trkpt>
      <trkpt lat="47.76122" lon="6.58494">
        <ele>228</ele>
        <time>2014-10-30T09:16:09.1Z</time>
      </trkpt>
      <trkpt lat="47.76133" lon="6.58495">
        <ele>228</ele>
        <time>2014-10-30T09:16:11.1Z</time>
      </trkpt>
      <trkpt lat="47.76149" lon="6.58495">
        <ele>228</ele>
        <time>2014-10-30T09:16:14.1Z</time>
      </trkpt>
      <trkpt lat="47.76158" lon="6.58493">
        <ele>228</ele>
        <time>2014-10-30T09:16:16.1Z</time>
      </trkpt>
      <trkpt lat="47.76173" lon="6.58488">
        <ele>229</ele>
        <time>2014-10-30T09:16:19.1Z</time>
      </trkpt>
      <trkpt lat="47.7619" lon="6.58481">
        <ele>229</ele>
        <time>2014-10-30T09:16:22.1Z</time>
      </trkpt>
      <trkpt lat="47.76202" lon="6.58475">
        <ele>229</ele>
        <time>2014-10-30T09:16:24.1Z</time>
      </trkpt>
      <trkpt lat="47.76219" lon="6.58467">
        <ele>229</ele>
        <time>2014-10-30T09:16:27.1Z</time>
      </trkpt>
      <trkpt lat="47.76229" lon="6.58462">
        <ele>228</ele>
        <time>2014-10-30T09:16:29.1Z</time>
      </trkpt>
      <trkpt lat="47.76244" lon="6.58454">
        <ele>229</ele>
        <time>2014-10-30T09:16:32.1Z</time>
      </trkpt>
      <trkpt lat="47.76255" lon="6.58451">
        <ele>230</ele>
        <time>2014-10-30T09:16:34.1Z</time>
      </trkpt>
      <trkpt lat="47.76266" lon="6.58445">
        <ele>230</ele>
        <time>2014-10-30T09:16:36.1Z</time>
      </trkpt>
      <trkpt lat="47.76279" lon="6.5844">
        <ele>229</ele>
        <time>2014-10-30T09:16:39.1Z</time>
      </trkpt>
      <trkpt lat="47.76284" lon="6.58449">
        <ele>228</ele>
        <time>2014-10-30T09:16:42.1Z</time>
      </trkpt>
      <trkpt lat="47.76286" lon="6.58457">
        <ele>228</ele>
        <time>2014-10-30T09:16:44.1Z</time>
      </trkpt>
      <trkpt lat="47.76288" lon="6.58471">
        <ele>229</ele>
        <time>2014-10-30T09:16:47.1Z</time>
      </trkpt>
      <trkpt lat="47.76291" lon="6.58483">
        <ele>228</ele>
        <time>2014-10-30T09:16:49.1Z</time>
      </trkpt>
      <trkpt lat="47.76294" lon="6.585">
        <ele>229</ele>
        <time>2014-10-30T09:16:52.1Z</time>
      </trkpt>
      <trkpt lat="47.76297" lon="6.58511">
        <ele>228</ele>
        <time>2014-10-30T09:16:54.1Z</time>
      </trkpt>
      <trkpt lat="47.76303" lon="6.58525">
        <ele>229</ele>
        <time>2014-10-30T09:16:57.1Z</time>
      </trkpt>
      <trkpt lat="47.76308" lon="6.58533">
        <ele>229</ele>
        <time>2014-10-30T09:16:59.1Z</time>
      </trkpt>
      <trkpt lat="47.76314" lon="6.58539">
        <ele>229</ele>
        <time>2014-10-30T09:17:01.1Z</time>
      </trkpt>
      <trkpt lat="47.76322" lon="6.5854">
        <ele>228</ele>
        <time>2014-10-30T09:17:04.1Z</time>
      </trkpt>
      <trkpt lat="47.76332" lon="6.58537">
        <ele>229</ele>
        <time>2014-10-30T09:17:07.1Z</time>
      </trkpt>
      <trkpt lat="47.76339" lon="6.58535">
        <ele>229</ele>
        <time>2014-10-30T09:17:09.1Z</time>
      </trkpt>
      <trkpt lat="47.7635" lon="6.58537">
        <ele>230</ele>
        <time>2014-10-30T09:17:12.1Z</time>
      </trkpt>
      <trkpt lat="47.76358" lon="6.58541">
        <ele>231</ele>
        <time>2014-10-30T09:17:14.1Z</time>
      </trkpt>
      <trkpt lat="47.76367" lon="6.58548">
        <ele>231</ele>
        <time>2014-10-30T09:17:17.1Z</time>
      </trkpt>
      <trkpt lat="47.76374" lon="6.58557">
        <ele>232</ele>
        <time>2014-10-30T09:17:20.1Z</time>
      </trkpt>
      <trkpt lat="47.76379" lon="6.58563">
        <ele>232</ele>
        <time>2014-10-30T09:17:22.1Z</time>
      </trkpt>
      <trkpt lat="47.76387" lon="6.58571">
        <ele>233</ele>
        <time>2014-10-30T09:17:25.1Z</time>
      </trkpt>
      <trkpt lat="47.76392" lon="6.58574">
        <ele>233</ele>
        <time>2014-10-30T09:17:27.1Z</time>
      </trkpt>
      <trkpt lat="47.76399" lon="6.58578">
        <ele>234</ele>
        <time>2014-10-30T09:17:30.1Z</time>
      </trkpt>
      <trkpt lat="47.7641" lon="6.58585">
        <ele>234</ele>
        <time>2014-10-30T09:17:33.1Z</time>
      </trkpt>
      <trkpt lat="47.76423" lon="6.58591">
        <ele>233</ele>
        <time>2014-10-30T09:17:36.1Z</time>
      </trkpt>
      <trkpt lat="47.7643" lon="6.58598">
        <ele>233</ele>
        <time>2014-10-30T09:17:38.1Z</time>
      </trkpt>
      <trkpt lat="47.76437" lon="6.58602">
        <ele>232</ele>
        <time>2014-10-30T09:17:40.1Z</time>
      </trkpt>
      <trkpt lat="47.76447" lon="6.58611">
        <ele>231</ele>
        <time>2014-10-30T09:17:43.1Z</time>
      </trkpt>
      <trkpt lat="47.76453" lon="6.58616">
        <ele>231</ele>
        <time>2014-10-30T09:17:46.1Z</time>
      </trkpt>
      <trkpt lat="47.76453" lon="6.58617">
        <ele>231</ele>
        <time>2014-10-30T09:17:48.1Z</time>
      </trkpt>
      <trkpt lat="47.76456" lon="6.58619">
        <ele>231</ele>
        <time>2014-10-30T09:17:51.1Z</time>
      </trkpt>
      <trkpt lat="47.76458" lon="6.58622">
        <ele>231</ele>
        <time>2014-10-30T09:17:53.1Z</time>
      </trkpt>
      <trkpt lat="47.76466" lon="6.58628">
        <ele>231</ele>
        <time>2014-10-30T09:17:56.1Z</time>
      </trkpt>
      <trkpt lat="47.76473" lon="6.58634">
        <ele>231</ele>
        <time>2014-10-30T09:17:58.1Z</time>
      </trkpt>
      <trkpt lat="47.76484" lon="6.58647">
        <ele>231</ele>
        <time>2014-10-30T09:18:01.1Z</time>
      </trkpt>
      <trkpt lat="47.76494" lon="6.5866">
        <ele>231</ele>
        <time>2014-10-30T09:18:04.1Z</time>
      </trkpt>
      <trkpt lat="47.76505" lon="6.58673">
        <ele>231</ele>
        <time>2014-10-30T09:18:07.1Z</time>
      </trkpt>
      <trkpt lat="47.76516" lon="6.58688">
        <ele>231</ele>
        <time>2014-10-30T09:18:10.1Z</time>
      </trkpt>
      <trkpt lat="47.76523" lon="6.58701">
        <ele>231</ele>
        <time>2014-10-30T09:18:12.1Z</time>
      </trkpt>
      <trkpt lat="47.7653" lon="6.58718">
        <ele>231</ele>
        <time>2014-10-30T09:18:15.1Z</time>
      </trkpt>
      <trkpt lat="47.76537" lon="6.58728">
        <ele>231</ele>
        <time>2014-10-30T09:18:17.1Z</time>
      </trkpt>
      <trkpt lat="47.76547" lon="6.58741">
        <ele>230</ele>
        <time>2014-10-30T09:18:20.1Z</time>
      </trkpt>
      <trkpt lat="47.76555" lon="6.58745">
        <ele>230</ele>
        <time>2014-10-30T09:18:22.1Z</time>
      </trkpt>
      <trkpt lat="47.76565" lon="6.58751">
        <ele>231</ele>
        <time>2014-10-30T09:18:25.1Z</time>
      </trkpt>
      <trkpt lat="47.76572" lon="6.58753">
        <ele>231</ele>
        <time>2014-10-30T09:18:27.1Z</time>
      </trkpt>
      <trkpt lat="47.76584" lon="6.5876">
        <ele>231</ele>
        <time>2014-10-30T09:18:30.1Z</time>
      </trkpt>
      <trkpt lat="47.76594" lon="6.58773">
        <ele>232</ele>
        <time>2014-10-30T09:18:33.1Z</time>
      </trkpt>
      <trkpt lat="47.76601" lon="6.58789">
        <ele>233</ele>
        <time>2014-10-30T09:18:36.1Z</time>
      </trkpt>
      <trkpt lat="47.76604" lon="6.58799">
        <ele>233</ele>
        <time>2014-10-30T09:18:38.1Z</time>
      </trkpt>
      <trkpt lat="47.76606" lon="6.58809">
        <ele>233</ele>
        <time>2014-10-30T09:18:40.1Z</time>
      </trkpt>
      <trkpt lat="47.76609" lon="6.58825">
        <ele>233</ele>
        <time>2014-10-30T09:18:43.1Z</time>
      </trkpt>
      <trkpt lat="47.76612" lon="6.58843">
        <ele>234</ele>
        <time>2014-10-30T09:18:46.1Z</time>
      </trkpt>
      <trkpt lat="47.76614" lon="6.58859">
        <ele>233</ele>
        <time>2014-10-30T09:18:49.1Z</time>
      </trkpt>
      <trkpt lat="47.76613" lon="6.58872">
        <ele>234</ele>
        <time>2014-10-30T09:18:51.1Z</time>
      </trkpt>
      <trkpt lat="47.76612" lon="6.58888">
        <ele>234</ele>
        <time>2014-10-30T09:18:54.1Z</time>
      </trkpt>
      <trkpt lat="47.7661" lon="6.58907">
        <ele>235</ele>
        <time>2014-10-30T09:18:57.1Z</time>
      </trkpt>
      <trkpt lat="47.76609" lon="6.58917">
        <ele>235</ele>
        <time>2014-10-30T09:18:59.1Z</time>
      </trkpt>
      <trkpt lat="47.76611" lon="6.58932">
        <ele>236</ele>
        <time>2014-10-30T09:19:02.1Z</time>
      </trkpt>
      <trkpt lat="47.76612" lon="6.58941">
        <ele>236</ele>
        <time>2014-10-30T09:19:04.1Z</time>
      </trkpt>
      <trkpt lat="47.76615" lon="6.5895">
        <ele>236</ele>
        <time>2014-10-30T09:19:07.1Z</time>
      </trkpt>
      <trkpt lat="47.7662" lon="6.58952">
        <ele>235</ele>
        <time>2014-10-30T09:19:10.1Z</time>
      </trkpt>
      <trkpt lat="47.76626" lon="6.58953">
        <ele>235</ele>
        <time>2014-10-30T09:19:13.1Z</time>
      </trkpt>
      <trkpt lat="47.76632" lon="6.5895">
        <ele>235</ele>
        <time>2014-10-30T09:19:15.1Z</time>
      </trkpt>
      <trkpt lat="47.76642" lon="6.58944">
        <ele>236</ele>
        <time>2014-10-30T09:19:18.1Z</time>
      </trkpt>
      <trkpt lat="47.76651" lon="6.58941">
        <ele>236</ele>
        <time>2014-10-30T09:19:21.1Z</time>
      </trkpt>
      <trkpt lat="47.76658" lon="6.58941">
        <ele>236</ele>
        <time>2014-10-30T09:19:23.1Z</time>
      </trkpt>
      <trkpt lat="47.76665" lon="6.58941">
        <ele>237</ele>
        <time>2014-10-30T09:19:25.1Z</time>
      </trkpt>
      <trkpt lat="47.76671" lon="6.58941">
        <ele>237</ele>
        <time>2014-10-30T09:19:27.1Z</time>
      </trkpt>
      <trkpt lat="47.7668" lon="6.58942">
        <ele>237</ele>
        <time>2014-10-30T09:19:30.1Z</time>
      </trkpt>
      <trkpt lat="47.76686" lon="6.58943">
        <ele>238</ele>
        <time>2014-10-30T09:19:32.1Z</time>
      </trkpt>
      <trkpt lat="47.76691" lon="6.58944">
        <ele>238</ele>
        <time>2014-10-30T09:19:34.1Z</time>
      </trkpt>
      <trkpt lat="47.76698" lon="6.58946">
        <ele>239</ele>
        <time>2014-10-30T09:19:37.1Z</time>
      </trkpt>
      <trkpt lat="47.76708" lon="6.58946">
        <ele>239</ele>
        <time>2014-10-30T09:19:40.1Z</time>
      </trkpt>
      <trkpt lat="47.76714" lon="6.58947">
        <ele>240</ele>
        <time>2014-10-30T09:19:42.1Z</time>
      </trkpt>
      <trkpt lat="47.76723" lon="6.58947">
        <ele>240</ele>
        <time>2014-10-30T09:19:45.1Z</time>
      </trkpt>
      <trkpt lat="47.76733" lon="6.58942">
        <ele>241</ele>
        <time>2014-10-30T09:19:48.1Z</time>
      </trkpt>
      <trkpt lat="47.76738" lon="6.58938">
        <ele>241</ele>
        <time>2014-10-30T09:19:50.1Z</time>
      </trkpt>
      <trkpt lat="47.76745" lon="6.58936">
        <ele>242</ele>
        <time>2014-10-30T09:19:53.1Z</time>
      </trkpt>
      <trkpt lat="47.76749" lon="6.58934">
        <ele>243</ele>
        <time>2014-10-30T09:19:56.1Z</time>
      </trkpt>
      <trkpt lat="47.76755" lon="6.58931">
        <ele>244</ele>
        <time>2014-10-30T09:19:59.1Z</time>
      </trkpt>
      <trkpt lat="47.76759" lon="6.58927">
        <ele>244</ele>
        <time>2014-10-30T09:20:01.1Z</time>
      </trkpt>
      <trkpt lat="47.76765" lon="6.58921">
        <ele>244</ele>
        <time>2014-10-30T09:20:04.1Z</time>
      </trkpt>
      <trkpt lat="47.76772" lon="6.58912">
        <ele>244</ele>
        <time>2014-10-30T09:20:07.1Z</time>
      </trkpt>
      <trkpt lat="47.76777" lon="6.58905">
        <ele>243</ele>
        <time>2014-10-30T09:20:09.1Z</time>
      </trkpt>
      <trkpt lat="47.76787" lon="6.58896">
        <ele>243</ele>
        <time>2014-10-30T09:20:12.1Z</time>
      </trkpt>
      <trkpt lat="47.76791" lon="6.58888">
        <ele>242</ele>
        <time>2014-10-30T09:20:14.1Z</time>
      </trkpt>
      <trkpt lat="47.76796" lon="6.58878">
        <ele>242</ele>
        <time>2014-10-30T09:20:17.1Z</time>
      </trkpt>
      <trkpt lat="47.76803" lon="6.58869">
        <ele>242</ele>
        <time>2014-10-30T09:20:20.1Z</time>
      </trkpt>
      <trkpt lat="47.76807" lon="6.58864">
        <ele>242</ele>
        <time>2014-10-30T09:20:22.1Z</time>
      </trkpt>
      <trkpt lat="47.7681" lon="6.58853">
        <ele>242</ele>
        <time>2014-10-30T09:20:24.1Z</time>
      </trkpt>
      <trkpt lat="47.76818" lon="6.58838">
        <ele>241</ele>
        <time>2014-10-30T09:20:27.1Z</time>
      </trkpt>
      <trkpt lat="47.76826" lon="6.5883">
        <ele>241</ele>
        <time>2014-10-30T09:20:29.1Z</time>
      </trkpt>
      <trkpt lat="47.76832" lon="6.58823">
        <ele>241</ele>
        <time>2014-10-30T09:20:31.1Z</time>
      </trkpt>
      <trkpt lat="47.76841" lon="6.58808">
        <ele>241</ele>
        <time>2014-10-30T09:20:34.1Z</time>
      </trkpt>
      <trkpt lat="47.76851" lon="6.58794">
        <ele>241</ele>
        <time>2014-10-30T09:20:37.1Z</time>
      </trkpt>
      <trkpt lat="47.76855" lon="6.58787">
        <ele>241</ele>
        <time>2014-10-30T09:20:39.1Z</time>
      </trkpt>
      <trkpt lat="47.7686" lon="6.58779">
        <ele>242</ele>
        <time>2014-10-30T09:20:42.1Z</time>
      </trkpt>
      <trkpt lat="47.76863" lon="6.5877">
        <ele>243</ele>
        <time>2014-10-30T09:20:45.1Z</time>
      </trkpt>
      <trkpt lat="47.76864" lon="6.58765">
        <ele>244</ele>
        <time>2014-10-30T09:20:47.1Z</time>
      </trkpt>
      <trkpt lat="47.76867" lon="6.58758">
        <ele>245</ele>
        <time>2014-10-30T09:20:50.1Z</time>
      </trkpt>
      <trkpt lat="47.76868" lon="6.58753">
        <ele>245</ele>
        <time>2014-10-30T09:20:52.1Z</time>
      </trkpt>
      <trkpt lat="47.76869" lon="6.58748">
        <ele>246</ele>
        <time>2014-10-30T09:20:54.1Z</time>
      </trkpt>
      <trkpt lat="47.76871" lon="6.58741">
        <ele>247</ele>
        <time>2014-10-30T09:20:57.1Z</time>
      </trkpt>
      <trkpt lat="47.76873" lon="6.58736">
        <ele>247</ele>
        <time>2014-10-30T09:21:00.1Z</time>
      </trkpt>
      <trkpt lat="47.76875" lon="6.58733">
        <ele>248</ele>
        <time>2014-10-30T09:21:02.1Z</time>
      </trkpt>
      <trkpt lat="47.76877" lon="6.5873">
        <ele>248</ele>
        <time>2014-10-30T09:21:04.1Z</time>
      </trkpt>
      <trkpt lat="47.76882" lon="6.58729">
        <ele>248</ele>
        <time>2014-10-30T09:21:07.1Z</time>
      </trkpt>
      <trkpt lat="47.76886" lon="6.58729">
        <ele>249</ele>
        <time>2014-10-30T09:21:09.1Z</time>
      </trkpt>
      <trkpt lat="47.76889" lon="6.5873">
        <ele>249</ele>
        <time>2014-10-30T09:21:12.1Z</time>
      </trkpt>
      <trkpt lat="47.76892" lon="6.58731">
        <ele>249</ele>
        <time>2014-10-30T09:21:14.1Z</time>
      </trkpt>
      <trkpt lat="47.76897" lon="6.58733">
        <ele>250</ele>
        <time>2014-10-30T09:21:17.1Z</time>
      </trkpt>
      <trkpt lat="47.76902" lon="6.58735">
        <ele>250</ele>
        <time>2014-10-30T09:21:20.1Z</time>
      </trkpt>
      <trkpt lat="47.76905" lon="6.58737">
        <ele>251</ele>
        <time>2014-10-30T09:21:22.1Z</time>
      </trkpt>
      <trkpt lat="47.76908" lon="6.58741">
        <ele>251</ele>
        <time>2014-10-30T09:21:25.1Z</time>
      </trkpt>
      <trkpt lat="47.76911" lon="6.58744">
        <ele>252</ele>
        <time>2014-10-30T09:21:27.1Z</time>
      </trkpt>
      <trkpt lat="47.76914" lon="6.58748">
        <ele>252</ele>
        <time>2014-10-30T09:21:30.1Z</time>
      </trkpt>
      <trkpt lat="47.76916" lon="6.58752">
        <ele>253</ele>
        <time>2014-10-30T09:21:32.1Z</time>
      </trkpt>
      <trkpt lat="47.76918" lon="6.58754">
        <ele>253</ele>
        <time>2014-10-30T09:21:34.1Z</time>
      </trkpt>
      <trkpt lat="47.76921" lon="6.58758">
        <ele>253</ele>
        <time>2014-10-30T09:21:37.1Z</time>
      </trkpt>
      <trkpt lat="47.76923" lon="6.5876">
        <ele>254</ele>
        <time>2014-10-30T09:21:39.1Z</time>
      </trkpt>
      <trkpt lat="47.76926" lon="6.58764">
        <ele>254</ele>
        <time>2014-10-30T09:21:42.1Z</time>
      </trkpt>
      <trkpt lat="47.76928" lon="6.58768">
        <ele>255</ele>
        <time>2014-10-30T09:21:45.1Z</time>
      </trkpt>
      <trkpt lat="47.7693" lon="6.58771">
        <ele>255</ele>
        <time>2014-10-30T09:21:47.1Z</time>
      </trkpt>
      <trkpt lat="47.76933" lon="6.58775">
        <ele>256</ele>
        <time>2014-10-30T09:21:50.1Z</time>
      </trkpt>
      <trkpt lat="47.76935" lon="6.58778">
        <ele>256</ele>
        <time>2014-10-30T09:21:52.1Z</time>
      </trkpt>
      <trkpt lat="47.76937" lon="6.58782">
        <ele>257</ele>
        <time>2014-10-30T09:21:55.1Z</time>
      </trkpt>
      <trkpt lat="47.7694" lon="6.58788">
        <ele>257</ele>
        <time>2014-10-30T09:21:58.1Z</time>
      </trkpt>
      <trkpt lat="47.76944" lon="6.58795">
        <ele>257</ele>
        <time>2014-10-30T09:22:01.1Z</time>
      </trkpt>
      <trkpt lat="47.76947" lon="6.58801">
        <ele>257</ele>
        <time>2014-10-30T09:22:03.1Z</time>
      </trkpt>
      <trkpt lat="47.76954" lon="6.58811">
        <ele>257</ele>
        <time>2014-10-30T09:22:06.1Z</time>
      </trkpt>
      <trkpt lat="47.76958" lon="6.58817">
        <ele>257</ele>
        <time>2014-10-30T09:22:08.1Z</time>
      </trkpt>
      <trkpt lat="47.76963" lon="6.58827">
        <ele>257</ele>
        <time>2014-10-30T09:22:11.1Z</time>
      </trkpt>
      <trkpt lat="47.7697" lon="6.58838">
        <ele>256</ele>
        <time>2014-10-30T09:22:14.1Z</time>
      </trkpt>
      <trkpt lat="47.76975" lon="6.58845">
        <ele>256</ele>
        <time>2014-10-30T09:22:16.1Z</time>
      </trkpt>
      <trkpt lat="47.76981" lon="6.58855">
        <ele>256</ele>
        <time>2014-10-30T09:22:19.1Z</time>
      </trkpt>
      <trkpt lat="47.76987" lon="6.58864">
        <ele>257</ele>
        <time>2014-10-30T09:22:22.1Z</time>
      </trkpt>
      <trkpt lat="47.76991" lon="6.5887">
        <ele>257</ele>
        <time>2014-10-30T09:22:24.1Z</time>
      </trkpt>
      <trkpt lat="47.76998" lon="6.5888">
        <ele>258</ele>
        <time>2014-10-30T09:22:27.1Z</time>
      </trkpt>
      <trkpt lat="47.77002" lon="6.58887">
        <ele>258</ele>
        <time>2014-10-30T09:22:29.1Z</time>
      </trkpt>
      <trkpt lat="47.77008" lon="6.58898">
        <ele>258</ele>
        <time>2014-10-30T09:22:32.1Z</time>
      </trkpt>
      <trkpt lat="47.77011" lon="6.58907">
        <ele>258</ele>
        <time>2014-10-30T09:22:34.1Z</time>
      </trkpt>
      <trkpt lat="47.77015" lon="6.58917">
        <ele>259</ele>
        <time>2014-10-30T09:22:37.1Z</time>
      </trkpt>
      <trkpt lat="47.77018" lon="6.58923">
        <ele>260</ele>
        <time>2014-10-30T09:22:39.1Z</time>
      </trkpt>
      <trkpt lat="47.77021" lon="6.58932">
        <ele>260</ele>
        <time>2014-10-30T09:22:41.1Z</time>
      </trkpt>
      <trkpt lat="47.77025" lon="6.58942">
        <ele>259</ele>
        <time>2014-10-30T09:22:43.1Z</time>
      </trkpt>
      <trkpt lat="47.77031" lon="6.58957">
        <ele>259</ele>
        <time>2014-10-30T09:22:46.1Z</time>
      </trkpt>
      <trkpt lat="47.77033" lon="6.58969">
        <ele>259</ele>
        <time>2014-10-30T09:22:48.1Z</time>
      </trkpt>
      <trkpt lat="47.77037" lon="6.58984">
        <ele>258</ele>
        <time>2014-10-30T09:22:51.1Z</time>
      </trkpt>
      <trkpt lat="47.7704" lon="6.58996">
        <ele>259</ele>
        <time>2014-10-30T09:22:54.1Z</time>
      </trkpt>
      <trkpt lat="47.77044" lon="6.59004">
        <ele>259</ele>
        <time>2014-10-30T09:22:56.1Z</time>
      </trkpt>
      <trkpt lat="47.77047" lon="6.59014">
        <ele>259</ele>
        <time>2014-10-30T09:22:58.1Z</time>
      </trkpt>
      <trkpt lat="47.7705" lon="6.59024">
        <ele>260</ele>
        <time>2014-10-30T09:23:00.1Z</time>
      </trkpt>
      <trkpt lat="47.77053" lon="6.59038">
        <ele>261</ele>
        <time>2014-10-30T09:23:03.1Z</time>
      </trkpt>
      <trkpt lat="47.77055" lon="6.59048">
        <ele>262</ele>
        <time>2014-10-30T09:23:06.1Z</time>
      </trkpt>
      <trkpt lat="47.77058" lon="6.59054">
        <ele>262</ele>
        <time>2014-10-30T09:23:08.1Z</time>
      </trkpt>
      <trkpt lat="47.77062" lon="6.5906">
        <ele>263</ele>
        <time>2014-10-30T09:23:10.1Z</time>
      </trkpt>
      <trkpt lat="47.77066" lon="6.59066">
        <ele>263</ele>
        <time>2014-10-30T09:23:12.1Z</time>
      </trkpt>
      <trkpt lat="47.77072" lon="6.59073">
        <ele>262</ele>
        <time>2014-10-30T09:23:15.1Z</time>
      </trkpt>
      <trkpt lat="47.77079" lon="6.59077">
        <ele>262</ele>
        <time>2014-10-30T09:23:17.1Z</time>
      </trkpt>
      <trkpt lat="47.77087" lon="6.5908">
        <ele>262</ele>
        <time>2014-10-30T09:23:20.1Z</time>
      </trkpt>
      <trkpt lat="47.77097" lon="6.59086">
        <ele>262</ele>
        <time>2014-10-30T09:23:23.1Z</time>
      </trkpt>
      <trkpt lat="47.77103" lon="6.59094">
        <ele>263</ele>
        <time>2014-10-30T09:23:26.1Z</time>
      </trkpt>
      <trkpt lat="47.77107" lon="6.591">
        <ele>263</ele>
        <time>2014-10-30T09:23:29.1Z</time>
      </trkpt>
      <trkpt lat="47.77111" lon="6.59106">
        <ele>264</ele>
        <time>2014-10-30T09:23:32.1Z</time>
      </trkpt>
      <trkpt lat="47.77113" lon="6.5911">
        <ele>265</ele>
        <time>2014-10-30T09:23:34.1Z</time>
      </trkpt>
      <trkpt lat="47.77116" lon="6.59114">
        <ele>265</ele>
        <time>2014-10-30T09:23:36.1Z</time>
      </trkpt>
      <trkpt lat="47.7712" lon="6.5912">
        <ele>266</ele>
        <time>2014-10-30T09:23:39.1Z</time>
      </trkpt>
      <trkpt lat="47.77124" lon="6.59125">
        <ele>267</ele>
        <time>2014-10-30T09:23:42.1Z</time>
      </trkpt>
      <trkpt lat="47.77127" lon="6.59129">
        <ele>267</ele>
        <time>2014-10-30T09:23:44.1Z</time>
      </trkpt>
      <trkpt lat="47.77131" lon="6.59135">
        <ele>268</ele>
        <time>2014-10-30T09:23:47.1Z</time>
      </trkpt>
      <trkpt lat="47.77133" lon="6.59138">
        <ele>268</ele>
        <time>2014-10-30T09:23:49.1Z</time>
      </trkpt>
      <trkpt lat="47.77136" lon="6.59144">
        <ele>269</ele>
        <time>2014-10-30T09:23:52.1Z</time>
      </trkpt>
      <trkpt lat="47.77138" lon="6.59148">
        <ele>270</ele>
        <time>2014-10-30T09:23:54.1Z</time>
      </trkpt>
      <trkpt lat="47.77142" lon="6.59153">
        <ele>270</ele>
        <time>2014-10-30T09:23:57.1Z</time>
      </trkpt>
      <trkpt lat="47.77144" lon="6.59157">
        <ele>270</ele>
        <time>2014-10-30T09:23:59.1Z</time>
      </trkpt>
      <trkpt lat="47.77148" lon="6.59165">
        <ele>271</ele>
        <time>2014-10-30T09:24:02.1Z</time>
      </trkpt>
      <trkpt lat="47.77152" lon="6.59175">
        <ele>271</ele>
        <time>2014-10-30T09:24:05.1Z</time>
      </trkpt>
      <trkpt lat="47.77157" lon="6.59184">
        <ele>270</ele>
        <time>2014-10-30T09:24:07.1Z</time>
      </trkpt>
      <trkpt lat="47.77166" lon="6.592">
        <ele>269</ele>
        <time>2014-10-30T09:24:10.1Z</time>
      </trkpt>
      <trkpt lat="47.77175" lon="6.59214">
        <ele>269</ele>
        <time>2014-10-30T09:24:13.1Z</time>
      </trkpt>
      <trkpt lat="47.77182" lon="6.59223">
        <ele>269</ele>
        <time>2014-10-30T09:24:15.1Z</time>
      </trkpt>
      <trkpt lat="47.77193" lon="6.59237">
        <ele>269</ele>
        <time>2014-10-30T09:24:18.1Z</time>
      </trkpt>
      <trkpt lat="47.77204" lon="6.59255">
        <ele>268</ele>
        <time>2014-10-30T09:24:21.1Z</time>
      </trkpt>
      <trkpt lat="47.77214" lon="6.59271">
        <ele>267</ele>
        <time>2014-10-30T09:24:23.1Z</time>
      </trkpt>
      <trkpt lat="47.7723" lon="6.59293">
        <ele>266</ele>
        <time>2014-10-30T09:24:26.1Z</time>
      </trkpt>
      <trkpt lat="47.77236" lon="6.5931">
        <ele>265</ele>
        <time>2014-10-30T09:24:28.1Z</time>
      </trkpt>
      <trkpt lat="47.77242" lon="6.59333">
        <ele>265</ele>
        <time>2014-10-30T09:24:31.1Z</time>
      </trkpt>
      <trkpt lat="47.77247" lon="6.59345">
        <ele>265</ele>
        <time>2014-10-30T09:24:33.1Z</time>
      </trkpt>
      <trkpt lat="47.77251" lon="6.59355">
        <ele>265</ele>
        <time>2014-10-30T09:24:35.1Z</time>
      </trkpt>
      <trkpt lat="47.77259" lon="6.59373">
        <ele>265</ele>
        <time>2014-10-30T09:24:38.1Z</time>
      </trkpt>
      <trkpt lat="47.77266" lon="6.59378">
        <ele>265</ele>
        <time>2014-10-30T09:24:40.1Z</time>
      </trkpt>
      <trkpt lat="47.77272" lon="6.59382">
        <ele>265</ele>
        <time>2014-10-30T09:24:43.1Z</time>
      </trkpt>
      <trkpt lat="47.77276" lon="6.59383">
        <ele>265</ele>
        <time>2014-10-30T09:24:45.1Z</time>
      </trkpt>
      <trkpt lat="47.77278" lon="6.59385">
        <ele>266</ele>
        <time>2014-10-30T09:24:47.1Z</time>
      </trkpt>
      <trkpt lat="47.77281" lon="6.59385">
        <ele>268</ele>
        <time>2014-10-30T09:24:50.1Z</time>
      </trkpt>
      <trkpt lat="47.77284" lon="6.59386">
        <ele>268</ele>
        <time>2014-10-30T09:24:53.1Z</time>
      </trkpt>
      <trkpt lat="47.77287" lon="6.59386">
        <ele>268</ele>
        <time>2014-10-30T09:24:55.1Z</time>
      </trkpt>
      <trkpt lat="47.7729" lon="6.59387">
        <ele>269</ele>
        <time>2014-10-30T09:24:58.1Z</time>
      </trkpt>
      <trkpt lat="47.77294" lon="6.59387">
        <ele>269</ele>
        <time>2014-10-30T09:25:01.1Z</time>
      </trkpt>
      <trkpt lat="47.77296" lon="6.59387">
        <ele>270</ele>
        <time>2014-10-30T09:25:03.1Z</time>
      </trkpt>
      <trkpt lat="47.77298" lon="6.59386">
        <ele>270</ele>
        <time>2014-10-30T09:25:05.1Z</time>
      </trkpt>
      <trkpt lat="47.77303" lon="6.59386">
        <ele>271</ele>
        <time>2014-10-30T09:25:08.1Z</time>
      </trkpt>
      <trkpt lat="47.77307" lon="6.59385">
        <ele>271</ele>
        <time>2014-10-30T09:25:11.1Z</time>
      </trkpt>
      <trkpt lat="47.7731" lon="6.59385">
        <ele>271</ele>
        <time>2014-10-30T09:25:13.1Z</time>
      </trkpt>
      <trkpt lat="47.77313" lon="6.59384">
        <ele>272</ele>
        <time>2014-10-30T09:25:16.1Z</time>
      </trkpt>
      <trkpt lat="47.77315" lon="6.59383">
        <ele>272</ele>
        <time>2014-10-30T09:25:18.1Z</time>
      </trkpt>
      <trkpt lat="47.77318" lon="6.59382">
        <ele>273</ele>
        <time>2014-10-30T09:25:21.1Z</time>
      </trkpt>
      <trkpt lat="47.7732" lon="6.59381">
        <ele>273</ele>
        <time>2014-10-30T09:25:23.1Z</time>
      </trkpt>
      <trkpt lat="47.77324" lon="6.59381">
        <ele>273</ele>
        <time>2014-10-30T09:25:26.1Z</time>
      </trkpt>
      <trkpt lat="47.77327" lon="6.59382">
        <ele>274</ele>
        <time>2014-10-30T09:25:28.1Z</time>
      </trkpt>
      <trkpt lat="47.7733" lon="6.59383">
        <ele>274</ele>
        <time>2014-10-30T09:25:31.1Z</time>
      </trkpt>
      <trkpt lat="47.77333" lon="6.59383">
        <ele>275</ele>
        <time>2014-10-30T09:25:33.1Z</time>
      </trkpt>
      <trkpt lat="47.77336" lon="6.59383">
        <ele>275</ele>
        <time>2014-10-30T09:25:36.1Z</time>
      </trkpt>
      <trkpt lat="47.77339" lon="6.59383">
        <ele>276</ele>
        <time>2014-10-30T09:25:38.1Z</time>
      </trkpt>
      <trkpt lat="47.77342" lon="6.59383">
        <ele>276</ele>
        <time>2014-10-30T09:25:41.1Z</time>
      </trkpt>
      <trkpt lat="47.77345" lon="6.59383">
        <ele>276</ele>
        <time>2014-10-30T09:25:43.1Z</time>
      </trkpt>
      <trkpt lat="47.77347" lon="6.59384">
        <ele>277</ele>
        <time>2014-10-30T09:25:45.1Z</time>
      </trkpt>
      <trkpt lat="47.7735" lon="6.59384">
        <ele>278</ele>
        <time>2014-10-30T09:25:48.1Z</time>
      </trkpt>
      <trkpt lat="47.77353" lon="6.59384">
        <ele>279</ele>
        <time>2014-10-30T09:25:51.1Z</time>
      </trkpt>
      <trkpt lat="47.77355" lon="6.59384">
        <ele>279</ele>
        <time>2014-10-30T09:25:53.1Z</time>
      </trkpt>
      <trkpt lat="47.77359" lon="6.59385">
        <ele>280</ele>
        <time>2014-10-30T09:25:56.1Z</time>
      </trkpt>
      <trkpt lat="47.77362" lon="6.59385">
        <ele>280</ele>
        <time>2014-10-30T09:25:59.1Z</time>
      </trkpt>
      <trkpt lat="47.77364" lon="6.59385">
        <ele>280</ele>
        <time>2014-10-30T09:26:01.1Z</time>
      </trkpt>
      <trkpt lat="47.77366" lon="6.59386">
        <ele>281</ele>
        <time>2014-10-30T09:26:03.1Z</time>
      </trkpt>
      <trkpt lat="47.77369" lon="6.59387">
        <ele>281</ele>
        <time>2014-10-30T09:26:06.1Z</time>
      </trkpt>
      <trkpt lat="47.77372" lon="6.59387">
        <ele>281</ele>
        <time>2014-10-30T09:26:09.1Z</time>
      </trkpt>
      <trkpt lat="47.77375" lon="6.59387">
        <ele>281</ele>
        <time>2014-10-30T09:26:12.1Z</time>
      </trkpt>
      <trkpt lat="47.77377" lon="6.59387">
        <ele>282</ele>
        <time>2014-10-30T09:26:14.1Z</time>
      </trkpt>
      <trkpt lat="47.7738" lon="6.59389">
        <ele>282</ele>
        <time>2014-10-30T09:26:17.1Z</time>
      </trkpt>
      <trkpt lat="47.77384" lon="6.59391">
        <ele>282</ele>
        <time>2014-10-30T09:26:19.1Z</time>
      </trkpt>
      <trkpt lat="47.77388" lon="6.59394">
        <ele>283</ele>
        <time>2014-10-30T09:26:22.1Z</time>
      </trkpt>
      <trkpt lat="47.77391" lon="6.59398">
        <ele>283</ele>
        <time>2014-10-30T09:26:24.1Z</time>
      </trkpt>
      <trkpt lat="47.77395" lon="6.59403">
        <ele>283</ele>
        <time>2014-10-30T09:26:27.1Z</time>
      </trkpt>
      <trkpt lat="47.77397" lon="6.59406">
        <ele>283</ele>
        <time>2014-10-30T09:26:29.1Z</time>
      </trkpt>
      <trkpt lat="47.774" lon="6.5941">
        <ele>283</ele>
        <time>2014-10-30T09:26:31.1Z</time>
      </trkpt>
      <trkpt lat="47.77403" lon="6.59414">
        <ele>283</ele>
        <time>2014-10-30T09:26:33.1Z</time>
      </trkpt>
      <trkpt lat="47.77407" lon="6.59418">
        <ele>283</ele>
        <time>2014-10-30T09:26:35.1Z</time>
      </trkpt>
      <trkpt lat="47.77415" lon="6.59426">
        <ele>283</ele>
        <time>2014-10-30T09:26:38.1Z</time>
      </trkpt>
      <trkpt lat="47.77426" lon="6.59434">
        <ele>283</ele>
        <time>2014-10-30T09:26:41.1Z</time>
      </trkpt>
      <trkpt lat="47.77436" lon="6.59441">
        <ele>282</ele>
        <time>2014-10-30T09:26:43.1Z</time>
      </trkpt>
      <trkpt lat="47.77443" lon="6.59448">
        <ele>282</ele>
        <time>2014-10-30T09:26:45.1Z</time>
      </trkpt>
      <trkpt lat="47.77449" lon="6.59452">
        <ele>281</ele>
        <time>2014-10-30T09:26:47.1Z</time>
      </trkpt>
      <trkpt lat="47.77458" lon="6.5946">
        <ele>281</ele>
        <time>2014-10-30T09:26:50.1Z</time>
      </trkpt>
      <trkpt lat="47.77463" lon="6.59467">
        <ele>281</ele>
        <time>2014-10-30T09:26:52.1Z</time>
      </trkpt>
      <trkpt lat="47.77471" lon="6.59477">
        <ele>282</ele>
        <time>2014-10-30T09:26:55.1Z</time>
      </trkpt>
      <trkpt lat="47.77477" lon="6.59486">
        <ele>283</ele>
        <time>2014-10-30T09:26:58.1Z</time>
      </trkpt>
      <trkpt lat="47.7748" lon="6.59492">
        <ele>283</ele>
        <time>2014-10-30T09:27:00.1Z</time>
      </trkpt>
      <trkpt lat="47.77483" lon="6.59498">
        <ele>284</ele>
        <time>2014-10-30T09:27:02.1Z</time>
      </trkpt>
      <trkpt lat="47.77486" lon="6.59502">
        <ele>285</ele>
        <time>2014-10-30T09:27:04.1Z</time>
      </trkpt>
      <trkpt lat="47.77489" lon="6.59509">
        <ele>285</ele>
        <time>2014-10-30T09:27:07.1Z</time>
      </trkpt>
      <trkpt lat="47.77491" lon="6.59513">
        <ele>286</ele>
        <time>2014-10-30T09:27:09.1Z</time>
      </trkpt>
      <trkpt lat="47.77493" lon="6.59518">
        <ele>286</ele>
        <time>2014-10-30T09:27:12.1Z</time>
      </trkpt>
      <trkpt lat="47.77496" lon="6.59523">
        <ele>287</ele>
        <time>2014-10-30T09:27:15.1Z</time>
      </trkpt>
      <trkpt lat="47.77499" lon="6.59526">
        <ele>288</ele>
        <time>2014-10-30T09:27:17.1Z</time>
      </trkpt>
      <trkpt lat="47.77501" lon="6.59528">
        <ele>288</ele>
        <time>2014-10-30T09:27:19.1Z</time>
      </trkpt>
      <trkpt lat="47.77505" lon="6.59529">
        <ele>289</ele>
        <time>2014-10-30T09:27:22.1Z</time>
      </trkpt>
      <trkpt lat="47.77507" lon="6.59531">
        <ele>289</ele>
        <time>2014-10-30T09:27:24.1Z</time>
      </trkpt>
      <trkpt lat="47.77511" lon="6.59533">
        <ele>289</ele>
        <time>2014-10-30T09:27:27.1Z</time>
      </trkpt>
      <trkpt lat="47.77515" lon="6.59534">
        <ele>289</ele>
        <time>2014-10-30T09:27:29.1Z</time>
      </trkpt>
      <trkpt lat="47.77519" lon="6.59537">
        <ele>289</ele>
        <time>2014-10-30T09:27:32.1Z</time>
      </trkpt>
      <trkpt lat="47.77522" lon="6.59539">
        <ele>290</ele>
        <time>2014-10-30T09:27:34.1Z</time>
      </trkpt>
      <trkpt lat="47.77525" lon="6.59542">
        <ele>290</ele>
        <time>2014-10-30T09:27:36.1Z</time>
      </trkpt>
      <trkpt lat="47.77528" lon="6.59545">
        <ele>290</ele>
        <time>2014-10-30T09:27:38.1Z</time>
      </trkpt>
      <trkpt lat="47.7753" lon="6.59549">
        <ele>290</ele>
        <time>2014-10-30T09:27:40.1Z</time>
      </trkpt>
      <trkpt lat="47.77533" lon="6.59555">
        <ele>290</ele>
        <time>2014-10-30T09:27:43.1Z</time>
      </trkpt>
      <trkpt lat="47.77536" lon="6.59558">
        <ele>290</ele>
        <time>2014-10-30T09:27:45.1Z</time>
      </trkpt>
      <trkpt lat="47.77539" lon="6.59562">
        <ele>291</ele>
        <time>2014-10-30T09:27:47.1Z</time>
      </trkpt>
      <trkpt lat="47.77546" lon="6.59568">
        <ele>291</ele>
        <time>2014-10-30T09:27:50.1Z</time>
      </trkpt>
      <trkpt lat="47.77551" lon="6.59572">
        <ele>291</ele>
        <time>2014-10-30T09:27:52.1Z</time>
      </trkpt>
      <trkpt lat="47.77557" lon="6.59576">
        <ele>291</ele>
        <time>2014-10-30T09:27:54.1Z</time>
      </trkpt>
      <trkpt lat="47.77564" lon="6.59582">
        <ele>291</ele>
        <time>2014-10-30T09:27:57.1Z</time>
      </trkpt>
      <trkpt lat="47.77568" lon="6.59586">
        <ele>291</ele>
        <time>2014-10-30T09:27:59.1Z</time>
      </trkpt>
      <trkpt lat="47.77569" lon="6.59588">
        <ele>290</ele>
        <time>2014-10-30T09:28:01.1Z</time>
      </trkpt>
      <trkpt lat="47.77569" lon="6.59588">
        <ele>290</ele>
        <time>2014-10-30T09:28:03.1Z</time>
      </trkpt>
      <trkpt lat="47.77569" lon="6.59589">
        <ele>290</ele>
        <time>2014-10-30T09:28:05.1Z</time>
      </trkpt>
      <trkpt lat="47.7757" lon="6.59589">
        <ele>290</ele>
        <time>2014-10-30T09:28:08.1Z</time>
      </trkpt>
      <trkpt lat="47.7757" lon="6.59589">
        <ele>290</ele>
        <time>2014-10-30T09:28:11.1Z</time>
      </trkpt>
      <trkpt lat="47.77569" lon="6.5959">
        <ele>290</ele>
        <time>2014-10-30T09:28:14.1Z</time>
      </trkpt>
      <trkpt lat="47.77569" lon="6.5959">
        <ele>290</ele>
        <time>2014-10-30T09:28:17.1Z</time>
      </trkpt>
      <trkpt lat="47.7757" lon="6.59591">
        <ele>290</ele>
        <time>2014-10-30T09:28:20.1Z</time>
      </trkpt>
      <trkpt lat="47.7757" lon="6.59591">
        <ele>290</ele>
        <time>2014-10-30T09:28:22.1Z</time>
      </trkpt>
      <trkpt lat="47.77571" lon="6.5959">
        <ele>290</ele>
        <time>2014-10-30T09:28:25.1Z</time>
      </trkpt>
      <trkpt lat="47.77571" lon="6.5959">
        <ele>290</ele>
        <time>2014-10-30T09:28:28.1Z</time>
      </trkpt>
      <trkpt lat="47.77572" lon="6.5959">
        <ele>290</ele>
        <time>2014-10-30T09:28:31.1Z</time>
      </trkpt>
      <trkpt lat="47.77572" lon="6.5959">
        <ele>290</ele>
        <time>2014-10-30T09:28:33.1Z</time>
      </trkpt>
      <trkpt lat="47.77572" lon="6.5959">
        <ele>290</ele>
        <time>2014-10-30T09:28:36.1Z</time>
      </trkpt>
      <trkpt lat="47.77572" lon="6.59589">
        <ele>290</ele>
        <time>2014-10-30T09:28:39.1Z</time>
      </trkpt>
      <trkpt lat="47.77571" lon="6.5959">
        <ele>290</ele>
        <time>2014-10-30T09:28:41.1Z</time>
      </trkpt>
      <trkpt lat="47.77571" lon="6.5959">
        <ele>290</ele>
        <time>2014-10-30T09:28:44.1Z</time>
      </trkpt>
      <trkpt lat="47.77571" lon="6.5959">
        <ele>290</ele>
        <time>2014-10-30T09:28:46.1Z</time>
      </trkpt>
      <trkpt lat="47.77571" lon="6.59591">
        <ele>290</ele>
        <time>2014-10-30T09:28:49.1Z</time>
      </trkpt>
      <trkpt lat="47.77571" lon="6.59591">
        <ele>291</ele>
        <time>2014-10-30T09:28:51.1Z</time>
      </trkpt>
      <trkpt lat="47.77571" lon="6.59591">
        <ele>291</ele>
        <time>2014-10-30T09:28:55.1Z</time>
      </trkpt>
      <trkpt lat="47.77571" lon="6.59592">
        <ele>291</ele>
        <time>2014-10-30T09:28:58.1Z</time>
      </trkpt>
      <trkpt lat="47.77571" lon="6.59591">
        <ele>291</ele>
        <time>2014-10-30T09:29:00.1Z</time>
      </trkpt>
      <trkpt lat="47.7757" lon="6.59591">
        <ele>291</ele>
        <time>2014-10-30T09:29:03.1Z</time>
      </trkpt>
      <trkpt lat="47.77569" lon="6.59591">
        <ele>290</ele>
        <time>2014-10-30T09:29:05.1Z</time>
      </trkpt>
      <trkpt lat="47.77568" lon="6.5959">
        <ele>290</ele>
        <time>2014-10-30T09:29:08.1Z</time>
      </trkpt>
      <trkpt lat="47.77568" lon="6.5959">
        <ele>290</ele>
        <time>2014-10-30T09:29:11.1Z</time>
      </trkpt>
      <trkpt lat="47.77568" lon="6.59591">
        <ele>290</ele>
        <time>2014-10-30T09:29:14.1Z</time>
      </trkpt>
      <trkpt lat="47.77568" lon="6.59591">
        <ele>290</ele>
        <time>2014-10-30T09:29:16.1Z</time>
      </trkpt>
      <trkpt lat="47.77568" lon="6.59591">
        <ele>290</ele>
        <time>2014-10-30T09:29:19.1Z</time>
      </trkpt>
      <trkpt lat="47.77568" lon="6.5959">
        <ele>289</ele>
        <time>2014-10-30T09:29:22.1Z</time>
      </trkpt>
      <trkpt lat="47.77568" lon="6.5959">
        <ele>290</ele>
        <time>2014-10-30T09:29:26.1Z</time>
      </trkpt>
      <trkpt lat="47.77568" lon="6.5959">
        <ele>290</ele>
        <time>2014-10-30T09:29:29.1Z</time>
      </trkpt>
      <trkpt lat="47.77568" lon="6.5959">
        <ele>290</ele>
        <time>2014-10-30T09:29:31.1Z</time>
      </trkpt>
      <trkpt lat="47.77569" lon="6.5959">
        <ele>290</ele>
        <time>2014-10-30T09:29:34.1Z</time>
      </trkpt>
      <trkpt lat="47.77569" lon="6.59589">
        <ele>290</ele>
        <time>2014-10-30T09:29:37.1Z</time>
      </trkpt>
      <trkpt lat="47.77569" lon="6.59589">
        <ele>290</ele>
        <time>2014-10-30T09:29:39.1Z</time>
      </trkpt>
      <trkpt lat="47.77568" lon="6.59589">
        <ele>290</ele>
        <time>2014-10-30T09:29:42.1Z</time>
      </trkpt>
      <trkpt lat="47.77568" lon="6.59589">
        <ele>290</ele>
        <time>2014-10-30T09:29:45.1Z</time>
      </trkpt>
      <trkpt lat="47.77568" lon="6.59588">
        <ele>290</ele>
        <time>2014-10-30T09:29:48.1Z</time>
      </trkpt>
      <trkpt lat="47.77568" lon="6.59588">
        <ele>290</ele>
        <time>2014-10-30T09:29:50.1Z</time>
      </trkpt>
      <trkpt lat="47.77569" lon="6.59588">
        <ele>290</ele>
        <time>2014-10-30T09:29:53.1Z</time>
      </trkpt>
      <trkpt lat="47.7757" lon="6.59588">
        <ele>290</ele>
        <time>2014-10-30T09:29:56.1Z</time>
      </trkpt>
      <trkpt lat="47.7757" lon="6.59588">
        <ele>290</ele>
        <time>2014-10-30T09:29:59.1Z</time>
      </trkpt>
      <trkpt lat="47.77571" lon="6.59589">
        <ele>290</ele>
        <time>2014-10-30T09:30:02.1Z</time>
      </trkpt>
      <trkpt lat="47.77572" lon="6.59589">
        <ele>290</ele>
        <time>2014-10-30T09:30:04.1Z</time>
      </trkpt>
      <trkpt lat="47.77572" lon="6.59589">
        <ele>290</ele>
        <time>2014-10-30T09:30:06.1Z</time>
      </trkpt>
      <trkpt lat="47.77573" lon="6.59589">
        <ele>290</ele>
        <time>2014-10-30T09:30:09.1Z</time>
      </trkpt>
      <trkpt lat="47.77573" lon="6.59589">
        <ele>290</ele>
        <time>2014-10-30T09:30:11.1Z</time>
      </trkpt>
      <trkpt lat="47.77573" lon="6.59589">
        <ele>290</ele>
        <time>2014-10-30T09:30:14.1Z</time>
      </trkpt>
      <trkpt lat="47.77573" lon="6.59589">
        <ele>290</ele>
        <time>2014-10-30T09:30:17.1Z</time>
      </trkpt>
      <trkpt lat="47.77573" lon="6.59589">
        <ele>290</ele>
        <time>2014-10-30T09:30:20.1Z</time>
      </trkpt>
      <trkpt lat="47.77572" lon="6.59589">
        <ele>290</ele>
        <time>2014-10-30T09:30:22.1Z</time>
      </trkpt>
      <trkpt lat="47.77572" lon="6.59589">
        <ele>290</ele>
        <time>2014-10-30T09:30:24.1Z</time>
      </trkpt>
      <trkpt lat="47.77572" lon="6.59589">
        <ele>290</ele>
        <time>2014-10-30T09:30:27.1Z</time>
      </trkpt>
      <trkpt lat="47.77572" lon="6.59588">
        <ele>290</ele>
        <time>2014-10-30T09:30:30.1Z</time>
      </trkpt>
      <trkpt lat="47.77571" lon="6.59588">
        <ele>291</ele>
        <time>2014-10-30T09:30:33.1Z</time>
      </trkpt>
      <trkpt lat="47.77571" lon="6.59588">
        <ele>291</ele>
        <time>2014-10-30T09:30:37.1Z</time>
      </trkpt>
      <trkpt lat="47.7757" lon="6.59588">
        <ele>290</ele>
        <time>2014-10-30T09:30:39.1Z</time>
      </trkpt>
      <trkpt lat="47.7757" lon="6.59587">
        <ele>290</ele>
        <time>2014-10-30T09:30:43.1Z</time>
      </trkpt>
      <trkpt lat="47.7757" lon="6.59588">
        <ele>290</ele>
        <time>2014-10-30T09:30:46.1Z</time>
      </trkpt>
      <trkpt lat="47.7757" lon="6.59588">
        <ele>291</ele>
        <time>2014-10-30T09:30:48.1Z</time>
      </trkpt>
      <trkpt lat="47.77571" lon="6.59588">
        <ele>291</ele>
        <time>2014-10-30T09:30:51.1Z</time>
      </trkpt>
      <trkpt lat="47.77571" lon="6.59589">
        <ele>291</ele>
        <time>2014-10-30T09:30:54.1Z</time>
      </trkpt>
      <trkpt lat="47.77571" lon="6.59589">
        <ele>291</ele>
        <time>2014-10-30T09:30:58.1Z</time>
      </trkpt>
      <trkpt lat="47.77571" lon="6.59591">
        <ele>291</ele>
        <time>2014-10-30T09:31:01.1Z</time>
      </trkpt>
      <trkpt lat="47.77573" lon="6.59595">
        <ele>290</ele>
        <time>2014-10-30T09:31:04.1Z</time>
      </trkpt>
      <trkpt lat="47.77573" lon="6.596">
        <ele>290</ele>
        <time>2014-10-30T09:31:06.1Z</time>
      </trkpt>
      <trkpt lat="47.77574" lon="6.59612">
        <ele>290</ele>
        <time>2014-10-30T09:31:09.1Z</time>
      </trkpt>
      <trkpt lat="47.77576" lon="6.5962">
        <ele>289</ele>
        <time>2014-10-30T09:31:11.1Z</time>
      </trkpt>
      <trkpt lat="47.7758" lon="6.5963">
        <ele>289</ele>
        <time>2014-10-30T09:31:14.1Z</time>
      </trkpt>
      <trkpt lat="47.77583" lon="6.59636">
        <ele>289</ele>
        <time>2014-10-30T09:31:16.1Z</time>
      </trkpt>
      <trkpt lat="47.7759" lon="6.59648">
        <ele>289</ele>
        <time>2014-10-30T09:31:19.1Z</time>
      </trkpt>
      <trkpt lat="47.77596" lon="6.59661">
        <ele>289</ele>
        <time>2014-10-30T09:31:22.1Z</time>
      </trkpt>
      <trkpt lat="47.776" lon="6.59668">
        <ele>289</ele>
        <time>2014-10-30T09:31:24.1Z</time>
      </trkpt>
      <trkpt lat="47.77606" lon="6.5968">
        <ele>290</ele>
        <time>2014-10-30T09:31:27.1Z</time>
      </trkpt>
      <trkpt lat="47.7761" lon="6.59691">
        <ele>291</ele>
        <time>2014-10-30T09:31:30.1Z</time>
      </trkpt>
      <trkpt lat="47.77611" lon="6.59699">
        <ele>291</ele>
        <time>2014-10-30T09:31:32.1Z</time>
      </trkpt>
      <trkpt lat="47.77613" lon="6.59712">
        <ele>292</ele>
        <time>2014-10-30T09:31:35.1Z</time>
      </trkpt>
      <trkpt lat="47.77614" lon="6.5972">
        <ele>292</ele>
        <time>2014-10-30T09:31:37.1Z</time>
      </trkpt>
      <trkpt lat="47.77616" lon="6.59731">
        <ele>292</ele>
        <time>2014-10-30T09:31:40.1Z</time>
      </trkpt>
      <trkpt lat="47.77619" lon="6.59736">
        <ele>292</ele>
        <time>2014-10-30T09:31:42.1Z</time>
      </trkpt>
      <trkpt lat="47.77624" lon="6.59739">
        <ele>293</ele>
        <time>2014-10-30T09:31:44.1Z</time>
      </trkpt>
      <trkpt lat="47.77633" lon="6.59748">
        <ele>293</ele>
        <time>2014-10-30T09:31:47.1Z</time>
      </trkpt>
      <trkpt lat="47.7764" lon="6.59756">
        <ele>293</ele>
        <time>2014-10-30T09:31:50.1Z</time>
      </trkpt>
      <trkpt lat="47.77645" lon="6.59762">
        <ele>293</ele>
        <time>2014-10-30T09:31:52.1Z</time>
      </trkpt>
      <trkpt lat="47.7765" lon="6.59767">
        <ele>293</ele>
        <time>2014-10-30T09:31:54.1Z</time>
      </trkpt>
      <trkpt lat="47.77659" lon="6.59774">
        <ele>293</ele>
        <time>2014-10-30T09:31:57.1Z</time>
      </trkpt>
      <trkpt lat="47.77668" lon="6.59782">
        <ele>293</ele>
        <time>2014-10-30T09:32:00.1Z</time>
      </trkpt>
      <trkpt lat="47.77672" lon="6.59788">
        <ele>293</ele>
        <time>2014-10-30T09:32:02.1Z</time>
      </trkpt>
      <trkpt lat="47.77678" lon="6.59793">
        <ele>294</ele>
        <time>2014-10-30T09:32:04.1Z</time>
      </trkpt>
      <trkpt lat="47.77688" lon="6.59799">
        <ele>294</ele>
        <time>2014-10-30T09:32:07.1Z</time>
      </trkpt>
      <trkpt lat="47.77694" lon="6.598">
        <ele>295</ele>
        <time>2014-10-30T09:32:09.1Z</time>
      </trkpt>
      <trkpt lat="47.77702" lon="6.598">
        <ele>296</ele>
        <time>2014-10-30T09:32:12.1Z</time>
      </trkpt>
      <trkpt lat="47.77708" lon="6.598">
        <ele>296</ele>
        <time>2014-10-30T09:32:14.1Z</time>
      </trkpt>
      <trkpt lat="47.77715" lon="6.598">
        <ele>297</ele>
        <time>2014-10-30T09:32:17.1Z</time>
      </trkpt>
      <trkpt lat="47.7772" lon="6.598">
        <ele>298</ele>
        <time>2014-10-30T09:32:19.1Z</time>
      </trkpt>
      <trkpt lat="47.77724" lon="6.59801">
        <ele>298</ele>
        <time>2014-10-30T09:32:21.1Z</time>
      </trkpt>
      <trkpt lat="47.77731" lon="6.598">
        <ele>299</ele>
        <time>2014-10-30T09:32:24.1Z</time>
      </trkpt>
      <trkpt lat="47.77739" lon="6.598">
        <ele>299</ele>
        <time>2014-10-30T09:32:27.1Z</time>
      </trkpt>
      <trkpt lat="47.77749" lon="6.59803">
        <ele>298</ele>
        <time>2014-10-30T09:32:30.1Z</time>
      </trkpt>
      <trkpt lat="47.77757" lon="6.59804">
        <ele>298</ele>
        <time>2014-10-30T09:32:32.1Z</time>
      </trkpt>
      <trkpt lat="47.77765" lon="6.59805">
        <ele>298</ele>
        <time>2014-10-30T09:32:34.1Z</time>
      </trkpt>
      <trkpt lat="47.77777" lon="6.59806">
        <ele>298</ele>
        <time>2014-10-30T09:32:37.1Z</time>
      </trkpt>
      <trkpt lat="47.77789" lon="6.59811">
        <ele>298</ele>
        <time>2014-10-30T09:32:39.1Z</time>
      </trkpt>
      <trkpt lat="47.77801" lon="6.59818">
        <ele>297</ele>
        <time>2014-10-30T09:32:41.1Z</time>
      </trkpt>
      <trkpt lat="47.77819" lon="6.59823">
        <ele>296</ele>
        <time>2014-10-30T09:32:44.1Z</time>
      </trkpt>
      <trkpt lat="47.7783" lon="6.59823">
        <ele>296</ele>
        <time>2014-10-30T09:32:46.1Z</time>
      </trkpt>
      <trkpt lat="47.77841" lon="6.59821">
        <ele>295</ele>
        <time>2014-10-30T09:32:48.1Z</time>
      </trkpt>
      <trkpt lat="47.77855" lon="6.59821">
        <ele>295</ele>
        <time>2014-10-30T09:32:51.1Z</time>
      </trkpt>
      <trkpt lat="47.77864" lon="6.59821">
        <ele>294</ele>
        <time>2014-10-30T09:32:53.1Z</time>
      </trkpt>
      <trkpt lat="47.77883" lon="6.59827">
        <ele>294</ele>
        <time>2014-10-30T09:32:56.1Z</time>
      </trkpt>
      <trkpt lat="47.77893" lon="6.59832">
        <ele>293</ele>
        <time>2014-10-30T09:32:58.1Z</time>
      </trkpt>
      <trkpt lat="47.779" lon="6.59838">
        <ele>291</ele>
        <time>2014-10-30T09:33:00.1Z</time>
      </trkpt>
      <trkpt lat="47.77909" lon="6.59848">
        <ele>290</ele>
        <time>2014-10-30T09:33:03.1Z</time>
      </trkpt>
      <trkpt lat="47.77916" lon="6.59866">
        <ele>288</ele>
        <time>2014-10-30T09:33:06.1Z</time>
      </trkpt>
      <trkpt lat="47.7792" lon="6.59885">
        <ele>288</ele>
        <time>2014-10-30T09:33:09.1Z</time>
      </trkpt>
      <trkpt lat="47.77924" lon="6.59901">
        <ele>288</ele>
        <time>2014-10-30T09:33:12.1Z</time>
      </trkpt>
      <trkpt lat="47.77931" lon="6.59915">
        <ele>288</ele>
        <time>2014-10-30T09:33:15.1Z</time>
      </trkpt>
      <trkpt lat="47.77938" lon="6.59928">
        <ele>289</ele>
        <time>2014-10-30T09:33:18.1Z</time>
      </trkpt>
      <trkpt lat="47.77943" lon="6.59936">
        <ele>289</ele>
        <time>2014-10-30T09:33:20.1Z</time>
      </trkpt>
      <trkpt lat="47.77948" lon="6.59945">
        <ele>289</ele>
        <time>2014-10-30T09:33:22.1Z</time>
      </trkpt>
      <trkpt lat="47.77953" lon="6.59954">
        <ele>289</ele>
        <time>2014-10-30T09:33:24.1Z</time>
      </trkpt>
      <trkpt lat="47.77962" lon="6.59966">
        <ele>289</ele>
        <time>2014-10-30T09:33:27.1Z</time>
      </trkpt>
      <trkpt lat="47.77966" lon="6.59974">
        <ele>290</ele>
        <time>2014-10-30T09:33:29.1Z</time>
      </trkpt>
      <trkpt lat="47.77971" lon="6.59988">
        <ele>290</ele>
        <time>2014-10-30T09:33:32.1Z</time>
      </trkpt>
      <trkpt lat="47.77978" lon="6.60003">
        <ele>290</ele>
        <time>2014-10-30T09:33:35.1Z</time>
      </trkpt>
      <trkpt lat="47.77983" lon="6.60013">
        <ele>290</ele>
        <time>2014-10-30T09:33:37.1Z</time>
      </trkpt>
      <trkpt lat="47.77989" lon="6.60027">
        <ele>289</ele>
        <time>2014-10-30T09:33:40.1Z</time>
      </trkpt>
      <trkpt lat="47.77993" lon="6.60034">
        <ele>290</ele>
        <time>2014-10-30T09:33:42.1Z</time>
      </trkpt>
      <trkpt lat="47.77999" lon="6.60044">
        <ele>290</ele>
        <time>2014-10-30T09:33:45.1Z</time>
      </trkpt>
      <trkpt lat="47.78002" lon="6.6005">
        <ele>291</ele>
        <time>2014-10-30T09:33:47.1Z</time>
      </trkpt>
      <trkpt lat="47.78006" lon="6.60059">
        <ele>292</ele>
        <time>2014-10-30T09:33:50.1Z</time>
      </trkpt>
      <trkpt lat="47.78009" lon="6.60064">
        <ele>293</ele>
        <time>2014-10-30T09:33:52.1Z</time>
      </trkpt>
      <trkpt lat="47.78013" lon="6.6007">
        <ele>293</ele>
        <time>2014-10-30T09:33:55.1Z</time>
      </trkpt>
      <trkpt lat="47.78018" lon="6.60075">
        <ele>294</ele>
        <time>2014-10-30T09:33:58.1Z</time>
      </trkpt>
      <trkpt lat="47.78022" lon="6.60078">
        <ele>295</ele>
        <time>2014-10-30T09:34:00.1Z</time>
      </trkpt>
      <trkpt lat="47.78027" lon="6.6008">
        <ele>295</ele>
        <time>2014-10-30T09:34:03.1Z</time>
      </trkpt>
      <trkpt lat="47.7803" lon="6.60082">
        <ele>295</ele>
        <time>2014-10-30T09:34:05.1Z</time>
      </trkpt>
      <trkpt lat="47.78034" lon="6.60086">
        <ele>296</ele>
        <time>2014-10-30T09:34:08.1Z</time>
      </trkpt>
      <trkpt lat="47.78037" lon="6.60089">
        <ele>296</ele>
        <time>2014-10-30T09:34:11.1Z</time>
      </trkpt>
      <trkpt lat="47.78039" lon="6.60092">
        <ele>297</ele>
        <time>2014-10-30T09:34:13.1Z</time>
      </trkpt>
      <trkpt lat="47.78042" lon="6.60096">
        <ele>297</ele>
        <time>2014-10-30T09:34:16.1Z</time>
      </trkpt>
      <trkpt lat="47.78043" lon="6.60098">
        <ele>298</ele>
        <time>2014-10-30T09:34:18.1Z</time>
      </trkpt>
      <trkpt lat="47.78045" lon="6.60101">
        <ele>299</ele>
        <time>2014-10-30T09:34:21.1Z</time>
      </trkpt>
      <trkpt lat="47.78047" lon="6.60103">
        <ele>299</ele>
        <time>2014-10-30T09:34:23.1Z</time>
      </trkpt>
      <trkpt lat="47.78049" lon="6.60107">
        <ele>299</ele>
        <time>2014-10-30T09:34:26.1Z</time>
      </trkpt>
      <trkpt lat="47.78051" lon="6.60109">
        <ele>299</ele>
        <time>2014-10-30T09:34:28.1Z</time>
      </trkpt>
      <trkpt lat="47.78053" lon="6.60112">
        <ele>300</ele>
        <time>2014-10-30T09:34:30.1Z</time>
      </trkpt>
      <trkpt lat="47.78054" lon="6.60115">
        <ele>300</ele>
        <time>2014-10-30T09:34:32.1Z</time>
      </trkpt>
      <trkpt lat="47.78057" lon="6.60118">
        <ele>301</ele>
        <time>2014-10-30T09:34:35.1Z</time>
      </trkpt>
      <trkpt lat="47.7806" lon="6.60121">
        <ele>301</ele>
        <time>2014-10-30T09:34:37.1Z</time>
      </trkpt>
      <trkpt lat="47.78063" lon="6.60125">
        <ele>301</ele>
        <time>2014-10-30T09:34:40.1Z</time>
      </trkpt>
      <trkpt lat="47.78066" lon="6.6013">
        <ele>302</ele>
        <time>2014-10-30T09:34:43.1Z</time>
      </trkpt>
      <trkpt lat="47.78069" lon="6.60135">
        <ele>302</ele>
        <time>2014-10-30T09:34:46.1Z</time>
      </trkpt>
      <trkpt lat="47.7807" lon="6.60138">
        <ele>302</ele>
        <time>2014-10-30T09:34:48.1Z</time>
      </trkpt>
      <trkpt lat="47.78072" lon="6.60141">
        <ele>303</ele>
        <time>2014-10-30T09:34:50.1Z</time>
      </trkpt>
      <trkpt lat="47.78074" lon="6.60144">
        <ele>303</ele>
        <time>2014-10-30T09:34:52.1Z</time>
      </trkpt>
      <trkpt lat="47.78077" lon="6.6015">
        <ele>303</ele>
        <time>2014-10-30T09:34:55.1Z</time>
      </trkpt>
      <trkpt lat="47.78079" lon="6.60155">
        <ele>303</ele>
        <time>2014-10-30T09:34:57.1Z</time>
      </trkpt>
      <trkpt lat="47.78083" lon="6.60161">
        <ele>303</ele>
        <time>2014-10-30T09:35:00.1Z</time>
      </trkpt>
      <trkpt lat="47.78086" lon="6.60167">
        <ele>303</ele>
        <time>2014-10-30T09:35:02.1Z</time>
      </trkpt>
      <trkpt lat="47.7809" lon="6.60175">
        <ele>304</ele>
        <time>2014-10-30T09:35:05.1Z</time>
      </trkpt>
      <trkpt lat="47.78093" lon="6.6018">
        <ele>304</ele>
        <time>2014-10-30T09:35:07.1Z</time>
      </trkpt>
      <trkpt lat="47.78095" lon="6.60188">
        <ele>304</ele>
        <time>2014-10-30T09:35:10.1Z</time>
      </trkpt>
      <trkpt lat="47.78097" lon="6.60193">
        <ele>304</ele>
        <time>2014-10-30T09:35:12.1Z</time>
      </trkpt>
      <trkpt lat="47.78098" lon="6.60201">
        <ele>304</ele>
        <time>2014-10-30T09:35:15.1Z</time>
      </trkpt>
      <trkpt lat="47.781" lon="6.60206">
        <ele>304</ele>
        <time>2014-10-30T09:35:17.1Z</time>
      </trkpt>
      <trkpt lat="47.78101" lon="6.60214">
        <ele>304</ele>
        <time>2014-10-30T09:35:20.1Z</time>
      </trkpt>
      <trkpt lat="47.78104" lon="6.60219">
        <ele>304</ele>
        <time>2014-10-30T09:35:22.1Z</time>
      </trkpt>
      <trkpt lat="47.78109" lon="6.60228">
        <ele>303</ele>
        <time>2014-10-30T09:35:25.1Z</time>
      </trkpt>
      <trkpt lat="47.78111" lon="6.60236">
        <ele>304</ele>
        <time>2014-10-30T09:35:27.1Z</time>
      </trkpt>
      <trkpt lat="47.78113" lon="6.60247">
        <ele>304</ele>
        <time>2014-10-30T09:35:30.1Z</time>
      </trkpt>
      <trkpt lat="47.78114" lon="6.60253">
        <ele>304</ele>
        <time>2014-10-30T09:35:32.1Z</time>
      </trkpt>
      <trkpt lat="47.78117" lon="6.60263">
        <ele>304</ele>
        <time>2014-10-30T09:35:35.1Z</time>
      </trkpt>
      <trkpt lat="47.7812" lon="6.60274">
        <ele>305</ele>
        <time>2014-10-30T09:35:38.1Z</time>
      </trkpt>
      <trkpt lat="47.78123" lon="6.60284">
        <ele>305</ele>
        <time>2014-10-30T09:35:41.1Z</time>
      </trkpt>
      <trkpt lat="47.78127" lon="6.60293">
        <ele>306</ele>
        <time>2014-10-30T09:35:44.1Z</time>
      </trkpt>
      <trkpt lat="47.7813" lon="6.60299">
        <ele>306</ele>
        <time>2014-10-30T09:35:46.1Z</time>
      </trkpt>
      <trkpt lat="47.78132" lon="6.60304">
        <ele>306</ele>
        <time>2014-10-30T09:35:48.1Z</time>
      </trkpt>
      <trkpt lat="47.78136" lon="6.60311">
        <ele>306</ele>
        <time>2014-10-30T09:35:51.1Z</time>
      </trkpt>
      <trkpt lat="47.7814" lon="6.60316">
        <ele>306</ele>
        <time>2014-10-30T09:35:53.1Z</time>
      </trkpt>
      <trkpt lat="47.78143" lon="6.60321">
        <ele>306</ele>
        <time>2014-10-30T09:35:55.1Z</time>
      </trkpt>
      <trkpt lat="47.78147" lon="6.60325">
        <ele>306</ele>
        <time>2014-10-30T09:35:57.1Z</time>
      </trkpt>
      <trkpt lat="47.78152" lon="6.6033">
        <ele>307</ele>
        <time>2014-10-30T09:36:00.1Z</time>
      </trkpt>
      <trkpt lat="47.78154" lon="6.60333">
        <ele>307</ele>
        <time>2014-10-30T09:36:02.1Z</time>
      </trkpt>
      <trkpt lat="47.78158" lon="6.60338">
        <ele>308</ele>
        <time>2014-10-30T09:36:05.1Z</time>
      </trkpt>
      <trkpt lat="47.78159" lon="6.60341">
        <ele>309</ele>
        <time>2014-10-30T09:36:07.1Z</time>
      </trkpt>
      <trkpt lat="47.78162" lon="6.60344">
        <ele>309</ele>
        <time>2014-10-30T09:36:09.1Z</time>
      </trkpt>
      <trkpt lat="47.78167" lon="6.60348">
        <ele>310</ele>
        <time>2014-10-30T09:36:12.1Z</time>
      </trkpt>
      <trkpt lat="47.78171" lon="6.60351">
        <ele>310</ele>
        <time>2014-10-30T09:36:14.1Z</time>
      </trkpt>
      <trkpt lat="47.78174" lon="6.60353">
        <ele>310</ele>
        <time>2014-10-30T09:36:16.1Z</time>
      </trkpt>
      <trkpt lat="47.78178" lon="6.60356">
        <ele>311</ele>
        <time>2014-10-30T09:36:19.1Z</time>
      </trkpt>
      <trkpt lat="47.78181" lon="6.60359">
        <ele>311</ele>
        <time>2014-10-30T09:36:22.1Z</time>
      </trkpt>
      <trkpt lat="47.78184" lon="6.60361">
        <ele>312</ele>
        <time>2014-10-30T09:36:24.1Z</time>
      </trkpt>
      <trkpt lat="47.78189" lon="6.60363">
        <ele>312</ele>
        <time>2014-10-30T09:36:27.1Z</time>
      </trkpt>
      <trkpt lat="47.78191" lon="6.60364">
        <ele>312</ele>
        <time>2014-10-30T09:36:29.1Z</time>
      </trkpt>
      <trkpt lat="47.78194" lon="6.60364">
        <ele>313</ele>
        <time>2014-10-30T09:36:31.1Z</time>
      </trkpt>
      <trkpt lat="47.78197" lon="6.60364">
        <ele>313</ele>
        <time>2014-10-30T09:36:34.1Z</time>
      </trkpt>
      <trkpt lat="47.782" lon="6.60365">
        <ele>314</ele>
        <time>2014-10-30T09:36:36.1Z</time>
      </trkpt>
      <trkpt lat="47.78202" lon="6.60365">
        <ele>314</ele>
        <time>2014-10-30T09:36:38.1Z</time>
      </trkpt>
      <trkpt lat="47.78205" lon="6.60365">
        <ele>315</ele>
        <time>2014-10-30T09:36:40.1Z</time>
      </trkpt>
      <trkpt lat="47.78209" lon="6.60366">
        <ele>315</ele>
        <time>2014-10-30T09:36:43.1Z</time>
      </trkpt>
      <trkpt lat="47.78212" lon="6.60367">
        <ele>316</ele>
        <time>2014-10-30T09:36:46.1Z</time>
      </trkpt>
      <trkpt lat="47.78215" lon="6.60368">
        <ele>316</ele>
        <time>2014-10-30T09:36:48.1Z</time>
      </trkpt>
      <trkpt lat="47.78219" lon="6.60368">
        <ele>316</ele>
        <time>2014-10-30T09:36:51.1Z</time>
      </trkpt>
      <trkpt lat="47.78221" lon="6.60368">
        <ele>317</ele>
        <time>2014-10-30T09:36:53.1Z</time>
      </trkpt>
      <trkpt lat="47.78225" lon="6.60369">
        <ele>317</ele>
        <time>2014-10-30T09:36:56.1Z</time>
      </trkpt>
      <trkpt lat="47.7823" lon="6.6037">
        <ele>317</ele>
        <time>2014-10-30T09:36:59.1Z</time>
      </trkpt>
      <trkpt lat="47.78234" lon="6.60372">
        <ele>317</ele>
        <time>2014-10-30T09:37:02.1Z</time>
      </trkpt>
      <trkpt lat="47.78239" lon="6.60375">
        <ele>317</ele>
        <time>2014-10-30T09:37:05.1Z</time>
      </trkpt>
      <trkpt lat="47.78243" lon="6.60377">
        <ele>317</ele>
        <time>2014-10-30T09:37:07.1Z</time>
      </trkpt>
      <trkpt lat="47.78248" lon="6.60377">
        <ele>318</ele>
        <time>2014-10-30T09:37:10.1Z</time>
      </trkpt>
      <trkpt lat="47.78255" lon="6.60379">
        <ele>318</ele>
        <time>2014-10-30T09:37:13.1Z</time>
      </trkpt>
      <trkpt lat="47.78259" lon="6.60381">
        <ele>317</ele>
        <time>2014-10-30T09:37:15.1Z</time>
      </trkpt>
      <trkpt lat="47.78263" lon="6.60383">
        <ele>318</ele>
        <time>2014-10-30T09:37:17.1Z</time>
      </trkpt>
      <trkpt lat="47.78269" lon="6.60385">
        <ele>318</ele>
        <time>2014-10-30T09:37:20.1Z</time>
      </trkpt>
      <trkpt lat="47.78275" lon="6.60387">
        <ele>318</ele>
        <time>2014-10-30T09:37:23.1Z</time>
      </trkpt>
      <trkpt lat="47.78278" lon="6.60388">
        <ele>318</ele>
        <time>2014-10-30T09:37:25.1Z</time>
      </trkpt>
      <trkpt lat="47.78283" lon="6.60388">
        <ele>318</ele>
        <time>2014-10-30T09:37:28.1Z</time>
      </trkpt>
      <trkpt lat="47.78286" lon="6.60388">
        <ele>319</ele>
        <time>2014-10-30T09:37:30.1Z</time>
      </trkpt>
      <trkpt lat="47.7829" lon="6.60388">
        <ele>319</ele>
        <time>2014-10-30T09:37:33.1Z</time>
      </trkpt>
      <trkpt lat="47.78294" lon="6.60388">
        <ele>320</ele>
        <time>2014-10-30T09:37:36.1Z</time>
      </trkpt>
      <trkpt lat="47.78297" lon="6.60388">
        <ele>320</ele>
        <time>2014-10-30T09:37:38.1Z</time>
      </trkpt>
      <trkpt lat="47.78301" lon="6.60386">
        <ele>321</ele>
        <time>2014-10-30T09:37:41.1Z</time>
      </trkpt>
      <trkpt lat="47.78308" lon="6.60386">
        <ele>321</ele>
        <time>2014-10-30T09:37:44.1Z</time>
      </trkpt>
      <trkpt lat="47.78315" lon="6.60385">
        <ele>321</ele>
        <time>2014-10-30T09:37:46.1Z</time>
      </trkpt>
      <trkpt lat="47.78327" lon="6.60385">
        <ele>320</ele>
        <time>2014-10-30T09:37:49.1Z</time>
      </trkpt>
      <trkpt lat="47.78332" lon="6.6039">
        <ele>319</ele>
        <time>2014-10-30T09:37:51.1Z</time>
      </trkpt>
      <trkpt lat="47.78338" lon="6.60396">
        <ele>319</ele>
        <time>2014-10-30T09:37:54.1Z</time>
      </trkpt>
      <trkpt lat="47.78342" lon="6.60399">
        <ele>319</ele>
        <time>2014-10-30T09:37:56.1Z</time>
      </trkpt>
      <trkpt lat="47.78346" lon="6.60401">
        <ele>319</ele>
        <time>2014-10-30T09:37:59.1Z</time>
      </trkpt>
      <trkpt lat="47.78349" lon="6.60402">
        <ele>320</ele>
        <time>2014-10-30T09:38:01.1Z</time>
      </trkpt>
      <trkpt lat="47.78354" lon="6.60403">
        <ele>320</ele>
        <time>2014-10-30T09:38:04.1Z</time>
      </trkpt>
      <trkpt lat="47.78356" lon="6.60403">
        <ele>319</ele>
        <time>2014-10-30T09:38:06.1Z</time>
      </trkpt>
      <trkpt lat="47.7836" lon="6.60403">
        <ele>319</ele>
        <time>2014-10-30T09:38:08.1Z</time>
      </trkpt>
      <trkpt lat="47.78366" lon="6.60401">
        <ele>319</ele>
        <time>2014-10-30T09:38:11.1Z</time>
      </trkpt>
      <trkpt lat="47.78371" lon="6.60399">
        <ele>319</ele>
        <time>2014-10-30T09:38:13.1Z</time>
      </trkpt>
      <trkpt lat="47.78378" lon="6.60398">
        <ele>319</ele>
        <time>2014-10-30T09:38:16.1Z</time>
      </trkpt>
      <trkpt lat="47.78386" lon="6.60396">
        <ele>318</ele>
        <time>2014-10-30T09:38:19.1Z</time>
      </trkpt>
      <trkpt lat="47.78394" lon="6.60396">
        <ele>319</ele>
        <time>2014-10-30T09:38:22.1Z</time>
      </trkpt>
      <trkpt lat="47.78402" lon="6.60398">
        <ele>319</ele>
        <time>2014-10-30T09:38:25.1Z</time>
      </trkpt>
      <trkpt lat="47.78405" lon="6.604">
        <ele>319</ele>
        <time>2014-10-30T09:38:27.1Z</time>
      </trkpt>
      <trkpt lat="47.78406" lon="6.60401">
        <ele>319</ele>
        <time>2014-10-30T09:38:30.1Z</time>
      </trkpt>
      <trkpt lat="47.78408" lon="6.60403">
        <ele>319</ele>
        <time>2014-10-30T09:38:33.1Z</time>
      </trkpt>
      <trkpt lat="47.78413" lon="6.60406">
        <ele>319</ele>
        <time>2014-10-30T09:38:36.1Z</time>
      </trkpt>
      <trkpt lat="47.78421" lon="6.60411">
        <ele>319</ele>
        <time>2014-10-30T09:38:39.1Z</time>
      </trkpt>
      <trkpt lat="47.78429" lon="6.60419">
        <ele>319</ele>
        <time>2014-10-30T09:38:42.1Z</time>
      </trkpt>
      <trkpt lat="47.78434" lon="6.60426">
        <ele>319</ele>
        <time>2014-10-30T09:38:44.1Z</time>
      </trkpt>
      <trkpt lat="47.78439" lon="6.60434">
        <ele>319</ele>
        <time>2014-10-30T09:38:47.1Z</time>
      </trkpt>
      <trkpt lat="47.78441" lon="6.60438">
        <ele>319</ele>
        <time>2014-10-30T09:38:49.1Z</time>
      </trkpt>
      <trkpt lat="47.78443" lon="6.60446">
        <ele>320</ele>
        <time>2014-10-30T09:38:52.1Z</time>
      </trkpt>
      <trkpt lat="47.78441" lon="6.60452">
        <ele>320</ele>
        <time>2014-10-30T09:38:54.1Z</time>
      </trkpt>
      <trkpt lat="47.78437" lon="6.60463">
        <ele>319</ele>
        <time>2014-10-30T09:38:57.1Z</time>
      </trkpt>
      <trkpt lat="47.78437" lon="6.60472">
        <ele>319</ele>
        <time>2014-10-30T09:38:59.1Z</time>
      </trkpt>
      <trkpt lat="47.78437" lon="6.60479">
        <ele>319</ele>
        <time>2014-10-30T09:39:01.1Z</time>
      </trkpt>
      <trkpt lat="47.78439" lon="6.60486">
        <ele>320</ele>
        <time>2014-10-30T09:39:04.1Z</time>
      </trkpt>
      <trkpt lat="47.7844" lon="6.60492">
        <ele>320</ele>
        <time>2014-10-30T09:39:06.1Z</time>
      </trkpt>
      <trkpt lat="47.78439" lon="6.60498">
        <ele>320</ele>
        <time>2014-10-30T09:39:08.1Z</time>
      </trkpt>
      <trkpt lat="47.78437" lon="6.60506">
        <ele>320</ele>
        <time>2014-10-30T09:39:11.1Z</time>
      </trkpt>
      <trkpt lat="47.78436" lon="6.60516">
        <ele>321</ele>
        <time>2014-10-30T09:39:14.1Z</time>
      </trkpt>
      <trkpt lat="47.78434" lon="6.60527">
        <ele>321</ele>
        <time>2014-10-30T09:39:17.1Z</time>
      </trkpt>
      <trkpt lat="47.78432" lon="6.60534">
        <ele>322</ele>
        <time>2014-10-30T09:39:19.1Z</time>
      </trkpt>
      <trkpt lat="47.7843" lon="6.60539">
        <ele>322</ele>
        <time>2014-10-30T09:39:21.1Z</time>
      </trkpt>
      <trkpt lat="47.78428" lon="6.60548">
        <ele>322</ele>
        <time>2014-10-30T09:39:24.1Z</time>
      </trkpt>
      <trkpt lat="47.78427" lon="6.60559">
        <ele>322</ele>
        <time>2014-10-30T09:39:27.1Z</time>
      </trkpt>
      <trkpt lat="47.78428" lon="6.60566">
        <ele>323</ele>
        <time>2014-10-30T09:39:29.1Z</time>
      </trkpt>
      <trkpt lat="47.78429" lon="6.60571">
        <ele>323</ele>
        <time>2014-10-30T09:39:31.1Z</time>
      </trkpt>
      <trkpt lat="47.78432" lon="6.60581">
        <ele>324</ele>
        <time>2014-10-30T09:39:34.1Z</time>
      </trkpt>
      <trkpt lat="47.78433" lon="6.60587">
        <ele>324</ele>
        <time>2014-10-30T09:39:36.1Z</time>
      </trkpt>
      <trkpt lat="47.78433" lon="6.60597">
        <ele>325</ele>
        <time>2014-10-30T09:39:39.1Z</time>
      </trkpt>
      <trkpt lat="47.78434" lon="6.60604">
        <ele>325</ele>
        <time>2014-10-30T09:39:41.1Z</time>
      </trkpt>
      <trkpt lat="47.78435" lon="6.6061">
        <ele>326</ele>
        <time>2014-10-30T09:39:43.1Z</time>
      </trkpt>
      <trkpt lat="47.78437" lon="6.60615">
        <ele>326</ele>
        <time>2014-10-30T09:39:45.1Z</time>
      </trkpt>
      <trkpt lat="47.78439" lon="6.6062">
        <ele>326</ele>
        <time>2014-10-30T09:39:47.1Z</time>
      </trkpt>
      <trkpt lat="47.78444" lon="6.60624">
        <ele>326</ele>
        <time>2014-10-30T09:39:50.1Z</time>
      </trkpt>
      <trkpt lat="47.78447" lon="6.60626">
        <ele>327</ele>
        <time>2014-10-30T09:39:52.1Z</time>
      </trkpt>
      <trkpt lat="47.78452" lon="6.60629">
        <ele>327</ele>
        <time>2014-10-30T09:39:55.1Z</time>
      </trkpt>
      <trkpt lat="47.78455" lon="6.60631">
        <ele>327</ele>
        <time>2014-10-30T09:39:57.1Z</time>
      </trkpt>
      <trkpt lat="47.78459" lon="6.60633">
        <ele>327</ele>
        <time>2014-10-30T09:40:00.1Z</time>
      </trkpt>
      <trkpt lat="47.78464" lon="6.60637">
        <ele>328</ele>
        <time>2014-10-30T09:40:03.1Z</time>
      </trkpt>
      <trkpt lat="47.78468" lon="6.6064">
        <ele>328</ele>
        <time>2014-10-30T09:40:05.1Z</time>
      </trkpt>
      <trkpt lat="47.78474" lon="6.60645">
        <ele>328</ele>
        <time>2014-10-30T09:40:08.1Z</time>
      </trkpt>
      <trkpt lat="47.78481" lon="6.60647">
        <ele>328</ele>
        <time>2014-10-30T09:40:11.1Z</time>
      </trkpt>
      <trkpt lat="47.78486" lon="6.60648">
        <ele>328</ele>
        <time>2014-10-30T09:40:13.1Z</time>
      </trkpt>
      <trkpt lat="47.78491" lon="6.60647">
        <ele>328</ele>
        <time>2014-10-30T09:40:15.1Z</time>
      </trkpt>
      <trkpt lat="47.78499" lon="6.60643">
        <ele>329</ele>
        <time>2014-10-30T09:40:18.1Z</time>
      </trkpt>
      <trkpt lat="47.78507" lon="6.60637">
        <ele>329</ele>
        <time>2014-10-30T09:40:21.1Z</time>
      </trkpt>
      <trkpt lat="47.78512" lon="6.60635">
        <ele>329</ele>
        <time>2014-10-30T09:40:23.1Z</time>
      </trkpt>
      <trkpt lat="47.78517" lon="6.60633">
        <ele>329</ele>
        <time>2014-10-30T09:40:26.1Z</time>
      </trkpt>
      <trkpt lat="47.7852" lon="6.60634">
        <ele>329</ele>
        <time>2014-10-30T09:40:29.1Z</time>
      </trkpt>
      <trkpt lat="47.78524" lon="6.60634">
        <ele>329</ele>
        <time>2014-10-30T09:40:32.1Z</time>
      </trkpt>
      <trkpt lat="47.7853" lon="6.60633">
        <ele>329</ele>
        <time>2014-10-30T09:40:35.1Z</time>
      </trkpt>
      <trkpt lat="47.78536" lon="6.60631">
        <ele>329</ele>
        <time>2014-10-30T09:40:37.1Z</time>
      </trkpt>
      <trkpt lat="47.78541" lon="6.6063">
        <ele>329</ele>
        <time>2014-10-30T09:40:39.1Z</time>
      </trkpt>
      <trkpt lat="47.7855" lon="6.60629">
        <ele>329</ele>
        <time>2014-10-30T09:40:42.1Z</time>
      </trkpt>
      <trkpt lat="47.78555" lon="6.60628">
        <ele>329</ele>
        <time>2014-10-30T09:40:44.1Z</time>
      </trkpt>
      <trkpt lat="47.78563" lon="6.60631">
        <ele>329</ele>
        <time>2014-10-30T09:40:47.1Z</time>
      </trkpt>
      <trkpt lat="47.78571" lon="6.60636">
        <ele>329</ele>
        <time>2014-10-30T09:40:50.1Z</time>
      </trkpt>
      <trkpt lat="47.78576" lon="6.6064">
        <ele>330</ele>
        <time>2014-10-30T09:40:52.1Z</time>
      </trkpt>
      <trkpt lat="47.78582" lon="6.60645">
        <ele>330</ele>
        <time>2014-10-30T09:40:55.1Z</time>
      </trkpt>
      <trkpt lat="47.78588" lon="6.6065">
        <ele>331</ele>
        <time>2014-10-30T09:40:58.1Z</time>
      </trkpt>
      <trkpt lat="47.78593" lon="6.60658">
        <ele>331</ele>
        <time>2014-10-30T09:41:01.1Z</time>
      </trkpt>
      <trkpt lat="47.78596" lon="6.60664">
        <ele>332</ele>
        <time>2014-10-30T09:41:03.1Z</time>
      </trkpt>
      <trkpt lat="47.786" lon="6.60675">
        <ele>332</ele>
        <time>2014-10-30T09:41:06.1Z</time>
      </trkpt>
      <trkpt lat="47.786" lon="6.60693">
        <ele>332</ele>
        <time>2014-10-30T09:41:09.1Z</time>
      </trkpt>
      <trkpt lat="47.786" lon="6.60706">
        <ele>331</ele>
        <time>2014-10-30T09:41:11.1Z</time>
      </trkpt>
      <trkpt lat="47.786" lon="6.6072">
        <ele>331</ele>
        <time>2014-10-30T09:41:13.1Z</time>
      </trkpt>
      <trkpt lat="47.78608" lon="6.60736">
        <ele>330</ele>
        <time>2014-10-30T09:41:16.1Z</time>
      </trkpt>
      <trkpt lat="47.78619" lon="6.60744">
        <ele>330</ele>
        <time>2014-10-30T09:41:19.1Z</time>
      </trkpt>
      <trkpt lat="47.78629" lon="6.60756">
        <ele>330</ele>
        <time>2014-10-30T09:41:22.1Z</time>
      </trkpt>
      <trkpt lat="47.7864" lon="6.60771">
        <ele>330</ele>
        <time>2014-10-30T09:41:25.1Z</time>
      </trkpt>
      <trkpt lat="47.78653" lon="6.6078">
        <ele>328</ele>
        <time>2014-10-30T09:41:27.1Z</time>
      </trkpt>
      <trkpt lat="47.78674" lon="6.60795">
        <ele>327</ele>
        <time>2014-10-30T09:41:30.1Z</time>
      </trkpt>
      <trkpt lat="47.78683" lon="6.60809">
        <ele>326</ele>
        <time>2014-10-30T09:41:32.1Z</time>
      </trkpt>
      <trkpt lat="47.78694" lon="6.60816">
        <ele>327</ele>
        <time>2014-10-30T09:41:35.1Z</time>
      </trkpt>
      <trkpt lat="47.78701" lon="6.60816">
        <ele>328</ele>
        <time>2014-10-30T09:41:37.1Z</time>
      </trkpt>
      <trkpt lat="47.78711" lon="6.60817">
        <ele>329</ele>
        <time>2014-10-30T09:41:40.1Z</time>
      </trkpt>
      <trkpt lat="47.78715" lon="6.60818">
        <ele>329</ele>
        <time>2014-10-30T09:41:42.1Z</time>
      </trkpt>
      <trkpt lat="47.78719" lon="6.6082">
        <ele>330</ele>
        <time>2014-10-30T09:41:44.1Z</time>
      </trkpt>
      <trkpt lat="47.78724" lon="6.6082">
        <ele>331</ele>
        <time>2014-10-30T09:41:46.1Z</time>
      </trkpt>
      <trkpt lat="47.7873" lon="6.6082">
        <ele>331</ele>
        <time>2014-10-30T09:41:49.1Z</time>
      </trkpt>
      <trkpt lat="47.78734" lon="6.60821">
        <ele>332</ele>
        <time>2014-10-30T09:41:51.1Z</time>
      </trkpt>
      <trkpt lat="47.78739" lon="6.60821">
        <ele>332</ele>
        <time>2014-10-30T09:41:53.1Z</time>
      </trkpt>
      <trkpt lat="47.78744" lon="6.60819">
        <ele>332</ele>
        <time>2014-10-30T09:41:55.1Z</time>
      </trkpt>
      <trkpt lat="47.78752" lon="6.60815">
        <ele>332</ele>
        <time>2014-10-30T09:41:58.1Z</time>
      </trkpt>
      <trkpt lat="47.78759" lon="6.60813">
        <ele>332</ele>
        <time>2014-10-30T09:42:00.1Z</time>
      </trkpt>
      <trkpt lat="47.7877" lon="6.60809">
        <ele>332</ele>
        <time>2014-10-30T09:42:03.1Z</time>
      </trkpt>
      <trkpt lat="47.78776" lon="6.60808">
        <ele>332</ele>
        <time>2014-10-30T09:42:05.1Z</time>
      </trkpt>
      <trkpt lat="47.78781" lon="6.60809">
        <ele>333</ele>
        <time>2014-10-30T09:42:07.1Z</time>
      </trkpt>
      <trkpt lat="47.78788" lon="6.60812">
        <ele>333</ele>
        <time>2014-10-30T09:42:10.1Z</time>
      </trkpt>
      <trkpt lat="47.78791" lon="6.60816">
        <ele>333</ele>
        <time>2014-10-30T09:42:12.1Z</time>
      </trkpt>
      <trkpt lat="47.78797" lon="6.60823">
        <ele>334</ele>
        <time>2014-10-30T09:42:15.1Z</time>
      </trkpt>
      <trkpt lat="47.788" lon="6.60829">
        <ele>335</ele>
        <time>2014-10-30T09:42:17.1Z</time>
      </trkpt>
      <trkpt lat="47.78804" lon="6.6084">
        <ele>335</ele>
        <time>2014-10-30T09:42:20.1Z</time>
      </trkpt>
      <trkpt lat="47.78807" lon="6.60848">
        <ele>335</ele>
        <time>2014-10-30T09:42:22.1Z</time>
      </trkpt>
      <trkpt lat="47.78809" lon="6.60854">
        <ele>335</ele>
        <time>2014-10-30T09:42:24.1Z</time>
      </trkpt>
      <trkpt lat="47.78812" lon="6.60865">
        <ele>335</ele>
        <time>2014-10-30T09:42:27.1Z</time>
      </trkpt>
      <trkpt lat="47.78817" lon="6.60873">
        <ele>335</ele>
        <time>2014-10-30T09:42:29.1Z</time>
      </trkpt>
      <trkpt lat="47.78822" lon="6.6088">
        <ele>335</ele>
        <time>2014-10-30T09:42:31.1Z</time>
      </trkpt>
      <trkpt lat="47.78831" lon="6.60887">
        <ele>335</ele>
        <time>2014-10-30T09:42:34.1Z</time>
      </trkpt>
      <trkpt lat="47.78838" lon="6.60895">
        <ele>335</ele>
        <time>2014-10-30T09:42:36.1Z</time>
      </trkpt>
      <trkpt lat="47.78847" lon="6.60904">
        <ele>334</ele>
        <time>2014-10-30T09:42:38.1Z</time>
      </trkpt>
      <trkpt lat="47.78859" lon="6.60914">
        <ele>334</ele>
        <time>2014-10-30T09:42:41.1Z</time>
      </trkpt>
      <trkpt lat="47.7887" lon="6.60921">
        <ele>334</ele>
        <time>2014-10-30T09:42:44.1Z</time>
      </trkpt>
      <trkpt lat="47.78879" lon="6.60927">
        <ele>333</ele>
        <time>2014-10-30T09:42:46.1Z</time>
      </trkpt>
      <trkpt lat="47.78892" lon="6.60935">
        <ele>334</ele>
        <time>2014-10-30T09:42:49.1Z</time>
      </trkpt>
      <trkpt lat="47.789" lon="6.60941">
        <ele>334</ele>
        <time>2014-10-30T09:42:51.1Z</time>
      </trkpt>
      <trkpt lat="47.7891" lon="6.60948">
        <ele>335</ele>
        <time>2014-10-30T09:42:54.1Z</time>
      </trkpt>
      <trkpt lat="47.78917" lon="6.60952">
        <ele>335</ele>
        <time>2014-10-30T09:42:56.1Z</time>
      </trkpt>
      <trkpt lat="47.78925" lon="6.60957">
        <ele>336</ele>
        <time>2014-10-30T09:42:58.1Z</time>
      </trkpt>
      <trkpt lat="47.78937" lon="6.60963">
        <ele>336</ele>
        <time>2014-10-30T09:43:01.1Z</time>
      </trkpt>
      <trkpt lat="47.78945" lon="6.60967">
        <ele>336</ele>
        <time>2014-10-30T09:43:03.1Z</time>
      </trkpt>
      <trkpt lat="47.78957" lon="6.60973">
        <ele>337</ele>
        <time>2014-10-30T09:43:06.1Z</time>
      </trkpt>
      <trkpt lat="47.78969" lon="6.60979">
        <ele>338</ele>
        <time>2014-10-30T09:43:09.1Z</time>
      </trkpt>
      <trkpt lat="47.7898" lon="6.60988">
        <ele>338</ele>
        <time>2014-10-30T09:43:12.1Z</time>
      </trkpt>
      <trkpt lat="47.78986" lon="6.60994">
        <ele>338</ele>
        <time>2014-10-30T09:43:14.1Z</time>
      </trkpt>
      <trkpt lat="47.78989" lon="6.61">
        <ele>339</ele>
        <time>2014-10-30T09:43:16.1Z</time>
      </trkpt>
      <trkpt lat="47.78993" lon="6.61008">
        <ele>340</ele>
        <time>2014-10-30T09:43:18.1Z</time>
      </trkpt>
      <trkpt lat="47.78996" lon="6.61017">
        <ele>340</ele>
        <time>2014-10-30T09:43:21.1Z</time>
      </trkpt>
      <trkpt lat="47.78998" lon="6.61022">
        <ele>341</ele>
        <time>2014-10-30T09:43:23.1Z</time>
      </trkpt>
      <trkpt lat="47.79001" lon="6.61029">
        <ele>341</ele>
        <time>2014-10-30T09:43:26.1Z</time>
      </trkpt>
      <trkpt lat="47.79003" lon="6.61038">
        <ele>342</ele>
        <time>2014-10-30T09:43:29.1Z</time>
      </trkpt>
      <trkpt lat="47.79006" lon="6.61046">
        <ele>342</ele>
        <time>2014-10-30T09:43:31.1Z</time>
      </trkpt>
      <trkpt lat="47.79012" lon="6.61058">
        <ele>342</ele>
        <time>2014-10-30T09:43:34.1Z</time>
      </trkpt>
      <trkpt lat="47.79016" lon="6.61067">
        <ele>342</ele>
        <time>2014-10-30T09:43:36.1Z</time>
      </trkpt>
      <trkpt lat="47.79018" lon="6.61076">
        <ele>342</ele>
        <time>2014-10-30T09:43:38.1Z</time>
      </trkpt>
      <trkpt lat="47.79018" lon="6.61089">
        <ele>342</ele>
        <time>2014-10-30T09:43:41.1Z</time>
      </trkpt>
      <trkpt lat="47.79015" lon="6.61099">
        <ele>343</ele>
        <time>2014-10-30T09:43:44.1Z</time>
      </trkpt>
      <trkpt lat="47.79012" lon="6.6111">
        <ele>343</ele>
        <time>2014-10-30T09:43:47.1Z</time>
      </trkpt>
      <trkpt lat="47.7901" lon="6.6112">
        <ele>343</ele>
        <time>2014-10-30T09:43:50.1Z</time>
      </trkpt>
      <trkpt lat="47.79008" lon="6.61131">
        <ele>344</ele>
        <time>2014-10-30T09:43:53.1Z</time>
      </trkpt>
      <trkpt lat="47.79008" lon="6.6114">
        <ele>344</ele>
        <time>2014-10-30T09:43:55.1Z</time>
      </trkpt>
      <trkpt lat="47.79007" lon="6.61149">
        <ele>344</ele>
        <time>2014-10-30T09:43:57.1Z</time>
      </trkpt>
      <trkpt lat="47.79008" lon="6.61161">
        <ele>345</ele>
        <time>2014-10-30T09:44:00.1Z</time>
      </trkpt>
      <trkpt lat="47.79009" lon="6.6117">
        <ele>345</ele>
        <time>2014-10-30T09:44:02.1Z</time>
      </trkpt>
      <trkpt lat="47.7901" lon="6.61184">
        <ele>345</ele>
        <time>2014-10-30T09:44:05.1Z</time>
      </trkpt>
      <trkpt lat="47.79013" lon="6.61194">
        <ele>345</ele>
        <time>2014-10-30T09:44:07.1Z</time>
      </trkpt>
      <trkpt lat="47.79015" lon="6.61203">
        <ele>345</ele>
        <time>2014-10-30T09:44:09.1Z</time>
      </trkpt>
      <trkpt lat="47.79021" lon="6.61218">
        <ele>345</ele>
        <time>2014-10-30T09:44:12.1Z</time>
      </trkpt>
      <trkpt lat="47.79024" lon="6.61232">
        <ele>345</ele>
        <time>2014-10-30T09:44:15.1Z</time>
      </trkpt>
      <trkpt lat="47.79025" lon="6.61247">
        <ele>345</ele>
        <time>2014-10-30T09:44:18.1Z</time>
      </trkpt>
      <trkpt lat="47.79025" lon="6.61256">
        <ele>346</ele>
        <time>2014-10-30T09:44:20.1Z</time>
      </trkpt>
      <trkpt lat="47.79023" lon="6.61269">
        <ele>346</ele>
        <time>2014-10-30T09:44:23.1Z</time>
      </trkpt>
      <trkpt lat="47.79021" lon="6.61277">
        <ele>347</ele>
        <time>2014-10-30T09:44:25.1Z</time>
      </trkpt>
      <trkpt lat="47.79017" lon="6.61286">
        <ele>347</ele>
        <time>2014-10-30T09:44:27.1Z</time>
      </trkpt>
      <trkpt lat="47.79013" lon="6.61297">
        <ele>347</ele>
        <time>2014-10-30T09:44:29.1Z</time>
      </trkpt>
      <trkpt lat="47.79006" lon="6.6131">
        <ele>347</ele>
        <time>2014-10-30T09:44:32.1Z</time>
      </trkpt>
      <trkpt lat="47.79002" lon="6.61318">
        <ele>347</ele>
        <time>2014-10-30T09:44:34.1Z</time>
      </trkpt>
      <trkpt lat="47.78998" lon="6.61325">
        <ele>348</ele>
        <time>2014-10-30T09:44:36.1Z</time>
      </trkpt>
      <trkpt lat="47.78994" lon="6.61332">
        <ele>348</ele>
        <time>2014-10-30T09:44:38.1Z</time>
      </trkpt>
      <trkpt lat="47.78989" lon="6.6134">
        <ele>348</ele>
        <time>2014-10-30T09:44:40.1Z</time>
      </trkpt>
      <trkpt lat="47.78985" lon="6.61349">
        <ele>348</ele>
        <time>2014-10-30T09:44:42.1Z</time>
      </trkpt>
      <trkpt lat="47.78981" lon="6.61361">
        <ele>348</ele>
        <time>2014-10-30T09:44:44.1Z</time>
      </trkpt>
      <trkpt lat="47.78977" lon="6.61382">
        <ele>348</ele>
        <time>2014-10-30T09:44:47.1Z</time>
      </trkpt>
      <trkpt lat="47.78977" lon="6.61397">
        <ele>347</ele>
        <time>2014-10-30T09:44:49.1Z</time>
      </trkpt>
      <trkpt lat="47.78978" lon="6.61419">
        <ele>346</ele>
        <time>2014-10-30T09:44:52.1Z</time>
      </trkpt>
      <trkpt lat="47.78978" lon="6.61446">
        <ele>346</ele>
        <time>2014-10-30T09:44:55.1Z</time>
      </trkpt>
      <trkpt lat="47.78979" lon="6.61467">
        <ele>345</ele>
        <time>2014-10-30T09:44:57.1Z</time>
      </trkpt>
      <trkpt lat="47.78978" lon="6.61492">
        <ele>344</ele>
        <time>2014-10-30T09:45:00.1Z</time>
      </trkpt>
      <trkpt lat="47.78976" lon="6.61515">
        <ele>343</ele>
        <time>2014-10-30T09:45:03.1Z</time>
      </trkpt>
      <trkpt lat="47.78979" lon="6.61528">
        <ele>344</ele>
        <time>2014-10-30T09:45:05.1Z</time>
      </trkpt>
      <trkpt lat="47.78983" lon="6.61541">
        <ele>343</ele>
        <time>2014-10-30T09:45:07.1Z</time>
      </trkpt>
      <trkpt lat="47.78988" lon="6.61555">
        <ele>343</ele>
        <time>2014-10-30T09:45:09.1Z</time>
      </trkpt>
      <trkpt lat="47.78996" lon="6.61569">
        <ele>343</ele>
        <time>2014-10-30T09:45:11.1Z</time>
      </trkpt>
      <trkpt lat="47.79007" lon="6.61598">
        <ele>342</ele>
        <time>2014-10-30T09:45:14.1Z</time>
      </trkpt>
      <trkpt lat="47.79014" lon="6.61623">
        <ele>341</ele>
        <time>2014-10-30T09:45:16.1Z</time>
      </trkpt>
      <trkpt lat="47.79021" lon="6.61649">
        <ele>339</ele>
        <time>2014-10-30T09:45:18.1Z</time>
      </trkpt>
      <trkpt lat="47.79029" lon="6.61692">
        <ele>337</ele>
        <time>2014-10-30T09:45:21.1Z</time>
      </trkpt>
      <trkpt lat="47.79031" lon="6.61737">
        <ele>334</ele>
        <time>2014-10-30T09:45:24.1Z</time>
      </trkpt>
      <trkpt lat="47.79033" lon="6.61767">
        <ele>333</ele>
        <time>2014-10-30T09:45:26.1Z</time>
      </trkpt>
      <trkpt lat="47.79035" lon="6.61795">
        <ele>332</ele>
        <time>2014-10-30T09:45:28.1Z</time>
      </trkpt>
      <trkpt lat="47.79042" lon="6.61832">
        <ele>332</ele>
        <time>2014-10-30T09:45:31.1Z</time>
      </trkpt>
      <trkpt lat="47.79049" lon="6.6185">
        <ele>331</ele>
        <time>2014-10-30T09:45:33.1Z</time>
      </trkpt>
      <trkpt lat="47.79055" lon="6.61862">
        <ele>331</ele>
        <time>2014-10-30T09:45:35.1Z</time>
      </trkpt>
      <trkpt lat="47.79063" lon="6.61877">
        <ele>331</ele>
        <time>2014-10-30T09:45:37.1Z</time>
      </trkpt>
      <trkpt lat="47.79071" lon="6.61914">
        <ele>330</ele>
        <time>2014-10-30T09:45:40.1Z</time>
      </trkpt>
      <trkpt lat="47.79072" lon="6.61941">
        <ele>329</ele>
        <time>2014-10-30T09:45:42.1Z</time>
      </trkpt>
      <trkpt lat="47.79063" lon="6.61977">
        <ele>327</ele>
        <time>2014-10-30T09:45:45.1Z</time>
      </trkpt>
      <trkpt lat="47.79059" lon="6.62">
        <ele>327</ele>
        <time>2014-10-30T09:45:47.1Z</time>
      </trkpt>
      <trkpt lat="47.7906" lon="6.62016">
        <ele>326</ele>
        <time>2014-10-30T09:45:49.1Z</time>
      </trkpt>
      <trkpt lat="47.79049" lon="6.62045">
        <ele>325</ele>
        <time>2014-10-30T09:45:52.1Z</time>
      </trkpt>
      <trkpt lat="47.79039" lon="6.62065">
        <ele>324</ele>
        <time>2014-10-30T09:45:54.1Z</time>
      </trkpt>
      <trkpt lat="47.79023" lon="6.62094">
        <ele>323</ele>
        <time>2014-10-30T09:45:57.1Z</time>
      </trkpt>
      <trkpt lat="47.79015" lon="6.62118">
        <ele>321</ele>
        <time>2014-10-30T09:45:59.1Z</time>
      </trkpt>
      <trkpt lat="47.79013" lon="6.62163">
        <ele>319</ele>
        <time>2014-10-30T09:46:02.1Z</time>
      </trkpt>
      <trkpt lat="47.79014" lon="6.62197">
        <ele>316</ele>
        <time>2014-10-30T09:46:04.1Z</time>
      </trkpt>
      <trkpt lat="47.79021" lon="6.62252">
        <ele>311</ele>
        <time>2014-10-30T09:46:07.1Z</time>
      </trkpt>
      <trkpt lat="47.79027" lon="6.62292">
        <ele>306</ele>
        <time>2014-10-30T09:46:10.1Z</time>
      </trkpt>
      <trkpt lat="47.79027" lon="6.62315">
        <ele>302</ele>
        <time>2014-10-30T09:46:13.1Z</time>
      </trkpt>
      <trkpt lat="47.79025" lon="6.62332">
        <ele>300</ele>
        <time>2014-10-30T09:46:16.1Z</time>
      </trkpt>
      <trkpt lat="47.79026" lon="6.62345">
        <ele>299</ele>
        <time>2014-10-30T09:46:19.1Z</time>
      </trkpt>
      <trkpt lat="47.79026" lon="6.62348">
        <ele>298</ele>
        <time>2014-10-30T09:46:21.1Z</time>
      </trkpt>
      <trkpt lat="47.79026" lon="6.62349">
        <ele>297</ele>
        <time>2014-10-30T09:46:24.1Z</time>
      </trkpt>
      <trkpt lat="47.79027" lon="6.6235">
        <ele>297</ele>
        <time>2014-10-30T09:46:27.1Z</time>
      </trkpt>
      <trkpt lat="47.79027" lon="6.6235">
        <ele>298</ele>
        <time>2014-10-30T09:46:29.1Z</time>
      </trkpt>
      <trkpt lat="47.79028" lon="6.62351">
        <ele>298</ele>
        <time>2014-10-30T09:46:32.1Z</time>
      </trkpt>
      <trkpt lat="47.79028" lon="6.62351">
        <ele>298</ele>
        <time>2014-10-30T09:46:34.1Z</time>
      </trkpt>
      <trkpt lat="47.79029" lon="6.62351">
        <ele>298</ele>
        <time>2014-10-30T09:46:36.1Z</time>
      </trkpt>
      <trkpt lat="47.79029" lon="6.62351">
        <ele>298</ele>
        <time>2014-10-30T09:46:38.1Z</time>
      </trkpt>
      <trkpt lat="47.79029" lon="6.62352">
        <ele>298</ele>
        <time>2014-10-30T09:46:41.1Z</time>
      </trkpt>
      <trkpt lat="47.7903" lon="6.62352">
        <ele>298</ele>
        <time>2014-10-30T09:46:43.1Z</time>
      </trkpt>
      <trkpt lat="47.7903" lon="6.62352">
        <ele>298</ele>
        <time>2014-10-30T09:46:46.1Z</time>
      </trkpt>
      <trkpt lat="47.79031" lon="6.62352">
        <ele>298</ele>
        <time>2014-10-30T09:46:49.1Z</time>
      </trkpt>
      <trkpt lat="47.79031" lon="6.62352">
        <ele>298</ele>
        <time>2014-10-30T09:46:52.1Z</time>
      </trkpt>
      <trkpt lat="47.79032" lon="6.62352">
        <ele>298</ele>
        <time>2014-10-30T09:46:54.1Z</time>
      </trkpt>
      <trkpt lat="47.79032" lon="6.62354">
        <ele>298</ele>
        <time>2014-10-30T09:46:57.1Z</time>
      </trkpt>
      <trkpt lat="47.79029" lon="6.62352">
        <ele>297</ele>
        <time>2014-10-30T09:47:00.1Z</time>
      </trkpt>
      <trkpt lat="47.79029" lon="6.62351">
        <ele>298</ele>
        <time>2014-10-30T09:47:02.1Z</time>
      </trkpt>
      <trkpt lat="47.79029" lon="6.62355">
        <ele>297</ele>
        <time>2014-10-30T09:47:05.1Z</time>
      </trkpt>
      <trkpt lat="47.79029" lon="6.62362">
        <ele>297</ele>
        <time>2014-10-30T09:47:07.1Z</time>
      </trkpt>
      <trkpt lat="47.79032" lon="6.62372">
        <ele>297</ele>
        <time>2014-10-30T09:47:10.1Z</time>
      </trkpt>
      <trkpt lat="47.79034" lon="6.6237">
        <ele>296</ele>
        <time>2014-10-30T09:47:12.1Z</time>
      </trkpt>
      <trkpt lat="47.79031" lon="6.62365">
        <ele>296</ele>
        <time>2014-10-30T09:47:14.1Z</time>
      </trkpt>
      <trkpt lat="47.79029" lon="6.62354">
        <ele>297</ele>
        <time>2014-10-30T09:47:17.1Z</time>
      </trkpt>
      <trkpt lat="47.79031" lon="6.62343">
        <ele>297</ele>
        <time>2014-10-30T09:47:20.1Z</time>
      </trkpt>
      <trkpt lat="47.79032" lon="6.62336">
        <ele>298</ele>
        <time>2014-10-30T09:47:22.1Z</time>
      </trkpt>
      <trkpt lat="47.79033" lon="6.62327">
        <ele>299</ele>
        <time>2014-10-30T09:47:25.1Z</time>
      </trkpt>
      <trkpt lat="47.79035" lon="6.62322">
        <ele>299</ele>
        <time>2014-10-30T09:47:27.1Z</time>
      </trkpt>
      <trkpt lat="47.7904" lon="6.62318">
        <ele>300</ele>
        <time>2014-10-30T09:47:30.1Z</time>
      </trkpt>
      <trkpt lat="47.79046" lon="6.62319">
        <ele>301</ele>
        <time>2014-10-30T09:47:33.1Z</time>
      </trkpt>
      <trkpt lat="47.7905" lon="6.62324">
        <ele>302</ele>
        <time>2014-10-30T09:47:36.1Z</time>
      </trkpt>
      <trkpt lat="47.79053" lon="6.62328">
        <ele>303</ele>
        <time>2014-10-30T09:47:38.1Z</time>
      </trkpt>
      <trkpt lat="47.79056" lon="6.62333">
        <ele>304</ele>
        <time>2014-10-30T09:47:41.1Z</time>
      </trkpt>
      <trkpt lat="47.79058" lon="6.62336">
        <ele>304</ele>
        <time>2014-10-30T09:47:43.1Z</time>
      </trkpt>
      <trkpt lat="47.7906" lon="6.62339">
        <ele>305</ele>
        <time>2014-10-30T09:47:45.1Z</time>
      </trkpt>
      <trkpt lat="47.79062" lon="6.62343">
        <ele>305</ele>
        <time>2014-10-30T09:47:47.1Z</time>
      </trkpt>
      <trkpt lat="47.79064" lon="6.62347">
        <ele>306</ele>
        <time>2014-10-30T09:47:50.1Z</time>
      </trkpt>
      <trkpt lat="47.79066" lon="6.62349">
        <ele>306</ele>
        <time>2014-10-30T09:47:52.1Z</time>
      </trkpt>
      <trkpt lat="47.79068" lon="6.62352">
        <ele>307</ele>
        <time>2014-10-30T09:47:54.1Z</time>
      </trkpt>
      <trkpt lat="47.79071" lon="6.62356">
        <ele>307</ele>
        <time>2014-10-30T09:47:57.1Z</time>
      </trkpt>
      <trkpt lat="47.79073" lon="6.62359">
        <ele>308</ele>
        <time>2014-10-30T09:47:59.1Z</time>
      </trkpt>
      <trkpt lat="47.79075" lon="6.62361">
        <ele>308</ele>
        <time>2014-10-30T09:48:01.1Z</time>
      </trkpt>
      <trkpt lat="47.79078" lon="6.62364">
        <ele>309</ele>
        <time>2014-10-30T09:48:04.1Z</time>
      </trkpt>
      <trkpt lat="47.7908" lon="6.62366">
        <ele>309</ele>
        <time>2014-10-30T09:48:06.1Z</time>
      </trkpt>
      <trkpt lat="47.79084" lon="6.62368">
        <ele>310</ele>
        <time>2014-10-30T09:48:09.1Z</time>
      </trkpt>
      <trkpt lat="47.79086" lon="6.62369">
        <ele>310</ele>
        <time>2014-10-30T09:48:11.1Z</time>
      </trkpt>
      <trkpt lat="47.79088" lon="6.62371">
        <ele>311</ele>
        <time>2014-10-30T09:48:13.1Z</time>
      </trkpt>
      <trkpt lat="47.7909" lon="6.62371">
        <ele>311</ele>
        <time>2014-10-30T09:48:15.1Z</time>
      </trkpt>
      <trkpt lat="47.79092" lon="6.62372">
        <ele>311</ele>
        <time>2014-10-30T09:48:17.1Z</time>
      </trkpt>
      <trkpt lat="47.79094" lon="6.62372">
        <ele>312</ele>
        <time>2014-10-30T09:48:19.1Z</time>
      </trkpt>
      <trkpt lat="47.79097" lon="6.62372">
        <ele>312</ele>
        <time>2014-10-30T09:48:22.1Z</time>
      </trkpt>
      <trkpt lat="47.791" lon="6.62372">
        <ele>312</ele>
        <time>2014-10-30T09:48:24.1Z</time>
      </trkpt>
      <trkpt lat="47.79102" lon="6.62372">
        <ele>313</ele>
        <time>2014-10-30T09:48:26.1Z</time>
      </trkpt>
      <trkpt lat="47.79105" lon="6.6237">
        <ele>313</ele>
        <time>2014-10-30T09:48:29.1Z</time>
      </trkpt>
      <trkpt lat="47.79108" lon="6.62369">
        <ele>313</ele>
        <time>2014-10-30T09:48:31.1Z</time>
      </trkpt>
      <trkpt lat="47.79111" lon="6.62367">
        <ele>314</ele>
        <time>2014-10-30T09:48:34.1Z</time>
      </trkpt>
      <trkpt lat="47.79113" lon="6.62365">
        <ele>315</ele>
        <time>2014-10-30T09:48:36.1Z</time>
      </trkpt>
      <trkpt lat="47.79116" lon="6.62364">
        <ele>315</ele>
        <time>2014-10-30T09:48:39.1Z</time>
      </trkpt>
      <trkpt lat="47.79119" lon="6.62363">
        <ele>315</ele>
        <time>2014-10-30T09:48:41.1Z</time>
      </trkpt>
      <trkpt lat="47.79121" lon="6.62362">
        <ele>316</ele>
        <time>2014-10-30T09:48:43.1Z</time>
      </trkpt>
      <trkpt lat="47.79124" lon="6.62362">
        <ele>316</ele>
        <time>2014-10-30T09:48:46.1Z</time>
      </trkpt>
      <trkpt lat="47.79126" lon="6.62362">
        <ele>317</ele>
        <time>2014-10-30T09:48:48.1Z</time>
      </trkpt>
      <trkpt lat="47.79128" lon="6.62362">
        <ele>317</ele>
        <time>2014-10-30T09:48:50.1Z</time>
      </trkpt>
      <trkpt lat="47.79131" lon="6.62364">
        <ele>318</ele>
        <time>2014-10-30T09:48:52.1Z</time>
      </trkpt>
      <trkpt lat="47.79134" lon="6.62365">
        <ele>318</ele>
        <time>2014-10-30T09:48:55.1Z</time>
      </trkpt>
      <trkpt lat="47.79137" lon="6.62367">
        <ele>319</ele>
        <time>2014-10-30T09:48:58.1Z</time>
      </trkpt>
      <trkpt lat="47.7914" lon="6.62371">
        <ele>320</ele>
        <time>2014-10-30T09:49:01.1Z</time>
      </trkpt>
      <trkpt lat="47.79142" lon="6.62374">
        <ele>320</ele>
        <time>2014-10-30T09:49:03.1Z</time>
      </trkpt>
      <trkpt lat="47.79144" lon="6.62378">
        <ele>321</ele>
        <time>2014-10-30T09:49:06.1Z</time>
      </trkpt>
      <trkpt lat="47.79146" lon="6.6238">
        <ele>321</ele>
        <time>2014-10-30T09:49:08.1Z</time>
      </trkpt>
      <trkpt lat="47.79148" lon="6.62383">
        <ele>322</ele>
        <time>2014-10-30T09:49:10.1Z</time>
      </trkpt>
      <trkpt lat="47.79152" lon="6.62386">
        <ele>322</ele>
        <time>2014-10-30T09:49:13.1Z</time>
      </trkpt>
      <trkpt lat="47.79155" lon="6.62388">
        <ele>322</ele>
        <time>2014-10-30T09:49:16.1Z</time>
      </trkpt>
      <trkpt lat="47.79158" lon="6.6239">
        <ele>323</ele>
        <time>2014-10-30T09:49:18.1Z</time>
      </trkpt>
      <trkpt lat="47.79163" lon="6.6239">
        <ele>323</ele>
        <time>2014-10-30T09:49:20.1Z</time>
      </trkpt>
      <trkpt lat="47.79169" lon="6.6239">
        <ele>323</ele>
        <time>2014-10-30T09:49:23.1Z</time>
      </trkpt>
      <trkpt lat="47.79173" lon="6.62389">
        <ele>323</ele>
        <time>2014-10-30T09:49:25.1Z</time>
      </trkpt>
      <trkpt lat="47.7918" lon="6.62386">
        <ele>323</ele>
        <time>2014-10-30T09:49:28.1Z</time>
      </trkpt>
      <trkpt lat="47.79186" lon="6.6238">
        <ele>323</ele>
        <time>2014-10-30T09:49:31.1Z</time>
      </trkpt>
      <trkpt lat="47.79192" lon="6.62373">
        <ele>324</ele>
        <time>2014-10-30T09:49:34.1Z</time>
      </trkpt>
      <trkpt lat="47.79195" lon="6.62368">
        <ele>324</ele>
        <time>2014-10-30T09:49:36.1Z</time>
      </trkpt>
      <trkpt lat="47.79198" lon="6.62363">
        <ele>324</ele>
        <time>2014-10-30T09:49:38.1Z</time>
      </trkpt>
      <trkpt lat="47.79202" lon="6.62355">
        <ele>325</ele>
        <time>2014-10-30T09:49:41.1Z</time>
      </trkpt>
      <trkpt lat="47.79207" lon="6.62349">
        <ele>325</ele>
        <time>2014-10-30T09:49:44.1Z</time>
      </trkpt>
      <trkpt lat="47.79212" lon="6.6235">
        <ele>326</ele>
        <time>2014-10-30T09:49:47.1Z</time>
      </trkpt>
      <trkpt lat="47.79216" lon="6.62356">
        <ele>327</ele>
        <time>2014-10-30T09:49:50.1Z</time>
      </trkpt>
      <trkpt lat="47.7922" lon="6.62363">
        <ele>327</ele>
        <time>2014-10-30T09:49:53.1Z</time>
      </trkpt>
      <trkpt lat="47.79222" lon="6.62366">
        <ele>328</ele>
        <time>2014-10-30T09:49:55.1Z</time>
      </trkpt>
      <trkpt lat="47.79226" lon="6.62371">
        <ele>328</ele>
        <time>2014-10-30T09:49:58.1Z</time>
      </trkpt>
      <trkpt lat="47.79229" lon="6.62379">
        <ele>328</ele>
        <time>2014-10-30T09:50:01.1Z</time>
      </trkpt>
      <trkpt lat="47.79229" lon="6.62384">
        <ele>329</ele>
        <time>2014-10-30T09:50:03.1Z</time>
      </trkpt>
      <trkpt lat="47.7923" lon="6.6239">
        <ele>329</ele>
        <time>2014-10-30T09:50:05.1Z</time>
      </trkpt>
      <trkpt lat="47.79231" lon="6.62396">
        <ele>329</ele>
        <time>2014-10-30T09:50:07.1Z</time>
      </trkpt>
      <trkpt lat="47.79231" lon="6.62401">
        <ele>329</ele>
        <time>2014-10-30T09:50:09.1Z</time>
      </trkpt>
      <trkpt lat="47.79234" lon="6.62408">
        <ele>330</ele>
        <time>2014-10-30T09:50:12.1Z</time>
      </trkpt>
      <trkpt lat="47.79236" lon="6.62412">
        <ele>330</ele>
        <time>2014-10-30T09:50:14.1Z</time>
      </trkpt>
      <trkpt lat="47.79238" lon="6.62417">
        <ele>330</ele>
        <time>2014-10-30T09:50:16.1Z</time>
      </trkpt>
      <trkpt lat="47.79241" lon="6.62423">
        <ele>330</ele>
        <time>2014-10-30T09:50:18.1Z</time>
      </trkpt>
      <trkpt lat="47.79246" lon="6.62432">
        <ele>330</ele>
        <time>2014-10-30T09:50:21.1Z</time>
      </trkpt>
      <trkpt lat="47.79251" lon="6.62443">
        <ele>329</ele>
        <time>2014-10-30T09:50:24.1Z</time>
      </trkpt>
      <trkpt lat="47.79256" lon="6.62454">
        <ele>329</ele>
        <time>2014-10-30T09:50:27.1Z</time>
      </trkpt>
      <trkpt lat="47.79259" lon="6.6246">
        <ele>329</ele>
        <time>2014-10-30T09:50:29.1Z</time>
      </trkpt>
      <trkpt lat="47.79263" lon="6.62469">
        <ele>329</ele>
        <time>2014-10-30T09:50:32.1Z</time>
      </trkpt>
      <trkpt lat="47.79269" lon="6.62474">
        <ele>329</ele>
        <time>2014-10-30T09:50:35.1Z</time>
      </trkpt>
      <trkpt lat="47.79274" lon="6.62476">
        <ele>330</ele>
        <time>2014-10-30T09:50:37.1Z</time>
      </trkpt>
      <trkpt lat="47.79278" lon="6.62476">
        <ele>330</ele>
        <time>2014-10-30T09:50:39.1Z</time>
      </trkpt>
      <trkpt lat="47.79284" lon="6.62477">
        <ele>330</ele>
        <time>2014-10-30T09:50:42.1Z</time>
      </trkpt>
      <trkpt lat="47.79288" lon="6.62477">
        <ele>331</ele>
        <time>2014-10-30T09:50:44.1Z</time>
      </trkpt>
      <trkpt lat="47.79293" lon="6.62475">
        <ele>332</ele>
        <time>2014-10-30T09:50:47.1Z</time>
      </trkpt>
      <trkpt lat="47.79297" lon="6.62473">
        <ele>332</ele>
        <time>2014-10-30T09:50:49.1Z</time>
      </trkpt>
      <trkpt lat="47.79301" lon="6.62472">
        <ele>333</ele>
        <time>2014-10-30T09:50:51.1Z</time>
      </trkpt>
      <trkpt lat="47.79305" lon="6.62471">
        <ele>333</ele>
        <time>2014-10-30T09:50:53.1Z</time>
      </trkpt>
      <trkpt lat="47.79309" lon="6.62469">
        <ele>333</ele>
        <time>2014-10-30T09:50:55.1Z</time>
      </trkpt>
      <trkpt lat="47.79312" lon="6.62466">
        <ele>334</ele>
        <time>2014-10-30T09:50:57.1Z</time>
      </trkpt>
      <trkpt lat="47.79317" lon="6.62462">
        <ele>334</ele>
        <time>2014-10-30T09:51:00.1Z</time>
      </trkpt>
      <trkpt lat="47.7932" lon="6.62459">
        <ele>335</ele>
        <time>2014-10-30T09:51:02.1Z</time>
      </trkpt>
      <trkpt lat="47.79325" lon="6.62456">
        <ele>335</ele>
        <time>2014-10-30T09:51:05.1Z</time>
      </trkpt>
      <trkpt lat="47.79328" lon="6.62454">
        <ele>335</ele>
        <time>2014-10-30T09:51:07.1Z</time>
      </trkpt>
      <trkpt lat="47.79333" lon="6.62453">
        <ele>335</ele>
        <time>2014-10-30T09:51:10.1Z</time>
      </trkpt>
      <trkpt lat="47.79336" lon="6.62452">
        <ele>335</ele>
        <time>2014-10-30T09:51:12.1Z</time>
      </trkpt>
      <trkpt lat="47.7934" lon="6.62451">
        <ele>336</ele>
        <time>2014-10-30T09:51:15.1Z</time>
      </trkpt>
      <trkpt lat="47.79343" lon="6.62452">
        <ele>336</ele>
        <time>2014-10-30T09:51:17.1Z</time>
      </trkpt>
      <trkpt lat="47.79346" lon="6.62452">
        <ele>336</ele>
        <time>2014-10-30T09:51:19.1Z</time>
      </trkpt>
      <trkpt lat="47.7935" lon="6.62452">
        <ele>337</ele>
        <time>2014-10-30T09:51:21.1Z</time>
      </trkpt>
      <trkpt lat="47.79354" lon="6.62451">
        <ele>337</ele>
        <time>2014-10-30T09:51:24.1Z</time>
      </trkpt>
      <trkpt lat="47.79357" lon="6.62451">
        <ele>338</ele>
        <time>2014-10-30T09:51:26.1Z</time>
      </trkpt>
      <trkpt lat="47.79361" lon="6.62451">
        <ele>338</ele>
        <time>2014-10-30T09:51:29.1Z</time>
      </trkpt>
      <trkpt lat="47.79364" lon="6.62451">
        <ele>339</ele>
        <time>2014-10-30T09:51:32.1Z</time>
      </trkpt>
      <trkpt lat="47.79367" lon="6.62451">
        <ele>340</ele>
        <time>2014-10-30T09:51:35.1Z</time>
      </trkpt>
      <trkpt lat="47.7937" lon="6.62451">
        <ele>340</ele>
        <time>2014-10-30T09:51:37.1Z</time>
      </trkpt>
      <trkpt lat="47.79372" lon="6.6245">
        <ele>341</ele>
        <time>2014-10-30T09:51:39.1Z</time>
      </trkpt>
      <trkpt lat="47.79375" lon="6.62449">
        <ele>341</ele>
        <time>2014-10-30T09:51:41.1Z</time>
      </trkpt>
      <trkpt lat="47.79376" lon="6.62447">
        <ele>341</ele>
        <time>2014-10-30T09:51:44.1Z</time>
      </trkpt>
      <trkpt lat="47.79377" lon="6.62447">
        <ele>342</ele>
        <time>2014-10-30T09:51:46.1Z</time>
      </trkpt>
      <trkpt lat="47.79379" lon="6.62446">
        <ele>342</ele>
        <time>2014-10-30T09:51:48.1Z</time>
      </trkpt>
      <trkpt lat="47.7938" lon="6.62445">
        <ele>342</ele>
        <time>2014-10-30T09:51:51.1Z</time>
      </trkpt>
      <trkpt lat="47.79382" lon="6.62443">
        <ele>343</ele>
        <time>2014-10-30T09:51:54.1Z</time>
      </trkpt>
      <trkpt lat="47.79384" lon="6.62443">
        <ele>343</ele>
        <time>2014-10-30T09:51:57.1Z</time>
      </trkpt>
      <trkpt lat="47.79383" lon="6.62444">
        <ele>343</ele>
        <time>2014-10-30T09:52:00.1Z</time>
      </trkpt>
      <trkpt lat="47.79384" lon="6.62443">
        <ele>343</ele>
        <time>2014-10-30T09:52:02.1Z</time>
      </trkpt>
      <trkpt lat="47.79385" lon="6.62444">
        <ele>343</ele>
        <time>2014-10-30T09:52:05.1Z</time>
      </trkpt>
      <trkpt lat="47.79385" lon="6.62445">
        <ele>343</ele>
        <time>2014-10-30T09:52:07.1Z</time>
      </trkpt>
      <trkpt lat="47.79386" lon="6.62445">
        <ele>343</ele>
        <time>2014-10-30T09:52:09.1Z</time>
      </trkpt>
      <trkpt lat="47.79387" lon="6.62446">
        <ele>343</ele>
        <time>2014-10-30T09:52:12.1Z</time>
      </trkpt>
      <trkpt lat="47.79387" lon="6.62446">
        <ele>344</ele>
        <time>2014-10-30T09:52:14.1Z</time>
      </trkpt>
      <trkpt lat="47.79388" lon="6.62445">
        <ele>345</ele>
        <time>2014-10-30T09:52:16.1Z</time>
      </trkpt>
      <trkpt lat="47.79389" lon="6.62445">
        <ele>345</ele>
        <time>2014-10-30T09:52:19.1Z</time>
      </trkpt>
      <trkpt lat="47.7939" lon="6.62445">
        <ele>346</ele>
        <time>2014-10-30T09:52:21.1Z</time>
      </trkpt>
      <trkpt lat="47.79391" lon="6.62445">
        <ele>346</ele>
        <time>2014-10-30T09:52:23.1Z</time>
      </trkpt>
      <trkpt lat="47.79392" lon="6.62446">
        <ele>346</ele>
        <time>2014-10-30T09:52:26.1Z</time>
      </trkpt>
      <trkpt lat="47.79392" lon="6.62446">
        <ele>347</ele>
        <time>2014-10-30T09:52:28.1Z</time>
      </trkpt>
      <trkpt lat="47.79393" lon="6.62446">
        <ele>347</ele>
        <time>2014-10-30T09:52:30.1Z</time>
      </trkpt>
      <trkpt lat="47.79394" lon="6.62445">
        <ele>348</ele>
        <time>2014-10-30T09:52:33.1Z</time>
      </trkpt>
      <trkpt lat="47.79395" lon="6.62446">
        <ele>348</ele>
        <time>2014-10-30T09:52:35.1Z</time>
      </trkpt>
      <trkpt lat="47.79396" lon="6.62447">
        <ele>349</ele>
        <time>2014-10-30T09:52:37.1Z</time>
      </trkpt>
      <trkpt lat="47.79398" lon="6.62448">
        <ele>349</ele>
        <time>2014-10-30T09:52:39.1Z</time>
      </trkpt>
      <trkpt lat="47.79398" lon="6.62448">
        <ele>349</ele>
        <time>2014-10-30T09:52:42.1Z</time>
      </trkpt>
      <trkpt lat="47.79399" lon="6.62448">
        <ele>349</ele>
        <time>2014-10-30T09:52:45.1Z</time>
      </trkpt>
      <trkpt lat="47.794" lon="6.62449">
        <ele>350</ele>
        <time>2014-10-30T09:52:48.1Z</time>
      </trkpt>
      <trkpt lat="47.79401" lon="6.62449">
        <ele>350</ele>
        <time>2014-10-30T09:52:50.1Z</time>
      </trkpt>
      <trkpt lat="47.79402" lon="6.6245">
        <ele>350</ele>
        <time>2014-10-30T09:52:52.1Z</time>
      </trkpt>
      <trkpt lat="47.79403" lon="6.62451">
        <ele>351</ele>
        <time>2014-10-30T09:52:55.1Z</time>
      </trkpt>
      <trkpt lat="47.79404" lon="6.62451">
        <ele>351</ele>
        <time>2014-10-30T09:52:57.1Z</time>
      </trkpt>
      <trkpt lat="47.79406" lon="6.62452">
        <ele>351</ele>
        <time>2014-10-30T09:53:00.1Z</time>
      </trkpt>
      <trkpt lat="47.79407" lon="6.62453">
        <ele>352</ele>
        <time>2014-10-30T09:53:02.1Z</time>
      </trkpt>
      <trkpt lat="47.79408" lon="6.62453">
        <ele>352</ele>
        <time>2014-10-30T09:53:05.1Z</time>
      </trkpt>
      <trkpt lat="47.7941" lon="6.62453">
        <ele>353</ele>
        <time>2014-10-30T09:53:08.1Z</time>
      </trkpt>
      <trkpt lat="47.79413" lon="6.62454">
        <ele>353</ele>
        <time>2014-10-30T09:53:11.1Z</time>
      </trkpt>
      <trkpt lat="47.79414" lon="6.62455">
        <ele>353</ele>
        <time>2014-10-30T09:53:13.1Z</time>
      </trkpt>
      <trkpt lat="47.79417" lon="6.62457">
        <ele>354</ele>
        <time>2014-10-30T09:53:16.1Z</time>
      </trkpt>
      <trkpt lat="47.79419" lon="6.62458">
        <ele>354</ele>
        <time>2014-10-30T09:53:19.1Z</time>
      </trkpt>
      <trkpt lat="47.7942" lon="6.62458">
        <ele>355</ele>
        <time>2014-10-30T09:53:21.1Z</time>
      </trkpt>
      <trkpt lat="47.79422" lon="6.62459">
        <ele>355</ele>
        <time>2014-10-30T09:53:23.1Z</time>
      </trkpt>
      <trkpt lat="47.79423" lon="6.6246">
        <ele>355</ele>
        <time>2014-10-30T09:53:25.1Z</time>
      </trkpt>
      <trkpt lat="47.79424" lon="6.62461">
        <ele>355</ele>
        <time>2014-10-30T09:53:28.1Z</time>
      </trkpt>
      <trkpt lat="47.79425" lon="6.62461">
        <ele>355</ele>
        <time>2014-10-30T09:53:30.1Z</time>
      </trkpt>
      <trkpt lat="47.79426" lon="6.62463">
        <ele>355</ele>
        <time>2014-10-30T09:53:33.1Z</time>
      </trkpt>
      <trkpt lat="47.79427" lon="6.62464">
        <ele>355</ele>
        <time>2014-10-30T09:53:35.1Z</time>
      </trkpt>
      <trkpt lat="47.79429" lon="6.62464">
        <ele>355</ele>
        <time>2014-10-30T09:53:37.1Z</time>
      </trkpt>
      <trkpt lat="47.79431" lon="6.62465">
        <ele>355</ele>
        <time>2014-10-30T09:53:40.1Z</time>
      </trkpt>
      <trkpt lat="47.79434" lon="6.62465">
        <ele>355</ele>
        <time>2014-10-30T09:53:43.1Z</time>
      </trkpt>
      <trkpt lat="47.79438" lon="6.62467">
        <ele>355</ele>
        <time>2014-10-30T09:53:46.1Z</time>
      </trkpt>
      <trkpt lat="47.7944" lon="6.62467">
        <ele>355</ele>
        <time>2014-10-30T09:53:48.1Z</time>
      </trkpt>
      <trkpt lat="47.79443" lon="6.62468">
        <ele>355</ele>
        <time>2014-10-30T09:53:51.1Z</time>
      </trkpt>
      <trkpt lat="47.79447" lon="6.62469">
        <ele>355</ele>
        <time>2014-10-30T09:53:53.1Z</time>
      </trkpt>
      <trkpt lat="47.79449" lon="6.6247">
        <ele>355</ele>
        <time>2014-10-30T09:53:55.1Z</time>
      </trkpt>
      <trkpt lat="47.79454" lon="6.62469">
        <ele>355</ele>
        <time>2014-10-30T09:53:58.1Z</time>
      </trkpt>
      <trkpt lat="47.79457" lon="6.62469">
        <ele>356</ele>
        <time>2014-10-30T09:54:00.1Z</time>
      </trkpt>
      <trkpt lat="47.79462" lon="6.62469">
        <ele>356</ele>
        <time>2014-10-30T09:54:02.1Z</time>
      </trkpt>
      <trkpt lat="47.79471" lon="6.62467">
        <ele>356</ele>
        <time>2014-10-30T09:54:05.1Z</time>
      </trkpt>
      <trkpt lat="47.79476" lon="6.62467">
        <ele>356</ele>
        <time>2014-10-30T09:54:07.1Z</time>
      </trkpt>
      <trkpt lat="47.79488" lon="6.62468">
        <ele>356</ele>
        <time>2014-10-30T09:54:10.1Z</time>
      </trkpt>
      <trkpt lat="47.79496" lon="6.62471">
        <ele>356</ele>
        <time>2014-10-30T09:54:12.1Z</time>
      </trkpt>
      <trkpt lat="47.79505" lon="6.62473">
        <ele>355</ele>
        <time>2014-10-30T09:54:14.1Z</time>
      </trkpt>
      <trkpt lat="47.79516" lon="6.62474">
        <ele>356</ele>
        <time>2014-10-30T09:54:17.1Z</time>
      </trkpt>
      <trkpt lat="47.79523" lon="6.62475">
        <ele>356</ele>
        <time>2014-10-30T09:54:19.1Z</time>
      </trkpt>
      <trkpt lat="47.79528" lon="6.62476">
        <ele>356</ele>
        <time>2014-10-30T09:54:21.1Z</time>
      </trkpt>
      <trkpt lat="47.79534" lon="6.62479">
        <ele>357</ele>
        <time>2014-10-30T09:54:24.1Z</time>
      </trkpt>
      <trkpt lat="47.79537" lon="6.6248">
        <ele>358</ele>
        <time>2014-10-30T09:54:26.1Z</time>
      </trkpt>
      <trkpt lat="47.7954" lon="6.62482">
        <ele>358</ele>
        <time>2014-10-30T09:54:28.1Z</time>
      </trkpt>
      <trkpt lat="47.79546" lon="6.62484">
        <ele>359</ele>
        <time>2014-10-30T09:54:31.1Z</time>
      </trkpt>
      <trkpt lat="47.7955" lon="6.62484">
        <ele>360</ele>
        <time>2014-10-30T09:54:34.1Z</time>
      </trkpt>
      <trkpt lat="47.79553" lon="6.62485">
        <ele>360</ele>
        <time>2014-10-30T09:54:36.1Z</time>
      </trkpt>
      <trkpt lat="47.79556" lon="6.62486">
        <ele>360</ele>
        <time>2014-10-30T09:54:38.1Z</time>
      </trkpt>
      <trkpt lat="47.79558" lon="6.62487">
        <ele>361</ele>
        <time>2014-10-30T09:54:40.1Z</time>
      </trkpt>
      <trkpt lat="47.79561" lon="6.62489">
        <ele>362</ele>
        <time>2014-10-30T09:54:42.1Z</time>
      </trkpt>
      <trkpt lat="47.79564" lon="6.6249">
        <ele>362</ele>
        <time>2014-10-30T09:54:45.1Z</time>
      </trkpt>
      <trkpt lat="47.79568" lon="6.62492">
        <ele>363</ele>
        <time>2014-10-30T09:54:48.1Z</time>
      </trkpt>
      <trkpt lat="47.7957" lon="6.62493">
        <ele>363</ele>
        <time>2014-10-30T09:54:50.1Z</time>
      </trkpt>
      <trkpt lat="47.79573" lon="6.62494">
        <ele>363</ele>
        <time>2014-10-30T09:54:52.1Z</time>
      </trkpt>
      <trkpt lat="47.79578" lon="6.62495">
        <ele>363</ele>
        <time>2014-10-30T09:54:55.1Z</time>
      </trkpt>
      <trkpt lat="47.7958" lon="6.62497">
        <ele>363</ele>
        <time>2014-10-30T09:54:57.1Z</time>
      </trkpt>
      <trkpt lat="47.79584" lon="6.62498">
        <ele>364</ele>
        <time>2014-10-30T09:55:00.1Z</time>
      </trkpt>
      <trkpt lat="47.79587" lon="6.62499">
        <ele>364</ele>
        <time>2014-10-30T09:55:02.1Z</time>
      </trkpt>
      <trkpt lat="47.79592" lon="6.625">
        <ele>364</ele>
        <time>2014-10-30T09:55:05.1Z</time>
      </trkpt>
      <trkpt lat="47.79596" lon="6.62502">
        <ele>364</ele>
        <time>2014-10-30T09:55:07.1Z</time>
      </trkpt>
      <trkpt lat="47.796" lon="6.62503">
        <ele>364</ele>
        <time>2014-10-30T09:55:09.1Z</time>
      </trkpt>
      <trkpt lat="47.79605" lon="6.62503">
        <ele>364</ele>
        <time>2014-10-30T09:55:12.1Z</time>
      </trkpt>
      <trkpt lat="47.79609" lon="6.62504">
        <ele>364</ele>
        <time>2014-10-30T09:55:14.1Z</time>
      </trkpt>
      <trkpt lat="47.79616" lon="6.62503">
        <ele>364</ele>
        <time>2014-10-30T09:55:17.1Z</time>
      </trkpt>
      <trkpt lat="47.79623" lon="6.62501">
        <ele>363</ele>
        <time>2014-10-30T09:55:20.1Z</time>
      </trkpt>
      <trkpt lat="47.79626" lon="6.62501">
        <ele>363</ele>
        <time>2014-10-30T09:55:22.1Z</time>
      </trkpt>
      <trkpt lat="47.79631" lon="6.62501">
        <ele>363</ele>
        <time>2014-10-30T09:55:24.1Z</time>
      </trkpt>
      <trkpt lat="47.79639" lon="6.62503">
        <ele>363</ele>
        <time>2014-10-30T09:55:26.1Z</time>
      </trkpt>
      <trkpt lat="47.79654" lon="6.62509">
        <ele>363</ele>
        <time>2014-10-30T09:55:29.1Z</time>
      </trkpt>
      <trkpt lat="47.7966" lon="6.62509">
        <ele>363</ele>
        <time>2014-10-30T09:55:31.1Z</time>
      </trkpt>
      <trkpt lat="47.79668" lon="6.62509">
        <ele>363</ele>
        <time>2014-10-30T09:55:34.1Z</time>
      </trkpt>
      <trkpt lat="47.79673" lon="6.62508">
        <ele>363</ele>
        <time>2014-10-30T09:55:36.1Z</time>
      </trkpt>
      <trkpt lat="47.79679" lon="6.62506">
        <ele>363</ele>
        <time>2014-10-30T09:55:39.1Z</time>
      </trkpt>
      <trkpt lat="47.79683" lon="6.62505">
        <ele>363</ele>
        <time>2014-10-30T09:55:41.1Z</time>
      </trkpt>
      <trkpt lat="47.79686" lon="6.62503">
        <ele>364</ele>
        <time>2014-10-30T09:55:43.1Z</time>
      </trkpt>
      <trkpt lat="47.7969" lon="6.62501">
        <ele>364</ele>
        <time>2014-10-30T09:55:46.1Z</time>
      </trkpt>
      <trkpt lat="47.79693" lon="6.62501">
        <ele>364</ele>
        <time>2014-10-30T09:55:48.1Z</time>
      </trkpt>
      <trkpt lat="47.79695" lon="6.62499">
        <ele>364</ele>
        <time>2014-10-30T09:55:50.1Z</time>
      </trkpt>
      <trkpt lat="47.79699" lon="6.62498">
        <ele>365</ele>
        <time>2014-10-30T09:55:53.1Z</time>
      </trkpt>
      <trkpt lat="47.79702" lon="6.62497">
        <ele>365</ele>
        <time>2014-10-30T09:55:55.1Z</time>
      </trkpt>
      <trkpt lat="47.79706" lon="6.62497">
        <ele>366</ele>
        <time>2014-10-30T09:55:58.1Z</time>
      </trkpt>
      <trkpt lat="47.79709" lon="6.62496">
        <ele>366</ele>
        <time>2014-10-30T09:56:00.1Z</time>
      </trkpt>
      <trkpt lat="47.79712" lon="6.62495">
        <ele>367</ele>
        <time>2014-10-30T09:56:03.1Z</time>
      </trkpt>
      <trkpt lat="47.79715" lon="6.62494">
        <ele>367</ele>
        <time>2014-10-30T09:56:05.1Z</time>
      </trkpt>
      <trkpt lat="47.79719" lon="6.62494">
        <ele>367</ele>
        <time>2014-10-30T09:56:08.1Z</time>
      </trkpt>
      <trkpt lat="47.79723" lon="6.62494">
        <ele>367</ele>
        <time>2014-10-30T09:56:10.1Z</time>
      </trkpt>
      <trkpt lat="47.79726" lon="6.62494">
        <ele>367</ele>
        <time>2014-10-30T09:56:12.1Z</time>
      </trkpt>
      <trkpt lat="47.7973" lon="6.62497">
        <ele>367</ele>
        <time>2014-10-30T09:56:15.1Z</time>
      </trkpt>
      <trkpt lat="47.79736" lon="6.62501">
        <ele>368</ele>
        <time>2014-10-30T09:56:18.1Z</time>
      </trkpt>
      <trkpt lat="47.79741" lon="6.62503">
        <ele>367</ele>
        <time>2014-10-30T09:56:20.1Z</time>
      </trkpt>
      <trkpt lat="47.79748" lon="6.62508">
        <ele>367</ele>
        <time>2014-10-30T09:56:23.1Z</time>
      </trkpt>
      <trkpt lat="47.79756" lon="6.62512">
        <ele>367</ele>
        <time>2014-10-30T09:56:26.1Z</time>
      </trkpt>
      <trkpt lat="47.79759" lon="6.62514">
        <ele>367</ele>
        <time>2014-10-30T09:56:28.1Z</time>
      </trkpt>
      <trkpt lat="47.79765" lon="6.62518">
        <ele>368</ele>
        <time>2014-10-30T09:56:31.1Z</time>
      </trkpt>
      <trkpt lat="47.7977" lon="6.62523">
        <ele>369</ele>
        <time>2014-10-30T09:56:34.1Z</time>
      </trkpt>
      <trkpt lat="47.79773" lon="6.62526">
        <ele>370</ele>
        <time>2014-10-30T09:56:36.1Z</time>
      </trkpt>
      <trkpt lat="47.79775" lon="6.62531">
        <ele>370</ele>
        <time>2014-10-30T09:56:38.1Z</time>
      </trkpt>
      <trkpt lat="47.79778" lon="6.62536">
        <ele>370</ele>
        <time>2014-10-30T09:56:40.1Z</time>
      </trkpt>
      <trkpt lat="47.79784" lon="6.62545">
        <ele>370</ele>
        <time>2014-10-30T09:56:43.1Z</time>
      </trkpt>
      <trkpt lat="47.79788" lon="6.62554">
        <ele>369</ele>
        <time>2014-10-30T09:56:46.1Z</time>
      </trkpt>
      <trkpt lat="47.79792" lon="6.62563">
        <ele>369</ele>
        <time>2014-10-30T09:56:49.1Z</time>
      </trkpt>
      <trkpt lat="47.79798" lon="6.62571">
        <ele>369</ele>
        <time>2014-10-30T09:56:52.1Z</time>
      </trkpt>
      <trkpt lat="47.79803" lon="6.62576">
        <ele>370</ele>
        <time>2014-10-30T09:56:54.1Z</time>
      </trkpt>
      <trkpt lat="47.79811" lon="6.62583">
        <ele>369</ele>
        <time>2014-10-30T09:56:57.1Z</time>
      </trkpt>
      <trkpt lat="47.79816" lon="6.62589">
        <ele>369</ele>
        <time>2014-10-30T09:56:59.1Z</time>
      </trkpt>
      <trkpt lat="47.79827" lon="6.62597">
        <ele>369</ele>
        <time>2014-10-30T09:57:02.1Z</time>
      </trkpt>
      <trkpt lat="47.79837" lon="6.62604">
        <ele>368</ele>
        <time>2014-10-30T09:57:05.1Z</time>
      </trkpt>
      <trkpt lat="47.79845" lon="6.62609">
        <ele>368</ele>
        <time>2014-10-30T09:57:07.1Z</time>
      </trkpt>
      <trkpt lat="47.79855" lon="6.62617">
        <ele>368</ele>
        <time>2014-10-30T09:57:10.1Z</time>
      </trkpt>
      <trkpt lat="47.7986" lon="6.62622">
        <ele>368</ele>
        <time>2014-10-30T09:57:12.1Z</time>
      </trkpt>
      <trkpt lat="47.79868" lon="6.62627">
        <ele>368</ele>
        <time>2014-10-30T09:57:14.1Z</time>
      </trkpt>
      <trkpt lat="47.79882" lon="6.62634">
        <ele>368</ele>
        <time>2014-10-30T09:57:17.1Z</time>
      </trkpt>
      <trkpt lat="47.79889" lon="6.62636">
        <ele>368</ele>
        <time>2014-10-30T09:57:19.1Z</time>
      </trkpt>
      <trkpt lat="47.79899" lon="6.62639">
        <ele>368</ele>
        <time>2014-10-30T09:57:22.1Z</time>
      </trkpt>
      <trkpt lat="47.79905" lon="6.6264">
        <ele>368</ele>
        <time>2014-10-30T09:57:24.1Z</time>
      </trkpt>
      <trkpt lat="47.79911" lon="6.62641">
        <ele>369</ele>
        <time>2014-10-30T09:57:26.1Z</time>
      </trkpt>
      <trkpt lat="47.79916" lon="6.62642">
        <ele>369</ele>
        <time>2014-10-30T09:57:28.1Z</time>
      </trkpt>
      <trkpt lat="47.79921" lon="6.62642">
        <ele>370</ele>
        <time>2014-10-30T09:57:30.1Z</time>
      </trkpt>
      <trkpt lat="47.79928" lon="6.62644">
        <ele>371</ele>
        <time>2014-10-30T09:57:33.1Z</time>
      </trkpt>
      <trkpt lat="47.79935" lon="6.62647">
        <ele>371</ele>
        <time>2014-10-30T09:57:36.1Z</time>
      </trkpt>
      <trkpt lat="47.79946" lon="6.62648">
        <ele>370</ele>
        <time>2014-10-30T09:57:39.1Z</time>
      </trkpt>
      <trkpt lat="47.79956" lon="6.62649">
        <ele>370</ele>
        <time>2014-10-30T09:57:41.1Z</time>
      </trkpt>
      <trkpt lat="47.79974" lon="6.62651">
        <ele>369</ele>
        <time>2014-10-30T09:57:44.1Z</time>
      </trkpt>
      <trkpt lat="47.79987" lon="6.62655">
        <ele>369</ele>
        <time>2014-10-30T09:57:46.1Z</time>
      </trkpt>
      <trkpt lat="47.80009" lon="6.62664">
        <ele>368</ele>
        <time>2014-10-30T09:57:49.1Z</time>
      </trkpt>
      <trkpt lat="47.80031" lon="6.6267">
        <ele>366</ele>
        <time>2014-10-30T09:57:52.1Z</time>
      </trkpt>
      <trkpt lat="47.80049" lon="6.62671">
        <ele>365</ele>
        <time>2014-10-30T09:57:55.1Z</time>
      </trkpt>
      <trkpt lat="47.80057" lon="6.62678">
        <ele>365</ele>
        <time>2014-10-30T09:57:57.1Z</time>
      </trkpt>
      <trkpt lat="47.80062" lon="6.62692">
        <ele>366</ele>
        <time>2014-10-30T09:58:00.1Z</time>
      </trkpt>
      <trkpt lat="47.80066" lon="6.62704">
        <ele>366</ele>
        <time>2014-10-30T09:58:03.1Z</time>
      </trkpt>
      <trkpt lat="47.80067" lon="6.62713">
        <ele>366</ele>
        <time>2014-10-30T09:58:05.1Z</time>
      </trkpt>
      <trkpt lat="47.80072" lon="6.62725">
        <ele>367</ele>
        <time>2014-10-30T09:58:08.1Z</time>
      </trkpt>
      <trkpt lat="47.80075" lon="6.62733">
        <ele>367</ele>
        <time>2014-10-30T09:58:10.1Z</time>
      </trkpt>
      <trkpt lat="47.8008" lon="6.62743">
        <ele>367</ele>
        <time>2014-10-30T09:58:13.1Z</time>
      </trkpt>
      <trkpt lat="47.80085" lon="6.62754">
        <ele>367</ele>
        <time>2014-10-30T09:58:16.1Z</time>
      </trkpt>
      <trkpt lat="47.80089" lon="6.62763">
        <ele>367</ele>
        <time>2014-10-30T09:58:18.1Z</time>
      </trkpt>
      <trkpt lat="47.80093" lon="6.6277">
        <ele>366</ele>
        <time>2014-10-30T09:58:20.1Z</time>
      </trkpt>
      <trkpt lat="47.80096" lon="6.62776">
        <ele>367</ele>
        <time>2014-10-30T09:58:22.1Z</time>
      </trkpt>
      <trkpt lat="47.80099" lon="6.62784">
        <ele>367</ele>
        <time>2014-10-30T09:58:25.1Z</time>
      </trkpt>
      <trkpt lat="47.80101" lon="6.6279">
        <ele>368</ele>
        <time>2014-10-30T09:58:28.1Z</time>
      </trkpt>
      <trkpt lat="47.80103" lon="6.62793">
        <ele>368</ele>
        <time>2014-10-30T09:58:30.1Z</time>
      </trkpt>
      <trkpt lat="47.80105" lon="6.62796">
        <ele>369</ele>
        <time>2014-10-30T09:58:32.1Z</time>
      </trkpt>
      <trkpt lat="47.80106" lon="6.62799">
        <ele>369</ele>
        <time>2014-10-30T09:58:34.1Z</time>
      </trkpt>
      <trkpt lat="47.80108" lon="6.62804">
        <ele>369</ele>
        <time>2014-10-30T09:58:37.1Z</time>
      </trkpt>
      <trkpt lat="47.80109" lon="6.62807">
        <ele>370</ele>
        <time>2014-10-30T09:58:39.1Z</time>
      </trkpt>
      <trkpt lat="47.80112" lon="6.6281">
        <ele>370</ele>
        <time>2014-10-30T09:58:41.1Z</time>
      </trkpt>
      <trkpt lat="47.80114" lon="6.62813">
        <ele>370</ele>
        <time>2014-10-30T09:58:43.1Z</time>
      </trkpt>
      <trkpt lat="47.80117" lon="6.62817">
        <ele>371</ele>
        <time>2014-10-30T09:58:45.1Z</time>
      </trkpt>
      <trkpt lat="47.80121" lon="6.62822">
        <ele>371</ele>
        <time>2014-10-30T09:58:48.1Z</time>
      </trkpt>
      <trkpt lat="47.80123" lon="6.62827">
        <ele>371</ele>
        <time>2014-10-30T09:58:50.1Z</time>
      </trkpt>
      <trkpt lat="47.80128" lon="6.62835">
        <ele>371</ele>
        <time>2014-10-30T09:58:53.1Z</time>
      </trkpt>
      <trkpt lat="47.80129" lon="6.62844">
        <ele>371</ele>
        <time>2014-10-30T09:58:55.1Z</time>
      </trkpt>
      <trkpt lat="47.80133" lon="6.62855">
        <ele>371</ele>
        <time>2014-10-30T09:58:58.1Z</time>
      </trkpt>
      <trkpt lat="47.80137" lon="6.62864">
        <ele>370</ele>
        <time>2014-10-30T09:59:01.1Z</time>
      </trkpt>
      <trkpt lat="47.8014" lon="6.6287">
        <ele>371</ele>
        <time>2014-10-30T09:59:03.1Z</time>
      </trkpt>
      <trkpt lat="47.80143" lon="6.62876">
        <ele>371</ele>
        <time>2014-10-30T09:59:05.1Z</time>
      </trkpt>
      <trkpt lat="47.80148" lon="6.62886">
        <ele>371</ele>
        <time>2014-10-30T09:59:08.1Z</time>
      </trkpt>
      <trkpt lat="47.80151" lon="6.62894">
        <ele>370</ele>
        <time>2014-10-30T09:59:10.1Z</time>
      </trkpt>
      <trkpt lat="47.80159" lon="6.62913">
        <ele>370</ele>
        <time>2014-10-30T09:59:13.1Z</time>
      </trkpt>
      <trkpt lat="47.80164" lon="6.62924">
        <ele>370</ele>
        <time>2014-10-30T09:59:15.1Z</time>
      </trkpt>
      <trkpt lat="47.80171" lon="6.62941">
        <ele>369</ele>
        <time>2014-10-30T09:59:18.1Z</time>
      </trkpt>
      <trkpt lat="47.80179" lon="6.62957">
        <ele>369</ele>
        <time>2014-10-30T09:59:21.1Z</time>
      </trkpt>
      <trkpt lat="47.80187" lon="6.62971">
        <ele>369</ele>
        <time>2014-10-30T09:59:24.1Z</time>
      </trkpt>
      <trkpt lat="47.80196" lon="6.6298">
        <ele>370</ele>
        <time>2014-10-30T09:59:27.1Z</time>
      </trkpt>
      <trkpt lat="47.80202" lon="6.62987">
        <ele>370</ele>
        <time>2014-10-30T09:59:30.1Z</time>
      </trkpt>
      <trkpt lat="47.80209" lon="6.62992">
        <ele>370</ele>
        <time>2014-10-30T09:59:33.1Z</time>
      </trkpt>
      <trkpt lat="47.80214" lon="6.62996">
        <ele>370</ele>
        <time>2014-10-30T09:59:35.1Z</time>
      </trkpt>
      <trkpt lat="47.80224" lon="6.63001">
        <ele>370</ele>
        <time>2014-10-30T09:59:38.1Z</time>
      </trkpt>
      <trkpt lat="47.80234" lon="6.63003">
        <ele>370</ele>
        <time>2014-10-30T09:59:41.1Z</time>
      </trkpt>
      <trkpt lat="47.8024" lon="6.63004">
        <ele>370</ele>
        <time>2014-10-30T09:59:43.1Z</time>
      </trkpt>
      <trkpt lat="47.80248" lon="6.63005">
        <ele>370</ele>
        <time>2014-10-30T09:59:46.1Z</time>
      </trkpt>
      <trkpt lat="47.80253" lon="6.63005">
        <ele>370</ele>
        <time>2014-10-30T09:59:48.1Z</time>
      </trkpt>
      <trkpt lat="47.80258" lon="6.63005">
        <ele>371</ele>
        <time>2014-10-30T09:59:50.1Z</time>
      </trkpt>
      <trkpt lat="47.80262" lon="6.63004">
        <ele>371</ele>
        <time>2014-10-30T09:59:52.1Z</time>
      </trkpt>
      <trkpt lat="47.80267" lon="6.63004">
        <ele>372</ele>
        <time>2014-10-30T09:59:54.1Z</time>
      </trkpt>
      <trkpt lat="47.80272" lon="6.63003">
        <ele>372</ele>
        <time>2014-10-30T09:59:57.1Z</time>
      </trkpt>
      <trkpt lat="47.80276" lon="6.63003">
        <ele>373</ele>
        <time>2014-10-30T09:59:59.1Z</time>
      </trkpt>
      <trkpt lat="47.80281" lon="6.63002">
        <ele>373</ele>
        <time>2014-10-30T10:00:02.1Z</time>
      </trkpt>
      <trkpt lat="47.80284" lon="6.63002">
        <ele>374</ele>
        <time>2014-10-30T10:00:04.1Z</time>
      </trkpt>
      <trkpt lat="47.80288" lon="6.63001">
        <ele>374</ele>
        <time>2014-10-30T10:00:06.1Z</time>
      </trkpt>
      <trkpt lat="47.80291" lon="6.63">
        <ele>375</ele>
        <time>2014-10-30T10:00:08.1Z</time>
      </trkpt>
      <trkpt lat="47.80294" lon="6.63">
        <ele>375</ele>
        <time>2014-10-30T10:00:10.1Z</time>
      </trkpt>
      <trkpt lat="47.80297" lon="6.63">
        <ele>375</ele>
        <time>2014-10-30T10:00:12.1Z</time>
      </trkpt>
      <trkpt lat="47.80303" lon="6.62998">
        <ele>375</ele>
        <time>2014-10-30T10:00:14.1Z</time>
      </trkpt>
      <trkpt lat="47.8031" lon="6.62994">
        <ele>374</ele>
        <time>2014-10-30T10:00:16.1Z</time>
      </trkpt>
      <trkpt lat="47.80322" lon="6.62982">
        <ele>374</ele>
        <time>2014-10-30T10:00:19.1Z</time>
      </trkpt>
      <trkpt lat="47.80333" lon="6.62971">
        <ele>373</ele>
        <time>2014-10-30T10:00:22.1Z</time>
      </trkpt>
      <trkpt lat="47.80338" lon="6.62968">
        <ele>372</ele>
        <time>2014-10-30T10:00:24.1Z</time>
      </trkpt>
      <trkpt lat="47.80341" lon="6.62966">
        <ele>372</ele>
        <time>2014-10-30T10:00:26.1Z</time>
      </trkpt>
      <trkpt lat="47.80344" lon="6.62969">
        <ele>371</ele>
        <time>2014-10-30T10:00:28.1Z</time>
      </trkpt>
      <trkpt lat="47.8035" lon="6.62978">
        <ele>371</ele>
        <time>2014-10-30T10:00:31.1Z</time>
      </trkpt>
      <trkpt lat="47.80357" lon="6.62983">
        <ele>371</ele>
        <time>2014-10-30T10:00:33.1Z</time>
      </trkpt>
      <trkpt lat="47.80365" lon="6.62983">
        <ele>371</ele>
        <time>2014-10-30T10:00:35.1Z</time>
      </trkpt>
      <trkpt lat="47.80379" lon="6.6298">
        <ele>370</ele>
        <time>2014-10-30T10:00:38.1Z</time>
      </trkpt>
      <trkpt lat="47.80395" lon="6.62978">
        <ele>369</ele>
        <time>2014-10-30T10:00:41.1Z</time>
      </trkpt>
      <trkpt lat="47.80408" lon="6.62967">
        <ele>367</ele>
        <time>2014-10-30T10:00:44.1Z</time>
      </trkpt>
      <trkpt lat="47.80415" lon="6.62958">
        <ele>367</ele>
        <time>2014-10-30T10:00:46.1Z</time>
      </trkpt>
      <trkpt lat="47.80421" lon="6.62949">
        <ele>368</ele>
        <time>2014-10-30T10:00:48.1Z</time>
      </trkpt>
      <trkpt lat="47.80429" lon="6.62935">
        <ele>368</ele>
        <time>2014-10-30T10:00:51.1Z</time>
      </trkpt>
      <trkpt lat="47.80437" lon="6.62923">
        <ele>368</ele>
        <time>2014-10-30T10:00:54.1Z</time>
      </trkpt>
      <trkpt lat="47.80446" lon="6.62914">
        <ele>368</ele>
        <time>2014-10-30T10:00:57.1Z</time>
      </trkpt>
      <trkpt lat="47.80456" lon="6.6291">
        <ele>369</ele>
        <time>2014-10-30T10:01:00.1Z</time>
      </trkpt>
      <trkpt lat="47.80463" lon="6.62909">
        <ele>369</ele>
        <time>2014-10-30T10:01:03.1Z</time>
      </trkpt>
      <trkpt lat="47.80467" lon="6.62913">
        <ele>369</ele>
        <time>2014-10-30T10:01:05.1Z</time>
      </trkpt>
      <trkpt lat="47.80469" lon="6.62912">
        <ele>370</ele>
        <time>2014-10-30T10:01:07.1Z</time>
      </trkpt>
      <trkpt lat="47.80469" lon="6.62912">
        <ele>370</ele>
        <time>2014-10-30T10:01:09.1Z</time>
      </trkpt>
      <trkpt lat="47.8047" lon="6.62911">
        <ele>369</ele>
        <time>2014-10-30T10:01:12.1Z</time>
      </trkpt>
      <trkpt lat="47.8047" lon="6.6291">
        <ele>369</ele>
        <time>2014-10-30T10:01:14.1Z</time>
      </trkpt>
      <trkpt lat="47.8047" lon="6.62909">
        <ele>369</ele>
        <time>2014-10-30T10:01:17.1Z</time>
      </trkpt>
      <trkpt lat="47.8047" lon="6.62909">
        <ele>369</ele>
        <time>2014-10-30T10:01:19.1Z</time>
      </trkpt>
      <trkpt lat="47.80471" lon="6.62909">
        <ele>369</ele>
        <time>2014-10-30T10:01:21.1Z</time>
      </trkpt>
      <trkpt lat="47.80471" lon="6.62908">
        <ele>369</ele>
        <time>2014-10-30T10:01:24.1Z</time>
      </trkpt>
      <trkpt lat="47.80471" lon="6.62908">
        <ele>369</ele>
        <time>2014-10-30T10:01:26.1Z</time>
      </trkpt>
      <trkpt lat="47.80471" lon="6.62908">
        <ele>370</ele>
        <time>2014-10-30T10:01:29.1Z</time>
      </trkpt>
      <trkpt lat="47.80471" lon="6.62907">
        <ele>369</ele>
        <time>2014-10-30T10:01:32.1Z</time>
      </trkpt>
      <trkpt lat="47.80471" lon="6.62907">
        <ele>370</ele>
        <time>2014-10-30T10:01:34.1Z</time>
      </trkpt>
      <trkpt lat="47.80471" lon="6.62907">
        <ele>369</ele>
        <time>2014-10-30T10:01:38.1Z</time>
      </trkpt>
      <trkpt lat="47.80471" lon="6.62907">
        <ele>369</ele>
        <time>2014-10-30T10:01:40.1Z</time>
      </trkpt>
      <trkpt lat="47.80471" lon="6.62907">
        <ele>370</ele>
        <time>2014-10-30T10:01:46.1Z</time>
      </trkpt>
      <trkpt lat="47.80471" lon="6.62907">
        <ele>370</ele>
        <time>2014-10-30T10:01:51.1Z</time>
      </trkpt>
      <trkpt lat="47.80471" lon="6.62907">
        <ele>370</ele>
        <time>2014-10-30T10:01:55.1Z</time>
      </trkpt>
      <trkpt lat="47.80471" lon="6.62907">
        <ele>369</ele>
        <time>2014-10-30T10:01:58.1Z</time>
      </trkpt>
      <trkpt lat="47.80471" lon="6.62907">
        <ele>369</ele>
        <time>2014-10-30T10:02:00.1Z</time>
      </trkpt>
      <trkpt lat="47.80471" lon="6.62906">
        <ele>369</ele>
        <time>2014-10-30T10:02:03.1Z</time>
      </trkpt>
      <trkpt lat="47.80471" lon="6.62906">
        <ele>369</ele>
        <time>2014-10-30T10:02:05.1Z</time>
      </trkpt>
      <trkpt lat="47.80471" lon="6.62906">
        <ele>370</ele>
        <time>2014-10-30T10:02:07.1Z</time>
      </trkpt>
      <trkpt lat="47.80471" lon="6.62906">
        <ele>370</ele>
        <time>2014-10-30T10:02:10.1Z</time>
      </trkpt>
      <trkpt lat="47.8047" lon="6.62906">
        <ele>370</ele>
        <time>2014-10-30T10:02:14.1Z</time>
      </trkpt>
      <trkpt lat="47.8047" lon="6.62906">
        <ele>370</ele>
        <time>2014-10-30T10:02:18.1Z</time>
      </trkpt>
      <trkpt lat="47.8047" lon="6.62906">
        <ele>370</ele>
        <time>2014-10-30T10:02:21.1Z</time>
      </trkpt>
      <trkpt lat="47.80469" lon="6.62906">
        <ele>370</ele>
        <time>2014-10-30T10:02:24.1Z</time>
      </trkpt>
      <trkpt lat="47.80469" lon="6.62905">
        <ele>370</ele>
        <time>2014-10-30T10:02:27.1Z</time>
      </trkpt>
      <trkpt lat="47.80469" lon="6.62905">
        <ele>370</ele>
        <time>2014-10-30T10:02:30.1Z</time>
      </trkpt>
      <trkpt lat="47.80469" lon="6.62905">
        <ele>370</ele>
        <time>2014-10-30T10:02:34.1Z</time>
      </trkpt>
      <trkpt lat="47.80469" lon="6.62905">
        <ele>370</ele>
        <time>2014-10-30T10:02:37.1Z</time>
      </trkpt>
      <trkpt lat="47.80469" lon="6.62905">
        <ele>370</ele>
        <time>2014-10-30T10:02:39.1Z</time>
      </trkpt>
      <trkpt lat="47.8047" lon="6.62905">
        <ele>370</ele>
        <time>2014-10-30T10:02:41.1Z</time>
      </trkpt>
      <trkpt lat="47.8047" lon="6.62905">
        <ele>370</ele>
        <time>2014-10-30T10:02:45.1Z</time>
      </trkpt>
      <trkpt lat="47.8047" lon="6.62905">
        <ele>370</ele>
        <time>2014-10-30T10:02:48.1Z</time>
      </trkpt>
      <trkpt lat="47.8047" lon="6.62905">
        <ele>370</ele>
        <time>2014-10-30T10:02:52.1Z</time>
      </trkpt>
      <trkpt lat="47.8047" lon="6.62905">
        <ele>370</ele>
        <time>2014-10-30T10:02:55.1Z</time>
      </trkpt>
      <trkpt lat="47.80471" lon="6.62905">
        <ele>370</ele>
        <time>2014-10-30T10:02:58.1Z</time>
      </trkpt>
      <trkpt lat="47.80471" lon="6.62906">
        <ele>370</ele>
        <time>2014-10-30T10:03:00.1Z</time>
      </trkpt>
      <trkpt lat="47.80472" lon="6.62906">
        <ele>370</ele>
        <time>2014-10-30T10:03:03.1Z</time>
      </trkpt>
      <trkpt lat="47.80472" lon="6.62906">
        <ele>370</ele>
        <time>2014-10-30T10:03:06.1Z</time>
      </trkpt>
      <trkpt lat="47.80472" lon="6.62906">
        <ele>370</ele>
        <time>2014-10-30T10:03:09.1Z</time>
      </trkpt>
      <trkpt lat="47.80472" lon="6.62906">
        <ele>370</ele>
        <time>2014-10-30T10:03:11.1Z</time>
      </trkpt>
      <trkpt lat="47.80473" lon="6.62907">
        <ele>369</ele>
        <time>2014-10-30T10:03:15.1Z</time>
      </trkpt>
      <trkpt lat="47.80473" lon="6.62907">
        <ele>370</ele>
        <time>2014-10-30T10:03:18.1Z</time>
      </trkpt>
      <trkpt lat="47.80473" lon="6.62907">
        <ele>370</ele>
        <time>2014-10-30T10:03:22.1Z</time>
      </trkpt>
      <trkpt lat="47.80473" lon="6.62907">
        <ele>370</ele>
        <time>2014-10-30T10:03:26.1Z</time>
      </trkpt>
      <trkpt lat="47.80473" lon="6.62908">
        <ele>370</ele>
        <time>2014-10-30T10:03:30.1Z</time>
      </trkpt>
      <trkpt lat="47.80473" lon="6.62908">
        <ele>370</ele>
        <time>2014-10-30T10:03:32.1Z</time>
      </trkpt>
      <trkpt lat="47.80473" lon="6.62908">
        <ele>370</ele>
        <time>2014-10-30T10:03:35.1Z</time>
      </trkpt>
      <trkpt lat="47.80473" lon="6.62908">
        <ele>370</ele>
        <time>2014-10-30T10:03:38.1Z</time>
      </trkpt>
      <trkpt lat="47.80473" lon="6.62908">
        <ele>370</ele>
        <time>2014-10-30T10:03:40.1Z</time>
      </trkpt>
      <trkpt lat="47.80474" lon="6.62908">
        <ele>370</ele>
        <time>2014-10-30T10:03:43.1Z</time>
      </trkpt>
      <trkpt lat="47.80474" lon="6.62908">
        <ele>370</ele>
        <time>2014-10-30T10:03:46.1Z</time>
      </trkpt>
      <trkpt lat="47.80473" lon="6.62908">
        <ele>370</ele>
        <time>2014-10-30T10:03:50.1Z</time>
      </trkpt>
      <trkpt lat="47.80474" lon="6.62908">
        <ele>370</ele>
        <time>2014-10-30T10:03:53.1Z</time>
      </trkpt>
      <trkpt lat="47.80474" lon="6.62908">
        <ele>369</ele>
        <time>2014-10-30T10:03:59.1Z</time>
      </trkpt>
      <trkpt lat="47.80474" lon="6.62908">
        <ele>369</ele>
        <time>2014-10-30T10:04:01.1Z</time>
      </trkpt>
      <trkpt lat="47.80474" lon="6.62908">
        <ele>369</ele>
        <time>2014-10-30T10:04:06.1Z</time>
      </trkpt>
      <trkpt lat="47.80474" lon="6.62908">
        <ele>370</ele>
        <time>2014-10-30T10:04:09.1Z</time>
      </trkpt>
      <trkpt lat="47.80474" lon="6.62908">
        <ele>369</ele>
        <time>2014-10-30T10:04:11.1Z</time>
      </trkpt>
      <trkpt lat="47.80474" lon="6.62908">
        <ele>369</ele>
        <time>2014-10-30T10:04:14.1Z</time>
      </trkpt>
      <trkpt lat="47.80473" lon="6.62908">
        <ele>369</ele>
        <time>2014-10-30T10:04:16.1Z</time>
      </trkpt>
      <trkpt lat="47.80473" lon="6.62908">
        <ele>370</ele>
        <time>2014-10-30T10:04:20.1Z</time>
      </trkpt>
      <trkpt lat="47.80473" lon="6.62908">
        <ele>370</ele>
        <time>2014-10-30T10:04:22.1Z</time>
      </trkpt>
      <trkpt lat="47.80473" lon="6.62908">
        <ele>370</ele>
        <time>2014-10-30T10:04:25.1Z</time>
      </trkpt>
      <trkpt lat="47.80473" lon="6.62908">
        <ele>369</ele>
        <time>2014-10-30T10:04:30.1Z</time>
      </trkpt>
      <trkpt lat="47.80474" lon="6.62908">
        <ele>369</ele>
        <time>2014-10-30T10:04:33.1Z</time>
      </trkpt>
      <trkpt lat="47.80474" lon="6.62908">
        <ele>369</ele>
        <time>2014-10-30T10:04:36.1Z</time>
      </trkpt>
      <trkpt lat="47.80474" lon="6.62908">
        <ele>369</ele>
        <time>2014-10-30T10:04:39.1Z</time>
      </trkpt>
      <trkpt lat="47.80475" lon="6.62909">
        <ele>369</ele>
        <time>2014-10-30T10:04:41.1Z</time>
      </trkpt>
      <trkpt lat="47.80475" lon="6.62908">
        <ele>369</ele>
        <time>2014-10-30T10:04:44.1Z</time>
      </trkpt>
      <trkpt lat="47.80475" lon="6.62908">
        <ele>369</ele>
        <time>2014-10-30T10:04:47.1Z</time>
      </trkpt>
      <trkpt lat="47.80474" lon="6.62907">
        <ele>369</ele>
        <time>2014-10-30T10:04:51.1Z</time>
      </trkpt>
      <trkpt lat="47.80474" lon="6.62907">
        <ele>370</ele>
        <time>2014-10-30T10:04:54.1Z</time>
      </trkpt>
      <trkpt lat="47.80474" lon="6.62908">
        <ele>370</ele>
        <time>2014-10-30T10:04:56.1Z</time>
      </trkpt>
      <trkpt lat="47.80473" lon="6.62908">
        <ele>369</ele>
        <time>2014-10-30T10:04:59.1Z</time>
      </trkpt>
      <trkpt lat="47.80473" lon="6.62909">
        <ele>369</ele>
        <time>2014-10-30T10:05:02.1Z</time>
      </trkpt>
      <trkpt lat="47.80473" lon="6.62909">
        <ele>369</ele>
        <time>2014-10-30T10:05:06.1Z</time>
      </trkpt>
      <trkpt lat="47.80473" lon="6.62908">
        <ele>370</ele>
        <time>2014-10-30T10:05:10.1Z</time>
      </trkpt>
      <trkpt lat="47.80472" lon="6.62907">
        <ele>370</ele>
        <time>2014-10-30T10:05:13.1Z</time>
      </trkpt>
      <trkpt lat="47.80471" lon="6.62906">
        <ele>370</ele>
        <time>2014-10-30T10:05:16.1Z</time>
      </trkpt>
      <trkpt lat="47.80471" lon="6.62906">
        <ele>370</ele>
        <time>2014-10-30T10:05:19.1Z</time>
      </trkpt>
      <trkpt lat="47.80471" lon="6.62906">
        <ele>370</ele>
        <time>2014-10-30T10:05:22.1Z</time>
      </trkpt>
      <trkpt lat="47.80471" lon="6.62906">
        <ele>370</ele>
        <time>2014-10-30T10:05:25.1Z</time>
      </trkpt>
      <trkpt lat="47.80471" lon="6.62906">
        <ele>370</ele>
        <time>2014-10-30T10:05:27.1Z</time>
      </trkpt>
      <trkpt lat="47.80471" lon="6.62906">
        <ele>370</ele>
        <time>2014-10-30T10:05:30.1Z</time>
      </trkpt>
      <trkpt lat="47.80471" lon="6.62906">
        <ele>370</ele>
        <time>2014-10-30T10:05:32.1Z</time>
      </trkpt>
      <trkpt lat="47.8047" lon="6.62905">
        <ele>370</ele>
        <time>2014-10-30T10:05:35.1Z</time>
      </trkpt>
      <trkpt lat="47.8047" lon="6.62904">
        <ele>370</ele>
        <time>2014-10-30T10:05:38.1Z</time>
      </trkpt>
      <trkpt lat="47.80469" lon="6.62899">
        <ele>370</ele>
        <time>2014-10-30T10:05:41.1Z</time>
      </trkpt>
      <trkpt lat="47.80466" lon="6.62895">
        <ele>370</ele>
        <time>2014-10-30T10:05:43.1Z</time>
      </trkpt>
      <trkpt lat="47.80462" lon="6.62886">
        <ele>370</ele>
        <time>2014-10-30T10:05:46.1Z</time>
      </trkpt>
      <trkpt lat="47.80459" lon="6.62879">
        <ele>370</ele>
        <time>2014-10-30T10:05:48.1Z</time>
      </trkpt>
      <trkpt lat="47.80452" lon="6.6287">
        <ele>370</ele>
        <time>2014-10-30T10:05:51.1Z</time>
      </trkpt>
      <trkpt lat="47.80447" lon="6.62861">
        <ele>370</ele>
        <time>2014-10-30T10:05:54.1Z</time>
      </trkpt>
      <trkpt lat="47.80441" lon="6.62855">
        <ele>370</ele>
        <time>2014-10-30T10:05:57.1Z</time>
      </trkpt>
      <trkpt lat="47.80438" lon="6.62852">
        <ele>371</ele>
        <time>2014-10-30T10:05:59.1Z</time>
      </trkpt>
      <trkpt lat="47.80434" lon="6.62848">
        <ele>371</ele>
        <time>2014-10-30T10:06:01.1Z</time>
      </trkpt>
      <trkpt lat="47.80431" lon="6.62846">
        <ele>372</ele>
        <time>2014-10-30T10:06:03.1Z</time>
      </trkpt>
      <trkpt lat="47.80427" lon="6.62842">
        <ele>373</ele>
        <time>2014-10-30T10:06:06.1Z</time>
      </trkpt>
      <trkpt lat="47.80423" lon="6.6284">
        <ele>373</ele>
        <time>2014-10-30T10:06:09.1Z</time>
      </trkpt>
      <trkpt lat="47.80421" lon="6.62838">
        <ele>374</ele>
        <time>2014-10-30T10:06:11.1Z</time>
      </trkpt>
      <trkpt lat="47.80418" lon="6.62837">
        <ele>374</ele>
        <time>2014-10-30T10:06:13.1Z</time>
      </trkpt>
      <trkpt lat="47.80414" lon="6.62834">
        <ele>375</ele>
        <time>2014-10-30T10:06:16.1Z</time>
      </trkpt>
      <trkpt lat="47.80412" lon="6.62833">
        <ele>375</ele>
        <time>2014-10-30T10:06:18.1Z</time>
      </trkpt>
      <trkpt lat="47.80409" lon="6.62832">
        <ele>375</ele>
        <time>2014-10-30T10:06:20.1Z</time>
      </trkpt>
      <trkpt lat="47.80408" lon="6.62831">
        <ele>375</ele>
        <time>2014-10-30T10:06:22.1Z</time>
      </trkpt>
      <trkpt lat="47.80405" lon="6.62829">
        <ele>375</ele>
        <time>2014-10-30T10:06:25.1Z</time>
      </trkpt>
      <trkpt lat="47.80403" lon="6.62829">
        <ele>375</ele>
        <time>2014-10-30T10:06:27.1Z</time>
      </trkpt>
      <trkpt lat="47.804" lon="6.62829">
        <ele>376</ele>
        <time>2014-10-30T10:06:30.1Z</time>
      </trkpt>
      <trkpt lat="47.80397" lon="6.62827">
        <ele>376</ele>
        <time>2014-10-30T10:06:33.1Z</time>
      </trkpt>
      <trkpt lat="47.80396" lon="6.62826">
        <ele>377</ele>
        <time>2014-10-30T10:06:36.1Z</time>
      </trkpt>
      <trkpt lat="47.80395" lon="6.62827">
        <ele>376</ele>
        <time>2014-10-30T10:06:39.1Z</time>
      </trkpt>
      <trkpt lat="47.80395" lon="6.62827">
        <ele>377</ele>
        <time>2014-10-30T10:06:43.1Z</time>
      </trkpt>
      <trkpt lat="47.80395" lon="6.62827">
        <ele>376</ele>
        <time>2014-10-30T10:06:45.1Z</time>
      </trkpt>
      <trkpt lat="47.80394" lon="6.62827">
        <ele>377</ele>
        <time>2014-10-30T10:06:47.1Z</time>
      </trkpt>
      <trkpt lat="47.80394" lon="6.62828">
        <ele>377</ele>
        <time>2014-10-30T10:06:50.1Z</time>
      </trkpt>
      <trkpt lat="47.80393" lon="6.62828">
        <ele>377</ele>
        <time>2014-10-30T10:06:52.1Z</time>
      </trkpt>
      <trkpt lat="47.80393" lon="6.62829">
        <ele>377</ele>
        <time>2014-10-30T10:06:55.1Z</time>
      </trkpt>
      <trkpt lat="47.80393" lon="6.62832">
        <ele>377</ele>
        <time>2014-10-30T10:06:58.1Z</time>
      </trkpt>
      <trkpt lat="47.80398" lon="6.62833">
        <ele>376</ele>
        <time>2014-10-30T10:07:01.1Z</time>
      </trkpt>
      <trkpt lat="47.80403" lon="6.62836">
        <ele>376</ele>
        <time>2014-10-30T10:07:03.1Z</time>
      </trkpt>
      <trkpt lat="47.80406" lon="6.62836">
        <ele>376</ele>
        <time>2014-10-30T10:07:05.1Z</time>
      </trkpt>
      <trkpt lat="47.80409" lon="6.62833">
        <ele>375</ele>
        <time>2014-10-30T10:07:07.1Z</time>
      </trkpt>
      <trkpt lat="47.80412" lon="6.62827">
        <ele>375</ele>
        <time>2014-10-30T10:07:10.1Z</time>
      </trkpt>
      <trkpt lat="47.80414" lon="6.62824">
        <ele>375</ele>
        <time>2014-10-30T10:07:12.1Z</time>
      </trkpt>
      <trkpt lat="47.80415" lon="6.62822">
        <ele>375</ele>
        <time>2014-10-30T10:07:15.1Z</time>
      </trkpt>
      <trkpt lat="47.80415" lon="6.62821">
        <ele>376</ele>
        <time>2014-10-30T10:07:17.1Z</time>
      </trkpt>
      <trkpt lat="47.80415" lon="6.6282">
        <ele>376</ele>
        <time>2014-10-30T10:07:20.1Z</time>
      </trkpt>
      <trkpt lat="47.80416" lon="6.62818">
        <ele>376</ele>
        <time>2014-10-30T10:07:22.1Z</time>
      </trkpt>
      <trkpt lat="47.80416" lon="6.62817">
        <ele>376</ele>
        <time>2014-10-30T10:07:24.1Z</time>
      </trkpt>
      <trkpt lat="47.80418" lon="6.62816">
        <ele>376</ele>
        <time>2014-10-30T10:07:26.1Z</time>
      </trkpt>
      <trkpt lat="47.80422" lon="6.62815">
        <ele>377</ele>
        <time>2014-10-30T10:07:29.1Z</time>
      </trkpt>
      <trkpt lat="47.80425" lon="6.62815">
        <ele>377</ele>
        <time>2014-10-30T10:07:31.1Z</time>
      </trkpt>
      <trkpt lat="47.8043" lon="6.62815">
        <ele>377</ele>
        <time>2014-10-30T10:07:34.1Z</time>
      </trkpt>
      <trkpt lat="47.80433" lon="6.62815">
        <ele>377</ele>
        <time>2014-10-30T10:07:36.1Z</time>
      </trkpt>
      <trkpt lat="47.80437" lon="6.62812">
        <ele>378</ele>
        <time>2014-10-30T10:07:39.1Z</time>
      </trkpt>
      <trkpt lat="47.80441" lon="6.6281">
        <ele>378</ele>
        <time>2014-10-30T10:07:41.1Z</time>
      </trkpt>
      <trkpt lat="47.80448" lon="6.62808">
        <ele>379</ele>
        <time>2014-10-30T10:07:44.1Z</time>
      </trkpt>
      <trkpt lat="47.80453" lon="6.62809">
        <ele>379</ele>
        <time>2014-10-30T10:07:46.1Z</time>
      </trkpt>
      <trkpt lat="47.8046" lon="6.6281">
        <ele>378</ele>
        <time>2014-10-30T10:07:49.1Z</time>
      </trkpt>
      <trkpt lat="47.80465" lon="6.6281">
        <ele>378</ele>
        <time>2014-10-30T10:07:51.1Z</time>
      </trkpt>
      <trkpt lat="47.80473" lon="6.62807">
        <ele>378</ele>
        <time>2014-10-30T10:07:54.1Z</time>
      </trkpt>
      <trkpt lat="47.80479" lon="6.62803">
        <ele>378</ele>
        <time>2014-10-30T10:07:56.1Z</time>
      </trkpt>
      <trkpt lat="47.80485" lon="6.62798">
        <ele>378</ele>
        <time>2014-10-30T10:07:58.1Z</time>
      </trkpt>
      <trkpt lat="47.80492" lon="6.62791">
        <ele>377</ele>
        <time>2014-10-30T10:08:01.1Z</time>
      </trkpt>
      <trkpt lat="47.80495" lon="6.62785">
        <ele>377</ele>
        <time>2014-10-30T10:08:03.1Z</time>
      </trkpt>
      <trkpt lat="47.805" lon="6.62779">
        <ele>377</ele>
        <time>2014-10-30T10:08:06.1Z</time>
      </trkpt>
      <trkpt lat="47.80504" lon="6.62775">
        <ele>377</ele>
        <time>2014-10-30T10:08:09.1Z</time>
      </trkpt>
      <trkpt lat="47.80507" lon="6.62772">
        <ele>376</ele>
        <time>2014-10-30T10:08:11.1Z</time>
      </trkpt>
      <trkpt lat="47.80511" lon="6.62769">
        <ele>376</ele>
        <time>2014-10-30T10:08:13.1Z</time>
      </trkpt>
      <trkpt lat="47.80516" lon="6.62766">
        <ele>376</ele>
        <time>2014-10-30T10:08:15.1Z</time>
      </trkpt>
      <trkpt lat="47.80521" lon="6.62762">
        <ele>377</ele>
        <time>2014-10-30T10:08:18.1Z</time>
      </trkpt>
      <trkpt lat="47.80526" lon="6.62757">
        <ele>377</ele>
        <time>2014-10-30T10:08:21.1Z</time>
      </trkpt>
      <trkpt lat="47.80531" lon="6.62753">
        <ele>377</ele>
        <time>2014-10-30T10:08:23.1Z</time>
      </trkpt>
      <trkpt lat="47.80535" lon="6.62749">
        <ele>378</ele>
        <time>2014-10-30T10:08:25.1Z</time>
      </trkpt>
      <trkpt lat="47.80539" lon="6.62746">
        <ele>378</ele>
        <time>2014-10-30T10:08:27.1Z</time>
      </trkpt>
      <trkpt lat="47.80545" lon="6.62739">
        <ele>379</ele>
        <time>2014-10-30T10:08:30.1Z</time>
      </trkpt>
      <trkpt lat="47.80548" lon="6.62735">
        <ele>380</ele>
        <time>2014-10-30T10:08:32.1Z</time>
      </trkpt>
      <trkpt lat="47.80552" lon="6.62733">
        <ele>380</ele>
        <time>2014-10-30T10:08:34.1Z</time>
      </trkpt>
      <trkpt lat="47.80557" lon="6.62731">
        <ele>381</ele>
        <time>2014-10-30T10:08:37.1Z</time>
      </trkpt>
      <trkpt lat="47.80564" lon="6.6273">
        <ele>381</ele>
        <time>2014-10-30T10:08:40.1Z</time>
      </trkpt>
      <trkpt lat="47.80569" lon="6.62727">
        <ele>381</ele>
        <time>2014-10-30T10:08:42.1Z</time>
      </trkpt>
      <trkpt lat="47.80572" lon="6.62722">
        <ele>381</ele>
        <time>2014-10-30T10:08:44.1Z</time>
      </trkpt>
      <trkpt lat="47.80578" lon="6.62715">
        <ele>382</ele>
        <time>2014-10-30T10:08:47.1Z</time>
      </trkpt>
      <trkpt lat="47.80583" lon="6.62707">
        <ele>383</ele>
        <time>2014-10-30T10:08:50.1Z</time>
      </trkpt>
      <trkpt lat="47.80585" lon="6.62702">
        <ele>383</ele>
        <time>2014-10-30T10:08:52.1Z</time>
      </trkpt>
      <trkpt lat="47.80592" lon="6.62695">
        <ele>383</ele>
        <time>2014-10-30T10:08:55.1Z</time>
      </trkpt>
      <trkpt lat="47.80599" lon="6.62687">
        <ele>384</ele>
        <time>2014-10-30T10:08:57.1Z</time>
      </trkpt>
      <trkpt lat="47.80607" lon="6.6268">
        <ele>383</ele>
        <time>2014-10-30T10:08:59.1Z</time>
      </trkpt>
      <trkpt lat="47.80618" lon="6.62671">
        <ele>382</ele>
        <time>2014-10-30T10:09:02.1Z</time>
      </trkpt>
      <trkpt lat="47.80622" lon="6.62666">
        <ele>381</ele>
        <time>2014-10-30T10:09:04.1Z</time>
      </trkpt>
      <trkpt lat="47.80632" lon="6.62654">
        <ele>379</ele>
        <time>2014-10-30T10:09:07.1Z</time>
      </trkpt>
      <trkpt lat="47.8064" lon="6.62643">
        <ele>378</ele>
        <time>2014-10-30T10:09:09.1Z</time>
      </trkpt>
      <trkpt lat="47.80645" lon="6.62633">
        <ele>378</ele>
        <time>2014-10-30T10:09:11.1Z</time>
      </trkpt>
      <trkpt lat="47.80648" lon="6.6262">
        <ele>377</ele>
        <time>2014-10-30T10:09:14.1Z</time>
      </trkpt>
      <trkpt lat="47.8065" lon="6.62601">
        <ele>377</ele>
        <time>2014-10-30T10:09:17.1Z</time>
      </trkpt>
      <trkpt lat="47.80652" lon="6.62586">
        <ele>378</ele>
        <time>2014-10-30T10:09:20.1Z</time>
      </trkpt>
      <trkpt lat="47.80653" lon="6.62579">
        <ele>379</ele>
        <time>2014-10-30T10:09:22.1Z</time>
      </trkpt>
      <trkpt lat="47.80653" lon="6.62568">
        <ele>380</ele>
        <time>2014-10-30T10:09:25.1Z</time>
      </trkpt>
      <trkpt lat="47.80651" lon="6.62554">
        <ele>380</ele>
        <time>2014-10-30T10:09:28.1Z</time>
      </trkpt>
      <trkpt lat="47.80649" lon="6.62547">
        <ele>380</ele>
        <time>2014-10-30T10:09:30.1Z</time>
      </trkpt>
      <trkpt lat="47.80649" lon="6.62538">
        <ele>380</ele>
        <time>2014-10-30T10:09:33.1Z</time>
      </trkpt>
      <trkpt lat="47.80648" lon="6.6253">
        <ele>380</ele>
        <time>2014-10-30T10:09:35.1Z</time>
      </trkpt>
      <trkpt lat="47.80648" lon="6.62518">
        <ele>380</ele>
        <time>2014-10-30T10:09:38.1Z</time>
      </trkpt>
      <trkpt lat="47.80651" lon="6.62512">
        <ele>380</ele>
        <time>2014-10-30T10:09:40.1Z</time>
      </trkpt>
      <trkpt lat="47.80656" lon="6.62508">
        <ele>380</ele>
        <time>2014-10-30T10:09:43.1Z</time>
      </trkpt>
      <trkpt lat="47.80658" lon="6.62505">
        <ele>380</ele>
        <time>2014-10-30T10:09:45.1Z</time>
      </trkpt>
      <trkpt lat="47.80662" lon="6.625">
        <ele>381</ele>
        <time>2014-10-30T10:09:48.1Z</time>
      </trkpt>
      <trkpt lat="47.80663" lon="6.62494">
        <ele>382</ele>
        <time>2014-10-30T10:09:50.1Z</time>
      </trkpt>
      <trkpt lat="47.80666" lon="6.62488">
        <ele>383</ele>
        <time>2014-10-30T10:09:53.1Z</time>
      </trkpt>
      <trkpt lat="47.80669" lon="6.62484">
        <ele>383</ele>
        <time>2014-10-30T10:09:55.1Z</time>
      </trkpt>
      <trkpt lat="47.80672" lon="6.62478">
        <ele>384</ele>
        <time>2014-10-30T10:09:58.1Z</time>
      </trkpt>
      <trkpt lat="47.80676" lon="6.62475">
        <ele>385</ele>
        <time>2014-10-30T10:10:01.1Z</time>
      </trkpt>
      <trkpt lat="47.80679" lon="6.62472">
        <ele>385</ele>
        <time>2014-10-30T10:10:03.1Z</time>
      </trkpt>
      <trkpt lat="47.80681" lon="6.6247">
        <ele>386</ele>
        <time>2014-10-30T10:10:05.1Z</time>
      </trkpt>
      <trkpt lat="47.80682" lon="6.62467">
        <ele>386</ele>
        <time>2014-10-30T10:10:07.1Z</time>
      </trkpt>
      <trkpt lat="47.80686" lon="6.62463">
        <ele>387</ele>
        <time>2014-10-30T10:10:10.1Z</time>
      </trkpt>
      <trkpt lat="47.80688" lon="6.6246">
        <ele>387</ele>
        <time>2014-10-30T10:10:12.1Z</time>
      </trkpt>
      <trkpt lat="47.80689" lon="6.62457">
        <ele>387</ele>
        <time>2014-10-30T10:10:14.1Z</time>
      </trkpt>
      <trkpt lat="47.80692" lon="6.62453">
        <ele>388</ele>
        <time>2014-10-30T10:10:17.1Z</time>
      </trkpt>
      <trkpt lat="47.80695" lon="6.62448">
        <ele>389</ele>
        <time>2014-10-30T10:10:20.1Z</time>
      </trkpt>
      <trkpt lat="47.80696" lon="6.62446">
        <ele>390</ele>
        <time>2014-10-30T10:10:22.1Z</time>
      </trkpt>
      <trkpt lat="47.80699" lon="6.62443">
        <ele>390</ele>
        <time>2014-10-30T10:10:25.1Z</time>
      </trkpt>
      <trkpt lat="47.80701" lon="6.62443">
        <ele>390</ele>
        <time>2014-10-30T10:10:27.1Z</time>
      </trkpt>
      <trkpt lat="47.80704" lon="6.62441">
        <ele>391</ele>
        <time>2014-10-30T10:10:30.1Z</time>
      </trkpt>
      <trkpt lat="47.80705" lon="6.6244">
        <ele>392</ele>
        <time>2014-10-30T10:10:33.1Z</time>
      </trkpt>
      <trkpt lat="47.80706" lon="6.62439">
        <ele>392</ele>
        <time>2014-10-30T10:10:36.1Z</time>
      </trkpt>
      <trkpt lat="47.80706" lon="6.62438">
        <ele>393</ele>
        <time>2014-10-30T10:10:38.1Z</time>
      </trkpt>
      <trkpt lat="47.80706" lon="6.62438">
        <ele>393</ele>
        <time>2014-10-30T10:10:41.1Z</time>
      </trkpt>
      <trkpt lat="47.80706" lon="6.62437">
        <ele>393</ele>
        <time>2014-10-30T10:10:44.1Z</time>
      </trkpt>
      <trkpt lat="47.80708" lon="6.62435">
        <ele>393</ele>
        <time>2014-10-30T10:10:46.1Z</time>
      </trkpt>
      <trkpt lat="47.80709" lon="6.62433">
        <ele>393</ele>
        <time>2014-10-30T10:10:48.1Z</time>
      </trkpt>
      <trkpt lat="47.8071" lon="6.62431">
        <ele>393</ele>
        <time>2014-10-30T10:10:50.1Z</time>
      </trkpt>
      <trkpt lat="47.80711" lon="6.6243">
        <ele>393</ele>
        <time>2014-10-30T10:10:52.1Z</time>
      </trkpt>
      <trkpt lat="47.80712" lon="6.62427">
        <ele>394</ele>
        <time>2014-10-30T10:10:55.1Z</time>
      </trkpt>
      <trkpt lat="47.80714" lon="6.62424">
        <ele>394</ele>
        <time>2014-10-30T10:10:58.1Z</time>
      </trkpt>
      <trkpt lat="47.80717" lon="6.62422">
        <ele>395</ele>
        <time>2014-10-30T10:11:01.1Z</time>
      </trkpt>
      <trkpt lat="47.80718" lon="6.62421">
        <ele>395</ele>
        <time>2014-10-30T10:11:03.1Z</time>
      </trkpt>
      <trkpt lat="47.80719" lon="6.62421">
        <ele>395</ele>
        <time>2014-10-30T10:11:05.1Z</time>
      </trkpt>
      <trkpt lat="47.80719" lon="6.6242">
        <ele>395</ele>
        <time>2014-10-30T10:11:07.1Z</time>
      </trkpt>
      <trkpt lat="47.80719" lon="6.62419">
        <ele>395</ele>
        <time>2014-10-30T10:11:10.1Z</time>
      </trkpt>
      <trkpt lat="47.80721" lon="6.62416">
        <ele>395</ele>
        <time>2014-10-30T10:11:12.1Z</time>
      </trkpt>
      <trkpt lat="47.80724" lon="6.62415">
        <ele>395</ele>
        <time>2014-10-30T10:11:14.1Z</time>
      </trkpt>
      <trkpt lat="47.80725" lon="6.62414">
        <ele>395</ele>
        <time>2014-10-30T10:11:16.1Z</time>
      </trkpt>
      <trkpt lat="47.80729" lon="6.62411">
        <ele>396</ele>
        <time>2014-10-30T10:11:19.1Z</time>
      </trkpt>
      <trkpt lat="47.80733" lon="6.62408">
        <ele>396</ele>
        <time>2014-10-30T10:11:22.1Z</time>
      </trkpt>
      <trkpt lat="47.80737" lon="6.62404">
        <ele>396</ele>
        <time>2014-10-30T10:11:25.1Z</time>
      </trkpt>
      <trkpt lat="47.80741" lon="6.62401">
        <ele>396</ele>
        <time>2014-10-30T10:11:27.1Z</time>
      </trkpt>
      <trkpt lat="47.80747" lon="6.62397">
        <ele>397</ele>
        <time>2014-10-30T10:11:30.1Z</time>
      </trkpt>
      <trkpt lat="47.80752" lon="6.62394">
        <ele>397</ele>
        <time>2014-10-30T10:11:33.1Z</time>
      </trkpt>
      <trkpt lat="47.80755" lon="6.62393">
        <ele>397</ele>
        <time>2014-10-30T10:11:35.1Z</time>
      </trkpt>
      <trkpt lat="47.80759" lon="6.62392">
        <ele>398</ele>
        <time>2014-10-30T10:11:37.1Z</time>
      </trkpt>
      <trkpt lat="47.80762" lon="6.62391">
        <ele>398</ele>
        <time>2014-10-30T10:11:39.1Z</time>
      </trkpt>
      <trkpt lat="47.80767" lon="6.62388">
        <ele>398</ele>
        <time>2014-10-30T10:11:42.1Z</time>
      </trkpt>
      <trkpt lat="47.80771" lon="6.62387">
        <ele>399</ele>
        <time>2014-10-30T10:11:44.1Z</time>
      </trkpt>
      <trkpt lat="47.80776" lon="6.62385">
        <ele>399</ele>
        <time>2014-10-30T10:11:47.1Z</time>
      </trkpt>
      <trkpt lat="47.80781" lon="6.62381">
        <ele>400</ele>
        <time>2014-10-30T10:11:50.1Z</time>
      </trkpt>
      <trkpt lat="47.8079" lon="6.62374">
        <ele>400</ele>
        <time>2014-10-30T10:11:53.1Z</time>
      </trkpt>
      <trkpt lat="47.80795" lon="6.62369">
        <ele>400</ele>
        <time>2014-10-30T10:11:55.1Z</time>
      </trkpt>
      <trkpt lat="47.80803" lon="6.62368">
        <ele>399</ele>
        <time>2014-10-30T10:11:58.1Z</time>
      </trkpt>
      <trkpt lat="47.80808" lon="6.62366">
        <ele>400</ele>
        <time>2014-10-30T10:12:01.1Z</time>
      </trkpt>
      <trkpt lat="47.80813" lon="6.62364">
        <ele>401</ele>
        <time>2014-10-30T10:12:04.1Z</time>
      </trkpt>
      <trkpt lat="47.80817" lon="6.62362">
        <ele>401</ele>
        <time>2014-10-30T10:12:06.1Z</time>
      </trkpt>
      <trkpt lat="47.8082" lon="6.6236">
        <ele>401</ele>
        <time>2014-10-30T10:12:08.1Z</time>
      </trkpt>
      <trkpt lat="47.80825" lon="6.62357">
        <ele>401</ele>
        <time>2014-10-30T10:12:11.1Z</time>
      </trkpt>
      <trkpt lat="47.80829" lon="6.62354">
        <ele>400</ele>
        <time>2014-10-30T10:12:14.1Z</time>
      </trkpt>
      <trkpt lat="47.80832" lon="6.62352">
        <ele>400</ele>
        <time>2014-10-30T10:12:16.1Z</time>
      </trkpt>
      <trkpt lat="47.80836" lon="6.6235">
        <ele>400</ele>
        <time>2014-10-30T10:12:19.1Z</time>
      </trkpt>
      <trkpt lat="47.8084" lon="6.62348">
        <ele>401</ele>
        <time>2014-10-30T10:12:21.1Z</time>
      </trkpt>
      <trkpt lat="47.80846" lon="6.62345">
        <ele>402</ele>
        <time>2014-10-30T10:12:24.1Z</time>
      </trkpt>
      <trkpt lat="47.80851" lon="6.62341">
        <ele>403</ele>
        <time>2014-10-30T10:12:27.1Z</time>
      </trkpt>
      <trkpt lat="47.80855" lon="6.62338">
        <ele>403</ele>
        <time>2014-10-30T10:12:30.1Z</time>
      </trkpt>
      <trkpt lat="47.80859" lon="6.62335">
        <ele>404</ele>
        <time>2014-10-30T10:12:33.1Z</time>
      </trkpt>
      <trkpt lat="47.80862" lon="6.62331">
        <ele>404</ele>
        <time>2014-10-30T10:12:35.1Z</time>
      </trkpt>
      <trkpt lat="47.80867" lon="6.62328">
        <ele>405</ele>
        <time>2014-10-30T10:12:37.1Z</time>
      </trkpt>
      <trkpt lat="47.80871" lon="6.62325">
        <ele>405</ele>
        <time>2014-10-30T10:12:39.1Z</time>
      </trkpt>
      <trkpt lat="47.80875" lon="6.62323">
        <ele>405</ele>
        <time>2014-10-30T10:12:42.1Z</time>
      </trkpt>
      <trkpt lat="47.8088" lon="6.6232">
        <ele>405</ele>
        <time>2014-10-30T10:12:45.1Z</time>
      </trkpt>
      <trkpt lat="47.80886" lon="6.62315">
        <ele>405</ele>
        <time>2014-10-30T10:12:48.1Z</time>
      </trkpt>
      <trkpt lat="47.8089" lon="6.62313">
        <ele>405</ele>
        <time>2014-10-30T10:12:50.1Z</time>
      </trkpt>
      <trkpt lat="47.80898" lon="6.62308">
        <ele>405</ele>
        <time>2014-10-30T10:12:53.1Z</time>
      </trkpt>
      <trkpt lat="47.80904" lon="6.62303">
        <ele>405</ele>
        <time>2014-10-30T10:12:56.1Z</time>
      </trkpt>
      <trkpt lat="47.8091" lon="6.62296">
        <ele>405</ele>
        <time>2014-10-30T10:12:59.1Z</time>
      </trkpt>
      <trkpt lat="47.80917" lon="6.62286">
        <ele>405</ele>
        <time>2014-10-30T10:13:02.1Z</time>
      </trkpt>
      <trkpt lat="47.80924" lon="6.62279">
        <ele>404</ele>
        <time>2014-10-30T10:13:04.1Z</time>
      </trkpt>
      <trkpt lat="47.8093" lon="6.62274">
        <ele>404</ele>
        <time>2014-10-30T10:13:06.1Z</time>
      </trkpt>
      <trkpt lat="47.80937" lon="6.62266">
        <ele>404</ele>
        <time>2014-10-30T10:13:09.1Z</time>
      </trkpt>
      <trkpt lat="47.8094" lon="6.6226">
        <ele>404</ele>
        <time>2014-10-30T10:13:11.1Z</time>
      </trkpt>
      <trkpt lat="47.80939" lon="6.6225">
        <ele>404</ele>
        <time>2014-10-30T10:13:14.1Z</time>
      </trkpt>
      <trkpt lat="47.80936" lon="6.62238">
        <ele>405</ele>
        <time>2014-10-30T10:13:17.1Z</time>
      </trkpt>
      <trkpt lat="47.80936" lon="6.62229">
        <ele>405</ele>
        <time>2014-10-30T10:13:19.1Z</time>
      </trkpt>
      <trkpt lat="47.80936" lon="6.62221">
        <ele>405</ele>
        <time>2014-10-30T10:13:21.1Z</time>
      </trkpt>
      <trkpt lat="47.8094" lon="6.62209">
        <ele>405</ele>
        <time>2014-10-30T10:13:24.1Z</time>
      </trkpt>
      <trkpt lat="47.80944" lon="6.62203">
        <ele>405</ele>
        <time>2014-10-30T10:13:26.1Z</time>
      </trkpt>
      <trkpt lat="47.80947" lon="6.62194">
        <ele>404</ele>
        <time>2014-10-30T10:13:29.1Z</time>
      </trkpt>
      <trkpt lat="47.80948" lon="6.62187">
        <ele>405</ele>
        <time>2014-10-30T10:13:31.1Z</time>
      </trkpt>
      <trkpt lat="47.80952" lon="6.62177">
        <ele>405</ele>
        <time>2014-10-30T10:13:34.1Z</time>
      </trkpt>
      <trkpt lat="47.80959" lon="6.62168">
        <ele>405</ele>
        <time>2014-10-30T10:13:37.1Z</time>
      </trkpt>
      <trkpt lat="47.80965" lon="6.62159">
        <ele>405</ele>
        <time>2014-10-30T10:13:40.1Z</time>
      </trkpt>
      <trkpt lat="47.80967" lon="6.62154">
        <ele>405</ele>
        <time>2014-10-30T10:13:42.1Z</time>
      </trkpt>
      <trkpt lat="47.80967" lon="6.62144">
        <ele>405</ele>
        <time>2014-10-30T10:13:45.1Z</time>
      </trkpt>
      <trkpt lat="47.80966" lon="6.62135">
        <ele>406</ele>
        <time>2014-10-30T10:13:47.1Z</time>
      </trkpt>
      <trkpt lat="47.80965" lon="6.62123">
        <ele>405</ele>
        <time>2014-10-30T10:13:50.1Z</time>
      </trkpt>
      <trkpt lat="47.80962" lon="6.62118">
        <ele>405</ele>
        <time>2014-10-30T10:13:52.1Z</time>
      </trkpt>
      <trkpt lat="47.80956" lon="6.62111">
        <ele>405</ele>
        <time>2014-10-30T10:13:55.1Z</time>
      </trkpt>
      <trkpt lat="47.80952" lon="6.6211">
        <ele>405</ele>
        <time>2014-10-30T10:13:57.1Z</time>
      </trkpt>
      <trkpt lat="47.80944" lon="6.62107">
        <ele>406</ele>
        <time>2014-10-30T10:14:00.1Z</time>
      </trkpt>
      <trkpt lat="47.80937" lon="6.62102">
        <ele>406</ele>
        <time>2014-10-30T10:14:03.1Z</time>
      </trkpt>
      <trkpt lat="47.8093" lon="6.62099">
        <ele>406</ele>
        <time>2014-10-30T10:14:06.1Z</time>
      </trkpt>
      <trkpt lat="47.80924" lon="6.6209">
        <ele>406</ele>
        <time>2014-10-30T10:14:09.1Z</time>
      </trkpt>
      <trkpt lat="47.8092" lon="6.62082">
        <ele>406</ele>
        <time>2014-10-30T10:14:11.1Z</time>
      </trkpt>
      <trkpt lat="47.8092" lon="6.62068">
        <ele>405</ele>
        <time>2014-10-30T10:14:14.1Z</time>
      </trkpt>
      <trkpt lat="47.80922" lon="6.62059">
        <ele>405</ele>
        <time>2014-10-30T10:14:16.1Z</time>
      </trkpt>
      <trkpt lat="47.8093" lon="6.6205">
        <ele>404</ele>
        <time>2014-10-30T10:14:19.1Z</time>
      </trkpt>
      <trkpt lat="47.80933" lon="6.62042">
        <ele>404</ele>
        <time>2014-10-30T10:14:21.1Z</time>
      </trkpt>
      <trkpt lat="47.80939" lon="6.62033">
        <ele>403</ele>
        <time>2014-10-30T10:14:23.1Z</time>
      </trkpt>
      <trkpt lat="47.80946" lon="6.62021">
        <ele>402</ele>
        <time>2014-10-30T10:14:25.1Z</time>
      </trkpt>
      <trkpt lat="47.80954" lon="6.62">
        <ele>401</ele>
        <time>2014-10-30T10:14:28.1Z</time>
      </trkpt>
      <trkpt lat="47.80959" lon="6.61981">
        <ele>400</ele>
        <time>2014-10-30T10:14:30.1Z</time>
      </trkpt>
      <trkpt lat="47.80963" lon="6.61968">
        <ele>400</ele>
        <time>2014-10-30T10:14:32.1Z</time>
      </trkpt>
      <trkpt lat="47.80974" lon="6.61959">
        <ele>399</ele>
        <time>2014-10-30T10:14:35.1Z</time>
      </trkpt>
      <trkpt lat="47.80982" lon="6.61957">
        <ele>399</ele>
        <time>2014-10-30T10:14:38.1Z</time>
      </trkpt>
      <trkpt lat="47.80988" lon="6.61955">
        <ele>399</ele>
        <time>2014-10-30T10:14:41.1Z</time>
      </trkpt>
      <trkpt lat="47.80993" lon="6.61952">
        <ele>399</ele>
        <time>2014-10-30T10:14:44.1Z</time>
      </trkpt>
      <trkpt lat="47.80995" lon="6.6195">
        <ele>399</ele>
        <time>2014-10-30T10:14:46.1Z</time>
      </trkpt>
      <trkpt lat="47.80997" lon="6.61948">
        <ele>399</ele>
        <time>2014-10-30T10:14:49.1Z</time>
      </trkpt>
      <trkpt lat="47.80998" lon="6.61946">
        <ele>399</ele>
        <time>2014-10-30T10:14:51.1Z</time>
      </trkpt>
      <trkpt lat="47.81" lon="6.61944">
        <ele>399</ele>
        <time>2014-10-30T10:14:54.1Z</time>
      </trkpt>
      <trkpt lat="47.81001" lon="6.6194">
        <ele>398</ele>
        <time>2014-10-30T10:14:57.1Z</time>
      </trkpt>
      <trkpt lat="47.81003" lon="6.61937">
        <ele>398</ele>
        <time>2014-10-30T10:14:59.1Z</time>
      </trkpt>
      <trkpt lat="47.81005" lon="6.61934">
        <ele>398</ele>
        <time>2014-10-30T10:15:02.1Z</time>
      </trkpt>
      <trkpt lat="47.81007" lon="6.61934">
        <ele>399</ele>
        <time>2014-10-30T10:15:05.1Z</time>
      </trkpt>
      <trkpt lat="47.81008" lon="6.61933">
        <ele>399</ele>
        <time>2014-10-30T10:15:07.1Z</time>
      </trkpt>
      <trkpt lat="47.81008" lon="6.61932">
        <ele>399</ele>
        <time>2014-10-30T10:15:10.1Z</time>
      </trkpt>
      <trkpt lat="47.81009" lon="6.61932">
        <ele>399</ele>
        <time>2014-10-30T10:15:13.1Z</time>
      </trkpt>
      <trkpt lat="47.81009" lon="6.61932">
        <ele>399</ele>
        <time>2014-10-30T10:15:15.1Z</time>
      </trkpt>
      <trkpt lat="47.81011" lon="6.61931">
        <ele>399</ele>
        <time>2014-10-30T10:15:18.1Z</time>
      </trkpt>
      <trkpt lat="47.81011" lon="6.61931">
        <ele>399</ele>
        <time>2014-10-30T10:15:21.1Z</time>
      </trkpt>
      <trkpt lat="47.81013" lon="6.61929">
        <ele>399</ele>
        <time>2014-10-30T10:15:24.1Z</time>
      </trkpt>
      <trkpt lat="47.81015" lon="6.61928">
        <ele>399</ele>
        <time>2014-10-30T10:15:26.1Z</time>
      </trkpt>
      <trkpt lat="47.81017" lon="6.61927">
        <ele>399</ele>
        <time>2014-10-30T10:15:28.1Z</time>
      </trkpt>
      <trkpt lat="47.8102" lon="6.61923">
        <ele>399</ele>
        <time>2014-10-30T10:15:31.1Z</time>
      </trkpt>
      <trkpt lat="47.81023" lon="6.61922">
        <ele>399</ele>
        <time>2014-10-30T10:15:33.1Z</time>
      </trkpt>
      <trkpt lat="47.81026" lon="6.6192">
        <ele>400</ele>
        <time>2014-10-30T10:15:36.1Z</time>
      </trkpt>
      <trkpt lat="47.81028" lon="6.61919">
        <ele>400</ele>
        <time>2014-10-30T10:15:38.1Z</time>
      </trkpt>
      <trkpt lat="47.81028" lon="6.61919">
        <ele>401</ele>
        <time>2014-10-30T10:15:41.1Z</time>
      </trkpt>
      <trkpt lat="47.81028" lon="6.61917">
        <ele>401</ele>
        <time>2014-10-30T10:15:44.1Z</time>
      </trkpt>
      <trkpt lat="47.81029" lon="6.61915">
        <ele>401</ele>
        <time>2014-10-30T10:15:47.1Z</time>
      </trkpt>
      <trkpt lat="47.81032" lon="6.61913">
        <ele>401</ele>
        <time>2014-10-30T10:15:49.1Z</time>
      </trkpt>
      <trkpt lat="47.81036" lon="6.61908">
        <ele>401</ele>
        <time>2014-10-30T10:15:52.1Z</time>
      </trkpt>
      <trkpt lat="47.81042" lon="6.61902">
        <ele>400</ele>
        <time>2014-10-30T10:15:55.1Z</time>
      </trkpt>
      <trkpt lat="47.81048" lon="6.6189">
        <ele>400</ele>
        <time>2014-10-30T10:15:58.1Z</time>
      </trkpt>
      <trkpt lat="47.81053" lon="6.61882">
        <ele>400</ele>
        <time>2014-10-30T10:16:00.1Z</time>
      </trkpt>
      <trkpt lat="47.81057" lon="6.61875">
        <ele>400</ele>
        <time>2014-10-30T10:16:02.1Z</time>
      </trkpt>
      <trkpt lat="47.8106" lon="6.61861">
        <ele>399</ele>
        <time>2014-10-30T10:16:05.1Z</time>
      </trkpt>
      <trkpt lat="47.81064" lon="6.61843">
        <ele>399</ele>
        <time>2014-10-30T10:16:08.1Z</time>
      </trkpt>
      <trkpt lat="47.81065" lon="6.61829">
        <ele>398</ele>
        <time>2014-10-30T10:16:10.1Z</time>
      </trkpt>
      <trkpt lat="47.81069" lon="6.61808">
        <ele>398</ele>
        <time>2014-10-30T10:16:13.1Z</time>
      </trkpt>
      <trkpt lat="47.81078" lon="6.61785">
        <ele>397</ele>
        <time>2014-10-30T10:16:16.1Z</time>
      </trkpt>
      <trkpt lat="47.81082" lon="6.61768">
        <ele>396</ele>
        <time>2014-10-30T10:16:18.1Z</time>
      </trkpt>
      <trkpt lat="47.81089" lon="6.61749">
        <ele>396</ele>
        <time>2014-10-30T10:16:21.1Z</time>
      </trkpt>
      <trkpt lat="47.81096" lon="6.61732">
        <ele>396</ele>
        <time>2014-10-30T10:16:24.1Z</time>
      </trkpt>
      <trkpt lat="47.81103" lon="6.61713">
        <ele>395</ele>
        <time>2014-10-30T10:16:27.1Z</time>
      </trkpt>
      <trkpt lat="47.8111" lon="6.61697">
        <ele>395</ele>
        <time>2014-10-30T10:16:29.1Z</time>
      </trkpt>
      <trkpt lat="47.81127" lon="6.61688">
        <ele>395</ele>
        <time>2014-10-30T10:16:32.1Z</time>
      </trkpt>
      <trkpt lat="47.81144" lon="6.61686">
        <ele>393</ele>
        <time>2014-10-30T10:16:35.1Z</time>
      </trkpt>
      <trkpt lat="47.81157" lon="6.61685">
        <ele>392</ele>
        <time>2014-10-30T10:16:37.1Z</time>
      </trkpt>
      <trkpt lat="47.8118" lon="6.6168">
        <ele>390</ele>
        <time>2014-10-30T10:16:39.1Z</time>
      </trkpt>
      <trkpt lat="47.81193" lon="6.61682">
        <ele>388</ele>
        <time>2014-10-30T10:16:42.1Z</time>
      </trkpt>
      <trkpt lat="47.812" lon="6.61693">
        <ele>386</ele>
        <time>2014-10-30T10:16:45.1Z</time>
      </trkpt>
      <trkpt lat="47.81208" lon="6.61703">
        <ele>386</ele>
        <time>2014-10-30T10:16:48.1Z</time>
      </trkpt>
      <trkpt lat="47.81213" lon="6.61709">
        <ele>387</ele>
        <time>2014-10-30T10:16:50.1Z</time>
      </trkpt>
      <trkpt lat="47.8122" lon="6.61717">
        <ele>387</ele>
        <time>2014-10-30T10:16:53.1Z</time>
      </trkpt>
      <trkpt lat="47.81229" lon="6.61724">
        <ele>388</ele>
        <time>2014-10-30T10:16:56.1Z</time>
      </trkpt>
      <trkpt lat="47.81238" lon="6.61731">
        <ele>388</ele>
        <time>2014-10-30T10:16:59.1Z</time>
      </trkpt>
      <trkpt lat="47.81247" lon="6.61739">
        <ele>389</ele>
        <time>2014-10-30T10:17:02.1Z</time>
      </trkpt>
      <trkpt lat="47.81252" lon="6.61745">
        <ele>390</ele>
        <time>2014-10-30T10:17:04.1Z</time>
      </trkpt>
      <trkpt lat="47.8126" lon="6.61751">
        <ele>391</ele>
        <time>2014-10-30T10:17:07.1Z</time>
      </trkpt>
      <trkpt lat="47.81266" lon="6.61755">
        <ele>391</ele>
        <time>2014-10-30T10:17:09.1Z</time>
      </trkpt>
      <trkpt lat="47.81275" lon="6.61759">
        <ele>392</ele>
        <time>2014-10-30T10:17:12.1Z</time>
      </trkpt>
      <trkpt lat="47.81283" lon="6.61764">
        <ele>392</ele>
        <time>2014-10-30T10:17:15.1Z</time>
      </trkpt>
      <trkpt lat="47.81288" lon="6.61767">
        <ele>392</ele>
        <time>2014-10-30T10:17:17.1Z</time>
      </trkpt>
      <trkpt lat="47.81296" lon="6.61771">
        <ele>393</ele>
        <time>2014-10-30T10:17:19.1Z</time>
      </trkpt>
      <trkpt lat="47.81301" lon="6.61774">
        <ele>393</ele>
        <time>2014-10-30T10:17:22.1Z</time>
      </trkpt>
      <trkpt lat="47.8131" lon="6.61778">
        <ele>393</ele>
        <time>2014-10-30T10:17:25.1Z</time>
      </trkpt>
      <trkpt lat="47.81315" lon="6.61782">
        <ele>394</ele>
        <time>2014-10-30T10:17:27.1Z</time>
      </trkpt>
      <trkpt lat="47.81321" lon="6.61786">
        <ele>394</ele>
        <time>2014-10-30T10:17:29.1Z</time>
      </trkpt>
      <trkpt lat="47.81325" lon="6.6179">
        <ele>394</ele>
        <time>2014-10-30T10:17:31.1Z</time>
      </trkpt>
      <trkpt lat="47.81331" lon="6.61794">
        <ele>394</ele>
        <time>2014-10-30T10:17:34.1Z</time>
      </trkpt>
      <trkpt lat="47.81335" lon="6.61797">
        <ele>395</ele>
        <time>2014-10-30T10:17:36.1Z</time>
      </trkpt>
      <trkpt lat="47.8134" lon="6.61801">
        <ele>395</ele>
        <time>2014-10-30T10:17:39.1Z</time>
      </trkpt>
      <trkpt lat="47.81344" lon="6.61806">
        <ele>395</ele>
        <time>2014-10-30T10:17:42.1Z</time>
      </trkpt>
      <trkpt lat="47.81348" lon="6.6181">
        <ele>396</ele>
        <time>2014-10-30T10:17:45.1Z</time>
      </trkpt>
      <trkpt lat="47.81351" lon="6.61813">
        <ele>397</ele>
        <time>2014-10-30T10:17:47.1Z</time>
      </trkpt>
      <trkpt lat="47.81354" lon="6.61816">
        <ele>397</ele>
        <time>2014-10-30T10:17:49.1Z</time>
      </trkpt>
      <trkpt lat="47.81359" lon="6.61821">
        <ele>397</ele>
        <time>2014-10-30T10:17:51.1Z</time>
      </trkpt>
      <trkpt lat="47.81363" lon="6.61823">
        <ele>397</ele>
        <time>2014-10-30T10:17:54.1Z</time>
      </trkpt>
      <trkpt lat="47.81366" lon="6.61825">
        <ele>398</ele>
        <time>2014-10-30T10:17:56.1Z</time>
      </trkpt>
      <trkpt lat="47.81373" lon="6.61828">
        <ele>398</ele>
        <time>2014-10-30T10:17:59.1Z</time>
      </trkpt>
      <trkpt lat="47.81377" lon="6.6183">
        <ele>399</ele>
        <time>2014-10-30T10:18:01.1Z</time>
      </trkpt>
      <trkpt lat="47.81383" lon="6.61832">
        <ele>399</ele>
        <time>2014-10-30T10:18:04.1Z</time>
      </trkpt>
      <trkpt lat="47.81387" lon="6.61832">
        <ele>399</ele>
        <time>2014-10-30T10:18:06.1Z</time>
      </trkpt>
      <trkpt lat="47.81394" lon="6.61833">
        <ele>399</ele>
        <time>2014-10-30T10:18:09.1Z</time>
      </trkpt>
      <trkpt lat="47.81399" lon="6.61835">
        <ele>399</ele>
        <time>2014-10-30T10:18:12.1Z</time>
      </trkpt>
      <trkpt lat="47.81407" lon="6.61838">
        <ele>399</ele>
        <time>2014-10-30T10:18:15.1Z</time>
      </trkpt>
      <trkpt lat="47.81413" lon="6.61842">
        <ele>399</ele>
        <time>2014-10-30T10:18:17.1Z</time>
      </trkpt>
      <trkpt lat="47.81417" lon="6.61846">
        <ele>399</ele>
        <time>2014-10-30T10:18:19.1Z</time>
      </trkpt>
      <trkpt lat="47.81422" lon="6.61851">
        <ele>400</ele>
        <time>2014-10-30T10:18:21.1Z</time>
      </trkpt>
      <trkpt lat="47.81429" lon="6.61858">
        <ele>400</ele>
        <time>2014-10-30T10:18:24.1Z</time>
      </trkpt>
      <trkpt lat="47.81435" lon="6.61862">
        <ele>399</ele>
        <time>2014-10-30T10:18:26.1Z</time>
      </trkpt>
      <trkpt lat="47.81441" lon="6.61868">
        <ele>399</ele>
        <time>2014-10-30T10:18:28.1Z</time>
      </trkpt>
      <trkpt lat="47.81448" lon="6.61872">
        <ele>400</ele>
        <time>2014-10-30T10:18:30.1Z</time>
      </trkpt>
      <trkpt lat="47.81459" lon="6.61874">
        <ele>400</ele>
        <time>2014-10-30T10:18:33.1Z</time>
      </trkpt>
      <trkpt lat="47.81464" lon="6.61875">
        <ele>401</ele>
        <time>2014-10-30T10:18:35.1Z</time>
      </trkpt>
      <trkpt lat="47.81472" lon="6.61876">
        <ele>401</ele>
        <time>2014-10-30T10:18:38.1Z</time>
      </trkpt>
      <trkpt lat="47.81476" lon="6.61877">
        <ele>401</ele>
        <time>2014-10-30T10:18:40.1Z</time>
      </trkpt>
      <trkpt lat="47.81481" lon="6.61879">
        <ele>402</ele>
        <time>2014-10-30T10:18:42.1Z</time>
      </trkpt>
      <trkpt lat="47.81488" lon="6.61882">
        <ele>402</ele>
        <time>2014-10-30T10:18:45.1Z</time>
      </trkpt>
      <trkpt lat="47.81492" lon="6.61885">
        <ele>402</ele>
        <time>2014-10-30T10:18:47.1Z</time>
      </trkpt>
      <trkpt lat="47.81501" lon="6.61887">
        <ele>403</ele>
        <time>2014-10-30T10:18:50.1Z</time>
      </trkpt>
      <trkpt lat="47.81506" lon="6.61888">
        <ele>403</ele>
        <time>2014-10-30T10:18:52.1Z</time>
      </trkpt>
      <trkpt lat="47.81514" lon="6.61889">
        <ele>404</ele>
        <time>2014-10-30T10:18:55.1Z</time>
      </trkpt>
      <trkpt lat="47.81519" lon="6.61888">
        <ele>404</ele>
        <time>2014-10-30T10:18:57.1Z</time>
      </trkpt>
      <trkpt lat="47.81527" lon="6.61886">
        <ele>405</ele>
        <time>2014-10-30T10:19:00.1Z</time>
      </trkpt>
      <trkpt lat="47.81534" lon="6.61885">
        <ele>405</ele>
        <time>2014-10-30T10:19:03.1Z</time>
      </trkpt>
      <trkpt lat="47.81539" lon="6.61884">
        <ele>405</ele>
        <time>2014-10-30T10:19:06.1Z</time>
      </trkpt>
      <trkpt lat="47.81546" lon="6.61882">
        <ele>406</ele>
        <time>2014-10-30T10:19:09.1Z</time>
      </trkpt>
      <trkpt lat="47.81551" lon="6.61879">
        <ele>406</ele>
        <time>2014-10-30T10:19:11.1Z</time>
      </trkpt>
      <trkpt lat="47.81556" lon="6.61876">
        <ele>407</ele>
        <time>2014-10-30T10:19:14.1Z</time>
      </trkpt>
      <trkpt lat="47.81564" lon="6.61875">
        <ele>407</ele>
        <time>2014-10-30T10:19:17.1Z</time>
      </trkpt>
      <trkpt lat="47.81567" lon="6.61873">
        <ele>407</ele>
        <time>2014-10-30T10:19:19.1Z</time>
      </trkpt>
      <trkpt lat="47.81573" lon="6.6187">
        <ele>407</ele>
        <time>2014-10-30T10:19:22.1Z</time>
      </trkpt>
      <trkpt lat="47.81581" lon="6.61867">
        <ele>407</ele>
        <time>2014-10-30T10:19:25.1Z</time>
      </trkpt>
      <trkpt lat="47.81589" lon="6.61864">
        <ele>408</ele>
        <time>2014-10-30T10:19:28.1Z</time>
      </trkpt>
      <trkpt lat="47.81596" lon="6.6186">
        <ele>408</ele>
        <time>2014-10-30T10:19:31.1Z</time>
      </trkpt>
      <trkpt lat="47.81605" lon="6.61855">
        <ele>409</ele>
        <time>2014-10-30T10:19:34.1Z</time>
      </trkpt>
      <trkpt lat="47.81612" lon="6.61851">
        <ele>409</ele>
        <time>2014-10-30T10:19:37.1Z</time>
      </trkpt>
      <trkpt lat="47.81622" lon="6.61848">
        <ele>409</ele>
        <time>2014-10-30T10:19:40.1Z</time>
      </trkpt>
      <trkpt lat="47.81628" lon="6.61845">
        <ele>410</ele>
        <time>2014-10-30T10:19:42.1Z</time>
      </trkpt>
      <trkpt lat="47.81632" lon="6.61841">
        <ele>410</ele>
        <time>2014-10-30T10:19:44.1Z</time>
      </trkpt>
      <trkpt lat="47.81639" lon="6.61835">
        <ele>410</ele>
        <time>2014-10-30T10:19:47.1Z</time>
      </trkpt>
      <trkpt lat="47.81646" lon="6.61828">
        <ele>411</ele>
        <time>2014-10-30T10:19:50.1Z</time>
      </trkpt>
      <trkpt lat="47.81649" lon="6.61825">
        <ele>410</ele>
        <time>2014-10-30T10:19:52.1Z</time>
      </trkpt>
      <trkpt lat="47.81653" lon="6.61822">
        <ele>411</ele>
        <time>2014-10-30T10:19:54.1Z</time>
      </trkpt>
      <trkpt lat="47.81655" lon="6.61822">
        <ele>411</ele>
        <time>2014-10-30T10:19:56.1Z</time>
      </trkpt>
      <trkpt lat="47.81656" lon="6.61821">
        <ele>411</ele>
        <time>2014-10-30T10:19:59.1Z</time>
      </trkpt>
      <trkpt lat="47.81656" lon="6.61821">
        <ele>411</ele>
        <time>2014-10-30T10:20:01.1Z</time>
      </trkpt>
      <trkpt lat="47.81658" lon="6.61819">
        <ele>411</ele>
        <time>2014-10-30T10:20:04.1Z</time>
      </trkpt>
      <trkpt lat="47.81659" lon="6.6182">
        <ele>410</ele>
        <time>2014-10-30T10:20:06.1Z</time>
      </trkpt>
      <trkpt lat="47.81659" lon="6.61819">
        <ele>410</ele>
        <time>2014-10-30T10:20:09.1Z</time>
      </trkpt>
      <trkpt lat="47.8166" lon="6.61819">
        <ele>411</ele>
        <time>2014-10-30T10:20:13.1Z</time>
      </trkpt>
      <trkpt lat="47.8166" lon="6.6182">
        <ele>411</ele>
        <time>2014-10-30T10:20:15.1Z</time>
      </trkpt>
      <trkpt lat="47.81657" lon="6.61818">
        <ele>411</ele>
        <time>2014-10-30T10:20:17.1Z</time>
      </trkpt>
      <trkpt lat="47.81657" lon="6.61812">
        <ele>410</ele>
        <time>2014-10-30T10:20:20.1Z</time>
      </trkpt>
      <trkpt lat="47.81657" lon="6.61808">
        <ele>411</ele>
        <time>2014-10-30T10:20:23.1Z</time>
      </trkpt>
      <trkpt lat="47.81657" lon="6.61808">
        <ele>410</ele>
        <time>2014-10-30T10:20:26.1Z</time>
      </trkpt>
      <trkpt lat="47.81657" lon="6.61811">
        <ele>410</ele>
        <time>2014-10-30T10:20:29.1Z</time>
      </trkpt>
      <trkpt lat="47.81659" lon="6.61817">
        <ele>411</ele>
        <time>2014-10-30T10:20:32.1Z</time>
      </trkpt>
      <trkpt lat="47.81661" lon="6.6182">
        <ele>411</ele>
        <time>2014-10-30T10:20:34.1Z</time>
      </trkpt>
      <trkpt lat="47.81661" lon="6.61821">
        <ele>411</ele>
        <time>2014-10-30T10:20:36.1Z</time>
      </trkpt>
      <trkpt lat="47.8166" lon="6.61821">
        <ele>411</ele>
        <time>2014-10-30T10:20:39.1Z</time>
      </trkpt>
      <trkpt lat="47.8166" lon="6.6182">
        <ele>410</ele>
        <time>2014-10-30T10:20:41.1Z</time>
      </trkpt>
      <trkpt lat="47.8166" lon="6.6182">
        <ele>410</ele>
        <time>2014-10-30T10:20:44.1Z</time>
      </trkpt>
      <trkpt lat="47.8166" lon="6.6182">
        <ele>411</ele>
        <time>2014-10-30T10:20:46.1Z</time>
      </trkpt>
      <trkpt lat="47.8166" lon="6.6182">
        <ele>411</ele>
        <time>2014-10-30T10:20:50.1Z</time>
      </trkpt>
      <trkpt lat="47.8166" lon="6.61819">
        <ele>411</ele>
        <time>2014-10-30T10:20:53.1Z</time>
      </trkpt>
      <trkpt lat="47.8166" lon="6.61818">
        <ele>411</ele>
        <time>2014-10-30T10:20:56.1Z</time>
      </trkpt>
      <trkpt lat="47.8166" lon="6.61817">
        <ele>411</ele>
        <time>2014-10-30T10:20:58.1Z</time>
      </trkpt>
      <trkpt lat="47.8166" lon="6.61816">
        <ele>411</ele>
        <time>2014-10-30T10:21:01.1Z</time>
      </trkpt>
      <trkpt lat="47.8166" lon="6.61816">
        <ele>411</ele>
        <time>2014-10-30T10:21:04.1Z</time>
      </trkpt>
      <trkpt lat="47.8166" lon="6.61815">
        <ele>411</ele>
        <time>2014-10-30T10:21:06.1Z</time>
      </trkpt>
      <trkpt lat="47.81661" lon="6.61814">
        <ele>411</ele>
        <time>2014-10-30T10:21:08.1Z</time>
      </trkpt>
      <trkpt lat="47.81662" lon="6.61813">
        <ele>410</ele>
        <time>2014-10-30T10:21:11.1Z</time>
      </trkpt>
      <trkpt lat="47.81662" lon="6.61813">
        <ele>410</ele>
        <time>2014-10-30T10:21:13.1Z</time>
      </trkpt>
      <trkpt lat="47.81662" lon="6.61812">
        <ele>411</ele>
        <time>2014-10-30T10:21:16.1Z</time>
      </trkpt>
      <trkpt lat="47.81663" lon="6.61812">
        <ele>411</ele>
        <time>2014-10-30T10:21:18.1Z</time>
      </trkpt>
      <trkpt lat="47.81663" lon="6.61812">
        <ele>411</ele>
        <time>2014-10-30T10:21:21.1Z</time>
      </trkpt>
      <trkpt lat="47.81662" lon="6.61813">
        <ele>410</ele>
        <time>2014-10-30T10:21:23.1Z</time>
      </trkpt>
      <trkpt lat="47.81662" lon="6.61814">
        <ele>410</ele>
        <time>2014-10-30T10:21:25.1Z</time>
      </trkpt>
      <trkpt lat="47.81662" lon="6.61815">
        <ele>411</ele>
        <time>2014-10-30T10:21:28.1Z</time>
      </trkpt>
      <trkpt lat="47.81661" lon="6.61817">
        <ele>411</ele>
        <time>2014-10-30T10:21:30.1Z</time>
      </trkpt>
      <trkpt lat="47.81661" lon="6.61818">
        <ele>411</ele>
        <time>2014-10-30T10:21:32.1Z</time>
      </trkpt>
      <trkpt lat="47.8166" lon="6.61819">
        <ele>410</ele>
        <time>2014-10-30T10:21:35.1Z</time>
      </trkpt>
      <trkpt lat="47.8166" lon="6.61821">
        <ele>411</ele>
        <time>2014-10-30T10:21:38.1Z</time>
      </trkpt>
      <trkpt lat="47.8166" lon="6.61822">
        <ele>411</ele>
        <time>2014-10-30T10:21:40.1Z</time>
      </trkpt>
      <trkpt lat="47.81661" lon="6.61822">
        <ele>411</ele>
        <time>2014-10-30T10:21:43.1Z</time>
      </trkpt>
      <trkpt lat="47.81661" lon="6.61822">
        <ele>411</ele>
        <time>2014-10-30T10:21:46.1Z</time>
      </trkpt>
      <trkpt lat="47.81662" lon="6.61822">
        <ele>410</ele>
        <time>2014-10-30T10:21:49.1Z</time>
      </trkpt>
      <trkpt lat="47.81662" lon="6.61823">
        <ele>410</ele>
        <time>2014-10-30T10:21:52.1Z</time>
      </trkpt>
      <trkpt lat="47.81662" lon="6.61822">
        <ele>410</ele>
        <time>2014-10-30T10:21:55.1Z</time>
      </trkpt>
      <trkpt lat="47.81662" lon="6.61822">
        <ele>410</ele>
        <time>2014-10-30T10:21:57.1Z</time>
      </trkpt>
      <trkpt lat="47.81663" lon="6.61822">
        <ele>410</ele>
        <time>2014-10-30T10:21:59.1Z</time>
      </trkpt>
      <trkpt lat="47.81664" lon="6.61821">
        <ele>411</ele>
        <time>2014-10-30T10:22:01.1Z</time>
      </trkpt>
      <trkpt lat="47.81665" lon="6.61821">
        <ele>411</ele>
        <time>2014-10-30T10:22:03.1Z</time>
      </trkpt>
      <trkpt lat="47.81665" lon="6.61821">
        <ele>411</ele>
        <time>2014-10-30T10:22:06.1Z</time>
      </trkpt>
      <trkpt lat="47.81665" lon="6.61821">
        <ele>411</ele>
        <time>2014-10-30T10:22:09.1Z</time>
      </trkpt>
      <trkpt lat="47.81666" lon="6.6182">
        <ele>411</ele>
        <time>2014-10-30T10:22:12.1Z</time>
      </trkpt>
      <trkpt lat="47.81666" lon="6.6182">
        <ele>411</ele>
        <time>2014-10-30T10:22:15.1Z</time>
      </trkpt>
      <trkpt lat="47.81666" lon="6.61819">
        <ele>411</ele>
        <time>2014-10-30T10:22:18.1Z</time>
      </trkpt>
      <trkpt lat="47.81666" lon="6.61819">
        <ele>411</ele>
        <time>2014-10-30T10:22:21.1Z</time>
      </trkpt>
      <trkpt lat="47.81666" lon="6.61818">
        <ele>411</ele>
        <time>2014-10-30T10:22:24.1Z</time>
      </trkpt>
      <trkpt lat="47.81666" lon="6.61817">
        <ele>411</ele>
        <time>2014-10-30T10:22:26.1Z</time>
      </trkpt>
      <trkpt lat="47.81666" lon="6.61818">
        <ele>411</ele>
        <time>2014-10-30T10:22:29.1Z</time>
      </trkpt>
      <trkpt lat="47.81664" lon="6.61818">
        <ele>411</ele>
        <time>2014-10-30T10:22:32.1Z</time>
      </trkpt>
      <trkpt lat="47.81661" lon="6.61818">
        <ele>411</ele>
        <time>2014-10-30T10:22:34.1Z</time>
      </trkpt>
      <trkpt lat="47.81658" lon="6.61823">
        <ele>410</ele>
        <time>2014-10-30T10:22:37.1Z</time>
      </trkpt>
      <trkpt lat="47.81653" lon="6.61833">
        <ele>410</ele>
        <time>2014-10-30T10:22:39.1Z</time>
      </trkpt>
      <trkpt lat="47.8165" lon="6.61839">
        <ele>411</ele>
        <time>2014-10-30T10:22:42.1Z</time>
      </trkpt>
      <trkpt lat="47.81646" lon="6.61847">
        <ele>411</ele>
        <time>2014-10-30T10:22:45.1Z</time>
      </trkpt>
      <trkpt lat="47.81643" lon="6.61856">
        <ele>411</ele>
        <time>2014-10-30T10:22:48.1Z</time>
      </trkpt>
      <trkpt lat="47.81638" lon="6.61864">
        <ele>411</ele>
        <time>2014-10-30T10:22:50.1Z</time>
      </trkpt>
      <trkpt lat="47.81636" lon="6.6187">
        <ele>411</ele>
        <time>2014-10-30T10:22:53.1Z</time>
      </trkpt>
      <trkpt lat="47.81633" lon="6.6188">
        <ele>411</ele>
        <time>2014-10-30T10:22:56.1Z</time>
      </trkpt>
      <trkpt lat="47.8163" lon="6.61886">
        <ele>411</ele>
        <time>2014-10-30T10:22:58.1Z</time>
      </trkpt>
      <trkpt lat="47.81627" lon="6.61892">
        <ele>411</ele>
        <time>2014-10-30T10:23:00.1Z</time>
      </trkpt>
      <trkpt lat="47.81622" lon="6.61901">
        <ele>411</ele>
        <time>2014-10-30T10:23:02.1Z</time>
      </trkpt>
      <trkpt lat="47.81618" lon="6.61909">
        <ele>411</ele>
        <time>2014-10-30T10:23:06.1Z</time>
      </trkpt>
      <trkpt lat="47.81614" lon="6.61913">
        <ele>411</ele>
        <time>2014-10-30T10:23:09.1Z</time>
      </trkpt>
      <trkpt lat="47.81614" lon="6.61917">
        <ele>411</ele>
        <time>2014-10-30T10:23:11.1Z</time>
      </trkpt>
      <trkpt lat="47.81616" lon="6.61915">
        <ele>411</ele>
        <time>2014-10-30T10:23:13.1Z</time>
      </trkpt>
      <trkpt lat="47.8162" lon="6.61911">
        <ele>410</ele>
        <time>2014-10-30T10:23:16.1Z</time>
      </trkpt>
      <trkpt lat="47.81625" lon="6.61903">
        <ele>411</ele>
        <time>2014-10-30T10:23:19.1Z</time>
      </trkpt>
      <trkpt lat="47.81631" lon="6.61895">
        <ele>411</ele>
        <time>2014-10-30T10:23:22.1Z</time>
      </trkpt>
      <trkpt lat="47.81637" lon="6.61883">
        <ele>411</ele>
        <time>2014-10-30T10:23:25.1Z</time>
      </trkpt>
      <trkpt lat="47.81641" lon="6.61873">
        <ele>411</ele>
        <time>2014-10-30T10:23:27.1Z</time>
      </trkpt>
      <trkpt lat="47.81646" lon="6.61863">
        <ele>411</ele>
        <time>2014-10-30T10:23:29.1Z</time>
      </trkpt>
      <trkpt lat="47.81652" lon="6.61849">
        <ele>411</ele>
        <time>2014-10-30T10:23:32.1Z</time>
      </trkpt>
      <trkpt lat="47.81659" lon="6.61835">
        <ele>411</ele>
        <time>2014-10-30T10:23:34.1Z</time>
      </trkpt>
      <trkpt lat="47.81665" lon="6.61829">
        <ele>411</ele>
        <time>2014-10-30T10:23:37.1Z</time>
      </trkpt>
      <trkpt lat="47.81673" lon="6.61836">
        <ele>411</ele>
        <time>2014-10-30T10:23:39.1Z</time>
      </trkpt>
      <trkpt lat="47.81677" lon="6.61841">
        <ele>412</ele>
        <time>2014-10-30T10:23:42.1Z</time>
      </trkpt>
      <trkpt lat="47.81682" lon="6.61849">
        <ele>412</ele>
        <time>2014-10-30T10:23:45.1Z</time>
      </trkpt>
      <trkpt lat="47.8169" lon="6.61856">
        <ele>412</ele>
        <time>2014-10-30T10:23:48.1Z</time>
      </trkpt>
      <trkpt lat="47.81694" lon="6.61863">
        <ele>413</ele>
        <time>2014-10-30T10:23:50.1Z</time>
      </trkpt>
      <trkpt lat="47.81699" lon="6.61871">
        <ele>414</ele>
        <time>2014-10-30T10:23:53.1Z</time>
      </trkpt>
      <trkpt lat="47.81704" lon="6.6188">
        <ele>415</ele>
        <time>2014-10-30T10:23:56.1Z</time>
      </trkpt>
      <trkpt lat="47.8171" lon="6.6189">
        <ele>415</ele>
        <time>2014-10-30T10:23:59.1Z</time>
      </trkpt>
      <trkpt lat="47.81716" lon="6.619">
        <ele>415</ele>
        <time>2014-10-30T10:24:01.1Z</time>
      </trkpt>
      <trkpt lat="47.81719" lon="6.61907">
        <ele>416</ele>
        <time>2014-10-30T10:24:03.1Z</time>
      </trkpt>
      <trkpt lat="47.81723" lon="6.61918">
        <ele>417</ele>
        <time>2014-10-30T10:24:07.1Z</time>
      </trkpt>
      <trkpt lat="47.81726" lon="6.61926">
        <ele>417</ele>
        <time>2014-10-30T10:24:09.1Z</time>
      </trkpt>
      <trkpt lat="47.81729" lon="6.61934">
        <ele>417</ele>
        <time>2014-10-30T10:24:11.1Z</time>
      </trkpt>
      <trkpt lat="47.81735" lon="6.61943">
        <ele>417</ele>
        <time>2014-10-30T10:24:13.1Z</time>
      </trkpt>
      <trkpt lat="47.81739" lon="6.61951">
        <ele>418</ele>
        <time>2014-10-30T10:24:15.1Z</time>
      </trkpt>
      <trkpt lat="47.81745" lon="6.61965">
        <ele>418</ele>
        <time>2014-10-30T10:24:18.1Z</time>
      </trkpt>
      <trkpt lat="47.81748" lon="6.61974">
        <ele>418</ele>
        <time>2014-10-30T10:24:21.1Z</time>
      </trkpt>
      <trkpt lat="47.8175" lon="6.61983">
        <ele>419</ele>
        <time>2014-10-30T10:24:23.1Z</time>
      </trkpt>
      <trkpt lat="47.81752" lon="6.61996">
        <ele>420</ele>
        <time>2014-10-30T10:24:26.1Z</time>
      </trkpt>
      <trkpt lat="47.81753" lon="6.62005">
        <ele>421</ele>
        <time>2014-10-30T10:24:28.1Z</time>
      </trkpt>
      <trkpt lat="47.81755" lon="6.62018">
        <ele>421</ele>
        <time>2014-10-30T10:24:30.1Z</time>
      </trkpt>
      <trkpt lat="47.81759" lon="6.62031">
        <ele>422</ele>
        <time>2014-10-30T10:24:33.1Z</time>
      </trkpt>
      <trkpt lat="47.81762" lon="6.6204">
        <ele>422</ele>
        <time>2014-10-30T10:24:35.1Z</time>
      </trkpt>
      <trkpt lat="47.81766" lon="6.62052">
        <ele>422</ele>
        <time>2014-10-30T10:24:38.1Z</time>
      </trkpt>
      <trkpt lat="47.81771" lon="6.62064">
        <ele>422</ele>
        <time>2014-10-30T10:24:42.1Z</time>
      </trkpt>
      <trkpt lat="47.81778" lon="6.62076">
        <ele>422</ele>
        <time>2014-10-30T10:24:44.1Z</time>
      </trkpt>
      <trkpt lat="47.81784" lon="6.6209">
        <ele>422</ele>
        <time>2014-10-30T10:24:47.1Z</time>
      </trkpt>
      <trkpt lat="47.81792" lon="6.62105">
        <ele>423</ele>
        <time>2014-10-30T10:24:51.1Z</time>
      </trkpt>
      <trkpt lat="47.81797" lon="6.62122">
        <ele>423</ele>
        <time>2014-10-30T10:24:53.1Z</time>
      </trkpt>
      <trkpt lat="47.81802" lon="6.62138">
        <ele>423</ele>
        <time>2014-10-30T10:24:56.1Z</time>
      </trkpt>
      <trkpt lat="47.81806" lon="6.62154">
        <ele>423</ele>
        <time>2014-10-30T10:24:59.1Z</time>
      </trkpt>
      <trkpt lat="47.81812" lon="6.6217">
        <ele>423</ele>
        <time>2014-10-30T10:25:02.1Z</time>
      </trkpt>
      <trkpt lat="47.81818" lon="6.62178">
        <ele>423</ele>
        <time>2014-10-30T10:25:05.1Z</time>
      </trkpt>
      <trkpt lat="47.81826" lon="6.62185">
        <ele>423</ele>
        <time>2014-10-30T10:25:07.1Z</time>
      </trkpt>
      <trkpt lat="47.81833" lon="6.62187">
        <ele>424</ele>
        <time>2014-10-30T10:25:09.1Z</time>
      </trkpt>
      <trkpt lat="47.81839" lon="6.62187">
        <ele>424</ele>
        <time>2014-10-30T10:25:12.1Z</time>
      </trkpt>
      <trkpt lat="47.81849" lon="6.62185">
        <ele>425</ele>
        <time>2014-10-30T10:25:14.1Z</time>
      </trkpt>
      <trkpt lat="47.81858" lon="6.62184">
        <ele>425</ele>
        <time>2014-10-30T10:25:18.1Z</time>
      </trkpt>
      <trkpt lat="47.81868" lon="6.6218">
        <ele>425</ele>
        <time>2014-10-30T10:25:20.1Z</time>
      </trkpt>
      <trkpt lat="47.81874" lon="6.62177">
        <ele>426</ele>
        <time>2014-10-30T10:25:23.1Z</time>
      </trkpt>
      <trkpt lat="47.8188" lon="6.62172">
        <ele>426</ele>
        <time>2014-10-30T10:25:25.1Z</time>
      </trkpt>
      <trkpt lat="47.81889" lon="6.6216">
        <ele>426</ele>
        <time>2014-10-30T10:25:27.1Z</time>
      </trkpt>
      <trkpt lat="47.81895" lon="6.6215">
        <ele>426</ele>
        <time>2014-10-30T10:25:30.1Z</time>
      </trkpt>
      <trkpt lat="47.81901" lon="6.6214">
        <ele>425</ele>
        <time>2014-10-30T10:25:32.1Z</time>
      </trkpt>
      <trkpt lat="47.8191" lon="6.62126">
        <ele>425</ele>
        <time>2014-10-30T10:25:34.1Z</time>
      </trkpt>
      <trkpt lat="47.81919" lon="6.62114">
        <ele>425</ele>
        <time>2014-10-30T10:25:38.1Z</time>
      </trkpt>
      <trkpt lat="47.81926" lon="6.62101">
        <ele>425</ele>
        <time>2014-10-30T10:25:41.1Z</time>
      </trkpt>
      <trkpt lat="47.81932" lon="6.62086">
        <ele>425</ele>
        <time>2014-10-30T10:25:43.1Z</time>
      </trkpt>
      <trkpt lat="47.81936" lon="6.62077">
        <ele>426</ele>
        <time>2014-10-30T10:25:45.1Z</time>
      </trkpt>
      <trkpt lat="47.81944" lon="6.62066">
        <ele>425</ele>
        <time>2014-10-30T10:25:48.1Z</time>
      </trkpt>
      <trkpt lat="47.81952" lon="6.62057">
        <ele>425</ele>
        <time>2014-10-30T10:25:50.1Z</time>
      </trkpt>
      <trkpt lat="47.81968" lon="6.62041">
        <ele>423</ele>
        <time>2014-10-30T10:25:53.1Z</time>
      </trkpt>
      <trkpt lat="47.8198" lon="6.62032">
        <ele>422</ele>
        <time>2014-10-30T10:25:56.1Z</time>
      </trkpt>
      <trkpt lat="47.81997" lon="6.62021">
        <ele>421</ele>
        <time>2014-10-30T10:25:58.1Z</time>
      </trkpt>
      <trkpt lat="47.82008" lon="6.62019">
        <ele>421</ele>
        <time>2014-10-30T10:26:01.1Z</time>
      </trkpt>
      <trkpt lat="47.82024" lon="6.62018">
        <ele>420</ele>
        <time>2014-10-30T10:26:03.1Z</time>
      </trkpt>
      <trkpt lat="47.82035" lon="6.62017">
        <ele>421</ele>
        <time>2014-10-30T10:26:06.1Z</time>
      </trkpt>
      <trkpt lat="47.82042" lon="6.62016">
        <ele>422</ele>
        <time>2014-10-30T10:26:09.1Z</time>
      </trkpt>
      <trkpt lat="47.82052" lon="6.62019">
        <ele>422</ele>
        <time>2014-10-30T10:26:11.1Z</time>
      </trkpt>
      <trkpt lat="47.82055" lon="6.6202">
        <ele>423</ele>
        <time>2014-10-30T10:26:13.1Z</time>
      </trkpt>
      <trkpt lat="47.82063" lon="6.62022">
        <ele>423</ele>
        <time>2014-10-30T10:26:16.1Z</time>
      </trkpt>
      <trkpt lat="47.82066" lon="6.62023">
        <ele>423</ele>
        <time>2014-10-30T10:26:18.1Z</time>
      </trkpt>
      <trkpt lat="47.82066" lon="6.62024">
        <ele>422</ele>
        <time>2014-10-30T10:26:20.1Z</time>
      </trkpt>
      <trkpt lat="47.82067" lon="6.62025">
        <ele>422</ele>
        <time>2014-10-30T10:26:23.1Z</time>
      </trkpt>
      <trkpt lat="47.82068" lon="6.62024">
        <ele>423</ele>
        <time>2014-10-30T10:26:25.1Z</time>
      </trkpt>
      <trkpt lat="47.82069" lon="6.62024">
        <ele>423</ele>
        <time>2014-10-30T10:26:27.1Z</time>
      </trkpt>
      <trkpt lat="47.82072" lon="6.62024">
        <ele>423</ele>
        <time>2014-10-30T10:26:29.1Z</time>
      </trkpt>
      <trkpt lat="47.82076" lon="6.62024">
        <ele>422</ele>
        <time>2014-10-30T10:26:33.1Z</time>
      </trkpt>
      <trkpt lat="47.82082" lon="6.62023">
        <ele>422</ele>
        <time>2014-10-30T10:26:36.1Z</time>
      </trkpt>
      <trkpt lat="47.82093" lon="6.62018">
        <ele>422</ele>
        <time>2014-10-30T10:26:38.1Z</time>
      </trkpt>
      <trkpt lat="47.82106" lon="6.62009">
        <ele>421</ele>
        <time>2014-10-30T10:26:41.1Z</time>
      </trkpt>
      <trkpt lat="47.82117" lon="6.61999">
        <ele>421</ele>
        <time>2014-10-30T10:26:44.1Z</time>
      </trkpt>
      <trkpt lat="47.82124" lon="6.61991">
        <ele>420</ele>
        <time>2014-10-30T10:26:47.1Z</time>
      </trkpt>
      <trkpt lat="47.82129" lon="6.61979">
        <ele>419</ele>
        <time>2014-10-30T10:26:49.1Z</time>
      </trkpt>
      <trkpt lat="47.8213" lon="6.61968">
        <ele>419</ele>
        <time>2014-10-30T10:26:52.1Z</time>
      </trkpt>
      <trkpt lat="47.82129" lon="6.61962">
        <ele>419</ele>
        <time>2014-10-30T10:26:54.1Z</time>
      </trkpt>
      <trkpt lat="47.82129" lon="6.61956">
        <ele>419</ele>
        <time>2014-10-30T10:26:57.1Z</time>
      </trkpt>
      <trkpt lat="47.8213" lon="6.6195">
        <ele>418</ele>
        <time>2014-10-30T10:27:00.1Z</time>
      </trkpt>
      <trkpt lat="47.82132" lon="6.61945">
        <ele>418</ele>
        <time>2014-10-30T10:27:03.1Z</time>
      </trkpt>
      <trkpt lat="47.82134" lon="6.61942">
        <ele>417</ele>
        <time>2014-10-30T10:27:05.1Z</time>
      </trkpt>
      <trkpt lat="47.82135" lon="6.61941">
        <ele>417</ele>
        <time>2014-10-30T10:27:07.1Z</time>
      </trkpt>
      <trkpt lat="47.82135" lon="6.6194">
        <ele>417</ele>
        <time>2014-10-30T10:27:10.1Z</time>
      </trkpt>
      <trkpt lat="47.82137" lon="6.61939">
        <ele>417</ele>
        <time>2014-10-30T10:27:12.1Z</time>
      </trkpt>
      <trkpt lat="47.8214" lon="6.61937">
        <ele>417</ele>
        <time>2014-10-30T10:27:14.1Z</time>
      </trkpt>
      <trkpt lat="47.82144" lon="6.61939">
        <ele>417</ele>
        <time>2014-10-30T10:27:17.1Z</time>
      </trkpt>
      <trkpt lat="47.82151" lon="6.61945">
        <ele>416</ele>
        <time>2014-10-30T10:27:20.1Z</time>
      </trkpt>
      <trkpt lat="47.82157" lon="6.61954">
        <ele>415</ele>
        <time>2014-10-30T10:27:22.1Z</time>
      </trkpt>
      <trkpt lat="47.82167" lon="6.61966">
        <ele>414</ele>
        <time>2014-10-30T10:27:25.1Z</time>
      </trkpt>
      <trkpt lat="47.82172" lon="6.61975">
        <ele>414</ele>
        <time>2014-10-30T10:27:27.1Z</time>
      </trkpt>
      <trkpt lat="47.82178" lon="6.61991">
        <ele>412</ele>
        <time>2014-10-30T10:27:30.1Z</time>
      </trkpt>
      <trkpt lat="47.82185" lon="6.6201">
        <ele>411</ele>
        <time>2014-10-30T10:27:33.1Z</time>
      </trkpt>
      <trkpt lat="47.82191" lon="6.62029">
        <ele>411</ele>
        <time>2014-10-30T10:27:36.1Z</time>
      </trkpt>
      <trkpt lat="47.82196" lon="6.62038">
        <ele>411</ele>
        <time>2014-10-30T10:27:38.1Z</time>
      </trkpt>
      <trkpt lat="47.82201" lon="6.62049">
        <ele>411</ele>
        <time>2014-10-30T10:27:40.1Z</time>
      </trkpt>
      <trkpt lat="47.82206" lon="6.62058">
        <ele>411</ele>
        <time>2014-10-30T10:27:43.1Z</time>
      </trkpt>
      <trkpt lat="47.82212" lon="6.62071">
        <ele>410</ele>
        <time>2014-10-30T10:27:45.1Z</time>
      </trkpt>
      <trkpt lat="47.82217" lon="6.62082">
        <ele>410</ele>
        <time>2014-10-30T10:27:48.1Z</time>
      </trkpt>
      <trkpt lat="47.82221" lon="6.62089">
        <ele>409</ele>
        <time>2014-10-30T10:27:50.1Z</time>
      </trkpt>
      <trkpt lat="47.82229" lon="6.62102">
        <ele>409</ele>
        <time>2014-10-30T10:27:53.1Z</time>
      </trkpt>
      <trkpt lat="47.82233" lon="6.6211">
        <ele>408</ele>
        <time>2014-10-30T10:27:55.1Z</time>
      </trkpt>
      <trkpt lat="47.82237" lon="6.62117">
        <ele>408</ele>
        <time>2014-10-30T10:27:57.1Z</time>
      </trkpt>
      <trkpt lat="47.82243" lon="6.62126">
        <ele>408</ele>
        <time>2014-10-30T10:28:00.1Z</time>
      </trkpt>
      <trkpt lat="47.82246" lon="6.62132">
        <ele>408</ele>
        <time>2014-10-30T10:28:03.1Z</time>
      </trkpt>
      <trkpt lat="47.82253" lon="6.62138">
        <ele>407</ele>
        <time>2014-10-30T10:28:05.1Z</time>
      </trkpt>
      <trkpt lat="47.82259" lon="6.62145">
        <ele>408</ele>
        <time>2014-10-30T10:28:08.1Z</time>
      </trkpt>
      <trkpt lat="47.82265" lon="6.62149">
        <ele>407</ele>
        <time>2014-10-30T10:28:11.1Z</time>
      </trkpt>
      <trkpt lat="47.82269" lon="6.62154">
        <ele>408</ele>
        <time>2014-10-30T10:28:13.1Z</time>
      </trkpt>
      <trkpt lat="47.82272" lon="6.6216">
        <ele>407</ele>
        <time>2014-10-30T10:28:16.1Z</time>
      </trkpt>
      <trkpt lat="47.82278" lon="6.62167">
        <ele>407</ele>
        <time>2014-10-30T10:28:18.1Z</time>
      </trkpt>
      <trkpt lat="47.8228" lon="6.62172">
        <ele>408</ele>
        <time>2014-10-30T10:28:20.1Z</time>
      </trkpt>
      <trkpt lat="47.82283" lon="6.62177">
        <ele>408</ele>
        <time>2014-10-30T10:28:22.1Z</time>
      </trkpt>
      <trkpt lat="47.82288" lon="6.62183">
        <ele>409</ele>
        <time>2014-10-30T10:28:25.1Z</time>
      </trkpt>
      <trkpt lat="47.82293" lon="6.62184">
        <ele>410</ele>
        <time>2014-10-30T10:28:27.1Z</time>
      </trkpt>
      <trkpt lat="47.82297" lon="6.62186">
        <ele>410</ele>
        <time>2014-10-30T10:28:30.1Z</time>
      </trkpt>
      <trkpt lat="47.82304" lon="6.62187">
        <ele>411</ele>
        <time>2014-10-30T10:28:32.1Z</time>
      </trkpt>
      <trkpt lat="47.82308" lon="6.6219">
        <ele>411</ele>
        <time>2014-10-30T10:28:35.1Z</time>
      </trkpt>
      <trkpt lat="47.82314" lon="6.62197">
        <ele>412</ele>
        <time>2014-10-30T10:28:37.1Z</time>
      </trkpt>
      <trkpt lat="47.82318" lon="6.62202">
        <ele>412</ele>
        <time>2014-10-30T10:28:39.1Z</time>
      </trkpt>
      <trkpt lat="47.82324" lon="6.62211">
        <ele>412</ele>
        <time>2014-10-30T10:28:42.1Z</time>
      </trkpt>
      <trkpt lat="47.82329" lon="6.6222">
        <ele>412</ele>
        <time>2014-10-30T10:28:45.1Z</time>
      </trkpt>
      <trkpt lat="47.82332" lon="6.62226">
        <ele>412</ele>
        <time>2014-10-30T10:28:47.1Z</time>
      </trkpt>
      <trkpt lat="47.82335" lon="6.62231">
        <ele>412</ele>
        <time>2014-10-30T10:28:49.1Z</time>
      </trkpt>
      <trkpt lat="47.82339" lon="6.62235">
        <ele>413</ele>
        <time>2014-10-30T10:28:52.1Z</time>
      </trkpt>
      <trkpt lat="47.82343" lon="6.62237">
        <ele>413</ele>
        <time>2014-10-30T10:28:54.1Z</time>
      </trkpt>
      <trkpt lat="47.82346" lon="6.62239">
        <ele>413</ele>
        <time>2014-10-30T10:28:56.1Z</time>
      </trkpt>
      <trkpt lat="47.82352" lon="6.62241">
        <ele>414</ele>
        <time>2014-10-30T10:28:59.1Z</time>
      </trkpt>
      <trkpt lat="47.82357" lon="6.62242">
        <ele>414</ele>
        <time>2014-10-30T10:29:01.1Z</time>
      </trkpt>
      <trkpt lat="47.82361" lon="6.62243">
        <ele>415</ele>
        <time>2014-10-30T10:29:04.1Z</time>
      </trkpt>
      <trkpt lat="47.82365" lon="6.62242">
        <ele>416</ele>
        <time>2014-10-30T10:29:07.1Z</time>
      </trkpt>
      <trkpt lat="47.82369" lon="6.62241">
        <ele>417</ele>
        <time>2014-10-30T10:29:11.1Z</time>
      </trkpt>
      <trkpt lat="47.82372" lon="6.62237">
        <ele>418</ele>
        <time>2014-10-30T10:29:13.1Z</time>
      </trkpt>
      <trkpt lat="47.82375" lon="6.62234">
        <ele>419</ele>
        <time>2014-10-30T10:29:16.1Z</time>
      </trkpt>
      <trkpt lat="47.82377" lon="6.62231">
        <ele>419</ele>
        <time>2014-10-30T10:29:18.1Z</time>
      </trkpt>
      <trkpt lat="47.82378" lon="6.62227">
        <ele>420</ele>
        <time>2014-10-30T10:29:21.1Z</time>
      </trkpt>
      <trkpt lat="47.8238" lon="6.62224">
        <ele>420</ele>
        <time>2014-10-30T10:29:24.1Z</time>
      </trkpt>
      <trkpt lat="47.82382" lon="6.62222">
        <ele>420</ele>
        <time>2014-10-30T10:29:27.1Z</time>
      </trkpt>
      <trkpt lat="47.82384" lon="6.62217">
        <ele>421</ele>
        <time>2014-10-30T10:29:30.1Z</time>
      </trkpt>
      <trkpt lat="47.82387" lon="6.62213">
        <ele>421</ele>
        <time>2014-10-30T10:29:33.1Z</time>
      </trkpt>
      <trkpt lat="47.82391" lon="6.6221">
        <ele>421</ele>
        <time>2014-10-30T10:29:36.1Z</time>
      </trkpt>
      <trkpt lat="47.82394" lon="6.62206">
        <ele>421</ele>
        <time>2014-10-30T10:29:39.1Z</time>
      </trkpt>
      <trkpt lat="47.82396" lon="6.62203">
        <ele>421</ele>
        <time>2014-10-30T10:29:41.1Z</time>
      </trkpt>
      <trkpt lat="47.82399" lon="6.62202">
        <ele>421</ele>
        <time>2014-10-30T10:29:44.1Z</time>
      </trkpt>
      <trkpt lat="47.82402" lon="6.62201">
        <ele>421</ele>
        <time>2014-10-30T10:29:47.1Z</time>
      </trkpt>
      <trkpt lat="47.82405" lon="6.62199">
        <ele>421</ele>
        <time>2014-10-30T10:29:49.1Z</time>
      </trkpt>
      <trkpt lat="47.82408" lon="6.62196">
        <ele>422</ele>
        <time>2014-10-30T10:29:52.1Z</time>
      </trkpt>
      <trkpt lat="47.82412" lon="6.62193">
        <ele>422</ele>
        <time>2014-10-30T10:29:56.1Z</time>
      </trkpt>
      <trkpt lat="47.82416" lon="6.62192">
        <ele>423</ele>
        <time>2014-10-30T10:29:58.1Z</time>
      </trkpt>
      <trkpt lat="47.8242" lon="6.6219">
        <ele>424</ele>
        <time>2014-10-30T10:30:01.1Z</time>
      </trkpt>
      <trkpt lat="47.82421" lon="6.62189">
        <ele>425</ele>
        <time>2014-10-30T10:30:03.1Z</time>
      </trkpt>
      <trkpt lat="47.82423" lon="6.62187">
        <ele>426</ele>
        <time>2014-10-30T10:30:06.1Z</time>
      </trkpt>
      <trkpt lat="47.82426" lon="6.62185">
        <ele>427</ele>
        <time>2014-10-30T10:30:09.1Z</time>
      </trkpt>
      <trkpt lat="47.82429" lon="6.62184">
        <ele>427</ele>
        <time>2014-10-30T10:30:11.1Z</time>
      </trkpt>
      <trkpt lat="47.82432" lon="6.62183">
        <ele>428</ele>
        <time>2014-10-30T10:30:14.1Z</time>
      </trkpt>
      <trkpt lat="47.82434" lon="6.62182">
        <ele>428</ele>
        <time>2014-10-30T10:30:16.1Z</time>
      </trkpt>
      <trkpt lat="47.82437" lon="6.6218">
        <ele>428</ele>
        <time>2014-10-30T10:30:19.1Z</time>
      </trkpt>
      <trkpt lat="47.82439" lon="6.62178">
        <ele>428</ele>
        <time>2014-10-30T10:30:21.1Z</time>
      </trkpt>
      <trkpt lat="47.82441" lon="6.62176">
        <ele>428</ele>
        <time>2014-10-30T10:30:24.1Z</time>
      </trkpt>
      <trkpt lat="47.82442" lon="6.62175">
        <ele>428</ele>
        <time>2014-10-30T10:30:26.1Z</time>
      </trkpt>
      <trkpt lat="47.82444" lon="6.62172">
        <ele>428</ele>
        <time>2014-10-30T10:30:28.1Z</time>
      </trkpt>
      <trkpt lat="47.82447" lon="6.62169">
        <ele>428</ele>
        <time>2014-10-30T10:30:32.1Z</time>
      </trkpt>
      <trkpt lat="47.82451" lon="6.62165">
        <ele>428</ele>
        <time>2014-10-30T10:30:35.1Z</time>
      </trkpt>
      <trkpt lat="47.82457" lon="6.62165">
        <ele>428</ele>
        <time>2014-10-30T10:30:37.1Z</time>
      </trkpt>
      <trkpt lat="47.82469" lon="6.6217">
        <ele>426</ele>
        <time>2014-10-30T10:30:40.1Z</time>
      </trkpt>
      <trkpt lat="47.8248" lon="6.62177">
        <ele>425</ele>
        <time>2014-10-30T10:30:43.1Z</time>
      </trkpt>
      <trkpt lat="47.8249" lon="6.62182">
        <ele>424</ele>
        <time>2014-10-30T10:30:46.1Z</time>
      </trkpt>
      <trkpt lat="47.82497" lon="6.62184">
        <ele>423</ele>
        <time>2014-10-30T10:30:48.1Z</time>
      </trkpt>
      <trkpt lat="47.82505" lon="6.62187">
        <ele>423</ele>
        <time>2014-10-30T10:30:51.1Z</time>
      </trkpt>
      <trkpt lat="47.82513" lon="6.62191">
        <ele>423</ele>
        <time>2014-10-30T10:30:54.1Z</time>
      </trkpt>
      <trkpt lat="47.82519" lon="6.62194">
        <ele>422</ele>
        <time>2014-10-30T10:30:56.1Z</time>
      </trkpt>
      <trkpt lat="47.82526" lon="6.62199">
        <ele>423</ele>
        <time>2014-10-30T10:30:59.1Z</time>
      </trkpt>
      <trkpt lat="47.82533" lon="6.62206">
        <ele>423</ele>
        <time>2014-10-30T10:31:02.1Z</time>
      </trkpt>
      <trkpt lat="47.82536" lon="6.62215">
        <ele>423</ele>
        <time>2014-10-30T10:31:05.1Z</time>
      </trkpt>
      <trkpt lat="47.8254" lon="6.62219">
        <ele>423</ele>
        <time>2014-10-30T10:31:07.1Z</time>
      </trkpt>
      <trkpt lat="47.82544" lon="6.62226">
        <ele>423</ele>
        <time>2014-10-30T10:31:10.1Z</time>
      </trkpt>
      <trkpt lat="47.82549" lon="6.62234">
        <ele>424</ele>
        <time>2014-10-30T10:31:13.1Z</time>
      </trkpt>
      <trkpt lat="47.82552" lon="6.6224">
        <ele>424</ele>
        <time>2014-10-30T10:31:15.1Z</time>
      </trkpt>
      <trkpt lat="47.8256" lon="6.62248">
        <ele>424</ele>
        <time>2014-10-30T10:31:18.1Z</time>
      </trkpt>
      <trkpt lat="47.82563" lon="6.62257">
        <ele>424</ele>
        <time>2014-10-30T10:31:21.1Z</time>
      </trkpt>
      <trkpt lat="47.82568" lon="6.62264">
        <ele>424</ele>
        <time>2014-10-30T10:31:24.1Z</time>
      </trkpt>
      <trkpt lat="47.82571" lon="6.62268">
        <ele>425</ele>
        <time>2014-10-30T10:31:26.1Z</time>
      </trkpt>
      <trkpt lat="47.82575" lon="6.62275">
        <ele>425</ele>
        <time>2014-10-30T10:31:29.1Z</time>
      </trkpt>
      <trkpt lat="47.82579" lon="6.62284">
        <ele>425</ele>
        <time>2014-10-30T10:31:32.1Z</time>
      </trkpt>
      <trkpt lat="47.82582" lon="6.62289">
        <ele>425</ele>
        <time>2014-10-30T10:31:34.1Z</time>
      </trkpt>
      <trkpt lat="47.82585" lon="6.62292">
        <ele>425</ele>
        <time>2014-10-30T10:31:37.1Z</time>
      </trkpt>
      <trkpt lat="47.82588" lon="6.62295">
        <ele>425</ele>
        <time>2014-10-30T10:31:40.1Z</time>
      </trkpt>
      <trkpt lat="47.8259" lon="6.62298">
        <ele>425</ele>
        <time>2014-10-30T10:31:43.1Z</time>
      </trkpt>
      <trkpt lat="47.82592" lon="6.623">
        <ele>425</ele>
        <time>2014-10-30T10:31:46.1Z</time>
      </trkpt>
      <trkpt lat="47.82593" lon="6.62302">
        <ele>425</ele>
        <time>2014-10-30T10:31:48.1Z</time>
      </trkpt>
      <trkpt lat="47.82594" lon="6.62303">
        <ele>425</ele>
        <time>2014-10-30T10:31:50.1Z</time>
      </trkpt>
      <trkpt lat="47.82596" lon="6.62304">
        <ele>424</ele>
        <time>2014-10-30T10:31:53.1Z</time>
      </trkpt>
      <trkpt lat="47.82595" lon="6.62306">
        <ele>424</ele>
        <time>2014-10-30T10:31:55.1Z</time>
      </trkpt>
      <trkpt lat="47.82595" lon="6.62307">
        <ele>424</ele>
        <time>2014-10-30T10:31:57.1Z</time>
      </trkpt>
      <trkpt lat="47.82594" lon="6.62307">
        <ele>424</ele>
        <time>2014-10-30T10:32:00.1Z</time>
      </trkpt>
      <trkpt lat="47.82595" lon="6.62307">
        <ele>425</ele>
        <time>2014-10-30T10:32:02.1Z</time>
      </trkpt>
      <trkpt lat="47.82596" lon="6.62308">
        <ele>425</ele>
        <time>2014-10-30T10:32:05.1Z</time>
      </trkpt>
      <trkpt lat="47.82598" lon="6.6231">
        <ele>424</ele>
        <time>2014-10-30T10:32:08.1Z</time>
      </trkpt>
      <trkpt lat="47.82598" lon="6.62311">
        <ele>424</ele>
        <time>2014-10-30T10:32:11.1Z</time>
      </trkpt>
      <trkpt lat="47.826" lon="6.62312">
        <ele>424</ele>
        <time>2014-10-30T10:32:13.1Z</time>
      </trkpt>
      <trkpt lat="47.82601" lon="6.62313">
        <ele>424</ele>
        <time>2014-10-30T10:32:16.1Z</time>
      </trkpt>
      <trkpt lat="47.82601" lon="6.62313">
        <ele>425</ele>
        <time>2014-10-30T10:32:18.1Z</time>
      </trkpt>
      <trkpt lat="47.826" lon="6.62313">
        <ele>425</ele>
        <time>2014-10-30T10:32:21.1Z</time>
      </trkpt>
      <trkpt lat="47.826" lon="6.62313">
        <ele>425</ele>
        <time>2014-10-30T10:32:23.1Z</time>
      </trkpt>
      <trkpt lat="47.826" lon="6.62313">
        <ele>425</ele>
        <time>2014-10-30T10:32:26.1Z</time>
      </trkpt>
      <trkpt lat="47.82601" lon="6.62314">
        <ele>425</ele>
        <time>2014-10-30T10:32:29.1Z</time>
      </trkpt>
      <trkpt lat="47.82601" lon="6.62314">
        <ele>424</ele>
        <time>2014-10-30T10:32:31.1Z</time>
      </trkpt>
      <trkpt lat="47.82601" lon="6.62316">
        <ele>424</ele>
        <time>2014-10-30T10:32:34.1Z</time>
      </trkpt>
      <trkpt lat="47.82601" lon="6.62316">
        <ele>424</ele>
        <time>2014-10-30T10:32:36.1Z</time>
      </trkpt>
      <trkpt lat="47.826" lon="6.62317">
        <ele>425</ele>
        <time>2014-10-30T10:32:38.1Z</time>
      </trkpt>
      <trkpt lat="47.826" lon="6.62317">
        <ele>425</ele>
        <time>2014-10-30T10:32:40.1Z</time>
      </trkpt>
      <trkpt lat="47.82601" lon="6.62319">
        <ele>425</ele>
        <time>2014-10-30T10:32:43.1Z</time>
      </trkpt>
      <trkpt lat="47.82601" lon="6.6232">
        <ele>425</ele>
        <time>2014-10-30T10:32:45.1Z</time>
      </trkpt>
      <trkpt lat="47.82601" lon="6.6232">
        <ele>425</ele>
        <time>2014-10-30T10:32:49.1Z</time>
      </trkpt>
      <trkpt lat="47.82601" lon="6.62321">
        <ele>425</ele>
        <time>2014-10-30T10:32:51.1Z</time>
      </trkpt>
      <trkpt lat="47.82602" lon="6.62321">
        <ele>425</ele>
        <time>2014-10-30T10:32:53.1Z</time>
      </trkpt>
      <trkpt lat="47.82602" lon="6.62322">
        <ele>425</ele>
        <time>2014-10-30T10:32:56.1Z</time>
      </trkpt>
      <trkpt lat="47.82602" lon="6.62323">
        <ele>425</ele>
        <time>2014-10-30T10:32:58.1Z</time>
      </trkpt>
      <trkpt lat="47.82603" lon="6.62325">
        <ele>425</ele>
        <time>2014-10-30T10:33:01.1Z</time>
      </trkpt>
      <trkpt lat="47.82605" lon="6.62327">
        <ele>426</ele>
        <time>2014-10-30T10:33:04.1Z</time>
      </trkpt>
      <trkpt lat="47.82605" lon="6.62329">
        <ele>426</ele>
        <time>2014-10-30T10:33:06.1Z</time>
      </trkpt>
      <trkpt lat="47.82606" lon="6.62329">
        <ele>426</ele>
        <time>2014-10-30T10:33:08.1Z</time>
      </trkpt>
      <trkpt lat="47.82608" lon="6.6233">
        <ele>426</ele>
        <time>2014-10-30T10:33:11.1Z</time>
      </trkpt>
      <trkpt lat="47.82608" lon="6.6233">
        <ele>426</ele>
        <time>2014-10-30T10:33:13.1Z</time>
      </trkpt>
      <trkpt lat="47.82609" lon="6.62331">
        <ele>426</ele>
        <time>2014-10-30T10:33:16.1Z</time>
      </trkpt>
      <trkpt lat="47.8261" lon="6.62331">
        <ele>426</ele>
        <time>2014-10-30T10:33:18.1Z</time>
      </trkpt>
      <trkpt lat="47.8261" lon="6.62331">
        <ele>426</ele>
        <time>2014-10-30T10:33:20.1Z</time>
      </trkpt>
      <trkpt lat="47.8261" lon="6.62335">
        <ele>426</ele>
        <time>2014-10-30T10:33:23.1Z</time>
      </trkpt>
      <trkpt lat="47.82612" lon="6.62341">
        <ele>426</ele>
        <time>2014-10-30T10:33:26.1Z</time>
      </trkpt>
      <trkpt lat="47.82613" lon="6.62347">
        <ele>426</ele>
        <time>2014-10-30T10:33:29.1Z</time>
      </trkpt>
      <trkpt lat="47.82615" lon="6.62348">
        <ele>427</ele>
        <time>2014-10-30T10:33:32.1Z</time>
      </trkpt>
      <trkpt lat="47.82615" lon="6.62349">
        <ele>427</ele>
        <time>2014-10-30T10:33:34.1Z</time>
      </trkpt>
      <trkpt lat="47.82616" lon="6.62351">
        <ele>427</ele>
        <time>2014-10-30T10:33:37.1Z</time>
      </trkpt>
      <trkpt lat="47.82617" lon="6.62354">
        <ele>427</ele>
        <time>2014-10-30T10:33:39.1Z</time>
      </trkpt>
      <trkpt lat="47.82619" lon="6.62359">
        <ele>428</ele>
        <time>2014-10-30T10:33:42.1Z</time>
      </trkpt>
      <trkpt lat="47.82621" lon="6.62362">
        <ele>428</ele>
        <time>2014-10-30T10:33:44.1Z</time>
      </trkpt>
      <trkpt lat="47.82622" lon="6.62364">
        <ele>428</ele>
        <time>2014-10-30T10:33:46.1Z</time>
      </trkpt>
      <trkpt lat="47.82623" lon="6.62368">
        <ele>429</ele>
        <time>2014-10-30T10:33:49.1Z</time>
      </trkpt>
      <trkpt lat="47.82624" lon="6.62371">
        <ele>429</ele>
        <time>2014-10-30T10:33:51.1Z</time>
      </trkpt>
      <trkpt lat="47.82624" lon="6.62372">
        <ele>430</ele>
        <time>2014-10-30T10:33:54.1Z</time>
      </trkpt>
      <trkpt lat="47.82626" lon="6.62374">
        <ele>430</ele>
        <time>2014-10-30T10:33:57.1Z</time>
      </trkpt>
      <trkpt lat="47.82626" lon="6.62376">
        <ele>430</ele>
        <time>2014-10-30T10:33:59.1Z</time>
      </trkpt>
      <trkpt lat="47.82627" lon="6.62379">
        <ele>431</ele>
        <time>2014-10-30T10:34:02.1Z</time>
      </trkpt>
      <trkpt lat="47.82627" lon="6.6238">
        <ele>432</ele>
        <time>2014-10-30T10:34:05.1Z</time>
      </trkpt>
      <trkpt lat="47.82627" lon="6.62381">
        <ele>432</ele>
        <time>2014-10-30T10:34:08.1Z</time>
      </trkpt>
      <trkpt lat="47.82628" lon="6.62381">
        <ele>433</ele>
        <time>2014-10-30T10:34:11.1Z</time>
      </trkpt>
      <trkpt lat="47.82628" lon="6.6238">
        <ele>433</ele>
        <time>2014-10-30T10:34:14.1Z</time>
      </trkpt>
      <trkpt lat="47.82629" lon="6.6238">
        <ele>434</ele>
        <time>2014-10-30T10:34:17.1Z</time>
      </trkpt>
      <trkpt lat="47.82629" lon="6.62381">
        <ele>434</ele>
        <time>2014-10-30T10:34:19.1Z</time>
      </trkpt>
      <trkpt lat="47.82631" lon="6.62383">
        <ele>434</ele>
        <time>2014-10-30T10:34:22.1Z</time>
      </trkpt>
      <trkpt lat="47.82632" lon="6.62385">
        <ele>433</ele>
        <time>2014-10-30T10:34:24.1Z</time>
      </trkpt>
      <trkpt lat="47.82632" lon="6.62386">
        <ele>434</ele>
        <time>2014-10-30T10:34:26.1Z</time>
      </trkpt>
      <trkpt lat="47.82633" lon="6.62388">
        <ele>434</ele>
        <time>2014-10-30T10:34:28.1Z</time>
      </trkpt>
      <trkpt lat="47.82633" lon="6.62391">
        <ele>434</ele>
        <time>2014-10-30T10:34:31.1Z</time>
      </trkpt>
      <trkpt lat="47.82634" lon="6.62394">
        <ele>435</ele>
        <time>2014-10-30T10:34:33.1Z</time>
      </trkpt>
      <trkpt lat="47.82635" lon="6.62395">
        <ele>435</ele>
        <time>2014-10-30T10:34:35.1Z</time>
      </trkpt>
      <trkpt lat="47.82636" lon="6.62396">
        <ele>435</ele>
        <time>2014-10-30T10:34:38.1Z</time>
      </trkpt>
      <trkpt lat="47.82638" lon="6.62397">
        <ele>436</ele>
        <time>2014-10-30T10:34:41.1Z</time>
      </trkpt>
      <trkpt lat="47.82638" lon="6.62397">
        <ele>437</ele>
        <time>2014-10-30T10:34:44.1Z</time>
      </trkpt>
      <trkpt lat="47.82639" lon="6.62397">
        <ele>437</ele>
        <time>2014-10-30T10:34:46.1Z</time>
      </trkpt>
      <trkpt lat="47.8264" lon="6.62396">
        <ele>438</ele>
        <time>2014-10-30T10:34:49.1Z</time>
      </trkpt>
      <trkpt lat="47.82641" lon="6.62395">
        <ele>438</ele>
        <time>2014-10-30T10:34:51.1Z</time>
      </trkpt>
      <trkpt lat="47.82641" lon="6.62394">
        <ele>438</ele>
        <time>2014-10-30T10:34:54.1Z</time>
      </trkpt>
      <trkpt lat="47.82642" lon="6.62394">
        <ele>438</ele>
        <time>2014-10-30T10:34:56.1Z</time>
      </trkpt>
      <trkpt lat="47.82642" lon="6.62394">
        <ele>438</ele>
        <time>2014-10-30T10:34:58.1Z</time>
      </trkpt>
      <trkpt lat="47.82642" lon="6.62395">
        <ele>438</ele>
        <time>2014-10-30T10:35:01.1Z</time>
      </trkpt>
      <trkpt lat="47.82642" lon="6.62395">
        <ele>438</ele>
        <time>2014-10-30T10:35:03.1Z</time>
      </trkpt>
      <trkpt lat="47.82642" lon="6.62396">
        <ele>439</ele>
        <time>2014-10-30T10:35:05.1Z</time>
      </trkpt>
      <trkpt lat="47.82642" lon="6.62396">
        <ele>439</ele>
        <time>2014-10-30T10:35:08.1Z</time>
      </trkpt>
      <trkpt lat="47.82641" lon="6.62396">
        <ele>439</ele>
        <time>2014-10-30T10:35:10.1Z</time>
      </trkpt>
      <trkpt lat="47.82642" lon="6.62397">
        <ele>439</ele>
        <time>2014-10-30T10:35:13.1Z</time>
      </trkpt>
      <trkpt lat="47.82642" lon="6.62397">
        <ele>439</ele>
        <time>2014-10-30T10:35:15.1Z</time>
      </trkpt>
      <trkpt lat="47.82642" lon="6.62396">
        <ele>440</ele>
        <time>2014-10-30T10:35:18.1Z</time>
      </trkpt>
      <trkpt lat="47.82643" lon="6.62395">
        <ele>440</ele>
        <time>2014-10-30T10:35:20.1Z</time>
      </trkpt>
      <trkpt lat="47.82644" lon="6.62395">
        <ele>440</ele>
        <time>2014-10-30T10:35:22.1Z</time>
      </trkpt>
      <trkpt lat="47.82645" lon="6.62395">
        <ele>441</ele>
        <time>2014-10-30T10:35:25.1Z</time>
      </trkpt>
      <trkpt lat="47.82645" lon="6.62395">
        <ele>441</ele>
        <time>2014-10-30T10:35:28.1Z</time>
      </trkpt>
      <trkpt lat="47.82645" lon="6.62395">
        <ele>442</ele>
        <time>2014-10-30T10:35:30.1Z</time>
      </trkpt>
      <trkpt lat="47.82647" lon="6.62396">
        <ele>442</ele>
        <time>2014-10-30T10:35:33.1Z</time>
      </trkpt>
      <trkpt lat="47.82647" lon="6.62396">
        <ele>443</ele>
        <time>2014-10-30T10:35:35.1Z</time>
      </trkpt>
      <trkpt lat="47.82648" lon="6.62396">
        <ele>443</ele>
        <time>2014-10-30T10:35:37.1Z</time>
      </trkpt>
      <trkpt lat="47.8265" lon="6.62395">
        <ele>443</ele>
        <time>2014-10-30T10:35:39.1Z</time>
      </trkpt>
      <trkpt lat="47.82652" lon="6.62396">
        <ele>444</ele>
        <time>2014-10-30T10:35:42.1Z</time>
      </trkpt>
      <trkpt lat="47.82653" lon="6.62397">
        <ele>444</ele>
        <time>2014-10-30T10:35:45.1Z</time>
      </trkpt>
      <trkpt lat="47.82654" lon="6.62398">
        <ele>445</ele>
        <time>2014-10-30T10:35:48.1Z</time>
      </trkpt>
      <trkpt lat="47.82655" lon="6.62399">
        <ele>445</ele>
        <time>2014-10-30T10:35:50.1Z</time>
      </trkpt>
      <trkpt lat="47.82657" lon="6.62399">
        <ele>446</ele>
        <time>2014-10-30T10:35:53.1Z</time>
      </trkpt>
      <trkpt lat="47.82659" lon="6.62399">
        <ele>446</ele>
        <time>2014-10-30T10:35:55.1Z</time>
      </trkpt>
      <trkpt lat="47.82661" lon="6.62399">
        <ele>447</ele>
        <time>2014-10-30T10:35:58.1Z</time>
      </trkpt>
      <trkpt lat="47.82664" lon="6.62399">
        <ele>447</ele>
        <time>2014-10-30T10:36:01.1Z</time>
      </trkpt>
      <trkpt lat="47.82667" lon="6.62399">
        <ele>448</ele>
        <time>2014-10-30T10:36:03.1Z</time>
      </trkpt>
      <trkpt lat="47.8267" lon="6.62399">
        <ele>448</ele>
        <time>2014-10-30T10:36:06.1Z</time>
      </trkpt>
      <trkpt lat="47.82672" lon="6.624">
        <ele>448</ele>
        <time>2014-10-30T10:36:09.1Z</time>
      </trkpt>
      <trkpt lat="47.82674" lon="6.62401">
        <ele>448</ele>
        <time>2014-10-30T10:36:11.1Z</time>
      </trkpt>
      <trkpt lat="47.82678" lon="6.62403">
        <ele>447</ele>
        <time>2014-10-30T10:36:14.1Z</time>
      </trkpt>
      <trkpt lat="47.82681" lon="6.62405">
        <ele>447</ele>
        <time>2014-10-30T10:36:16.1Z</time>
      </trkpt>
      <trkpt lat="47.82683" lon="6.62406">
        <ele>448</ele>
        <time>2014-10-30T10:36:18.1Z</time>
      </trkpt>
      <trkpt lat="47.82685" lon="6.62407">
        <ele>448</ele>
        <time>2014-10-30T10:36:20.1Z</time>
      </trkpt>
      <trkpt lat="47.82687" lon="6.62408">
        <ele>448</ele>
        <time>2014-10-30T10:36:23.1Z</time>
      </trkpt>
      <trkpt lat="47.82687" lon="6.62408">
        <ele>449</ele>
        <time>2014-10-30T10:36:26.1Z</time>
      </trkpt>
      <trkpt lat="47.82688" lon="6.62408">
        <ele>449</ele>
        <time>2014-10-30T10:36:28.1Z</time>
      </trkpt>
      <trkpt lat="47.82688" lon="6.62408">
        <ele>449</ele>
        <time>2014-10-30T10:36:31.1Z</time>
      </trkpt>
      <trkpt lat="47.82689" lon="6.62409">
        <ele>449</ele>
        <time>2014-10-30T10:36:33.1Z</time>
      </trkpt>
      <trkpt lat="47.8269" lon="6.62409">
        <ele>449</ele>
        <time>2014-10-30T10:36:36.1Z</time>
      </trkpt>
      <trkpt lat="47.82691" lon="6.6241">
        <ele>449</ele>
        <time>2014-10-30T10:36:38.1Z</time>
      </trkpt>
      <trkpt lat="47.82692" lon="6.62411">
        <ele>449</ele>
        <time>2014-10-30T10:36:41.1Z</time>
      </trkpt>
      <trkpt lat="47.82692" lon="6.62411">
        <ele>449</ele>
        <time>2014-10-30T10:36:43.1Z</time>
      </trkpt>
      <trkpt lat="47.82693" lon="6.62412">
        <ele>449</ele>
        <time>2014-10-30T10:36:46.1Z</time>
      </trkpt>
      <trkpt lat="47.82694" lon="6.62412">
        <ele>449</ele>
        <time>2014-10-30T10:36:49.1Z</time>
      </trkpt>
      <trkpt lat="47.82694" lon="6.62413">
        <ele>449</ele>
        <time>2014-10-30T10:36:51.1Z</time>
      </trkpt>
      <trkpt lat="47.82694" lon="6.62414">
        <ele>449</ele>
        <time>2014-10-30T10:36:53.1Z</time>
      </trkpt>
      <trkpt lat="47.82694" lon="6.62415">
        <ele>449</ele>
        <time>2014-10-30T10:36:55.1Z</time>
      </trkpt>
      <trkpt lat="47.82694" lon="6.62416">
        <ele>450</ele>
        <time>2014-10-30T10:36:57.1Z</time>
      </trkpt>
      <trkpt lat="47.82693" lon="6.62417">
        <ele>450</ele>
        <time>2014-10-30T10:36:59.1Z</time>
      </trkpt>
      <trkpt lat="47.82692" lon="6.62419">
        <ele>450</ele>
        <time>2014-10-30T10:37:02.1Z</time>
      </trkpt>
      <trkpt lat="47.8269" lon="6.62419">
        <ele>450</ele>
        <time>2014-10-30T10:37:05.1Z</time>
      </trkpt>
      <trkpt lat="47.82689" lon="6.62419">
        <ele>450</ele>
        <time>2014-10-30T10:37:08.1Z</time>
      </trkpt>
      <trkpt lat="47.82688" lon="6.6242">
        <ele>450</ele>
        <time>2014-10-30T10:37:10.1Z</time>
      </trkpt>
      <trkpt lat="47.82688" lon="6.62421">
        <ele>451</ele>
        <time>2014-10-30T10:37:12.1Z</time>
      </trkpt>
      <trkpt lat="47.82686" lon="6.62423">
        <ele>450</ele>
        <time>2014-10-30T10:37:15.1Z</time>
      </trkpt>
      <trkpt lat="47.82685" lon="6.62422">
        <ele>450</ele>
        <time>2014-10-30T10:37:17.1Z</time>
      </trkpt>
      <trkpt lat="47.82684" lon="6.62424">
        <ele>450</ele>
        <time>2014-10-30T10:37:20.1Z</time>
      </trkpt>
      <trkpt lat="47.82681" lon="6.62428">
        <ele>450</ele>
        <time>2014-10-30T10:37:23.1Z</time>
      </trkpt>
      <trkpt lat="47.82678" lon="6.62433">
        <ele>451</ele>
        <time>2014-10-30T10:37:26.1Z</time>
      </trkpt>
      <trkpt lat="47.82676" lon="6.62437">
        <ele>451</ele>
        <time>2014-10-30T10:37:29.1Z</time>
      </trkpt>
      <trkpt lat="47.82675" lon="6.6244">
        <ele>452</ele>
        <time>2014-10-30T10:37:31.1Z</time>
      </trkpt>
      <trkpt lat="47.82674" lon="6.62443">
        <ele>452</ele>
        <time>2014-10-30T10:37:34.1Z</time>
      </trkpt>
      <trkpt lat="47.82674" lon="6.62445">
        <ele>452</ele>
        <time>2014-10-30T10:37:36.1Z</time>
      </trkpt>
      <trkpt lat="47.82673" lon="6.62447">
        <ele>452</ele>
        <time>2014-10-30T10:37:39.1Z</time>
      </trkpt>
      <trkpt lat="47.82673" lon="6.62448">
        <ele>452</ele>
        <time>2014-10-30T10:37:41.1Z</time>
      </trkpt>
      <trkpt lat="47.82673" lon="6.62449">
        <ele>452</ele>
        <time>2014-10-30T10:37:43.1Z</time>
      </trkpt>
      <trkpt lat="47.82673" lon="6.62452">
        <ele>452</ele>
        <time>2014-10-30T10:37:45.1Z</time>
      </trkpt>
      <trkpt lat="47.82672" lon="6.62454">
        <ele>452</ele>
        <time>2014-10-30T10:37:47.1Z</time>
      </trkpt>
      <trkpt lat="47.82672" lon="6.62458">
        <ele>451</ele>
        <time>2014-10-30T10:37:50.1Z</time>
      </trkpt>
      <trkpt lat="47.82671" lon="6.6246">
        <ele>451</ele>
        <time>2014-10-30T10:37:53.1Z</time>
      </trkpt>
      <trkpt lat="47.82672" lon="6.62459">
        <ele>451</ele>
        <time>2014-10-30T10:37:55.1Z</time>
      </trkpt>
      <trkpt lat="47.82672" lon="6.62459">
        <ele>451</ele>
        <time>2014-10-30T10:37:57.1Z</time>
      </trkpt>
      <trkpt lat="47.82673" lon="6.62459">
        <ele>451</ele>
        <time>2014-10-30T10:37:59.1Z</time>
      </trkpt>
      <trkpt lat="47.82673" lon="6.62459">
        <ele>452</ele>
        <time>2014-10-30T10:38:02.1Z</time>
      </trkpt>
      <trkpt lat="47.82671" lon="6.62459">
        <ele>451</ele>
        <time>2014-10-30T10:38:04.1Z</time>
      </trkpt>
      <trkpt lat="47.82671" lon="6.6246">
        <ele>451</ele>
        <time>2014-10-30T10:38:06.1Z</time>
      </trkpt>
      <trkpt lat="47.82671" lon="6.62461">
        <ele>451</ele>
        <time>2014-10-30T10:38:10.1Z</time>
      </trkpt>
      <trkpt lat="47.82671" lon="6.62462">
        <ele>451</ele>
        <time>2014-10-30T10:38:13.1Z</time>
      </trkpt>
      <trkpt lat="47.82672" lon="6.62463">
        <ele>452</ele>
        <time>2014-10-30T10:38:16.1Z</time>
      </trkpt>
      <trkpt lat="47.82672" lon="6.62463">
        <ele>451</ele>
        <time>2014-10-30T10:38:18.1Z</time>
      </trkpt>
      <trkpt lat="47.82672" lon="6.62463">
        <ele>451</ele>
        <time>2014-10-30T10:38:20.1Z</time>
      </trkpt>
      <trkpt lat="47.82673" lon="6.62464">
        <ele>452</ele>
        <time>2014-10-30T10:38:23.1Z</time>
      </trkpt>
      <trkpt lat="47.82673" lon="6.62464">
        <ele>451</ele>
        <time>2014-10-30T10:38:25.1Z</time>
      </trkpt>
      <trkpt lat="47.82674" lon="6.62464">
        <ele>452</ele>
        <time>2014-10-30T10:38:28.1Z</time>
      </trkpt>
      <trkpt lat="47.82674" lon="6.62464">
        <ele>452</ele>
        <time>2014-10-30T10:38:30.1Z</time>
      </trkpt>
      <trkpt lat="47.82673" lon="6.62464">
        <ele>451</ele>
        <time>2014-10-30T10:38:33.1Z</time>
      </trkpt>
      <trkpt lat="47.82674" lon="6.62462">
        <ele>451</ele>
        <time>2014-10-30T10:38:36.1Z</time>
      </trkpt>
      <trkpt lat="47.82674" lon="6.62461">
        <ele>451</ele>
        <time>2014-10-30T10:38:38.1Z</time>
      </trkpt>
      <trkpt lat="47.82674" lon="6.62459">
        <ele>451</ele>
        <time>2014-10-30T10:38:41.1Z</time>
      </trkpt>
      <trkpt lat="47.82674" lon="6.62455">
        <ele>452</ele>
        <time>2014-10-30T10:38:44.1Z</time>
      </trkpt>
      <trkpt lat="47.82675" lon="6.62451">
        <ele>451</ele>
        <time>2014-10-30T10:38:47.1Z</time>
      </trkpt>
      <trkpt lat="47.82676" lon="6.62448">
        <ele>452</ele>
        <time>2014-10-30T10:38:50.1Z</time>
      </trkpt>
      <trkpt lat="47.8268" lon="6.6244">
        <ele>452</ele>
        <time>2014-10-30T10:38:53.1Z</time>
      </trkpt>
      <trkpt lat="47.82688" lon="6.62428">
        <ele>452</ele>
        <time>2014-10-30T10:38:56.1Z</time>
      </trkpt>
      <trkpt lat="47.82694" lon="6.62421">
        <ele>451</ele>
        <time>2014-10-30T10:38:58.1Z</time>
      </trkpt>
      <trkpt lat="47.82701" lon="6.62415">
        <ele>451</ele>
        <time>2014-10-30T10:39:01.1Z</time>
      </trkpt>
      <trkpt lat="47.82704" lon="6.6241">
        <ele>451</ele>
        <time>2014-10-30T10:39:04.1Z</time>
      </trkpt>
      <trkpt lat="47.82706" lon="6.62407">
        <ele>451</ele>
        <time>2014-10-30T10:39:07.1Z</time>
      </trkpt>
      <trkpt lat="47.82708" lon="6.62405">
        <ele>451</ele>
        <time>2014-10-30T10:39:09.1Z</time>
      </trkpt>
      <trkpt lat="47.82709" lon="6.62402">
        <ele>451</ele>
        <time>2014-10-30T10:39:12.1Z</time>
      </trkpt>
      <trkpt lat="47.82709" lon="6.62401">
        <ele>451</ele>
        <time>2014-10-30T10:39:14.1Z</time>
      </trkpt>
      <trkpt lat="47.82709" lon="6.62401">
        <ele>451</ele>
        <time>2014-10-30T10:39:17.1Z</time>
      </trkpt>
      <trkpt lat="47.82708" lon="6.62399">
        <ele>452</ele>
        <time>2014-10-30T10:39:20.1Z</time>
      </trkpt>
      <trkpt lat="47.82708" lon="6.62398">
        <ele>452</ele>
        <time>2014-10-30T10:39:23.1Z</time>
      </trkpt>
      <trkpt lat="47.82708" lon="6.62397">
        <ele>452</ele>
        <time>2014-10-30T10:39:26.1Z</time>
      </trkpt>
      <trkpt lat="47.82707" lon="6.62396">
        <ele>452</ele>
        <time>2014-10-30T10:39:28.1Z</time>
      </trkpt>
      <trkpt lat="47.82707" lon="6.62395">
        <ele>452</ele>
        <time>2014-10-30T10:39:30.1Z</time>
      </trkpt>
      <trkpt lat="47.82707" lon="6.62394">
        <ele>452</ele>
        <time>2014-10-30T10:39:32.1Z</time>
      </trkpt>
      <trkpt lat="47.82706" lon="6.62393">
        <ele>452</ele>
        <time>2014-10-30T10:39:34.1Z</time>
      </trkpt>
      <trkpt lat="47.82706" lon="6.62391">
        <ele>452</ele>
        <time>2014-10-30T10:39:37.1Z</time>
      </trkpt>
      <trkpt lat="47.82706" lon="6.6239">
        <ele>452</ele>
        <time>2014-10-30T10:39:39.1Z</time>
      </trkpt>
      <trkpt lat="47.82706" lon="6.6239">
        <ele>451</ele>
        <time>2014-10-30T10:39:41.1Z</time>
      </trkpt>
      <trkpt lat="47.82703" lon="6.6239">
        <ele>451</ele>
        <time>2014-10-30T10:39:44.1Z</time>
      </trkpt>
      <trkpt lat="47.82701" lon="6.62393">
        <ele>451</ele>
        <time>2014-10-30T10:39:46.1Z</time>
      </trkpt>
      <trkpt lat="47.82695" lon="6.62397">
        <ele>451</ele>
        <time>2014-10-30T10:39:49.1Z</time>
      </trkpt>
      <trkpt lat="47.82691" lon="6.62402">
        <ele>451</ele>
        <time>2014-10-30T10:39:51.1Z</time>
      </trkpt>
      <trkpt lat="47.82686" lon="6.62408">
        <ele>451</ele>
        <time>2014-10-30T10:39:53.1Z</time>
      </trkpt>
      <trkpt lat="47.8268" lon="6.62416">
        <ele>450</ele>
        <time>2014-10-30T10:39:56.1Z</time>
      </trkpt>
      <trkpt lat="47.82677" lon="6.62421">
        <ele>451</ele>
        <time>2014-10-30T10:39:58.1Z</time>
      </trkpt>
      <trkpt lat="47.82675" lon="6.62429">
        <ele>451</ele>
        <time>2014-10-30T10:40:01.1Z</time>
      </trkpt>
      <trkpt lat="47.82674" lon="6.62433">
        <ele>452</ele>
        <time>2014-10-30T10:40:04.1Z</time>
      </trkpt>
      <trkpt lat="47.82673" lon="6.62435">
        <ele>452</ele>
        <time>2014-10-30T10:40:07.1Z</time>
      </trkpt>
      <trkpt lat="47.82673" lon="6.62436">
        <ele>452</ele>
        <time>2014-10-30T10:40:10.1Z</time>
      </trkpt>
      <trkpt lat="47.82673" lon="6.62437">
        <ele>452</ele>
        <time>2014-10-30T10:40:13.1Z</time>
      </trkpt>
      <trkpt lat="47.82673" lon="6.62439">
        <ele>452</ele>
        <time>2014-10-30T10:40:16.1Z</time>
      </trkpt>
      <trkpt lat="47.82673" lon="6.6244">
        <ele>452</ele>
        <time>2014-10-30T10:40:18.1Z</time>
      </trkpt>
      <trkpt lat="47.82673" lon="6.6244">
        <ele>452</ele>
        <time>2014-10-30T10:40:20.1Z</time>
      </trkpt>
      <trkpt lat="47.82673" lon="6.62441">
        <ele>452</ele>
        <time>2014-10-30T10:40:22.1Z</time>
      </trkpt>
      <trkpt lat="47.82673" lon="6.62442">
        <ele>452</ele>
        <time>2014-10-30T10:40:25.1Z</time>
      </trkpt>
      <trkpt lat="47.82673" lon="6.62442">
        <ele>452</ele>
        <time>2014-10-30T10:40:27.1Z</time>
      </trkpt>
      <trkpt lat="47.82673" lon="6.62443">
        <ele>451</ele>
        <time>2014-10-30T10:40:30.1Z</time>
      </trkpt>
      <trkpt lat="47.82673" lon="6.62443">
        <ele>452</ele>
        <time>2014-10-30T10:40:32.1Z</time>
      </trkpt>
      <trkpt lat="47.82672" lon="6.62444">
        <ele>452</ele>
        <time>2014-10-30T10:40:35.1Z</time>
      </trkpt>
      <trkpt lat="47.82672" lon="6.62444">
        <ele>452</ele>
        <time>2014-10-30T10:40:38.1Z</time>
      </trkpt>
      <trkpt lat="47.82673" lon="6.62445">
        <ele>452</ele>
        <time>2014-10-30T10:40:41.1Z</time>
      </trkpt>
      <trkpt lat="47.82674" lon="6.62445">
        <ele>452</ele>
        <time>2014-10-30T10:40:44.1Z</time>
      </trkpt>
      <trkpt lat="47.82674" lon="6.62445">
        <ele>452</ele>
        <time>2014-10-30T10:40:46.1Z</time>
      </trkpt>
      <trkpt lat="47.82675" lon="6.62443">
        <ele>452</ele>
        <time>2014-10-30T10:40:49.1Z</time>
      </trkpt>
      <trkpt lat="47.82677" lon="6.62438">
        <ele>451</ele>
        <time>2014-10-30T10:40:51.1Z</time>
      </trkpt>
      <trkpt lat="47.82683" lon="6.62426">
        <ele>451</ele>
        <time>2014-10-30T10:40:54.1Z</time>
      </trkpt>
      <trkpt lat="47.82689" lon="6.62419">
        <ele>451</ele>
        <time>2014-10-30T10:40:56.1Z</time>
      </trkpt>
      <trkpt lat="47.82698" lon="6.62409">
        <ele>450</ele>
        <time>2014-10-30T10:40:59.1Z</time>
      </trkpt>
      <trkpt lat="47.82704" lon="6.62404">
        <ele>451</ele>
        <time>2014-10-30T10:41:02.1Z</time>
      </trkpt>
      <trkpt lat="47.82708" lon="6.62399">
        <ele>451</ele>
        <time>2014-10-30T10:41:04.1Z</time>
      </trkpt>
      <trkpt lat="47.8271" lon="6.62394">
        <ele>451</ele>
        <time>2014-10-30T10:41:06.1Z</time>
      </trkpt>
      <trkpt lat="47.82714" lon="6.62383">
        <ele>451</ele>
        <time>2014-10-30T10:41:09.1Z</time>
      </trkpt>
      <trkpt lat="47.82721" lon="6.62366">
        <ele>450</ele>
        <time>2014-10-30T10:41:12.1Z</time>
      </trkpt>
      <trkpt lat="47.82725" lon="6.62357">
        <ele>449</ele>
        <time>2014-10-30T10:41:14.1Z</time>
      </trkpt>
      <trkpt lat="47.82727" lon="6.62349">
        <ele>449</ele>
        <time>2014-10-30T10:41:16.1Z</time>
      </trkpt>
      <trkpt lat="47.82727" lon="6.62342">
        <ele>448</ele>
        <time>2014-10-30T10:41:19.1Z</time>
      </trkpt>
      <trkpt lat="47.82728" lon="6.62335">
        <ele>448</ele>
        <time>2014-10-30T10:41:22.1Z</time>
      </trkpt>
      <trkpt lat="47.82729" lon="6.62326">
        <ele>447</ele>
        <time>2014-10-30T10:41:25.1Z</time>
      </trkpt>
      <trkpt lat="47.82731" lon="6.6232">
        <ele>447</ele>
        <time>2014-10-30T10:41:28.1Z</time>
      </trkpt>
      <trkpt lat="47.82732" lon="6.62316">
        <ele>447</ele>
        <time>2014-10-30T10:41:30.1Z</time>
      </trkpt>
      <trkpt lat="47.82733" lon="6.62312">
        <ele>447</ele>
        <time>2014-10-30T10:41:32.1Z</time>
      </trkpt>
      <trkpt lat="47.82732" lon="6.6231">
        <ele>447</ele>
        <time>2014-10-30T10:41:34.1Z</time>
      </trkpt>
      <trkpt lat="47.82731" lon="6.6231">
        <ele>447</ele>
        <time>2014-10-30T10:41:37.1Z</time>
      </trkpt>
      <trkpt lat="47.8273" lon="6.62313">
        <ele>447</ele>
        <time>2014-10-30T10:41:39.1Z</time>
      </trkpt>
      <trkpt lat="47.82728" lon="6.6232">
        <ele>447</ele>
        <time>2014-10-30T10:41:42.1Z</time>
      </trkpt>
      <trkpt lat="47.82728" lon="6.62326">
        <ele>447</ele>
        <time>2014-10-30T10:41:44.1Z</time>
      </trkpt>
      <trkpt lat="47.82727" lon="6.62334">
        <ele>448</ele>
        <time>2014-10-30T10:41:47.1Z</time>
      </trkpt>
      <trkpt lat="47.82728" lon="6.62339">
        <ele>448</ele>
        <time>2014-10-30T10:41:49.1Z</time>
      </trkpt>
      <trkpt lat="47.82729" lon="6.62348">
        <ele>448</ele>
        <time>2014-10-30T10:41:52.1Z</time>
      </trkpt>
      <trkpt lat="47.82733" lon="6.62357">
        <ele>447</ele>
        <time>2014-10-30T10:41:55.1Z</time>
      </trkpt>
      <trkpt lat="47.82739" lon="6.62367">
        <ele>447</ele>
        <time>2014-10-30T10:41:58.1Z</time>
      </trkpt>
      <trkpt lat="47.82746" lon="6.62375">
        <ele>448</ele>
        <time>2014-10-30T10:42:01.1Z</time>
      </trkpt>
      <trkpt lat="47.8275" lon="6.62383">
        <ele>448</ele>
        <time>2014-10-30T10:42:03.1Z</time>
      </trkpt>
      <trkpt lat="47.82754" lon="6.62395">
        <ele>448</ele>
        <time>2014-10-30T10:42:06.1Z</time>
      </trkpt>
      <trkpt lat="47.82755" lon="6.62403">
        <ele>448</ele>
        <time>2014-10-30T10:42:08.1Z</time>
      </trkpt>
      <trkpt lat="47.82755" lon="6.62412">
        <ele>448</ele>
        <time>2014-10-30T10:42:11.1Z</time>
      </trkpt>
      <trkpt lat="47.82756" lon="6.62417">
        <ele>448</ele>
        <time>2014-10-30T10:42:13.1Z</time>
      </trkpt>
      <trkpt lat="47.82757" lon="6.62423">
        <ele>449</ele>
        <time>2014-10-30T10:42:16.1Z</time>
      </trkpt>
      <trkpt lat="47.82757" lon="6.62428">
        <ele>450</ele>
        <time>2014-10-30T10:42:19.1Z</time>
      </trkpt>
      <trkpt lat="47.82756" lon="6.62432">
        <ele>451</ele>
        <time>2014-10-30T10:42:21.1Z</time>
      </trkpt>
      <trkpt lat="47.82755" lon="6.62439">
        <ele>451</ele>
        <time>2014-10-30T10:42:24.1Z</time>
      </trkpt>
      <trkpt lat="47.82754" lon="6.62446">
        <ele>452</ele>
        <time>2014-10-30T10:42:27.1Z</time>
      </trkpt>
      <trkpt lat="47.82754" lon="6.62452">
        <ele>453</ele>
        <time>2014-10-30T10:42:30.1Z</time>
      </trkpt>
      <trkpt lat="47.82754" lon="6.62456">
        <ele>453</ele>
        <time>2014-10-30T10:42:32.1Z</time>
      </trkpt>
      <trkpt lat="47.82754" lon="6.6246">
        <ele>453</ele>
        <time>2014-10-30T10:42:34.1Z</time>
      </trkpt>
      <trkpt lat="47.82755" lon="6.62465">
        <ele>454</ele>
        <time>2014-10-30T10:42:37.1Z</time>
      </trkpt>
      <trkpt lat="47.82757" lon="6.62471">
        <ele>454</ele>
        <time>2014-10-30T10:42:40.1Z</time>
      </trkpt>
      <trkpt lat="47.82758" lon="6.62474">
        <ele>455</ele>
        <time>2014-10-30T10:42:42.1Z</time>
      </trkpt>
      <trkpt lat="47.8276" lon="6.62479">
        <ele>456</ele>
        <time>2014-10-30T10:42:45.1Z</time>
      </trkpt>
      <trkpt lat="47.82761" lon="6.62485">
        <ele>457</ele>
        <time>2014-10-30T10:42:48.1Z</time>
      </trkpt>
      <trkpt lat="47.82761" lon="6.62488">
        <ele>457</ele>
        <time>2014-10-30T10:42:50.1Z</time>
      </trkpt>
      <trkpt lat="47.8276" lon="6.62494">
        <ele>458</ele>
        <time>2014-10-30T10:42:53.1Z</time>
      </trkpt>
      <trkpt lat="47.82761" lon="6.62496">
        <ele>458</ele>
        <time>2014-10-30T10:42:55.1Z</time>
      </trkpt>
      <trkpt lat="47.8276" lon="6.625">
        <ele>459</ele>
        <time>2014-10-30T10:42:58.1Z</time>
      </trkpt>
      <trkpt lat="47.82759" lon="6.62504">
        <ele>459</ele>
        <time>2014-10-30T10:43:01.1Z</time>
      </trkpt>
      <trkpt lat="47.82759" lon="6.62509">
        <ele>460</ele>
        <time>2014-10-30T10:43:04.1Z</time>
      </trkpt>
      <trkpt lat="47.82758" lon="6.62513">
        <ele>460</ele>
        <time>2014-10-30T10:43:06.1Z</time>
      </trkpt>
      <trkpt lat="47.82757" lon="6.62517">
        <ele>461</ele>
        <time>2014-10-30T10:43:09.1Z</time>
      </trkpt>
      <trkpt lat="47.82756" lon="6.62522">
        <ele>461</ele>
        <time>2014-10-30T10:43:12.1Z</time>
      </trkpt>
      <trkpt lat="47.82755" lon="6.62527">
        <ele>461</ele>
        <time>2014-10-30T10:43:15.1Z</time>
      </trkpt>
      <trkpt lat="47.82753" lon="6.62533">
        <ele>461</ele>
        <time>2014-10-30T10:43:18.1Z</time>
      </trkpt>
      <trkpt lat="47.82752" lon="6.62538">
        <ele>462</ele>
        <time>2014-10-30T10:43:20.1Z</time>
      </trkpt>
      <trkpt lat="47.8275" lon="6.62545">
        <ele>462</ele>
        <time>2014-10-30T10:43:23.1Z</time>
      </trkpt>
      <trkpt lat="47.82749" lon="6.6255">
        <ele>462</ele>
        <time>2014-10-30T10:43:25.1Z</time>
      </trkpt>
      <trkpt lat="47.82748" lon="6.62554">
        <ele>462</ele>
        <time>2014-10-30T10:43:27.1Z</time>
      </trkpt>
      <trkpt lat="47.82747" lon="6.62561">
        <ele>462</ele>
        <time>2014-10-30T10:43:30.1Z</time>
      </trkpt>
      <trkpt lat="47.82746" lon="6.62566">
        <ele>462</ele>
        <time>2014-10-30T10:43:32.1Z</time>
      </trkpt>
      <trkpt lat="47.82746" lon="6.6257">
        <ele>463</ele>
        <time>2014-10-30T10:43:34.1Z</time>
      </trkpt>
      <trkpt lat="47.82746" lon="6.62575">
        <ele>464</ele>
        <time>2014-10-30T10:43:37.1Z</time>
      </trkpt>
      <trkpt lat="47.82746" lon="6.62581">
        <ele>464</ele>
        <time>2014-10-30T10:43:40.1Z</time>
      </trkpt>
      <trkpt lat="47.82747" lon="6.62588">
        <ele>465</ele>
        <time>2014-10-30T10:43:43.1Z</time>
      </trkpt>
      <trkpt lat="47.82747" lon="6.62592">
        <ele>465</ele>
        <time>2014-10-30T10:43:45.1Z</time>
      </trkpt>
      <trkpt lat="47.82749" lon="6.62598">
        <ele>466</ele>
        <time>2014-10-30T10:43:48.1Z</time>
      </trkpt>
      <trkpt lat="47.82749" lon="6.62602">
        <ele>466</ele>
        <time>2014-10-30T10:43:50.1Z</time>
      </trkpt>
      <trkpt lat="47.82751" lon="6.62607">
        <ele>466</ele>
        <time>2014-10-30T10:43:53.1Z</time>
      </trkpt>
      <trkpt lat="47.82752" lon="6.62612">
        <ele>466</ele>
        <time>2014-10-30T10:43:56.1Z</time>
      </trkpt>
      <trkpt lat="47.82754" lon="6.62615">
        <ele>467</ele>
        <time>2014-10-30T10:43:58.1Z</time>
      </trkpt>
      <trkpt lat="47.82757" lon="6.62618">
        <ele>467</ele>
        <time>2014-10-30T10:44:01.1Z</time>
      </trkpt>
      <trkpt lat="47.8276" lon="6.62621">
        <ele>468</ele>
        <time>2014-10-30T10:44:04.1Z</time>
      </trkpt>
      <trkpt lat="47.82764" lon="6.62623">
        <ele>468</ele>
        <time>2014-10-30T10:44:07.1Z</time>
      </trkpt>
      <trkpt lat="47.82766" lon="6.62626">
        <ele>469</ele>
        <time>2014-10-30T10:44:10.1Z</time>
      </trkpt>
      <trkpt lat="47.82769" lon="6.62628">
        <ele>469</ele>
        <time>2014-10-30T10:44:13.1Z</time>
      </trkpt>
      <trkpt lat="47.82771" lon="6.6263">
        <ele>469</ele>
        <time>2014-10-30T10:44:15.1Z</time>
      </trkpt>
      <trkpt lat="47.82772" lon="6.62632">
        <ele>469</ele>
        <time>2014-10-30T10:44:17.1Z</time>
      </trkpt>
      <trkpt lat="47.82775" lon="6.62635">
        <ele>469</ele>
        <time>2014-10-30T10:44:20.1Z</time>
      </trkpt>
      <trkpt lat="47.82777" lon="6.62639">
        <ele>470</ele>
        <time>2014-10-30T10:44:23.1Z</time>
      </trkpt>
      <trkpt lat="47.82781" lon="6.62643">
        <ele>470</ele>
        <time>2014-10-30T10:44:26.1Z</time>
      </trkpt>
      <trkpt lat="47.82785" lon="6.62646">
        <ele>470</ele>
        <time>2014-10-30T10:44:29.1Z</time>
      </trkpt>
      <trkpt lat="47.82792" lon="6.62647">
        <ele>470</ele>
        <time>2014-10-30T10:44:32.1Z</time>
      </trkpt>
      <trkpt lat="47.82798" lon="6.62645">
        <ele>469</ele>
        <time>2014-10-30T10:44:34.1Z</time>
      </trkpt>
      <trkpt lat="47.82805" lon="6.62646">
        <ele>469</ele>
        <time>2014-10-30T10:44:37.1Z</time>
      </trkpt>
      <trkpt lat="47.82811" lon="6.62649">
        <ele>469</ele>
        <time>2014-10-30T10:44:40.1Z</time>
      </trkpt>
      <trkpt lat="47.82816" lon="6.62651">
        <ele>469</ele>
        <time>2014-10-30T10:44:42.1Z</time>
      </trkpt>
      <trkpt lat="47.82824" lon="6.62652">
        <ele>469</ele>
        <time>2014-10-30T10:44:44.1Z</time>
      </trkpt>
      <trkpt lat="47.82834" lon="6.62647">
        <ele>468</ele>
        <time>2014-10-30T10:44:47.1Z</time>
      </trkpt>
      <trkpt lat="47.82837" lon="6.62644">
        <ele>467</ele>
        <time>2014-10-30T10:44:49.1Z</time>
      </trkpt>
      <trkpt lat="47.8284" lon="6.62644">
        <ele>466</ele>
        <time>2014-10-30T10:44:52.1Z</time>
      </trkpt>
      <trkpt lat="47.82842" lon="6.62644">
        <ele>465</ele>
        <time>2014-10-30T10:44:55.1Z</time>
      </trkpt>
      <trkpt lat="47.82844" lon="6.62644">
        <ele>465</ele>
        <time>2014-10-30T10:44:58.1Z</time>
      </trkpt>
      <trkpt lat="47.82846" lon="6.62643">
        <ele>465</ele>
        <time>2014-10-30T10:45:00.1Z</time>
      </trkpt>
      <trkpt lat="47.82851" lon="6.62644">
        <ele>465</ele>
        <time>2014-10-30T10:45:03.1Z</time>
      </trkpt>
      <trkpt lat="47.82856" lon="6.62646">
        <ele>465</ele>
        <time>2014-10-30T10:45:05.1Z</time>
      </trkpt>
      <trkpt lat="47.82859" lon="6.62649">
        <ele>465</ele>
        <time>2014-10-30T10:45:07.1Z</time>
      </trkpt>
      <trkpt lat="47.82863" lon="6.62652">
        <ele>466</ele>
        <time>2014-10-30T10:45:10.1Z</time>
      </trkpt>
      <trkpt lat="47.82868" lon="6.62658">
        <ele>466</ele>
        <time>2014-10-30T10:45:13.1Z</time>
      </trkpt>
      <trkpt lat="47.82875" lon="6.62666">
        <ele>465</ele>
        <time>2014-10-30T10:45:16.1Z</time>
      </trkpt>
      <trkpt lat="47.82884" lon="6.62676">
        <ele>465</ele>
        <time>2014-10-30T10:45:19.1Z</time>
      </trkpt>
      <trkpt lat="47.82891" lon="6.62688">
        <ele>464</ele>
        <time>2014-10-30T10:45:22.1Z</time>
      </trkpt>
      <trkpt lat="47.82894" lon="6.62692">
        <ele>464</ele>
        <time>2014-10-30T10:45:24.1Z</time>
      </trkpt>
      <trkpt lat="47.82898" lon="6.62696">
        <ele>464</ele>
        <time>2014-10-30T10:45:27.1Z</time>
      </trkpt>
      <trkpt lat="47.829" lon="6.627">
        <ele>464</ele>
        <time>2014-10-30T10:45:29.1Z</time>
      </trkpt>
      <trkpt lat="47.82903" lon="6.62703">
        <ele>464</ele>
        <time>2014-10-30T10:45:31.1Z</time>
      </trkpt>
      <trkpt lat="47.82908" lon="6.62708">
        <ele>464</ele>
        <time>2014-10-30T10:45:34.1Z</time>
      </trkpt>
      <trkpt lat="47.82914" lon="6.62712">
        <ele>464</ele>
        <time>2014-10-30T10:45:37.1Z</time>
      </trkpt>
      <trkpt lat="47.82919" lon="6.62719">
        <ele>464</ele>
        <time>2014-10-30T10:45:40.1Z</time>
      </trkpt>
      <trkpt lat="47.82922" lon="6.62726">
        <ele>464</ele>
        <time>2014-10-30T10:45:42.1Z</time>
      </trkpt>
      <trkpt lat="47.82928" lon="6.62736">
        <ele>464</ele>
        <time>2014-10-30T10:45:44.1Z</time>
      </trkpt>
      <trkpt lat="47.82937" lon="6.62749">
        <ele>463</ele>
        <time>2014-10-30T10:45:47.1Z</time>
      </trkpt>
      <trkpt lat="47.82942" lon="6.62756">
        <ele>463</ele>
        <time>2014-10-30T10:45:49.1Z</time>
      </trkpt>
      <trkpt lat="47.82947" lon="6.62763">
        <ele>463</ele>
        <time>2014-10-30T10:45:51.1Z</time>
      </trkpt>
      <trkpt lat="47.82951" lon="6.62774">
        <ele>463</ele>
        <time>2014-10-30T10:45:54.1Z</time>
      </trkpt>
      <trkpt lat="47.82957" lon="6.62783">
        <ele>463</ele>
        <time>2014-10-30T10:45:57.1Z</time>
      </trkpt>
      <trkpt lat="47.82964" lon="6.62794">
        <ele>463</ele>
        <time>2014-10-30T10:46:00.1Z</time>
      </trkpt>
      <trkpt lat="47.82971" lon="6.6281">
        <ele>463</ele>
        <time>2014-10-30T10:46:03.1Z</time>
      </trkpt>
      <trkpt lat="47.82975" lon="6.62819">
        <ele>463</ele>
        <time>2014-10-30T10:46:05.1Z</time>
      </trkpt>
      <trkpt lat="47.82983" lon="6.62836">
        <ele>463</ele>
        <time>2014-10-30T10:46:08.1Z</time>
      </trkpt>
      <trkpt lat="47.82983" lon="6.62854">
        <ele>462</ele>
        <time>2014-10-30T10:46:11.1Z</time>
      </trkpt>
      <trkpt lat="47.82982" lon="6.62863">
        <ele>462</ele>
        <time>2014-10-30T10:46:13.1Z</time>
      </trkpt>
      <trkpt lat="47.82981" lon="6.62878">
        <ele>462</ele>
        <time>2014-10-30T10:46:16.1Z</time>
      </trkpt>
      <trkpt lat="47.82979" lon="6.6289">
        <ele>461</ele>
        <time>2014-10-30T10:46:18.1Z</time>
      </trkpt>
      <trkpt lat="47.82974" lon="6.6291">
        <ele>460</ele>
        <time>2014-10-30T10:46:21.1Z</time>
      </trkpt>
      <trkpt lat="47.82966" lon="6.62929">
        <ele>458</ele>
        <time>2014-10-30T10:46:24.1Z</time>
      </trkpt>
      <trkpt lat="47.82957" lon="6.62948">
        <ele>456</ele>
        <time>2014-10-30T10:46:27.1Z</time>
      </trkpt>
      <trkpt lat="47.82949" lon="6.62966">
        <ele>454</ele>
        <time>2014-10-30T10:46:30.1Z</time>
      </trkpt>
      <trkpt lat="47.82946" lon="6.62976">
        <ele>453</ele>
        <time>2014-10-30T10:46:32.1Z</time>
      </trkpt>
      <trkpt lat="47.82944" lon="6.62993">
        <ele>453</ele>
        <time>2014-10-30T10:46:35.1Z</time>
      </trkpt>
      <trkpt lat="47.82943" lon="6.6301">
        <ele>453</ele>
        <time>2014-10-30T10:46:38.1Z</time>
      </trkpt>
      <trkpt lat="47.8294" lon="6.63025">
        <ele>453</ele>
        <time>2014-10-30T10:46:41.1Z</time>
      </trkpt>
      <trkpt lat="47.82936" lon="6.63042">
        <ele>453</ele>
        <time>2014-10-30T10:46:44.1Z</time>
      </trkpt>
      <trkpt lat="47.82932" lon="6.63058">
        <ele>452</ele>
        <time>2014-10-30T10:46:46.1Z</time>
      </trkpt>
      <trkpt lat="47.82926" lon="6.63084">
        <ele>451</ele>
        <time>2014-10-30T10:46:49.1Z</time>
      </trkpt>
      <trkpt lat="47.8292" lon="6.63098">
        <ele>450</ele>
        <time>2014-10-30T10:46:51.1Z</time>
      </trkpt>
      <trkpt lat="47.82913" lon="6.6312">
        <ele>449</ele>
        <time>2014-10-30T10:46:54.1Z</time>
      </trkpt>
      <trkpt lat="47.82909" lon="6.63129">
        <ele>448</ele>
        <time>2014-10-30T10:46:56.1Z</time>
      </trkpt>
      <trkpt lat="47.82904" lon="6.63141">
        <ele>447</ele>
        <time>2014-10-30T10:46:59.1Z</time>
      </trkpt>
      <trkpt lat="47.82902" lon="6.63146">
        <ele>446</ele>
        <time>2014-10-30T10:47:01.1Z</time>
      </trkpt>
      <trkpt lat="47.82901" lon="6.63149">
        <ele>446</ele>
        <time>2014-10-30T10:47:03.1Z</time>
      </trkpt>
      <trkpt lat="47.82899" lon="6.63153">
        <ele>447</ele>
        <time>2014-10-30T10:47:05.1Z</time>
      </trkpt>
      <trkpt lat="47.82894" lon="6.6316">
        <ele>446</ele>
        <time>2014-10-30T10:47:08.1Z</time>
      </trkpt>
      <trkpt lat="47.82893" lon="6.63162">
        <ele>447</ele>
        <time>2014-10-30T10:47:10.1Z</time>
      </trkpt>
      <trkpt lat="47.82892" lon="6.63163">
        <ele>447</ele>
        <time>2014-10-30T10:47:12.1Z</time>
      </trkpt>
      <trkpt lat="47.82892" lon="6.63164">
        <ele>446</ele>
        <time>2014-10-30T10:47:15.1Z</time>
      </trkpt>
      <trkpt lat="47.82892" lon="6.63165">
        <ele>446</ele>
        <time>2014-10-30T10:47:17.1Z</time>
      </trkpt>
      <trkpt lat="47.82889" lon="6.63168">
        <ele>446</ele>
        <time>2014-10-30T10:47:20.1Z</time>
      </trkpt>
      <trkpt lat="47.82885" lon="6.63173">
        <ele>447</ele>
        <time>2014-10-30T10:47:23.1Z</time>
      </trkpt>
      <trkpt lat="47.82881" lon="6.63176">
        <ele>447</ele>
        <time>2014-10-30T10:47:26.1Z</time>
      </trkpt>
      <trkpt lat="47.82879" lon="6.63177">
        <ele>447</ele>
        <time>2014-10-30T10:47:29.1Z</time>
      </trkpt>
      <trkpt lat="47.82878" lon="6.63178">
        <ele>448</ele>
        <time>2014-10-30T10:47:31.1Z</time>
      </trkpt>
      <trkpt lat="47.82877" lon="6.63181">
        <ele>448</ele>
        <time>2014-10-30T10:47:34.1Z</time>
      </trkpt>
      <trkpt lat="47.82876" lon="6.63183">
        <ele>447</ele>
        <time>2014-10-30T10:47:37.1Z</time>
      </trkpt>
      <trkpt lat="47.82875" lon="6.63185">
        <ele>447</ele>
        <time>2014-10-30T10:47:39.1Z</time>
      </trkpt>
      <trkpt lat="47.82875" lon="6.63187">
        <ele>447</ele>
        <time>2014-10-30T10:47:42.1Z</time>
      </trkpt>
      <trkpt lat="47.82875" lon="6.63187">
        <ele>447</ele>
        <time>2014-10-30T10:47:44.1Z</time>
      </trkpt>
      <trkpt lat="47.82874" lon="6.63189">
        <ele>447</ele>
        <time>2014-10-30T10:47:47.1Z</time>
      </trkpt>
      <trkpt lat="47.82871" lon="6.63193">
        <ele>447</ele>
        <time>2014-10-30T10:47:50.1Z</time>
      </trkpt>
      <trkpt lat="47.82869" lon="6.63197">
        <ele>447</ele>
        <time>2014-10-30T10:47:53.1Z</time>
      </trkpt>
      <trkpt lat="47.82867" lon="6.632">
        <ele>448</ele>
        <time>2014-10-30T10:47:55.1Z</time>
      </trkpt>
      <trkpt lat="47.82864" lon="6.63202">
        <ele>448</ele>
        <time>2014-10-30T10:47:57.1Z</time>
      </trkpt>
      <trkpt lat="47.82861" lon="6.63205">
        <ele>448</ele>
        <time>2014-10-30T10:48:00.1Z</time>
      </trkpt>
      <trkpt lat="47.82856" lon="6.63211">
        <ele>448</ele>
        <time>2014-10-30T10:48:03.1Z</time>
      </trkpt>
      <trkpt lat="47.82853" lon="6.63214">
        <ele>448</ele>
        <time>2014-10-30T10:48:05.1Z</time>
      </trkpt>
      <trkpt lat="47.8285" lon="6.63215">
        <ele>448</ele>
        <time>2014-10-30T10:48:07.1Z</time>
      </trkpt>
      <trkpt lat="47.82846" lon="6.63219">
        <ele>449</ele>
        <time>2014-10-30T10:48:10.1Z</time>
      </trkpt>
      <trkpt lat="47.82842" lon="6.63223">
        <ele>449</ele>
        <time>2014-10-30T10:48:12.1Z</time>
      </trkpt>
      <trkpt lat="47.82836" lon="6.63227">
        <ele>449</ele>
        <time>2014-10-30T10:48:15.1Z</time>
      </trkpt>
      <trkpt lat="47.8283" lon="6.63228">
        <ele>450</ele>
        <time>2014-10-30T10:48:18.1Z</time>
      </trkpt>
      <trkpt lat="47.82825" lon="6.63232">
        <ele>450</ele>
        <time>2014-10-30T10:48:21.1Z</time>
      </trkpt>
      <trkpt lat="47.82821" lon="6.63233">
        <ele>451</ele>
        <time>2014-10-30T10:48:23.1Z</time>
      </trkpt>
      <trkpt lat="47.82816" lon="6.63234">
        <ele>451</ele>
        <time>2014-10-30T10:48:26.1Z</time>
      </trkpt>
      <trkpt lat="47.82811" lon="6.63233">
        <ele>452</ele>
        <time>2014-10-30T10:48:29.1Z</time>
      </trkpt>
      <trkpt lat="47.82808" lon="6.63232">
        <ele>452</ele>
        <time>2014-10-30T10:48:31.1Z</time>
      </trkpt>
      <trkpt lat="47.82804" lon="6.6323">
        <ele>452</ele>
        <time>2014-10-30T10:48:33.1Z</time>
      </trkpt>
      <trkpt lat="47.82799" lon="6.63228">
        <ele>453</ele>
        <time>2014-10-30T10:48:36.1Z</time>
      </trkpt>
      <trkpt lat="47.82795" lon="6.63226">
        <ele>453</ele>
        <time>2014-10-30T10:48:39.1Z</time>
      </trkpt>
      <trkpt lat="47.82793" lon="6.63225">
        <ele>454</ele>
        <time>2014-10-30T10:48:42.1Z</time>
      </trkpt>
      <trkpt lat="47.82792" lon="6.63225">
        <ele>454</ele>
        <time>2014-10-30T10:48:44.1Z</time>
      </trkpt>
      <trkpt lat="47.82791" lon="6.63226">
        <ele>454</ele>
        <time>2014-10-30T10:48:46.1Z</time>
      </trkpt>
      <trkpt lat="47.8279" lon="6.63227">
        <ele>454</ele>
        <time>2014-10-30T10:48:48.1Z</time>
      </trkpt>
      <trkpt lat="47.82789" lon="6.63228">
        <ele>454</ele>
        <time>2014-10-30T10:48:50.1Z</time>
      </trkpt>
      <trkpt lat="47.82787" lon="6.6323">
        <ele>454</ele>
        <time>2014-10-30T10:48:53.1Z</time>
      </trkpt>
      <trkpt lat="47.82787" lon="6.63232">
        <ele>454</ele>
        <time>2014-10-30T10:48:55.1Z</time>
      </trkpt>
      <trkpt lat="47.82791" lon="6.63237">
        <ele>454</ele>
        <time>2014-10-30T10:48:58.1Z</time>
      </trkpt>
      <trkpt lat="47.82796" lon="6.63242">
        <ele>454</ele>
        <time>2014-10-30T10:49:01.1Z</time>
      </trkpt>
      <trkpt lat="47.82794" lon="6.63247">
        <ele>453</ele>
        <time>2014-10-30T10:49:04.1Z</time>
      </trkpt>
      <trkpt lat="47.82791" lon="6.63253">
        <ele>452</ele>
        <time>2014-10-30T10:49:07.1Z</time>
      </trkpt>
      <trkpt lat="47.82787" lon="6.63259">
        <ele>451</ele>
        <time>2014-10-30T10:49:10.1Z</time>
      </trkpt>
      <trkpt lat="47.82787" lon="6.6326">
        <ele>451</ele>
        <time>2014-10-30T10:49:13.1Z</time>
      </trkpt>
      <trkpt lat="47.82787" lon="6.6326">
        <ele>451</ele>
        <time>2014-10-30T10:49:15.1Z</time>
      </trkpt>
      <trkpt lat="47.82788" lon="6.63258">
        <ele>451</ele>
        <time>2014-10-30T10:49:18.1Z</time>
      </trkpt>
      <trkpt lat="47.82789" lon="6.63255">
        <ele>451</ele>
        <time>2014-10-30T10:49:21.1Z</time>
      </trkpt>
      <trkpt lat="47.82791" lon="6.63251">
        <ele>451</ele>
        <time>2014-10-30T10:49:24.1Z</time>
      </trkpt>
      <trkpt lat="47.82792" lon="6.63248">
        <ele>451</ele>
        <time>2014-10-30T10:49:26.1Z</time>
      </trkpt>
      <trkpt lat="47.82793" lon="6.63245">
        <ele>451</ele>
        <time>2014-10-30T10:49:28.1Z</time>
      </trkpt>
      <trkpt lat="47.82794" lon="6.63241">
        <ele>452</ele>
        <time>2014-10-30T10:49:31.1Z</time>
      </trkpt>
      <trkpt lat="47.82794" lon="6.63239">
        <ele>452</ele>
        <time>2014-10-30T10:49:33.1Z</time>
      </trkpt>
      <trkpt lat="47.82793" lon="6.63235">
        <ele>453</ele>
        <time>2014-10-30T10:49:36.1Z</time>
      </trkpt>
      <trkpt lat="47.82792" lon="6.63234">
        <ele>453</ele>
        <time>2014-10-30T10:49:39.1Z</time>
      </trkpt>
      <trkpt lat="47.8279" lon="6.63233">
        <ele>453</ele>
        <time>2014-10-30T10:49:41.1Z</time>
      </trkpt>
      <trkpt lat="47.82789" lon="6.63232">
        <ele>454</ele>
        <time>2014-10-30T10:49:43.1Z</time>
      </trkpt>
      <trkpt lat="47.82789" lon="6.63232">
        <ele>454</ele>
        <time>2014-10-30T10:49:46.1Z</time>
      </trkpt>
      <trkpt lat="47.82789" lon="6.63233">
        <ele>454</ele>
        <time>2014-10-30T10:49:48.1Z</time>
      </trkpt>
      <trkpt lat="47.82788" lon="6.63233">
        <ele>454</ele>
        <time>2014-10-30T10:49:51.1Z</time>
      </trkpt>
      <trkpt lat="47.82786" lon="6.63232">
        <ele>454</ele>
        <time>2014-10-30T10:49:54.1Z</time>
      </trkpt>
      <trkpt lat="47.82785" lon="6.63231">
        <ele>454</ele>
        <time>2014-10-30T10:49:56.1Z</time>
      </trkpt>
      <trkpt lat="47.82783" lon="6.63231">
        <ele>454</ele>
        <time>2014-10-30T10:49:59.1Z</time>
      </trkpt>
      <trkpt lat="47.82781" lon="6.6323">
        <ele>454</ele>
        <time>2014-10-30T10:50:02.1Z</time>
      </trkpt>
      <trkpt lat="47.8278" lon="6.63229">
        <ele>455</ele>
        <time>2014-10-30T10:50:04.1Z</time>
      </trkpt>
      <trkpt lat="47.8278" lon="6.63229">
        <ele>455</ele>
        <time>2014-10-30T10:50:06.1Z</time>
      </trkpt>
      <trkpt lat="47.8278" lon="6.63231">
        <ele>455</ele>
        <time>2014-10-30T10:50:09.1Z</time>
      </trkpt>
      <trkpt lat="47.8278" lon="6.63232">
        <ele>455</ele>
        <time>2014-10-30T10:50:11.1Z</time>
      </trkpt>
      <trkpt lat="47.82781" lon="6.63233">
        <ele>455</ele>
        <time>2014-10-30T10:50:13.1Z</time>
      </trkpt>
      <trkpt lat="47.82781" lon="6.63233">
        <ele>455</ele>
        <time>2014-10-30T10:50:15.1Z</time>
      </trkpt>
      <trkpt lat="47.82782" lon="6.63234">
        <ele>455</ele>
        <time>2014-10-30T10:50:18.1Z</time>
      </trkpt>
      <trkpt lat="47.82783" lon="6.63234">
        <ele>455</ele>
        <time>2014-10-30T10:50:20.1Z</time>
      </trkpt>
      <trkpt lat="47.82784" lon="6.63236">
        <ele>454</ele>
        <time>2014-10-30T10:50:22.1Z</time>
      </trkpt>
      <trkpt lat="47.82786" lon="6.63236">
        <ele>454</ele>
        <time>2014-10-30T10:50:24.1Z</time>
      </trkpt>
      <trkpt lat="47.82793" lon="6.63239">
        <ele>454</ele>
        <time>2014-10-30T10:50:27.1Z</time>
      </trkpt>
      <trkpt lat="47.82803" lon="6.63239">
        <ele>453</ele>
        <time>2014-10-30T10:50:30.1Z</time>
      </trkpt>
      <trkpt lat="47.8281" lon="6.63236">
        <ele>452</ele>
        <time>2014-10-30T10:50:33.1Z</time>
      </trkpt>
      <trkpt lat="47.82815" lon="6.63236">
        <ele>452</ele>
        <time>2014-10-30T10:50:35.1Z</time>
      </trkpt>
      <trkpt lat="47.82819" lon="6.63238">
        <ele>450</ele>
        <time>2014-10-30T10:50:37.1Z</time>
      </trkpt>
      <trkpt lat="47.82824" lon="6.63244">
        <ele>450</ele>
        <time>2014-10-30T10:50:40.1Z</time>
      </trkpt>
      <trkpt lat="47.82825" lon="6.63247">
        <ele>449</ele>
        <time>2014-10-30T10:50:42.1Z</time>
      </trkpt>
      <trkpt lat="47.82825" lon="6.63255">
        <ele>449</ele>
        <time>2014-10-30T10:50:45.1Z</time>
      </trkpt>
      <trkpt lat="47.82827" lon="6.63262">
        <ele>449</ele>
        <time>2014-10-30T10:50:48.1Z</time>
      </trkpt>
      <trkpt lat="47.82827" lon="6.63263">
        <ele>450</ele>
        <time>2014-10-30T10:50:50.1Z</time>
      </trkpt>
      <trkpt lat="47.82828" lon="6.63266">
        <ele>450</ele>
        <time>2014-10-30T10:50:52.1Z</time>
      </trkpt>
      <trkpt lat="47.82829" lon="6.63267">
        <ele>451</ele>
        <time>2014-10-30T10:50:55.1Z</time>
      </trkpt>
      <trkpt lat="47.8283" lon="6.63268">
        <ele>451</ele>
        <time>2014-10-30T10:50:57.1Z</time>
      </trkpt>
      <trkpt lat="47.82831" lon="6.6327">
        <ele>451</ele>
        <time>2014-10-30T10:50:59.1Z</time>
      </trkpt>
      <trkpt lat="47.82833" lon="6.63277">
        <ele>451</ele>
        <time>2014-10-30T10:51:02.1Z</time>
      </trkpt>
      <trkpt lat="47.82834" lon="6.63284">
        <ele>451</ele>
        <time>2014-10-30T10:51:05.1Z</time>
      </trkpt>
      <trkpt lat="47.82835" lon="6.6329">
        <ele>452</ele>
        <time>2014-10-30T10:51:08.1Z</time>
      </trkpt>
      <trkpt lat="47.82837" lon="6.63293">
        <ele>452</ele>
        <time>2014-10-30T10:51:10.1Z</time>
      </trkpt>
      <trkpt lat="47.82838" lon="6.63295">
        <ele>453</ele>
        <time>2014-10-30T10:51:12.1Z</time>
      </trkpt>
      <trkpt lat="47.82839" lon="6.63298">
        <ele>453</ele>
        <time>2014-10-30T10:51:14.1Z</time>
      </trkpt>
      <trkpt lat="47.8284" lon="6.633">
        <ele>453</ele>
        <time>2014-10-30T10:51:16.1Z</time>
      </trkpt>
      <trkpt lat="47.82843" lon="6.63302">
        <ele>454</ele>
        <time>2014-10-30T10:51:19.1Z</time>
      </trkpt>
      <trkpt lat="47.82845" lon="6.63303">
        <ele>455</ele>
        <time>2014-10-30T10:51:21.1Z</time>
      </trkpt>
      <trkpt lat="47.82847" lon="6.63305">
        <ele>455</ele>
        <time>2014-10-30T10:51:23.1Z</time>
      </trkpt>
      <trkpt lat="47.82848" lon="6.63308">
        <ele>456</ele>
        <time>2014-10-30T10:51:26.1Z</time>
      </trkpt>
      <trkpt lat="47.82851" lon="6.63309">
        <ele>456</ele>
        <time>2014-10-30T10:51:28.1Z</time>
      </trkpt>
      <trkpt lat="47.82852" lon="6.63311">
        <ele>456</ele>
        <time>2014-10-30T10:51:30.1Z</time>
      </trkpt>
      <trkpt lat="47.82854" lon="6.63313">
        <ele>456</ele>
        <time>2014-10-30T10:51:33.1Z</time>
      </trkpt>
      <trkpt lat="47.82856" lon="6.63316">
        <ele>457</ele>
        <time>2014-10-30T10:51:36.1Z</time>
      </trkpt>
      <trkpt lat="47.82856" lon="6.63318">
        <ele>457</ele>
        <time>2014-10-30T10:51:38.1Z</time>
      </trkpt>
      <trkpt lat="47.82857" lon="6.63319">
        <ele>457</ele>
        <time>2014-10-30T10:51:40.1Z</time>
      </trkpt>
      <trkpt lat="47.82859" lon="6.63319">
        <ele>457</ele>
        <time>2014-10-30T10:51:43.1Z</time>
      </trkpt>
      <trkpt lat="47.82859" lon="6.6332">
        <ele>457</ele>
        <time>2014-10-30T10:51:46.1Z</time>
      </trkpt>
      <trkpt lat="47.8286" lon="6.6332">
        <ele>458</ele>
        <time>2014-10-30T10:51:48.1Z</time>
      </trkpt>
      <trkpt lat="47.82861" lon="6.63321">
        <ele>458</ele>
        <time>2014-10-30T10:51:50.1Z</time>
      </trkpt>
      <trkpt lat="47.82862" lon="6.63321">
        <ele>458</ele>
        <time>2014-10-30T10:51:52.1Z</time>
      </trkpt>
      <trkpt lat="47.82864" lon="6.63321">
        <ele>458</ele>
        <time>2014-10-30T10:51:55.1Z</time>
      </trkpt>
      <trkpt lat="47.82864" lon="6.63321">
        <ele>457</ele>
        <time>2014-10-30T10:51:57.1Z</time>
      </trkpt>
      <trkpt lat="47.82864" lon="6.63322">
        <ele>458</ele>
        <time>2014-10-30T10:52:00.1Z</time>
      </trkpt>
      <trkpt lat="47.82864" lon="6.63322">
        <ele>457</ele>
        <time>2014-10-30T10:52:02.1Z</time>
      </trkpt>
      <trkpt lat="47.82865" lon="6.63322">
        <ele>458</ele>
        <time>2014-10-30T10:52:06.1Z</time>
      </trkpt>
      <trkpt lat="47.82866" lon="6.63323">
        <ele>458</ele>
        <time>2014-10-30T10:52:08.1Z</time>
      </trkpt>
      <trkpt lat="47.82868" lon="6.63325">
        <ele>458</ele>
        <time>2014-10-30T10:52:11.1Z</time>
      </trkpt>
      <trkpt lat="47.8287" lon="6.63328">
        <ele>458</ele>
        <time>2014-10-30T10:52:14.1Z</time>
      </trkpt>
      <trkpt lat="47.82872" lon="6.6333">
        <ele>458</ele>
        <time>2014-10-30T10:52:16.1Z</time>
      </trkpt>
      <trkpt lat="47.82873" lon="6.63333">
        <ele>459</ele>
        <time>2014-10-30T10:52:19.1Z</time>
      </trkpt>
      <trkpt lat="47.82876" lon="6.63335">
        <ele>460</ele>
        <time>2014-10-30T10:52:22.1Z</time>
      </trkpt>
      <trkpt lat="47.82877" lon="6.63337">
        <ele>461</ele>
        <time>2014-10-30T10:52:24.1Z</time>
      </trkpt>
      <trkpt lat="47.82878" lon="6.6334">
        <ele>461</ele>
        <time>2014-10-30T10:52:27.1Z</time>
      </trkpt>
      <trkpt lat="47.82879" lon="6.63343">
        <ele>461</ele>
        <time>2014-10-30T10:52:29.1Z</time>
      </trkpt>
      <trkpt lat="47.8288" lon="6.63344">
        <ele>461</ele>
        <time>2014-10-30T10:52:31.1Z</time>
      </trkpt>
      <trkpt lat="47.82881" lon="6.63346">
        <ele>462</ele>
        <time>2014-10-30T10:52:33.1Z</time>
      </trkpt>
      <trkpt lat="47.82883" lon="6.63349">
        <ele>462</ele>
        <time>2014-10-30T10:52:36.1Z</time>
      </trkpt>
      <trkpt lat="47.82885" lon="6.63352">
        <ele>463</ele>
        <time>2014-10-30T10:52:38.1Z</time>
      </trkpt>
      <trkpt lat="47.82887" lon="6.63355">
        <ele>463</ele>
        <time>2014-10-30T10:52:41.1Z</time>
      </trkpt>
      <trkpt lat="47.82889" lon="6.63359">
        <ele>463</ele>
        <time>2014-10-30T10:52:44.1Z</time>
      </trkpt>
      <trkpt lat="47.8289" lon="6.63362">
        <ele>463</ele>
        <time>2014-10-30T10:52:46.1Z</time>
      </trkpt>
      <trkpt lat="47.82891" lon="6.63364">
        <ele>463</ele>
        <time>2014-10-30T10:52:48.1Z</time>
      </trkpt>
      <trkpt lat="47.82893" lon="6.63368">
        <ele>463</ele>
        <time>2014-10-30T10:52:51.1Z</time>
      </trkpt>
      <trkpt lat="47.82894" lon="6.63372">
        <ele>463</ele>
        <time>2014-10-30T10:52:54.1Z</time>
      </trkpt>
      <trkpt lat="47.82895" lon="6.63375">
        <ele>464</ele>
        <time>2014-10-30T10:52:56.1Z</time>
      </trkpt>
      <trkpt lat="47.82897" lon="6.63378">
        <ele>464</ele>
        <time>2014-10-30T10:52:59.1Z</time>
      </trkpt>
      <trkpt lat="47.82898" lon="6.6338">
        <ele>464</ele>
        <time>2014-10-30T10:53:01.1Z</time>
      </trkpt>
      <trkpt lat="47.82899" lon="6.63383">
        <ele>465</ele>
        <time>2014-10-30T10:53:03.1Z</time>
      </trkpt>
      <trkpt lat="47.829" lon="6.63386">
        <ele>465</ele>
        <time>2014-10-30T10:53:05.1Z</time>
      </trkpt>
      <trkpt lat="47.82901" lon="6.63388">
        <ele>465</ele>
        <time>2014-10-30T10:53:07.1Z</time>
      </trkpt>
      <trkpt lat="47.82904" lon="6.63393">
        <ele>465</ele>
        <time>2014-10-30T10:53:10.1Z</time>
      </trkpt>
      <trkpt lat="47.82905" lon="6.63397">
        <ele>465</ele>
        <time>2014-10-30T10:53:12.1Z</time>
      </trkpt>
      <trkpt lat="47.82906" lon="6.63402">
        <ele>466</ele>
        <time>2014-10-30T10:53:15.1Z</time>
      </trkpt>
      <trkpt lat="47.82907" lon="6.63405">
        <ele>466</ele>
        <time>2014-10-30T10:53:17.1Z</time>
      </trkpt>
      <trkpt lat="47.82908" lon="6.63407">
        <ele>466</ele>
        <time>2014-10-30T10:53:19.1Z</time>
      </trkpt>
      <trkpt lat="47.82909" lon="6.63411">
        <ele>467</ele>
        <time>2014-10-30T10:53:21.1Z</time>
      </trkpt>
      <trkpt lat="47.82911" lon="6.63415">
        <ele>467</ele>
        <time>2014-10-30T10:53:24.1Z</time>
      </trkpt>
      <trkpt lat="47.82911" lon="6.63417">
        <ele>467</ele>
        <time>2014-10-30T10:53:26.1Z</time>
      </trkpt>
      <trkpt lat="47.82912" lon="6.6342">
        <ele>468</ele>
        <time>2014-10-30T10:53:28.1Z</time>
      </trkpt>
      <trkpt lat="47.82912" lon="6.63423">
        <ele>468</ele>
        <time>2014-10-30T10:53:30.1Z</time>
      </trkpt>
      <trkpt lat="47.82914" lon="6.63428">
        <ele>468</ele>
        <time>2014-10-30T10:53:33.1Z</time>
      </trkpt>
      <trkpt lat="47.82916" lon="6.63431">
        <ele>468</ele>
        <time>2014-10-30T10:53:35.1Z</time>
      </trkpt>
      <trkpt lat="47.82918" lon="6.63433">
        <ele>469</ele>
        <time>2014-10-30T10:53:38.1Z</time>
      </trkpt>
      <trkpt lat="47.8292" lon="6.63434">
        <ele>469</ele>
        <time>2014-10-30T10:53:40.1Z</time>
      </trkpt>
      <trkpt lat="47.82922" lon="6.63436">
        <ele>470</ele>
        <time>2014-10-30T10:53:42.1Z</time>
      </trkpt>
      <trkpt lat="47.82923" lon="6.63437">
        <ele>470</ele>
        <time>2014-10-30T10:53:44.1Z</time>
      </trkpt>
      <trkpt lat="47.82923" lon="6.63438">
        <ele>470</ele>
        <time>2014-10-30T10:53:47.1Z</time>
      </trkpt>
      <trkpt lat="47.82924" lon="6.63439">
        <ele>471</ele>
        <time>2014-10-30T10:53:50.1Z</time>
      </trkpt>
      <trkpt lat="47.82925" lon="6.63439">
        <ele>471</ele>
        <time>2014-10-30T10:53:53.1Z</time>
      </trkpt>
      <trkpt lat="47.82927" lon="6.6344">
        <ele>471</ele>
        <time>2014-10-30T10:53:55.1Z</time>
      </trkpt>
      <trkpt lat="47.82928" lon="6.63441">
        <ele>471</ele>
        <time>2014-10-30T10:53:57.1Z</time>
      </trkpt>
      <trkpt lat="47.82929" lon="6.63445">
        <ele>470</ele>
        <time>2014-10-30T10:54:00.1Z</time>
      </trkpt>
      <trkpt lat="47.82931" lon="6.63448">
        <ele>470</ele>
        <time>2014-10-30T10:54:02.1Z</time>
      </trkpt>
      <trkpt lat="47.82933" lon="6.63453">
        <ele>471</ele>
        <time>2014-10-30T10:54:05.1Z</time>
      </trkpt>
      <trkpt lat="47.82936" lon="6.63457">
        <ele>471</ele>
        <time>2014-10-30T10:54:08.1Z</time>
      </trkpt>
      <trkpt lat="47.82938" lon="6.6346">
        <ele>470</ele>
        <time>2014-10-30T10:54:10.1Z</time>
      </trkpt>
      <trkpt lat="47.82939" lon="6.63463">
        <ele>471</ele>
        <time>2014-10-30T10:54:12.1Z</time>
      </trkpt>
      <trkpt lat="47.82943" lon="6.63468">
        <ele>471</ele>
        <time>2014-10-30T10:54:15.1Z</time>
      </trkpt>
      <trkpt lat="47.82946" lon="6.63474">
        <ele>471</ele>
        <time>2014-10-30T10:54:18.1Z</time>
      </trkpt>
      <trkpt lat="47.82947" lon="6.63478">
        <ele>471</ele>
        <time>2014-10-30T10:54:20.1Z</time>
      </trkpt>
      <trkpt lat="47.82948" lon="6.63482">
        <ele>472</ele>
        <time>2014-10-30T10:54:22.1Z</time>
      </trkpt>
      <trkpt lat="47.82949" lon="6.63488">
        <ele>473</ele>
        <time>2014-10-30T10:54:25.1Z</time>
      </trkpt>
      <trkpt lat="47.8295" lon="6.63493">
        <ele>473</ele>
        <time>2014-10-30T10:54:28.1Z</time>
      </trkpt>
      <trkpt lat="47.82951" lon="6.63497">
        <ele>474</ele>
        <time>2014-10-30T10:54:30.1Z</time>
      </trkpt>
      <trkpt lat="47.82951" lon="6.63501">
        <ele>474</ele>
        <time>2014-10-30T10:54:32.1Z</time>
      </trkpt>
      <trkpt lat="47.82953" lon="6.63507">
        <ele>474</ele>
        <time>2014-10-30T10:54:35.1Z</time>
      </trkpt>
      <trkpt lat="47.82954" lon="6.63511">
        <ele>475</ele>
        <time>2014-10-30T10:54:37.1Z</time>
      </trkpt>
      <trkpt lat="47.82955" lon="6.63515">
        <ele>475</ele>
        <time>2014-10-30T10:54:39.1Z</time>
      </trkpt>
      <trkpt lat="47.82958" lon="6.6352">
        <ele>476</ele>
        <time>2014-10-30T10:54:42.1Z</time>
      </trkpt>
      <trkpt lat="47.8296" lon="6.63526">
        <ele>476</ele>
        <time>2014-10-30T10:54:45.1Z</time>
      </trkpt>
      <trkpt lat="47.82963" lon="6.63531">
        <ele>476</ele>
        <time>2014-10-30T10:54:48.1Z</time>
      </trkpt>
      <trkpt lat="47.82964" lon="6.63534">
        <ele>476</ele>
        <time>2014-10-30T10:54:50.1Z</time>
      </trkpt>
      <trkpt lat="47.82965" lon="6.63537">
        <ele>477</ele>
        <time>2014-10-30T10:54:52.1Z</time>
      </trkpt>
      <trkpt lat="47.82968" lon="6.63543">
        <ele>477</ele>
        <time>2014-10-30T10:54:55.1Z</time>
      </trkpt>
      <trkpt lat="47.82972" lon="6.63555">
        <ele>476</ele>
        <time>2014-10-30T10:54:58.1Z</time>
      </trkpt>
      <trkpt lat="47.82972" lon="6.63565">
        <ele>476</ele>
        <time>2014-10-30T10:55:00.1Z</time>
      </trkpt>
      <trkpt lat="47.82972" lon="6.63577">
        <ele>475</ele>
        <time>2014-10-30T10:55:02.1Z</time>
      </trkpt>
      <trkpt lat="47.82974" lon="6.63604">
        <ele>474</ele>
        <time>2014-10-30T10:55:05.1Z</time>
      </trkpt>
      <trkpt lat="47.82982" lon="6.63629">
        <ele>472</ele>
        <time>2014-10-30T10:55:08.1Z</time>
      </trkpt>
      <trkpt lat="47.82991" lon="6.63646">
        <ele>470</ele>
        <time>2014-10-30T10:55:11.1Z</time>
      </trkpt>
      <trkpt lat="47.82998" lon="6.63658">
        <ele>470</ele>
        <time>2014-10-30T10:55:14.1Z</time>
      </trkpt>
      <trkpt lat="47.83001" lon="6.63665">
        <ele>470</ele>
        <time>2014-10-30T10:55:16.1Z</time>
      </trkpt>
      <trkpt lat="47.83005" lon="6.63672">
        <ele>471</ele>
        <time>2014-10-30T10:55:19.1Z</time>
      </trkpt>
      <trkpt lat="47.83008" lon="6.63677">
        <ele>471</ele>
        <time>2014-10-30T10:55:21.1Z</time>
      </trkpt>
      <trkpt lat="47.83011" lon="6.63681">
        <ele>472</ele>
        <time>2014-10-30T10:55:23.1Z</time>
      </trkpt>
      <trkpt lat="47.83015" lon="6.63685">
        <ele>472</ele>
        <time>2014-10-30T10:55:25.1Z</time>
      </trkpt>
      <trkpt lat="47.83019" lon="6.63693">
        <ele>473</ele>
        <time>2014-10-30T10:55:28.1Z</time>
      </trkpt>
      <trkpt lat="47.83023" lon="6.63702">
        <ele>473</ele>
        <time>2014-10-30T10:55:31.1Z</time>
      </trkpt>
      <trkpt lat="47.83026" lon="6.63708">
        <ele>473</ele>
        <time>2014-10-30T10:55:33.1Z</time>
      </trkpt>
      <trkpt lat="47.83029" lon="6.63714">
        <ele>473</ele>
        <time>2014-10-30T10:55:35.1Z</time>
      </trkpt>
      <trkpt lat="47.83032" lon="6.63718">
        <ele>473</ele>
        <time>2014-10-30T10:55:37.1Z</time>
      </trkpt>
      <trkpt lat="47.83036" lon="6.63721">
        <ele>473</ele>
        <time>2014-10-30T10:55:39.1Z</time>
      </trkpt>
      <trkpt lat="47.83041" lon="6.63725">
        <ele>473</ele>
        <time>2014-10-30T10:55:42.1Z</time>
      </trkpt>
      <trkpt lat="47.83046" lon="6.63729">
        <ele>474</ele>
        <time>2014-10-30T10:55:45.1Z</time>
      </trkpt>
      <trkpt lat="47.8305" lon="6.6373">
        <ele>475</ele>
        <time>2014-10-30T10:55:48.1Z</time>
      </trkpt>
      <trkpt lat="47.83053" lon="6.63734">
        <ele>475</ele>
        <time>2014-10-30T10:55:50.1Z</time>
      </trkpt>
      <trkpt lat="47.83058" lon="6.63739">
        <ele>475</ele>
        <time>2014-10-30T10:55:53.1Z</time>
      </trkpt>
      <trkpt lat="47.83061" lon="6.63742">
        <ele>475</ele>
        <time>2014-10-30T10:55:55.1Z</time>
      </trkpt>
      <trkpt lat="47.83065" lon="6.63748">
        <ele>476</ele>
        <time>2014-10-30T10:55:58.1Z</time>
      </trkpt>
      <trkpt lat="47.83068" lon="6.63752">
        <ele>476</ele>
        <time>2014-10-30T10:56:00.1Z</time>
      </trkpt>
      <trkpt lat="47.83071" lon="6.63754">
        <ele>477</ele>
        <time>2014-10-30T10:56:02.1Z</time>
      </trkpt>
      <trkpt lat="47.83075" lon="6.63758">
        <ele>477</ele>
        <time>2014-10-30T10:56:05.1Z</time>
      </trkpt>
      <trkpt lat="47.83079" lon="6.63761">
        <ele>477</ele>
        <time>2014-10-30T10:56:08.1Z</time>
      </trkpt>
      <trkpt lat="47.83081" lon="6.63764">
        <ele>478</ele>
        <time>2014-10-30T10:56:11.1Z</time>
      </trkpt>
      <trkpt lat="47.83083" lon="6.63765">
        <ele>478</ele>
        <time>2014-10-30T10:56:13.1Z</time>
      </trkpt>
      <trkpt lat="47.83084" lon="6.63766">
        <ele>478</ele>
        <time>2014-10-30T10:56:15.1Z</time>
      </trkpt>
      <trkpt lat="47.83085" lon="6.63766">
        <ele>478</ele>
        <time>2014-10-30T10:56:17.1Z</time>
      </trkpt>
      <trkpt lat="47.83087" lon="6.63767">
        <ele>479</ele>
        <time>2014-10-30T10:56:20.1Z</time>
      </trkpt>
      <trkpt lat="47.83089" lon="6.63767">
        <ele>479</ele>
        <time>2014-10-30T10:56:23.1Z</time>
      </trkpt>
      <trkpt lat="47.8309" lon="6.63768">
        <ele>479</ele>
        <time>2014-10-30T10:56:26.1Z</time>
      </trkpt>
      <trkpt lat="47.83091" lon="6.63768">
        <ele>478</ele>
        <time>2014-10-30T10:56:29.1Z</time>
      </trkpt>
      <trkpt lat="47.83092" lon="6.63769">
        <ele>478</ele>
        <time>2014-10-30T10:56:32.1Z</time>
      </trkpt>
      <trkpt lat="47.83093" lon="6.63769">
        <ele>478</ele>
        <time>2014-10-30T10:56:35.1Z</time>
      </trkpt>
      <trkpt lat="47.83094" lon="6.6377">
        <ele>478</ele>
        <time>2014-10-30T10:56:37.1Z</time>
      </trkpt>
      <trkpt lat="47.83094" lon="6.63772">
        <ele>478</ele>
        <time>2014-10-30T10:56:39.1Z</time>
      </trkpt>
      <trkpt lat="47.83097" lon="6.63777">
        <ele>478</ele>
        <time>2014-10-30T10:56:42.1Z</time>
      </trkpt>
      <trkpt lat="47.83098" lon="6.63782">
        <ele>478</ele>
        <time>2014-10-30T10:56:44.1Z</time>
      </trkpt>
      <trkpt lat="47.83102" lon="6.63791">
        <ele>477</ele>
        <time>2014-10-30T10:56:47.1Z</time>
      </trkpt>
      <trkpt lat="47.83107" lon="6.63797">
        <ele>477</ele>
        <time>2014-10-30T10:56:50.1Z</time>
      </trkpt>
      <trkpt lat="47.83114" lon="6.63802">
        <ele>477</ele>
        <time>2014-10-30T10:56:53.1Z</time>
      </trkpt>
      <trkpt lat="47.8312" lon="6.63808">
        <ele>477</ele>
        <time>2014-10-30T10:56:56.1Z</time>
      </trkpt>
      <trkpt lat="47.83122" lon="6.63812">
        <ele>477</ele>
        <time>2014-10-30T10:56:58.1Z</time>
      </trkpt>
      <trkpt lat="47.83124" lon="6.63815">
        <ele>478</ele>
        <time>2014-10-30T10:57:00.1Z</time>
      </trkpt>
      <trkpt lat="47.83127" lon="6.63818">
        <ele>478</ele>
        <time>2014-10-30T10:57:02.1Z</time>
      </trkpt>
      <trkpt lat="47.83133" lon="6.63824">
        <ele>478</ele>
        <time>2014-10-30T10:57:05.1Z</time>
      </trkpt>
      <trkpt lat="47.83135" lon="6.63829">
        <ele>478</ele>
        <time>2014-10-30T10:57:07.1Z</time>
      </trkpt>
      <trkpt lat="47.83138" lon="6.63836">
        <ele>479</ele>
        <time>2014-10-30T10:57:10.1Z</time>
      </trkpt>
      <trkpt lat="47.83142" lon="6.63845">
        <ele>479</ele>
        <time>2014-10-30T10:57:13.1Z</time>
      </trkpt>
      <trkpt lat="47.83144" lon="6.63851">
        <ele>479</ele>
        <time>2014-10-30T10:57:16.1Z</time>
      </trkpt>
      <trkpt lat="47.83144" lon="6.63857">
        <ele>479</ele>
        <time>2014-10-30T10:57:18.1Z</time>
      </trkpt>
      <trkpt lat="47.83144" lon="6.63863">
        <ele>479</ele>
        <time>2014-10-30T10:57:20.1Z</time>
      </trkpt>
      <trkpt lat="47.83146" lon="6.63873">
        <ele>479</ele>
        <time>2014-10-30T10:57:23.1Z</time>
      </trkpt>
      <trkpt lat="47.83147" lon="6.63877">
        <ele>480</ele>
        <time>2014-10-30T10:57:26.1Z</time>
      </trkpt>
      <trkpt lat="47.83147" lon="6.63878">
        <ele>480</ele>
        <time>2014-10-30T10:57:28.1Z</time>
      </trkpt>
      <trkpt lat="47.83147" lon="6.6388">
        <ele>480</ele>
        <time>2014-10-30T10:57:31.1Z</time>
      </trkpt>
      <trkpt lat="47.83147" lon="6.63882">
        <ele>480</ele>
        <time>2014-10-30T10:57:33.1Z</time>
      </trkpt>
      <trkpt lat="47.83147" lon="6.63883">
        <ele>480</ele>
        <time>2014-10-30T10:57:35.1Z</time>
      </trkpt>
      <trkpt lat="47.83147" lon="6.63885">
        <ele>480</ele>
        <time>2014-10-30T10:57:38.1Z</time>
      </trkpt>
      <trkpt lat="47.83148" lon="6.63886">
        <ele>480</ele>
        <time>2014-10-30T10:57:41.1Z</time>
      </trkpt>
      <trkpt lat="47.83148" lon="6.63887">
        <ele>480</ele>
        <time>2014-10-30T10:57:44.1Z</time>
      </trkpt>
      <trkpt lat="47.83149" lon="6.63888">
        <ele>480</ele>
        <time>2014-10-30T10:57:46.1Z</time>
      </trkpt>
      <trkpt lat="47.83149" lon="6.63888">
        <ele>480</ele>
        <time>2014-10-30T10:57:49.1Z</time>
      </trkpt>
      <trkpt lat="47.83149" lon="6.6389">
        <ele>480</ele>
        <time>2014-10-30T10:57:52.1Z</time>
      </trkpt>
      <trkpt lat="47.8315" lon="6.6389">
        <ele>480</ele>
        <time>2014-10-30T10:57:54.1Z</time>
      </trkpt>
      <trkpt lat="47.83149" lon="6.63891">
        <ele>480</ele>
        <time>2014-10-30T10:57:57.1Z</time>
      </trkpt>
      <trkpt lat="47.8315" lon="6.63893">
        <ele>480</ele>
        <time>2014-10-30T10:58:00.1Z</time>
      </trkpt>
      <trkpt lat="47.83152" lon="6.639">
        <ele>480</ele>
        <time>2014-10-30T10:58:03.1Z</time>
      </trkpt>
      <trkpt lat="47.83156" lon="6.63907">
        <ele>480</ele>
        <time>2014-10-30T10:58:06.1Z</time>
      </trkpt>
      <trkpt lat="47.83162" lon="6.63916">
        <ele>479</ele>
        <time>2014-10-30T10:58:09.1Z</time>
      </trkpt>
      <trkpt lat="47.83166" lon="6.63923">
        <ele>479</ele>
        <time>2014-10-30T10:58:11.1Z</time>
      </trkpt>
      <trkpt lat="47.8317" lon="6.63929">
        <ele>479</ele>
        <time>2014-10-30T10:58:13.1Z</time>
      </trkpt>
      <trkpt lat="47.83176" lon="6.63941">
        <ele>479</ele>
        <time>2014-10-30T10:58:16.1Z</time>
      </trkpt>
      <trkpt lat="47.83183" lon="6.63955">
        <ele>480</ele>
        <time>2014-10-30T10:58:19.1Z</time>
      </trkpt>
      <trkpt lat="47.83188" lon="6.63963">
        <ele>480</ele>
        <time>2014-10-30T10:58:21.1Z</time>
      </trkpt>
      <trkpt lat="47.83192" lon="6.6397">
        <ele>481</ele>
        <time>2014-10-30T10:58:23.1Z</time>
      </trkpt>
      <trkpt lat="47.83198" lon="6.6398">
        <ele>482</ele>
        <time>2014-10-30T10:58:26.1Z</time>
      </trkpt>
      <trkpt lat="47.83202" lon="6.63986">
        <ele>483</ele>
        <time>2014-10-30T10:58:28.1Z</time>
      </trkpt>
      <trkpt lat="47.83207" lon="6.63992">
        <ele>483</ele>
        <time>2014-10-30T10:58:30.1Z</time>
      </trkpt>
      <trkpt lat="47.83216" lon="6.63999">
        <ele>483</ele>
        <time>2014-10-30T10:58:33.1Z</time>
      </trkpt>
      <trkpt lat="47.83221" lon="6.64001">
        <ele>483</ele>
        <time>2014-10-30T10:58:35.1Z</time>
      </trkpt>
      <trkpt lat="47.83227" lon="6.64002">
        <ele>483</ele>
        <time>2014-10-30T10:58:37.1Z</time>
      </trkpt>
      <trkpt lat="47.83234" lon="6.64003">
        <ele>483</ele>
        <time>2014-10-30T10:58:39.1Z</time>
      </trkpt>
      <trkpt lat="47.83241" lon="6.64008">
        <ele>484</ele>
        <time>2014-10-30T10:58:42.1Z</time>
      </trkpt>
      <trkpt lat="47.83245" lon="6.64013">
        <ele>484</ele>
        <time>2014-10-30T10:58:44.1Z</time>
      </trkpt>
      <trkpt lat="47.83252" lon="6.64022">
        <ele>484</ele>
        <time>2014-10-30T10:58:47.1Z</time>
      </trkpt>
      <trkpt lat="47.83257" lon="6.6403">
        <ele>485</ele>
        <time>2014-10-30T10:58:50.1Z</time>
      </trkpt>
      <trkpt lat="47.83259" lon="6.64035">
        <ele>485</ele>
        <time>2014-10-30T10:58:52.1Z</time>
      </trkpt>
      <trkpt lat="47.83262" lon="6.64042">
        <ele>485</ele>
        <time>2014-10-30T10:58:55.1Z</time>
      </trkpt>
      <trkpt lat="47.83269" lon="6.64049">
        <ele>486</ele>
        <time>2014-10-30T10:58:58.1Z</time>
      </trkpt>
      <trkpt lat="47.83276" lon="6.64057">
        <ele>486</ele>
        <time>2014-10-30T10:59:01.1Z</time>
      </trkpt>
      <trkpt lat="47.83281" lon="6.64062">
        <ele>487</ele>
        <time>2014-10-30T10:59:03.1Z</time>
      </trkpt>
      <trkpt lat="47.83287" lon="6.64072">
        <ele>487</ele>
        <time>2014-10-30T10:59:06.1Z</time>
      </trkpt>
      <trkpt lat="47.83291" lon="6.64079">
        <ele>487</ele>
        <time>2014-10-30T10:59:08.1Z</time>
      </trkpt>
      <trkpt lat="47.83297" lon="6.64087">
        <ele>487</ele>
        <time>2014-10-30T10:59:11.1Z</time>
      </trkpt>
      <trkpt lat="47.83301" lon="6.64093">
        <ele>487</ele>
        <time>2014-10-30T10:59:13.1Z</time>
      </trkpt>
      <trkpt lat="47.83305" lon="6.64102">
        <ele>487</ele>
        <time>2014-10-30T10:59:16.1Z</time>
      </trkpt>
      <trkpt lat="47.83309" lon="6.64108">
        <ele>487</ele>
        <time>2014-10-30T10:59:18.1Z</time>
      </trkpt>
      <trkpt lat="47.83312" lon="6.64114">
        <ele>487</ele>
        <time>2014-10-30T10:59:20.1Z</time>
      </trkpt>
      <trkpt lat="47.83316" lon="6.64123">
        <ele>488</ele>
        <time>2014-10-30T10:59:23.1Z</time>
      </trkpt>
      <trkpt lat="47.83319" lon="6.64128">
        <ele>488</ele>
        <time>2014-10-30T10:59:25.1Z</time>
      </trkpt>
      <trkpt lat="47.83323" lon="6.64136">
        <ele>489</ele>
        <time>2014-10-30T10:59:28.1Z</time>
      </trkpt>
      <trkpt lat="47.83326" lon="6.64144">
        <ele>489</ele>
        <time>2014-10-30T10:59:31.1Z</time>
      </trkpt>
      <trkpt lat="47.83331" lon="6.6415">
        <ele>489</ele>
        <time>2014-10-30T10:59:34.1Z</time>
      </trkpt>
      <trkpt lat="47.83335" lon="6.64155">
        <ele>490</ele>
        <time>2014-10-30T10:59:36.1Z</time>
      </trkpt>
      <trkpt lat="47.83339" lon="6.64161">
        <ele>490</ele>
        <time>2014-10-30T10:59:39.1Z</time>
      </trkpt>
      <trkpt lat="47.83343" lon="6.64168">
        <ele>490</ele>
        <time>2014-10-30T10:59:42.1Z</time>
      </trkpt>
      <trkpt lat="47.83347" lon="6.64174">
        <ele>490</ele>
        <time>2014-10-30T10:59:44.1Z</time>
      </trkpt>
      <trkpt lat="47.83353" lon="6.64182">
        <ele>490</ele>
        <time>2014-10-30T10:59:47.1Z</time>
      </trkpt>
      <trkpt lat="47.83356" lon="6.64188">
        <ele>490</ele>
        <time>2014-10-30T10:59:49.1Z</time>
      </trkpt>
      <trkpt lat="47.83358" lon="6.64193">
        <ele>491</ele>
        <time>2014-10-30T10:59:51.1Z</time>
      </trkpt>
      <trkpt lat="47.83361" lon="6.64199">
        <ele>491</ele>
        <time>2014-10-30T10:59:53.1Z</time>
      </trkpt>
      <trkpt lat="47.83366" lon="6.64208">
        <ele>491</ele>
        <time>2014-10-30T10:59:56.1Z</time>
      </trkpt>
      <trkpt lat="47.8337" lon="6.64214">
        <ele>491</ele>
        <time>2014-10-30T10:59:58.1Z</time>
      </trkpt>
      <trkpt lat="47.83376" lon="6.64222">
        <ele>492</ele>
        <time>2014-10-30T11:00:01.1Z</time>
      </trkpt>
      <trkpt lat="47.83379" lon="6.64228">
        <ele>492</ele>
        <time>2014-10-30T11:00:03.1Z</time>
      </trkpt>
      <trkpt lat="47.83382" lon="6.64234">
        <ele>492</ele>
        <time>2014-10-30T11:00:05.1Z</time>
      </trkpt>
      <trkpt lat="47.83388" lon="6.64243">
        <ele>492</ele>
        <time>2014-10-30T11:00:08.1Z</time>
      </trkpt>
      <trkpt lat="47.83393" lon="6.6425">
        <ele>492</ele>
        <time>2014-10-30T11:00:10.1Z</time>
      </trkpt>
      <trkpt lat="47.83401" lon="6.64262">
        <ele>492</ele>
        <time>2014-10-30T11:00:13.1Z</time>
      </trkpt>
      <trkpt lat="47.83409" lon="6.64271">
        <ele>492</ele>
        <time>2014-10-30T11:00:15.1Z</time>
      </trkpt>
      <trkpt lat="47.83421" lon="6.64284">
        <ele>491</ele>
        <time>2014-10-30T11:00:18.1Z</time>
      </trkpt>
      <trkpt lat="47.83429" lon="6.64295">
        <ele>491</ele>
        <time>2014-10-30T11:00:20.1Z</time>
      </trkpt>
      <trkpt lat="47.83438" lon="6.64304">
        <ele>490</ele>
        <time>2014-10-30T11:00:22.1Z</time>
      </trkpt>
      <trkpt lat="47.83446" lon="6.64315">
        <ele>490</ele>
        <time>2014-10-30T11:00:24.1Z</time>
      </trkpt>
      <trkpt lat="47.83459" lon="6.64332">
        <ele>490</ele>
        <time>2014-10-30T11:00:27.1Z</time>
      </trkpt>
      <trkpt lat="47.83467" lon="6.64342">
        <ele>490</ele>
        <time>2014-10-30T11:00:29.1Z</time>
      </trkpt>
      <trkpt lat="47.83478" lon="6.64357">
        <ele>491</ele>
        <time>2014-10-30T11:00:32.1Z</time>
      </trkpt>
      <trkpt lat="47.83485" lon="6.64367">
        <ele>491</ele>
        <time>2014-10-30T11:00:34.1Z</time>
      </trkpt>
      <trkpt lat="47.83496" lon="6.64382">
        <ele>492</ele>
        <time>2014-10-30T11:00:37.1Z</time>
      </trkpt>
      <trkpt lat="47.83503" lon="6.64392">
        <ele>492</ele>
        <time>2014-10-30T11:00:39.1Z</time>
      </trkpt>
      <trkpt lat="47.83509" lon="6.64402">
        <ele>492</ele>
        <time>2014-10-30T11:00:41.1Z</time>
      </trkpt>
      <trkpt lat="47.83514" lon="6.6441">
        <ele>493</ele>
        <time>2014-10-30T11:00:43.1Z</time>
      </trkpt>
      <trkpt lat="47.83521" lon="6.64423">
        <ele>493</ele>
        <time>2014-10-30T11:00:46.1Z</time>
      </trkpt>
      <trkpt lat="47.83527" lon="6.64429">
        <ele>493</ele>
        <time>2014-10-30T11:00:48.1Z</time>
      </trkpt>
      <trkpt lat="47.83533" lon="6.64439">
        <ele>494</ele>
        <time>2014-10-30T11:00:51.1Z</time>
      </trkpt>
      <trkpt lat="47.83537" lon="6.64444">
        <ele>495</ele>
        <time>2014-10-30T11:00:53.1Z</time>
      </trkpt>
      <trkpt lat="47.83541" lon="6.6445">
        <ele>495</ele>
        <time>2014-10-30T11:00:55.1Z</time>
      </trkpt>
      <trkpt lat="47.83546" lon="6.64458">
        <ele>496</ele>
        <time>2014-10-30T11:00:58.1Z</time>
      </trkpt>
      <trkpt lat="47.83549" lon="6.64463">
        <ele>496</ele>
        <time>2014-10-30T11:01:00.1Z</time>
      </trkpt>
      <trkpt lat="47.83553" lon="6.64469">
        <ele>496</ele>
        <time>2014-10-30T11:01:02.1Z</time>
      </trkpt>
      <trkpt lat="47.83558" lon="6.6448">
        <ele>497</ele>
        <time>2014-10-30T11:01:05.1Z</time>
      </trkpt>
      <trkpt lat="47.83564" lon="6.6449">
        <ele>497</ele>
        <time>2014-10-30T11:01:08.1Z</time>
      </trkpt>
      <trkpt lat="47.83571" lon="6.645">
        <ele>497</ele>
        <time>2014-10-30T11:01:11.1Z</time>
      </trkpt>
      <trkpt lat="47.83575" lon="6.64508">
        <ele>497</ele>
        <time>2014-10-30T11:01:13.1Z</time>
      </trkpt>
      <trkpt lat="47.83583" lon="6.64521">
        <ele>497</ele>
        <time>2014-10-30T11:01:16.1Z</time>
      </trkpt>
      <trkpt lat="47.83591" lon="6.64536">
        <ele>496</ele>
        <time>2014-10-30T11:01:19.1Z</time>
      </trkpt>
      <trkpt lat="47.83597" lon="6.6455">
        <ele>496</ele>
        <time>2014-10-30T11:01:21.1Z</time>
      </trkpt>
      <trkpt lat="47.83603" lon="6.64575">
        <ele>495</ele>
        <time>2014-10-30T11:01:24.1Z</time>
      </trkpt>
      <trkpt lat="47.83604" lon="6.6459">
        <ele>494</ele>
        <time>2014-10-30T11:01:26.1Z</time>
      </trkpt>
      <trkpt lat="47.83602" lon="6.64605">
        <ele>494</ele>
        <time>2014-10-30T11:01:28.1Z</time>
      </trkpt>
      <trkpt lat="47.83601" lon="6.64628">
        <ele>494</ele>
        <time>2014-10-30T11:01:31.1Z</time>
      </trkpt>
      <trkpt lat="47.83605" lon="6.64649">
        <ele>494</ele>
        <time>2014-10-30T11:01:34.1Z</time>
      </trkpt>
      <trkpt lat="47.83607" lon="6.64669">
        <ele>494</ele>
        <time>2014-10-30T11:01:37.1Z</time>
      </trkpt>
      <trkpt lat="47.83611" lon="6.64689">
        <ele>494</ele>
        <time>2014-10-30T11:01:40.1Z</time>
      </trkpt>
      <trkpt lat="47.83614" lon="6.64703">
        <ele>494</ele>
        <time>2014-10-30T11:01:42.1Z</time>
      </trkpt>
      <trkpt lat="47.83619" lon="6.64723">
        <ele>495</ele>
        <time>2014-10-30T11:01:45.1Z</time>
      </trkpt>
      <trkpt lat="47.83621" lon="6.64738">
        <ele>495</ele>
        <time>2014-10-30T11:01:47.1Z</time>
      </trkpt>
      <trkpt lat="47.83623" lon="6.64751">
        <ele>495</ele>
        <time>2014-10-30T11:01:49.1Z</time>
      </trkpt>
      <trkpt lat="47.83626" lon="6.64769">
        <ele>495</ele>
        <time>2014-10-30T11:01:52.1Z</time>
      </trkpt>
      <trkpt lat="47.83627" lon="6.64779">
        <ele>496</ele>
        <time>2014-10-30T11:01:54.1Z</time>
      </trkpt>
      <trkpt lat="47.83625" lon="6.64793">
        <ele>496</ele>
        <time>2014-10-30T11:01:57.1Z</time>
      </trkpt>
      <trkpt lat="47.8362" lon="6.64808">
        <ele>496</ele>
        <time>2014-10-30T11:02:00.1Z</time>
      </trkpt>
      <trkpt lat="47.83618" lon="6.64815">
        <ele>496</ele>
        <time>2014-10-30T11:02:02.1Z</time>
      </trkpt>
      <trkpt lat="47.83617" lon="6.64822">
        <ele>496</ele>
        <time>2014-10-30T11:02:04.1Z</time>
      </trkpt>
      <trkpt lat="47.83616" lon="6.64829">
        <ele>496</ele>
        <time>2014-10-30T11:02:06.1Z</time>
      </trkpt>
      <trkpt lat="47.83616" lon="6.64835">
        <ele>496</ele>
        <time>2014-10-30T11:02:08.1Z</time>
      </trkpt>
      <trkpt lat="47.83616" lon="6.64845">
        <ele>496</ele>
        <time>2014-10-30T11:02:11.1Z</time>
      </trkpt>
      <trkpt lat="47.83616" lon="6.6485">
        <ele>497</ele>
        <time>2014-10-30T11:02:13.1Z</time>
      </trkpt>
      <trkpt lat="47.83615" lon="6.64854">
        <ele>497</ele>
        <time>2014-10-30T11:02:15.1Z</time>
      </trkpt>
      <trkpt lat="47.83616" lon="6.6486">
        <ele>498</ele>
        <time>2014-10-30T11:02:18.1Z</time>
      </trkpt>
      <trkpt lat="47.83617" lon="6.64864">
        <ele>499</ele>
        <time>2014-10-30T11:02:20.1Z</time>
      </trkpt>
      <trkpt lat="47.83619" lon="6.64868">
        <ele>499</ele>
        <time>2014-10-30T11:02:22.1Z</time>
      </trkpt>
      <trkpt lat="47.83621" lon="6.64875">
        <ele>499</ele>
        <time>2014-10-30T11:02:25.1Z</time>
      </trkpt>
      <trkpt lat="47.83624" lon="6.64879">
        <ele>499</ele>
        <time>2014-10-30T11:02:27.1Z</time>
      </trkpt>
      <trkpt lat="47.83626" lon="6.64884">
        <ele>499</ele>
        <time>2014-10-30T11:02:29.1Z</time>
      </trkpt>
      <trkpt lat="47.83628" lon="6.64889">
        <ele>499</ele>
        <time>2014-10-30T11:02:31.1Z</time>
      </trkpt>
      <trkpt lat="47.8363" lon="6.64893">
        <ele>500</ele>
        <time>2014-10-30T11:02:33.1Z</time>
      </trkpt>
      <trkpt lat="47.83631" lon="6.64897">
        <ele>500</ele>
        <time>2014-10-30T11:02:35.1Z</time>
      </trkpt>
      <trkpt lat="47.83632" lon="6.64904">
        <ele>500</ele>
        <time>2014-10-30T11:02:38.1Z</time>
      </trkpt>
      <trkpt lat="47.83633" lon="6.64911">
        <ele>500</ele>
        <time>2014-10-30T11:02:41.1Z</time>
      </trkpt>
      <trkpt lat="47.83634" lon="6.64915">
        <ele>501</ele>
        <time>2014-10-30T11:02:43.1Z</time>
      </trkpt>
      <trkpt lat="47.83634" lon="6.64921">
        <ele>501</ele>
        <time>2014-10-30T11:02:46.1Z</time>
      </trkpt>
      <trkpt lat="47.83633" lon="6.64925">
        <ele>501</ele>
        <time>2014-10-30T11:02:48.1Z</time>
      </trkpt>
      <trkpt lat="47.83633" lon="6.6493">
        <ele>502</ele>
        <time>2014-10-30T11:02:51.1Z</time>
      </trkpt>
      <trkpt lat="47.83633" lon="6.64933">
        <ele>502</ele>
        <time>2014-10-30T11:02:53.1Z</time>
      </trkpt>
      <trkpt lat="47.83633" lon="6.64938">
        <ele>502</ele>
        <time>2014-10-30T11:02:56.1Z</time>
      </trkpt>
      <trkpt lat="47.83633" lon="6.64938">
        <ele>503</ele>
        <time>2014-10-30T11:02:58.1Z</time>
      </trkpt>
      <trkpt lat="47.83633" lon="6.64939">
        <ele>503</ele>
        <time>2014-10-30T11:03:01.1Z</time>
      </trkpt>
      <trkpt lat="47.83633" lon="6.64939">
        <ele>503</ele>
        <time>2014-10-30T11:03:03.1Z</time>
      </trkpt>
      <trkpt lat="47.83634" lon="6.64939">
        <ele>503</ele>
        <time>2014-10-30T11:03:06.1Z</time>
      </trkpt>
      <trkpt lat="47.83635" lon="6.64939">
        <ele>503</ele>
        <time>2014-10-30T11:03:09.1Z</time>
      </trkpt>
      <trkpt lat="47.83635" lon="6.64939">
        <ele>503</ele>
        <time>2014-10-30T11:03:11.1Z</time>
      </trkpt>
      <trkpt lat="47.83636" lon="6.64939">
        <ele>503</ele>
        <time>2014-10-30T11:03:14.1Z</time>
      </trkpt>
      <trkpt lat="47.83636" lon="6.64938">
        <ele>503</ele>
        <time>2014-10-30T11:03:17.1Z</time>
      </trkpt>
      <trkpt lat="47.83636" lon="6.64934">
        <ele>503</ele>
        <time>2014-10-30T11:03:19.1Z</time>
      </trkpt>
      <trkpt lat="47.83637" lon="6.6493">
        <ele>503</ele>
        <time>2014-10-30T11:03:21.1Z</time>
      </trkpt>
      <trkpt lat="47.83637" lon="6.64924">
        <ele>503</ele>
        <time>2014-10-30T11:03:23.1Z</time>
      </trkpt>
      <trkpt lat="47.83637" lon="6.64911">
        <ele>502</ele>
        <time>2014-10-30T11:03:26.1Z</time>
      </trkpt>
      <trkpt lat="47.83634" lon="6.64898">
        <ele>502</ele>
        <time>2014-10-30T11:03:28.1Z</time>
      </trkpt>
      <trkpt lat="47.8363" lon="6.64885">
        <ele>501</ele>
        <time>2014-10-30T11:03:30.1Z</time>
      </trkpt>
      <trkpt lat="47.83625" lon="6.64874">
        <ele>500</ele>
        <time>2014-10-30T11:03:32.1Z</time>
      </trkpt>
      <trkpt lat="47.8362" lon="6.64862">
        <ele>500</ele>
        <time>2014-10-30T11:03:34.1Z</time>
      </trkpt>
      <trkpt lat="47.8362" lon="6.6485">
        <ele>499</ele>
        <time>2014-10-30T11:03:36.1Z</time>
      </trkpt>
      <trkpt lat="47.83619" lon="6.64835">
        <ele>498</ele>
        <time>2014-10-30T11:03:39.1Z</time>
      </trkpt>
      <trkpt lat="47.83621" lon="6.6482">
        <ele>497</ele>
        <time>2014-10-30T11:03:42.1Z</time>
      </trkpt>
      <trkpt lat="47.83625" lon="6.64807">
        <ele>497</ele>
        <time>2014-10-30T11:03:45.1Z</time>
      </trkpt>
      <trkpt lat="47.83628" lon="6.64799">
        <ele>497</ele>
        <time>2014-10-30T11:03:47.1Z</time>
      </trkpt>
      <trkpt lat="47.83629" lon="6.64791">
        <ele>497</ele>
        <time>2014-10-30T11:03:49.1Z</time>
      </trkpt>
      <trkpt lat="47.83629" lon="6.64783">
        <ele>497</ele>
        <time>2014-10-30T11:03:51.1Z</time>
      </trkpt>
      <trkpt lat="47.83628" lon="6.64773">
        <ele>497</ele>
        <time>2014-10-30T11:03:53.1Z</time>
      </trkpt>
      <trkpt lat="47.83625" lon="6.64756">
        <ele>497</ele>
        <time>2014-10-30T11:03:56.1Z</time>
      </trkpt>
      <trkpt lat="47.83622" lon="6.64738">
        <ele>496</ele>
        <time>2014-10-30T11:03:59.1Z</time>
      </trkpt>
      <trkpt lat="47.8362" lon="6.64724">
        <ele>496</ele>
        <time>2014-10-30T11:04:01.1Z</time>
      </trkpt>
      <trkpt lat="47.83617" lon="6.64712">
        <ele>495</ele>
        <time>2014-10-30T11:04:03.1Z</time>
      </trkpt>
      <trkpt lat="47.83614" lon="6.647">
        <ele>495</ele>
        <time>2014-10-30T11:04:05.1Z</time>
      </trkpt>
      <trkpt lat="47.83609" lon="6.64683">
        <ele>495</ele>
        <time>2014-10-30T11:04:08.1Z</time>
      </trkpt>
      <trkpt lat="47.83605" lon="6.64674">
        <ele>495</ele>
        <time>2014-10-30T11:04:10.1Z</time>
      </trkpt>
      <trkpt lat="47.83598" lon="6.64669">
        <ele>495</ele>
        <time>2014-10-30T11:04:12.1Z</time>
      </trkpt>
      <trkpt lat="47.83591" lon="6.64672">
        <ele>496</ele>
        <time>2014-10-30T11:04:14.1Z</time>
      </trkpt>
      <trkpt lat="47.83585" lon="6.64676">
        <ele>496</ele>
        <time>2014-10-30T11:04:16.1Z</time>
      </trkpt>
      <trkpt lat="47.83579" lon="6.6468">
        <ele>496</ele>
        <time>2014-10-30T11:04:18.1Z</time>
      </trkpt>
      <trkpt lat="47.83573" lon="6.64685">
        <ele>496</ele>
        <time>2014-10-30T11:04:20.1Z</time>
      </trkpt>
      <trkpt lat="47.83561" lon="6.64691">
        <ele>496</ele>
        <time>2014-10-30T11:04:23.1Z</time>
      </trkpt>
      <trkpt lat="47.83552" lon="6.64696">
        <ele>496</ele>
        <time>2014-10-30T11:04:25.1Z</time>
      </trkpt>
      <trkpt lat="47.83538" lon="6.64703">
        <ele>495</ele>
        <time>2014-10-30T11:04:28.1Z</time>
      </trkpt>
      <trkpt lat="47.83524" lon="6.64709">
        <ele>495</ele>
        <time>2014-10-30T11:04:31.1Z</time>
      </trkpt>
      <trkpt lat="47.83515" lon="6.64713">
        <ele>495</ele>
        <time>2014-10-30T11:04:33.1Z</time>
      </trkpt>
      <trkpt lat="47.83502" lon="6.64714">
        <ele>495</ele>
        <time>2014-10-30T11:04:36.1Z</time>
      </trkpt>
      <trkpt lat="47.83491" lon="6.64707">
        <ele>495</ele>
        <time>2014-10-30T11:04:39.1Z</time>
      </trkpt>
      <trkpt lat="47.83484" lon="6.647">
        <ele>495</ele>
        <time>2014-10-30T11:04:41.1Z</time>
      </trkpt>
      <trkpt lat="47.83475" lon="6.64688">
        <ele>495</ele>
        <time>2014-10-30T11:04:44.1Z</time>
      </trkpt>
      <trkpt lat="47.83467" lon="6.64682">
        <ele>494</ele>
        <time>2014-10-30T11:04:46.1Z</time>
      </trkpt>
      <trkpt lat="47.83457" lon="6.6468">
        <ele>494</ele>
        <time>2014-10-30T11:04:49.1Z</time>
      </trkpt>
      <trkpt lat="47.83445" lon="6.64687">
        <ele>493</ele>
        <time>2014-10-30T11:04:52.1Z</time>
      </trkpt>
      <trkpt lat="47.83437" lon="6.647">
        <ele>493</ele>
        <time>2014-10-30T11:04:55.1Z</time>
      </trkpt>
      <trkpt lat="47.8343" lon="6.64713">
        <ele>493</ele>
        <time>2014-10-30T11:04:58.1Z</time>
      </trkpt>
      <trkpt lat="47.83421" lon="6.64727">
        <ele>494</ele>
        <time>2014-10-30T11:05:01.1Z</time>
      </trkpt>
      <trkpt lat="47.83415" lon="6.64737">
        <ele>494</ele>
        <time>2014-10-30T11:05:03.1Z</time>
      </trkpt>
      <trkpt lat="47.83407" lon="6.64746">
        <ele>494</ele>
        <time>2014-10-30T11:05:05.1Z</time>
      </trkpt>
      <trkpt lat="47.834" lon="6.64759">
        <ele>493</ele>
        <time>2014-10-30T11:05:07.1Z</time>
      </trkpt>
      <trkpt lat="47.83396" lon="6.64774">
        <ele>492</ele>
        <time>2014-10-30T11:05:09.1Z</time>
      </trkpt>
      <trkpt lat="47.83393" lon="6.6479">
        <ele>491</ele>
        <time>2014-10-30T11:05:11.1Z</time>
      </trkpt>
      <trkpt lat="47.83387" lon="6.64807">
        <ele>490</ele>
        <time>2014-10-30T11:05:13.1Z</time>
      </trkpt>
      <trkpt lat="47.83378" lon="6.64823">
        <ele>490</ele>
        <time>2014-10-30T11:05:16.1Z</time>
      </trkpt>
      <trkpt lat="47.83369" lon="6.64843">
        <ele>489</ele>
        <time>2014-10-30T11:05:19.1Z</time>
      </trkpt>
      <trkpt lat="47.83364" lon="6.64861">
        <ele>489</ele>
        <time>2014-10-30T11:05:21.1Z</time>
      </trkpt>
      <trkpt lat="47.83361" lon="6.64894">
        <ele>488</ele>
        <time>2014-10-30T11:05:24.1Z</time>
      </trkpt>
      <trkpt lat="47.83355" lon="6.64913">
        <ele>487</ele>
        <time>2014-10-30T11:05:26.1Z</time>
      </trkpt>
      <trkpt lat="47.83341" lon="6.64928">
        <ele>487</ele>
        <time>2014-10-30T11:05:29.1Z</time>
      </trkpt>
      <trkpt lat="47.83327" lon="6.64943">
        <ele>487</ele>
        <time>2014-10-30T11:05:32.1Z</time>
      </trkpt>
      <trkpt lat="47.83318" lon="6.64953">
        <ele>487</ele>
        <time>2014-10-30T11:05:34.1Z</time>
      </trkpt>
      <trkpt lat="47.83306" lon="6.64968">
        <ele>487</ele>
        <time>2014-10-30T11:05:37.1Z</time>
      </trkpt>
      <trkpt lat="47.83297" lon="6.64981">
        <ele>487</ele>
        <time>2014-10-30T11:05:39.1Z</time>
      </trkpt>
      <trkpt lat="47.83289" lon="6.65">
        <ele>487</ele>
        <time>2014-10-30T11:05:42.1Z</time>
      </trkpt>
      <trkpt lat="47.83281" lon="6.65016">
        <ele>488</ele>
        <time>2014-10-30T11:05:45.1Z</time>
      </trkpt>
      <trkpt lat="47.83275" lon="6.6503">
        <ele>488</ele>
        <time>2014-10-30T11:05:48.1Z</time>
      </trkpt>
      <trkpt lat="47.8327" lon="6.65039">
        <ele>489</ele>
        <time>2014-10-30T11:05:50.1Z</time>
      </trkpt>
      <trkpt lat="47.83262" lon="6.65051">
        <ele>489</ele>
        <time>2014-10-30T11:05:53.1Z</time>
      </trkpt>
      <trkpt lat="47.83255" lon="6.65063">
        <ele>490</ele>
        <time>2014-10-30T11:05:56.1Z</time>
      </trkpt>
      <trkpt lat="47.83245" lon="6.65074">
        <ele>490</ele>
        <time>2014-10-30T11:05:59.1Z</time>
      </trkpt>
      <trkpt lat="47.83235" lon="6.65083">
        <ele>491</ele>
        <time>2014-10-30T11:06:02.1Z</time>
      </trkpt>
      <trkpt lat="47.8323" lon="6.6509">
        <ele>491</ele>
        <time>2014-10-30T11:06:04.1Z</time>
      </trkpt>
      <trkpt lat="47.83223" lon="6.65101">
        <ele>492</ele>
        <time>2014-10-30T11:06:07.1Z</time>
      </trkpt>
      <trkpt lat="47.83219" lon="6.65116">
        <ele>492</ele>
        <time>2014-10-30T11:06:10.1Z</time>
      </trkpt>
      <trkpt lat="47.83218" lon="6.65127">
        <ele>493</ele>
        <time>2014-10-30T11:06:12.1Z</time>
      </trkpt>
      <trkpt lat="47.83213" lon="6.65143">
        <ele>494</ele>
        <time>2014-10-30T11:06:15.1Z</time>
      </trkpt>
      <trkpt lat="47.83207" lon="6.65157">
        <ele>494</ele>
        <time>2014-10-30T11:06:18.1Z</time>
      </trkpt>
      <trkpt lat="47.83204" lon="6.65167">
        <ele>495</ele>
        <time>2014-10-30T11:06:21.1Z</time>
      </trkpt>
      <trkpt lat="47.832" lon="6.65176">
        <ele>495</ele>
        <time>2014-10-30T11:06:23.1Z</time>
      </trkpt>
      <trkpt lat="47.83195" lon="6.6519">
        <ele>495</ele>
        <time>2014-10-30T11:06:26.1Z</time>
      </trkpt>
      <trkpt lat="47.83191" lon="6.65203">
        <ele>496</ele>
        <time>2014-10-30T11:06:29.1Z</time>
      </trkpt>
      <trkpt lat="47.83185" lon="6.65216">
        <ele>497</ele>
        <time>2014-10-30T11:06:32.1Z</time>
      </trkpt>
      <trkpt lat="47.83181" lon="6.65224">
        <ele>497</ele>
        <time>2014-10-30T11:06:34.1Z</time>
      </trkpt>
      <trkpt lat="47.83176" lon="6.65237">
        <ele>498</ele>
        <time>2014-10-30T11:06:37.1Z</time>
      </trkpt>
      <trkpt lat="47.8317" lon="6.65249">
        <ele>498</ele>
        <time>2014-10-30T11:06:40.1Z</time>
      </trkpt>
      <trkpt lat="47.83167" lon="6.65259">
        <ele>498</ele>
        <time>2014-10-30T11:06:42.1Z</time>
      </trkpt>
      <trkpt lat="47.83165" lon="6.65268">
        <ele>498</ele>
        <time>2014-10-30T11:06:44.1Z</time>
      </trkpt>
      <trkpt lat="47.83163" lon="6.65278">
        <ele>498</ele>
        <time>2014-10-30T11:06:46.1Z</time>
      </trkpt>
      <trkpt lat="47.83159" lon="6.6529">
        <ele>498</ele>
        <time>2014-10-30T11:06:49.1Z</time>
      </trkpt>
      <trkpt lat="47.83156" lon="6.65297">
        <ele>499</ele>
        <time>2014-10-30T11:06:51.1Z</time>
      </trkpt>
      <trkpt lat="47.83152" lon="6.65309">
        <ele>499</ele>
        <time>2014-10-30T11:06:54.1Z</time>
      </trkpt>
      <trkpt lat="47.83151" lon="6.65317">
        <ele>499</ele>
        <time>2014-10-30T11:06:56.1Z</time>
      </trkpt>
      <trkpt lat="47.83149" lon="6.65327">
        <ele>499</ele>
        <time>2014-10-30T11:06:58.1Z</time>
      </trkpt>
      <trkpt lat="47.83148" lon="6.65336">
        <ele>499</ele>
        <time>2014-10-30T11:07:00.1Z</time>
      </trkpt>
      <trkpt lat="47.83147" lon="6.65347">
        <ele>499</ele>
        <time>2014-10-30T11:07:02.1Z</time>
      </trkpt>
      <trkpt lat="47.83147" lon="6.65358">
        <ele>499</ele>
        <time>2014-10-30T11:07:04.1Z</time>
      </trkpt>
      <trkpt lat="47.83147" lon="6.6537">
        <ele>499</ele>
        <time>2014-10-30T11:07:06.1Z</time>
      </trkpt>
      <trkpt lat="47.83147" lon="6.65382">
        <ele>499</ele>
        <time>2014-10-30T11:07:08.1Z</time>
      </trkpt>
      <trkpt lat="47.83146" lon="6.65401">
        <ele>499</ele>
        <time>2014-10-30T11:07:11.1Z</time>
      </trkpt>
      <trkpt lat="47.83141" lon="6.65418">
        <ele>499</ele>
        <time>2014-10-30T11:07:14.1Z</time>
      </trkpt>
      <trkpt lat="47.83138" lon="6.65428">
        <ele>500</ele>
        <time>2014-10-30T11:07:16.1Z</time>
      </trkpt>
      <trkpt lat="47.83133" lon="6.65444">
        <ele>500</ele>
        <time>2014-10-30T11:07:19.1Z</time>
      </trkpt>
      <trkpt lat="47.83129" lon="6.65457">
        <ele>500</ele>
        <time>2014-10-30T11:07:21.1Z</time>
      </trkpt>
      <trkpt lat="47.83126" lon="6.65469">
        <ele>499</ele>
        <time>2014-10-30T11:07:23.1Z</time>
      </trkpt>
      <trkpt lat="47.83121" lon="6.65485">
        <ele>499</ele>
        <time>2014-10-30T11:07:26.1Z</time>
      </trkpt>
      <trkpt lat="47.83118" lon="6.65495">
        <ele>499</ele>
        <time>2014-10-30T11:07:28.1Z</time>
      </trkpt>
      <trkpt lat="47.83111" lon="6.6551">
        <ele>499</ele>
        <time>2014-10-30T11:07:31.1Z</time>
      </trkpt>
      <trkpt lat="47.83107" lon="6.65521">
        <ele>499</ele>
        <time>2014-10-30T11:07:33.1Z</time>
      </trkpt>
      <trkpt lat="47.83101" lon="6.65534">
        <ele>499</ele>
        <time>2014-10-30T11:07:36.1Z</time>
      </trkpt>
      <trkpt lat="47.83095" lon="6.65548">
        <ele>500</ele>
        <time>2014-10-30T11:07:39.1Z</time>
      </trkpt>
      <trkpt lat="47.83091" lon="6.65558">
        <ele>500</ele>
        <time>2014-10-30T11:07:41.1Z</time>
      </trkpt>
      <trkpt lat="47.83086" lon="6.65575">
        <ele>500</ele>
        <time>2014-10-30T11:07:44.1Z</time>
      </trkpt>
      <trkpt lat="47.83085" lon="6.65587">
        <ele>500</ele>
        <time>2014-10-30T11:07:46.1Z</time>
      </trkpt>
      <trkpt lat="47.83086" lon="6.65604">
        <ele>500</ele>
        <time>2014-10-30T11:07:49.1Z</time>
      </trkpt>
      <trkpt lat="47.83088" lon="6.6562">
        <ele>501</ele>
        <time>2014-10-30T11:07:52.1Z</time>
      </trkpt>
      <trkpt lat="47.83091" lon="6.65629">
        <ele>501</ele>
        <time>2014-10-30T11:07:54.1Z</time>
      </trkpt>
      <trkpt lat="47.83094" lon="6.65638">
        <ele>500</ele>
        <time>2014-10-30T11:07:56.1Z</time>
      </trkpt>
      <trkpt lat="47.83097" lon="6.65646">
        <ele>501</ele>
        <time>2014-10-30T11:07:58.1Z</time>
      </trkpt>
      <trkpt lat="47.83098" lon="6.65654">
        <ele>501</ele>
        <time>2014-10-30T11:08:01.1Z</time>
      </trkpt>
      <trkpt lat="47.83099" lon="6.6566">
        <ele>502</ele>
        <time>2014-10-30T11:08:03.1Z</time>
      </trkpt>
      <trkpt lat="47.83098" lon="6.65668">
        <ele>502</ele>
        <time>2014-10-30T11:08:06.1Z</time>
      </trkpt>
      <trkpt lat="47.83098" lon="6.65677">
        <ele>502</ele>
        <time>2014-10-30T11:08:09.1Z</time>
      </trkpt>
      <trkpt lat="47.83097" lon="6.65684">
        <ele>502</ele>
        <time>2014-10-30T11:08:11.1Z</time>
      </trkpt>
      <trkpt lat="47.83097" lon="6.65695">
        <ele>502</ele>
        <time>2014-10-30T11:08:14.1Z</time>
      </trkpt>
      <trkpt lat="47.83096" lon="6.65704">
        <ele>502</ele>
        <time>2014-10-30T11:08:16.1Z</time>
      </trkpt>
      <trkpt lat="47.83094" lon="6.65715">
        <ele>503</ele>
        <time>2014-10-30T11:08:19.1Z</time>
      </trkpt>
      <trkpt lat="47.83091" lon="6.65728">
        <ele>503</ele>
        <time>2014-10-30T11:08:22.1Z</time>
      </trkpt>
      <trkpt lat="47.83088" lon="6.65738">
        <ele>503</ele>
        <time>2014-10-30T11:08:24.1Z</time>
      </trkpt>
      <trkpt lat="47.83081" lon="6.65754">
        <ele>502</ele>
        <time>2014-10-30T11:08:27.1Z</time>
      </trkpt>
      <trkpt lat="47.83071" lon="6.65771">
        <ele>501</ele>
        <time>2014-10-30T11:08:30.1Z</time>
      </trkpt>
      <trkpt lat="47.83067" lon="6.65784">
        <ele>501</ele>
        <time>2014-10-30T11:08:32.1Z</time>
      </trkpt>
      <trkpt lat="47.83064" lon="6.65796">
        <ele>501</ele>
        <time>2014-10-30T11:08:34.1Z</time>
      </trkpt>
      <trkpt lat="47.8306" lon="6.65816">
        <ele>501</ele>
        <time>2014-10-30T11:08:37.1Z</time>
      </trkpt>
      <trkpt lat="47.83058" lon="6.6584">
        <ele>501</ele>
        <time>2014-10-30T11:08:40.1Z</time>
      </trkpt>
      <trkpt lat="47.83057" lon="6.65854">
        <ele>501</ele>
        <time>2014-10-30T11:08:42.1Z</time>
      </trkpt>
      <trkpt lat="47.83058" lon="6.65868">
        <ele>502</ele>
        <time>2014-10-30T11:08:44.1Z</time>
      </trkpt>
      <trkpt lat="47.83057" lon="6.65882">
        <ele>502</ele>
        <time>2014-10-30T11:08:46.1Z</time>
      </trkpt>
      <trkpt lat="47.83055" lon="6.65899">
        <ele>503</ele>
        <time>2014-10-30T11:08:49.1Z</time>
      </trkpt>
      <trkpt lat="47.83054" lon="6.65914">
        <ele>503</ele>
        <time>2014-10-30T11:08:52.1Z</time>
      </trkpt>
      <trkpt lat="47.83052" lon="6.65923">
        <ele>503</ele>
        <time>2014-10-30T11:08:54.1Z</time>
      </trkpt>
      <trkpt lat="47.83049" lon="6.65932">
        <ele>504</ele>
        <time>2014-10-30T11:08:57.1Z</time>
      </trkpt>
      <trkpt lat="47.83048" lon="6.65938">
        <ele>504</ele>
        <time>2014-10-30T11:09:00.1Z</time>
      </trkpt>
      <trkpt lat="47.83046" lon="6.65941">
        <ele>504</ele>
        <time>2014-10-30T11:09:03.1Z</time>
      </trkpt>
      <trkpt lat="47.83047" lon="6.65943">
        <ele>504</ele>
        <time>2014-10-30T11:09:05.1Z</time>
      </trkpt>
      <trkpt lat="47.83051" lon="6.65942">
        <ele>504</ele>
        <time>2014-10-30T11:09:08.1Z</time>
      </trkpt>
      <trkpt lat="47.83054" lon="6.65945">
        <ele>505</ele>
        <time>2014-10-30T11:09:10.1Z</time>
      </trkpt>
      <trkpt lat="47.83055" lon="6.6595">
        <ele>505</ele>
        <time>2014-10-30T11:09:12.1Z</time>
      </trkpt>
      <trkpt lat="47.83056" lon="6.65955">
        <ele>505</ele>
        <time>2014-10-30T11:09:14.1Z</time>
      </trkpt>
      <trkpt lat="47.83058" lon="6.65961">
        <ele>506</ele>
        <time>2014-10-30T11:09:17.1Z</time>
      </trkpt>
      <trkpt lat="47.83058" lon="6.65966">
        <ele>506</ele>
        <time>2014-10-30T11:09:19.1Z</time>
      </trkpt>
      <trkpt lat="47.83058" lon="6.6597">
        <ele>507</ele>
        <time>2014-10-30T11:09:21.1Z</time>
      </trkpt>
      <trkpt lat="47.83059" lon="6.65976">
        <ele>507</ele>
        <time>2014-10-30T11:09:23.1Z</time>
      </trkpt>
      <trkpt lat="47.83059" lon="6.6598">
        <ele>508</ele>
        <time>2014-10-30T11:09:25.1Z</time>
      </trkpt>
      <trkpt lat="47.83059" lon="6.65985">
        <ele>508</ele>
        <time>2014-10-30T11:09:27.1Z</time>
      </trkpt>
      <trkpt lat="47.83059" lon="6.6599">
        <ele>508</ele>
        <time>2014-10-30T11:09:29.1Z</time>
      </trkpt>
      <trkpt lat="47.8306" lon="6.65995">
        <ele>509</ele>
        <time>2014-10-30T11:09:31.1Z</time>
      </trkpt>
      <trkpt lat="47.83061" lon="6.66001">
        <ele>509</ele>
        <time>2014-10-30T11:09:34.1Z</time>
      </trkpt>
      <trkpt lat="47.83063" lon="6.66006">
        <ele>510</ele>
        <time>2014-10-30T11:09:37.1Z</time>
      </trkpt>
      <trkpt lat="47.83064" lon="6.6601">
        <ele>510</ele>
        <time>2014-10-30T11:09:39.1Z</time>
      </trkpt>
      <trkpt lat="47.83065" lon="6.66014">
        <ele>511</ele>
        <time>2014-10-30T11:09:41.1Z</time>
      </trkpt>
      <trkpt lat="47.83065" lon="6.66018">
        <ele>511</ele>
        <time>2014-10-30T11:09:43.1Z</time>
      </trkpt>
      <trkpt lat="47.83067" lon="6.66022">
        <ele>511</ele>
        <time>2014-10-30T11:09:45.1Z</time>
      </trkpt>
      <trkpt lat="47.83068" lon="6.66027">
        <ele>511</ele>
        <time>2014-10-30T11:09:47.1Z</time>
      </trkpt>
      <trkpt lat="47.83068" lon="6.66032">
        <ele>512</ele>
        <time>2014-10-30T11:09:49.1Z</time>
      </trkpt>
      <trkpt lat="47.8307" lon="6.66038">
        <ele>512</ele>
        <time>2014-10-30T11:09:52.1Z</time>
      </trkpt>
      <trkpt lat="47.8307" lon="6.66043">
        <ele>513</ele>
        <time>2014-10-30T11:09:54.1Z</time>
      </trkpt>
      <trkpt lat="47.83072" lon="6.6605">
        <ele>513</ele>
        <time>2014-10-30T11:09:57.1Z</time>
      </trkpt>
      <trkpt lat="47.83073" lon="6.66055">
        <ele>514</ele>
        <time>2014-10-30T11:09:59.1Z</time>
      </trkpt>
      <trkpt lat="47.83074" lon="6.66063">
        <ele>514</ele>
        <time>2014-10-30T11:10:02.1Z</time>
      </trkpt>
      <trkpt lat="47.83074" lon="6.66069">
        <ele>514</ele>
        <time>2014-10-30T11:10:04.1Z</time>
      </trkpt>
      <trkpt lat="47.83075" lon="6.66077">
        <ele>514</ele>
        <time>2014-10-30T11:10:07.1Z</time>
      </trkpt>
      <trkpt lat="47.83076" lon="6.66082">
        <ele>514</ele>
        <time>2014-10-30T11:10:09.1Z</time>
      </trkpt>
      <trkpt lat="47.83077" lon="6.66091">
        <ele>515</ele>
        <time>2014-10-30T11:10:12.1Z</time>
      </trkpt>
      <trkpt lat="47.83078" lon="6.66099">
        <ele>515</ele>
        <time>2014-10-30T11:10:15.1Z</time>
      </trkpt>
      <trkpt lat="47.83078" lon="6.66104">
        <ele>515</ele>
        <time>2014-10-30T11:10:17.1Z</time>
      </trkpt>
      <trkpt lat="47.8308" lon="6.66112">
        <ele>515</ele>
        <time>2014-10-30T11:10:20.1Z</time>
      </trkpt>
      <trkpt lat="47.8308" lon="6.66117">
        <ele>515</ele>
        <time>2014-10-30T11:10:22.1Z</time>
      </trkpt>
      <trkpt lat="47.83081" lon="6.66125">
        <ele>516</ele>
        <time>2014-10-30T11:10:25.1Z</time>
      </trkpt>
      <trkpt lat="47.83083" lon="6.6613">
        <ele>516</ele>
        <time>2014-10-30T11:10:27.1Z</time>
      </trkpt>
      <trkpt lat="47.83083" lon="6.66135">
        <ele>516</ele>
        <time>2014-10-30T11:10:29.1Z</time>
      </trkpt>
      <trkpt lat="47.83084" lon="6.66143">
        <ele>517</ele>
        <time>2014-10-30T11:10:32.1Z</time>
      </trkpt>
      <trkpt lat="47.83085" lon="6.6615">
        <ele>517</ele>
        <time>2014-10-30T11:10:35.1Z</time>
      </trkpt>
      <trkpt lat="47.83087" lon="6.66155">
        <ele>517</ele>
        <time>2014-10-30T11:10:37.1Z</time>
      </trkpt>
      <trkpt lat="47.8309" lon="6.66162">
        <ele>518</ele>
        <time>2014-10-30T11:10:40.1Z</time>
      </trkpt>
      <trkpt lat="47.83093" lon="6.66166">
        <ele>518</ele>
        <time>2014-10-30T11:10:42.1Z</time>
      </trkpt>
      <trkpt lat="47.83097" lon="6.66172">
        <ele>519</ele>
        <time>2014-10-30T11:10:45.1Z</time>
      </trkpt>
      <trkpt lat="47.831" lon="6.66174">
        <ele>519</ele>
        <time>2014-10-30T11:10:47.1Z</time>
      </trkpt>
      <trkpt lat="47.83104" lon="6.66177">
        <ele>519</ele>
        <time>2014-10-30T11:10:49.1Z</time>
      </trkpt>
      <trkpt lat="47.8311" lon="6.6618">
        <ele>519</ele>
        <time>2014-10-30T11:10:52.1Z</time>
      </trkpt>
      <trkpt lat="47.83115" lon="6.6618">
        <ele>519</ele>
        <time>2014-10-30T11:10:54.1Z</time>
      </trkpt>
      <trkpt lat="47.8312" lon="6.66179">
        <ele>519</ele>
        <time>2014-10-30T11:10:56.1Z</time>
      </trkpt>
      <trkpt lat="47.83125" lon="6.66177">
        <ele>519</ele>
        <time>2014-10-30T11:10:59.1Z</time>
      </trkpt>
      <trkpt lat="47.83128" lon="6.66175">
        <ele>519</ele>
        <time>2014-10-30T11:11:01.1Z</time>
      </trkpt>
      <trkpt lat="47.83133" lon="6.66173">
        <ele>520</ele>
        <time>2014-10-30T11:11:03.1Z</time>
      </trkpt>
      <trkpt lat="47.8314" lon="6.66168">
        <ele>520</ele>
        <time>2014-10-30T11:11:06.1Z</time>
      </trkpt>
      <trkpt lat="47.83147" lon="6.66159">
        <ele>520</ele>
        <time>2014-10-30T11:11:09.1Z</time>
      </trkpt>
      <trkpt lat="47.8315" lon="6.66152">
        <ele>519</ele>
        <time>2014-10-30T11:11:11.1Z</time>
      </trkpt>
      <trkpt lat="47.83156" lon="6.66145">
        <ele>519</ele>
        <time>2014-10-30T11:11:14.1Z</time>
      </trkpt>
      <trkpt lat="47.83158" lon="6.66144">
        <ele>520</ele>
        <time>2014-10-30T11:11:16.1Z</time>
      </trkpt>
      <trkpt lat="47.83158" lon="6.66144">
        <ele>520</ele>
        <time>2014-10-30T11:11:18.1Z</time>
      </trkpt>
      <trkpt lat="47.83159" lon="6.66144">
        <ele>520</ele>
        <time>2014-10-30T11:11:21.1Z</time>
      </trkpt>
      <trkpt lat="47.8316" lon="6.66144">
        <ele>520</ele>
        <time>2014-10-30T11:11:23.1Z</time>
      </trkpt>
      <trkpt lat="47.83161" lon="6.66144">
        <ele>520</ele>
        <time>2014-10-30T11:11:26.1Z</time>
      </trkpt>
      <trkpt lat="47.83161" lon="6.66143">
        <ele>520</ele>
        <time>2014-10-30T11:11:28.1Z</time>
      </trkpt>
      <trkpt lat="47.83161" lon="6.66143">
        <ele>520</ele>
        <time>2014-10-30T11:11:30.1Z</time>
      </trkpt>
      <trkpt lat="47.83164" lon="6.66135">
        <ele>520</ele>
        <time>2014-10-30T11:11:33.1Z</time>
      </trkpt>
      <trkpt lat="47.83167" lon="6.66128">
        <ele>520</ele>
        <time>2014-10-30T11:11:35.1Z</time>
      </trkpt>
      <trkpt lat="47.83174" lon="6.66117">
        <ele>520</ele>
        <time>2014-10-30T11:11:38.1Z</time>
      </trkpt>
      <trkpt lat="47.8318" lon="6.66111">
        <ele>520</ele>
        <time>2014-10-30T11:11:40.1Z</time>
      </trkpt>
      <trkpt lat="47.83185" lon="6.66109">
        <ele>520</ele>
        <time>2014-10-30T11:11:42.1Z</time>
      </trkpt>
      <trkpt lat="47.83186" lon="6.66109">
        <ele>521</ele>
        <time>2014-10-30T11:11:44.1Z</time>
      </trkpt>
      <trkpt lat="47.83186" lon="6.66109">
        <ele>521</ele>
        <time>2014-10-30T11:11:47.1Z</time>
      </trkpt>
      <trkpt lat="47.83186" lon="6.66108">
        <ele>521</ele>
        <time>2014-10-30T11:11:49.1Z</time>
      </trkpt>
      <trkpt lat="47.83187" lon="6.66108">
        <ele>520</ele>
        <time>2014-10-30T11:11:52.1Z</time>
      </trkpt>
      <trkpt lat="47.83187" lon="6.66107">
        <ele>521</ele>
        <time>2014-10-30T11:11:55.1Z</time>
      </trkpt>
      <trkpt lat="47.83186" lon="6.66107">
        <ele>520</ele>
        <time>2014-10-30T11:11:58.1Z</time>
      </trkpt>
      <trkpt lat="47.83191" lon="6.66104">
        <ele>521</ele>
        <time>2014-10-30T11:12:01.1Z</time>
      </trkpt>
      <trkpt lat="47.83197" lon="6.66098">
        <ele>521</ele>
        <time>2014-10-30T11:12:03.1Z</time>
      </trkpt>
      <trkpt lat="47.83208" lon="6.66092">
        <ele>520</ele>
        <time>2014-10-30T11:12:06.1Z</time>
      </trkpt>
      <trkpt lat="47.83218" lon="6.66093">
        <ele>520</ele>
        <time>2014-10-30T11:12:08.1Z</time>
      </trkpt>
      <trkpt lat="47.83227" lon="6.66098">
        <ele>520</ele>
        <time>2014-10-30T11:12:10.1Z</time>
      </trkpt>
      <trkpt lat="47.83238" lon="6.66111">
        <ele>520</ele>
        <time>2014-10-30T11:12:13.1Z</time>
      </trkpt>
      <trkpt lat="47.8325" lon="6.66122">
        <ele>521</ele>
        <time>2014-10-30T11:12:16.1Z</time>
      </trkpt>
      <trkpt lat="47.83262" lon="6.66124">
        <ele>520</ele>
        <time>2014-10-30T11:12:19.1Z</time>
      </trkpt>
      <trkpt lat="47.83264" lon="6.6613">
        <ele>520</ele>
        <time>2014-10-30T11:12:22.1Z</time>
      </trkpt>
      <trkpt lat="47.83262" lon="6.66138">
        <ele>520</ele>
        <time>2014-10-30T11:12:25.1Z</time>
      </trkpt>
      <trkpt lat="47.83263" lon="6.66151">
        <ele>520</ele>
        <time>2014-10-30T11:12:28.1Z</time>
      </trkpt>
      <trkpt lat="47.83263" lon="6.66162">
        <ele>520</ele>
        <time>2014-10-30T11:12:30.1Z</time>
      </trkpt>
      <trkpt lat="47.83263" lon="6.66181">
        <ele>520</ele>
        <time>2014-10-30T11:12:33.1Z</time>
      </trkpt>
      <trkpt lat="47.83263" lon="6.66191">
        <ele>520</ele>
        <time>2014-10-30T11:12:35.1Z</time>
      </trkpt>
      <trkpt lat="47.83263" lon="6.66202">
        <ele>520</ele>
        <time>2014-10-30T11:12:38.1Z</time>
      </trkpt>
      <trkpt lat="47.83262" lon="6.66203">
        <ele>520</ele>
        <time>2014-10-30T11:12:40.1Z</time>
      </trkpt>
      <trkpt lat="47.83262" lon="6.66205">
        <ele>520</ele>
        <time>2014-10-30T11:12:43.1Z</time>
      </trkpt>
      <trkpt lat="47.83263" lon="6.66205">
        <ele>520</ele>
        <time>2014-10-30T11:12:45.1Z</time>
      </trkpt>
      <trkpt lat="47.83263" lon="6.66206">
        <ele>520</ele>
        <time>2014-10-30T11:12:47.1Z</time>
      </trkpt>
      <trkpt lat="47.83263" lon="6.66206">
        <ele>520</ele>
        <time>2014-10-30T11:12:50.1Z</time>
      </trkpt>
      <trkpt lat="47.83263" lon="6.66207">
        <ele>520</ele>
        <time>2014-10-30T11:12:53.1Z</time>
      </trkpt>
      <trkpt lat="47.83263" lon="6.66207">
        <ele>521</ele>
        <time>2014-10-30T11:12:56.1Z</time>
      </trkpt>
      <trkpt lat="47.83263" lon="6.66208">
        <ele>521</ele>
        <time>2014-10-30T11:12:58.1Z</time>
      </trkpt>
      <trkpt lat="47.83263" lon="6.66208">
        <ele>521</ele>
        <time>2014-10-30T11:13:00.1Z</time>
      </trkpt>
      <trkpt lat="47.83263" lon="6.66209">
        <ele>521</ele>
        <time>2014-10-30T11:13:02.1Z</time>
      </trkpt>
      <trkpt lat="47.83263" lon="6.6621">
        <ele>521</ele>
        <time>2014-10-30T11:13:04.1Z</time>
      </trkpt>
      <trkpt lat="47.83263" lon="6.6621">
        <ele>521</ele>
        <time>2014-10-30T11:13:07.1Z</time>
      </trkpt>
      <trkpt lat="47.83263" lon="6.6621">
        <ele>520</ele>
        <time>2014-10-30T11:13:09.1Z</time>
      </trkpt>
      <trkpt lat="47.83263" lon="6.66211">
        <ele>520</ele>
        <time>2014-10-30T11:13:11.1Z</time>
      </trkpt>
      <trkpt lat="47.83263" lon="6.66211">
        <ele>520</ele>
        <time>2014-10-30T11:13:14.1Z</time>
      </trkpt>
      <trkpt lat="47.83263" lon="6.66211">
        <ele>520</ele>
        <time>2014-10-30T11:13:16.1Z</time>
      </trkpt>
      <trkpt lat="47.83262" lon="6.66212">
        <ele>520</ele>
        <time>2014-10-30T11:13:18.1Z</time>
      </trkpt>
      <trkpt lat="47.83262" lon="6.66212">
        <ele>520</ele>
        <time>2014-10-30T11:13:20.1Z</time>
      </trkpt>
      <trkpt lat="47.83262" lon="6.66212">
        <ele>521</ele>
        <time>2014-10-30T11:13:24.1Z</time>
      </trkpt>
      <trkpt lat="47.83262" lon="6.66212">
        <ele>520</ele>
        <time>2014-10-30T11:13:27.1Z</time>
      </trkpt>
      <trkpt lat="47.83262" lon="6.66212">
        <ele>521</ele>
        <time>2014-10-30T11:13:29.1Z</time>
      </trkpt>
      <trkpt lat="47.83262" lon="6.66212">
        <ele>521</ele>
        <time>2014-10-30T11:13:32.1Z</time>
      </trkpt>
      <trkpt lat="47.83263" lon="6.66212">
        <ele>521</ele>
        <time>2014-10-30T11:13:35.1Z</time>
      </trkpt>
      <trkpt lat="47.83263" lon="6.66212">
        <ele>521</ele>
        <time>2014-10-30T11:13:37.1Z</time>
      </trkpt>
      <trkpt lat="47.83263" lon="6.66212">
        <ele>521</ele>
        <time>2014-10-30T11:13:40.1Z</time>
      </trkpt>
      <trkpt lat="47.83263" lon="6.66212">
        <ele>521</ele>
        <time>2014-10-30T11:13:43.1Z</time>
      </trkpt>
      <trkpt lat="47.83263" lon="6.66212">
        <ele>521</ele>
        <time>2014-10-30T11:13:45.1Z</time>
      </trkpt>
      <trkpt lat="47.83262" lon="6.66213">
        <ele>521</ele>
        <time>2014-10-30T11:13:48.1Z</time>
      </trkpt>
      <trkpt lat="47.83263" lon="6.66215">
        <ele>520</ele>
        <time>2014-10-30T11:13:51.1Z</time>
      </trkpt>
      <trkpt lat="47.83263" lon="6.66215">
        <ele>520</ele>
        <time>2014-10-30T11:13:53.1Z</time>
      </trkpt>
      <trkpt lat="47.83265" lon="6.66214">
        <ele>520</ele>
        <time>2014-10-30T11:13:56.1Z</time>
      </trkpt>
      <trkpt lat="47.83265" lon="6.66215">
        <ele>520</ele>
        <time>2014-10-30T11:14:00.1Z</time>
      </trkpt>
      <trkpt lat="47.83265" lon="6.66215">
        <ele>521</ele>
        <time>2014-10-30T11:14:04.1Z</time>
      </trkpt>
      <trkpt lat="47.83265" lon="6.66216">
        <ele>521</ele>
        <time>2014-10-30T11:14:07.1Z</time>
      </trkpt>
      <trkpt lat="47.83265" lon="6.66216">
        <ele>521</ele>
        <time>2014-10-30T11:14:09.1Z</time>
      </trkpt>
      <trkpt lat="47.83265" lon="6.66217">
        <ele>521</ele>
        <time>2014-10-30T11:14:11.1Z</time>
      </trkpt>
      <trkpt lat="47.83264" lon="6.66217">
        <ele>521</ele>
        <time>2014-10-30T11:14:13.1Z</time>
      </trkpt>
      <trkpt lat="47.83263" lon="6.6622">
        <ele>520</ele>
        <time>2014-10-30T11:14:16.1Z</time>
      </trkpt>
      <trkpt lat="47.83261" lon="6.66221">
        <ele>520</ele>
        <time>2014-10-30T11:14:19.1Z</time>
      </trkpt>
      <trkpt lat="47.83259" lon="6.66221">
        <ele>520</ele>
        <time>2014-10-30T11:14:21.1Z</time>
      </trkpt>
      <trkpt lat="47.83255" lon="6.66221">
        <ele>521</ele>
        <time>2014-10-30T11:14:24.1Z</time>
      </trkpt>
      <trkpt lat="47.83252" lon="6.6622">
        <ele>521</ele>
        <time>2014-10-30T11:14:27.1Z</time>
      </trkpt>
      <trkpt lat="47.83251" lon="6.66218">
        <ele>521</ele>
        <time>2014-10-30T11:14:29.1Z</time>
      </trkpt>
      <trkpt lat="47.83249" lon="6.66215">
        <ele>521</ele>
        <time>2014-10-30T11:14:32.1Z</time>
      </trkpt>
      <trkpt lat="47.83248" lon="6.66211">
        <ele>521</ele>
        <time>2014-10-30T11:14:35.1Z</time>
      </trkpt>
      <trkpt lat="47.83247" lon="6.66208">
        <ele>521</ele>
        <time>2014-10-30T11:14:37.1Z</time>
      </trkpt>
      <trkpt lat="47.83245" lon="6.66205">
        <ele>521</ele>
        <time>2014-10-30T11:14:40.1Z</time>
      </trkpt>
      <trkpt lat="47.83243" lon="6.66204">
        <ele>521</ele>
        <time>2014-10-30T11:14:43.1Z</time>
      </trkpt>
      <trkpt lat="47.83243" lon="6.66203">
        <ele>521</ele>
        <time>2014-10-30T11:14:46.1Z</time>
      </trkpt>
      <trkpt lat="47.83243" lon="6.66202">
        <ele>521</ele>
        <time>2014-10-30T11:14:48.1Z</time>
      </trkpt>
      <trkpt lat="47.83242" lon="6.66201">
        <ele>521</ele>
        <time>2014-10-30T11:14:51.1Z</time>
      </trkpt>
      <trkpt lat="47.83242" lon="6.662">
        <ele>521</ele>
        <time>2014-10-30T11:14:54.1Z</time>
      </trkpt>
      <trkpt lat="47.83241" lon="6.66199">
        <ele>521</ele>
        <time>2014-10-30T11:14:56.1Z</time>
      </trkpt>
      <trkpt lat="47.83241" lon="6.66198">
        <ele>521</ele>
        <time>2014-10-30T11:14:59.1Z</time>
      </trkpt>
      <trkpt lat="47.8324" lon="6.66197">
        <ele>521</ele>
        <time>2014-10-30T11:15:02.1Z</time>
      </trkpt>
      <trkpt lat="47.8324" lon="6.66196">
        <ele>521</ele>
        <time>2014-10-30T11:15:05.1Z</time>
      </trkpt>
      <trkpt lat="47.83239" lon="6.66195">
        <ele>521</ele>
        <time>2014-10-30T11:15:08.1Z</time>
      </trkpt>
      <trkpt lat="47.83241" lon="6.66195">
        <ele>521</ele>
        <time>2014-10-30T11:15:11.1Z</time>
      </trkpt>
      <trkpt lat="47.83242" lon="6.66196">
        <ele>521</ele>
        <time>2014-10-30T11:15:14.1Z</time>
      </trkpt>
      <trkpt lat="47.83242" lon="6.66195">
        <ele>521</ele>
        <time>2014-10-30T11:15:18.1Z</time>
      </trkpt>
      <trkpt lat="47.83241" lon="6.66195">
        <ele>521</ele>
        <time>2014-10-30T11:15:21.1Z</time>
      </trkpt>
      <trkpt lat="47.83241" lon="6.66195">
        <ele>521</ele>
        <time>2014-10-30T11:15:23.1Z</time>
      </trkpt>
      <trkpt lat="47.83241" lon="6.66194">
        <ele>521</ele>
        <time>2014-10-30T11:15:26.1Z</time>
      </trkpt>
      <trkpt lat="47.8324" lon="6.66194">
        <ele>521</ele>
        <time>2014-10-30T11:15:29.1Z</time>
      </trkpt>
      <trkpt lat="47.8324" lon="6.66193">
        <ele>521</ele>
        <time>2014-10-30T11:15:31.1Z</time>
      </trkpt>
      <trkpt lat="47.83241" lon="6.66194">
        <ele>521</ele>
        <time>2014-10-30T11:15:35.1Z</time>
      </trkpt>
      <trkpt lat="47.83241" lon="6.66193">
        <ele>521</ele>
        <time>2014-10-30T11:15:38.1Z</time>
      </trkpt>
      <trkpt lat="47.83241" lon="6.66193">
        <ele>521</ele>
        <time>2014-10-30T11:15:41.1Z</time>
      </trkpt>
      <trkpt lat="47.83241" lon="6.66193">
        <ele>521</ele>
        <time>2014-10-30T11:15:43.1Z</time>
      </trkpt>
      <trkpt lat="47.83241" lon="6.66193">
        <ele>521</ele>
        <time>2014-10-30T11:15:47.1Z</time>
      </trkpt>
      <trkpt lat="47.83242" lon="6.66193">
        <ele>521</ele>
        <time>2014-10-30T11:15:51.1Z</time>
      </trkpt>
      <trkpt lat="47.83242" lon="6.66193">
        <ele>521</ele>
        <time>2014-10-30T11:15:52.1Z</time>
      </trkpt>
    </trkseg>
  </trk>
</gpx>